<?xml version="1.0" encoding="UTF-8" standalone="no" ?>
<gpx xmlns="http://www.topografix.com/GPX/1/1" xmlns:xsi="http://www.w3.org/2001/XMLSchema-instance" xsi:schemaLocation="http://www.topografix.com/GPX/1/1 http://www.topografix.com/GPX/1/1/gpx.xsd" version="1.1" creator="VisuGPX - https://www.visugpx.com">
  <metadata>
    <name>VTT en Montagne Noire au départ de Massaguel</name>
    <desc><![CDATA[Florilège de beaux sentiers et singles entre Massaguel, Arfons, Dourgne.
Circuit composé de plusieurs boucles à faire dans le bon sens pour profiter des descentes proposées.
La première boucle après la Pouzaque qui descend vers Escoussens est à faire par la droite (sens anti-horaire) pour aller chercher une superbe descente.
Au deuxième passage à La Pouzaque, très joli site, on part un peu sur la gauche pour redescendre sur Massaguel avant d'aller chercher les plus gros dénivelés. Montée par le goudron par le route du Pas de Sant que l'on quitte pour une forestière qui nous mène par la droite sur le plateau du Désert de Saint-Ferréol où l'on reviendra en fin de circuit.
On passe au lieu-dit La Fromatgé neuf pour rejoindre la Croix des Fangasses et ensuite à droite la très jolie descente facile et ludique à travers bois vers Arfons.
On revient ensuite à la Croix des Fangasses pour partir à droite faire une superbe descente pour remonter sur le Désert de Saint-Ferréol et faire une halte à la Chapelle de Saint-Ferréol avant la dernière descente sur Massaguel.
Très beau circuit, une grande variété de terrains, du dénivelé, des superbes panoramas, du single, de belles descentes, du technique, de quoi se faire plaisir en VTT.

Thierry
]]></desc>
  </metadata>
  <trk>
    <name><![CDATA[Tracé]]></name>
    <trkseg>
      <trkpt lat="43.49254" lon="2.16088">
        <ele>292.38</ele>
        <time>2019-12-21T08:17:06Z</time>
      </trkpt>
      <trkpt lat="43.49253" lon="2.16092">
        <ele>292.38</ele>
        <time>2019-12-21T08:17:07Z</time>
      </trkpt>
      <trkpt lat="43.49252" lon="2.16095">
        <ele>291.9</ele>
        <time>2019-12-21T08:17:08Z</time>
      </trkpt>
      <trkpt lat="43.49251" lon="2.16098">
        <ele>291.42</ele>
        <time>2019-12-21T08:17:09Z</time>
      </trkpt>
      <trkpt lat="43.49249" lon="2.161">
        <ele>292.38</ele>
        <time>2019-12-21T08:17:10Z</time>
      </trkpt>
      <trkpt lat="43.49246" lon="2.16102">
        <ele>292.38</ele>
        <time>2019-12-21T08:17:11Z</time>
      </trkpt>
      <trkpt lat="43.49243" lon="2.16104">
        <ele>292.86</ele>
        <time>2019-12-21T08:17:12Z</time>
      </trkpt>
      <trkpt lat="43.49241" lon="2.16107">
        <ele>292.38</ele>
        <time>2019-12-21T08:17:13Z</time>
      </trkpt>
      <trkpt lat="43.49238" lon="2.16111">
        <ele>292.38</ele>
        <time>2019-12-21T08:17:14Z</time>
      </trkpt>
      <trkpt lat="43.49204" lon="2.16144">
        <ele>289.01</ele>
        <time>2019-12-21T08:17:23Z</time>
      </trkpt>
      <trkpt lat="43.492" lon="2.16148">
        <ele>289.01</ele>
        <time>2019-12-21T08:17:24Z</time>
      </trkpt>
      <trkpt lat="43.49188" lon="2.16159">
        <ele>287.09</ele>
        <time>2019-12-21T08:17:28Z</time>
      </trkpt>
      <trkpt lat="43.49189" lon="2.16164">
        <ele>286.61</ele>
        <time>2019-12-21T08:17:41Z</time>
      </trkpt>
      <trkpt lat="43.4919" lon="2.16166">
        <ele>286.61</ele>
        <time>2019-12-21T08:17:42Z</time>
      </trkpt>
      <trkpt lat="43.49192" lon="2.16168">
        <ele>287.09</ele>
        <time>2019-12-21T08:17:43Z</time>
      </trkpt>
      <trkpt lat="43.49195" lon="2.16171">
        <ele>287.09</ele>
        <time>2019-12-21T08:17:44Z</time>
      </trkpt>
      <trkpt lat="43.49212" lon="2.16194">
        <ele>287.57</ele>
        <time>2019-12-21T08:18:22Z</time>
      </trkpt>
      <trkpt lat="43.49216" lon="2.16195">
        <ele>287.57</ele>
        <time>2019-12-21T08:18:24Z</time>
      </trkpt>
      <trkpt lat="43.49237" lon="2.16205">
        <ele>286.61</ele>
        <time>2019-12-21T08:18:32Z</time>
      </trkpt>
      <trkpt lat="43.49239" lon="2.16208">
        <ele>286.61</ele>
        <time>2019-12-21T08:18:33Z</time>
      </trkpt>
      <trkpt lat="43.49272" lon="2.16309">
        <ele>288.53</ele>
        <time>2019-12-21T08:18:54Z</time>
      </trkpt>
      <trkpt lat="43.49304" lon="2.16387">
        <ele>291.9</ele>
        <time>2019-12-21T08:19:13Z</time>
      </trkpt>
      <trkpt lat="43.49391" lon="2.16403">
        <ele>294.3</ele>
        <time>2019-12-21T08:19:34Z</time>
      </trkpt>
      <trkpt lat="43.49481" lon="2.16439">
        <ele>296.7</ele>
        <time>2019-12-21T08:19:56Z</time>
      </trkpt>
      <trkpt lat="43.49546" lon="2.16493">
        <ele>295.26</ele>
        <time>2019-12-21T08:20:08Z</time>
      </trkpt>
      <trkpt lat="43.4962" lon="2.16603">
        <ele>297.67</ele>
        <time>2019-12-21T08:20:28Z</time>
      </trkpt>
      <trkpt lat="43.49708" lon="2.16713">
        <ele>298.15</ele>
        <time>2019-12-21T08:20:50Z</time>
      </trkpt>
      <trkpt lat="43.49712" lon="2.16719">
        <ele>298.63</ele>
        <time>2019-12-21T08:20:51Z</time>
      </trkpt>
      <trkpt lat="43.49716" lon="2.16725">
        <ele>299.11</ele>
        <time>2019-12-21T08:20:52Z</time>
      </trkpt>
      <trkpt lat="43.49821" lon="2.16853">
        <ele>299.11</ele>
        <time>2019-12-21T08:21:16Z</time>
      </trkpt>
      <trkpt lat="43.4987" lon="2.16952">
        <ele>301.03</ele>
        <time>2019-12-21T08:21:31Z</time>
      </trkpt>
      <trkpt lat="43.49895" lon="2.1709">
        <ele>297.67</ele>
        <time>2019-12-21T08:21:48Z</time>
      </trkpt>
      <trkpt lat="43.49896" lon="2.17096">
        <ele>297.18</ele>
        <time>2019-12-21T08:21:49Z</time>
      </trkpt>
      <trkpt lat="43.49913" lon="2.17239">
        <ele>298.15</ele>
        <time>2019-12-21T08:22:08Z</time>
      </trkpt>
      <trkpt lat="43.49946" lon="2.17396">
        <ele>299.59</ele>
        <time>2019-12-21T08:22:34Z</time>
      </trkpt>
      <trkpt lat="43.49947" lon="2.17403">
        <ele>300.07</ele>
        <time>2019-12-21T08:22:35Z</time>
      </trkpt>
      <trkpt lat="43.49946" lon="2.17409">
        <ele>299.59</ele>
        <time>2019-12-21T08:22:36Z</time>
      </trkpt>
      <trkpt lat="43.49944" lon="2.17416">
        <ele>299.59</ele>
        <time>2019-12-21T08:22:37Z</time>
      </trkpt>
      <trkpt lat="43.49942" lon="2.17422">
        <ele>299.59</ele>
        <time>2019-12-21T08:22:38Z</time>
      </trkpt>
      <trkpt lat="43.4994" lon="2.17427">
        <ele>300.07</ele>
        <time>2019-12-21T08:22:39Z</time>
      </trkpt>
      <trkpt lat="43.49937" lon="2.17431">
        <ele>300.07</ele>
        <time>2019-12-21T08:22:40Z</time>
      </trkpt>
      <trkpt lat="43.49936" lon="2.17436">
        <ele>300.55</ele>
        <time>2019-12-21T08:22:41Z</time>
      </trkpt>
      <trkpt lat="43.49934" lon="2.17441">
        <ele>300.55</ele>
        <time>2019-12-21T08:22:42Z</time>
      </trkpt>
      <trkpt lat="43.49933" lon="2.17445">
        <ele>301.51</ele>
        <time>2019-12-21T08:22:43Z</time>
      </trkpt>
      <trkpt lat="43.49933" lon="2.1745">
        <ele>301.03</ele>
        <time>2019-12-21T08:22:44Z</time>
      </trkpt>
      <trkpt lat="43.49932" lon="2.17455">
        <ele>301.03</ele>
        <time>2019-12-21T08:22:45Z</time>
      </trkpt>
      <trkpt lat="43.49931" lon="2.1746">
        <ele>301.99</ele>
        <time>2019-12-21T08:22:46Z</time>
      </trkpt>
      <trkpt lat="43.4993" lon="2.17464">
        <ele>301.51</ele>
        <time>2019-12-21T08:22:47Z</time>
      </trkpt>
      <trkpt lat="43.49929" lon="2.17468">
        <ele>301.99</ele>
        <time>2019-12-21T08:22:48Z</time>
      </trkpt>
      <trkpt lat="43.49927" lon="2.17472">
        <ele>302.47</ele>
        <time>2019-12-21T08:22:49Z</time>
      </trkpt>
      <trkpt lat="43.49925" lon="2.17475">
        <ele>302.95</ele>
        <time>2019-12-21T08:22:50Z</time>
      </trkpt>
      <trkpt lat="43.49923" lon="2.17478">
        <ele>302.95</ele>
        <time>2019-12-21T08:22:51Z</time>
      </trkpt>
      <trkpt lat="43.49894" lon="2.17506">
        <ele>306.32</ele>
        <time>2019-12-21T08:23:02Z</time>
      </trkpt>
      <trkpt lat="43.49866" lon="2.17532">
        <ele>309.68</ele>
        <time>2019-12-21T08:23:14Z</time>
      </trkpt>
      <trkpt lat="43.49847" lon="2.17549">
        <ele>313.53</ele>
        <time>2019-12-21T08:23:26Z</time>
      </trkpt>
      <trkpt lat="43.49845" lon="2.17551">
        <ele>313.53</ele>
        <time>2019-12-21T08:23:27Z</time>
      </trkpt>
      <trkpt lat="43.49835" lon="2.17571">
        <ele>316.89</ele>
        <time>2019-12-21T08:23:38Z</time>
      </trkpt>
      <trkpt lat="43.49834" lon="2.17573">
        <ele>317.37</ele>
        <time>2019-12-21T08:23:39Z</time>
      </trkpt>
      <trkpt lat="43.49842" lon="2.176">
        <ele>320.74</ele>
        <time>2019-12-21T08:23:51Z</time>
      </trkpt>
      <trkpt lat="43.49846" lon="2.17624">
        <ele>324.1</ele>
        <time>2019-12-21T08:24:02Z</time>
      </trkpt>
      <trkpt lat="43.49843" lon="2.17632">
        <ele>325.06</ele>
        <time>2019-12-21T08:24:06Z</time>
      </trkpt>
      <trkpt lat="43.49831" lon="2.17639">
        <ele>327.47</ele>
        <time>2019-12-21T08:24:15Z</time>
      </trkpt>
      <trkpt lat="43.49826" lon="2.17639">
        <ele>328.91</ele>
        <time>2019-12-21T08:24:18Z</time>
      </trkpt>
      <trkpt lat="43.49808" lon="2.17641">
        <ele>331.79</ele>
        <time>2019-12-21T08:24:31Z</time>
      </trkpt>
      <trkpt lat="43.49789" lon="2.17645">
        <ele>335.16</ele>
        <time>2019-12-21T08:24:46Z</time>
      </trkpt>
      <trkpt lat="43.49775" lon="2.17661">
        <ele>338.04</ele>
        <time>2019-12-21T08:25:00Z</time>
      </trkpt>
      <trkpt lat="43.49769" lon="2.17682">
        <ele>341.41</ele>
        <time>2019-12-21T08:25:13Z</time>
      </trkpt>
      <trkpt lat="43.49746" lon="2.17692">
        <ele>344.77</ele>
        <time>2019-12-21T08:25:29Z</time>
      </trkpt>
      <trkpt lat="43.49721" lon="2.17695">
        <ele>348.13</ele>
        <time>2019-12-21T08:25:46Z</time>
      </trkpt>
      <trkpt lat="43.49699" lon="2.17693">
        <ele>351.5</ele>
        <time>2019-12-21T08:26:00Z</time>
      </trkpt>
      <trkpt lat="43.49681" lon="2.17677">
        <ele>354.38</ele>
        <time>2019-12-21T08:26:15Z</time>
      </trkpt>
      <trkpt lat="43.4967" lon="2.17651">
        <ele>358.23</ele>
        <time>2019-12-21T08:26:30Z</time>
      </trkpt>
      <trkpt lat="43.4967" lon="2.17649">
        <ele>358.23</ele>
        <time>2019-12-21T08:26:31Z</time>
      </trkpt>
      <trkpt lat="43.49663" lon="2.17629">
        <ele>360.63</ele>
        <time>2019-12-21T08:26:42Z</time>
      </trkpt>
      <trkpt lat="43.49662" lon="2.17628">
        <ele>360.15</ele>
        <time>2019-12-21T08:26:43Z</time>
      </trkpt>
      <trkpt lat="43.4966" lon="2.17626">
        <ele>360.15</ele>
        <time>2019-12-21T08:26:44Z</time>
      </trkpt>
      <trkpt lat="43.49659" lon="2.17625">
        <ele>361.11</ele>
        <time>2019-12-21T08:26:45Z</time>
      </trkpt>
      <trkpt lat="43.49658" lon="2.17624">
        <ele>360.63</ele>
        <time>2019-12-21T08:26:46Z</time>
      </trkpt>
      <trkpt lat="43.49657" lon="2.17623">
        <ele>360.15</ele>
        <time>2019-12-21T08:26:47Z</time>
      </trkpt>
      <trkpt lat="43.49655" lon="2.17623">
        <ele>361.11</ele>
        <time>2019-12-21T08:26:48Z</time>
      </trkpt>
      <trkpt lat="43.49654" lon="2.17623">
        <ele>361.11</ele>
        <time>2019-12-21T08:26:49Z</time>
      </trkpt>
      <trkpt lat="43.49653" lon="2.17624">
        <ele>361.59</ele>
        <time>2019-12-21T08:26:50Z</time>
      </trkpt>
      <trkpt lat="43.49652" lon="2.17624">
        <ele>361.59</ele>
        <time>2019-12-21T08:26:51Z</time>
      </trkpt>
      <trkpt lat="43.49651" lon="2.17625">
        <ele>361.11</ele>
        <time>2019-12-21T08:26:52Z</time>
      </trkpt>
      <trkpt lat="43.4965" lon="2.17626">
        <ele>362.55</ele>
        <time>2019-12-21T08:26:53Z</time>
      </trkpt>
      <trkpt lat="43.49646" lon="2.1763">
        <ele>363.52</ele>
        <time>2019-12-21T08:26:57Z</time>
      </trkpt>
      <trkpt lat="43.49644" lon="2.17649">
        <ele>366.4</ele>
        <time>2019-12-21T08:27:07Z</time>
      </trkpt>
      <trkpt lat="43.49644" lon="2.17662">
        <ele>368.32</ele>
        <time>2019-12-21T08:27:15Z</time>
      </trkpt>
      <trkpt lat="43.49644" lon="2.17664">
        <ele>367.84</ele>
        <time>2019-12-21T08:27:16Z</time>
      </trkpt>
      <trkpt lat="43.49644" lon="2.17666">
        <ele>368.32</ele>
        <time>2019-12-21T08:27:17Z</time>
      </trkpt>
      <trkpt lat="43.49644" lon="2.17668">
        <ele>368.32</ele>
        <time>2019-12-21T08:27:18Z</time>
      </trkpt>
      <trkpt lat="43.49645" lon="2.17669">
        <ele>368.8</ele>
        <time>2019-12-21T08:27:19Z</time>
      </trkpt>
      <trkpt lat="43.49645" lon="2.17671">
        <ele>368.8</ele>
        <time>2019-12-21T08:27:20Z</time>
      </trkpt>
      <trkpt lat="43.49645" lon="2.17673">
        <ele>369.28</ele>
        <time>2019-12-21T08:27:21Z</time>
      </trkpt>
      <trkpt lat="43.49645" lon="2.17675">
        <ele>369.28</ele>
        <time>2019-12-21T08:27:22Z</time>
      </trkpt>
      <trkpt lat="43.49637" lon="2.17701">
        <ele>371.69</ele>
        <time>2019-12-21T08:27:38Z</time>
      </trkpt>
      <trkpt lat="43.49637" lon="2.17702">
        <ele>372.17</ele>
        <time>2019-12-21T08:27:39Z</time>
      </trkpt>
      <trkpt lat="43.49637" lon="2.17704">
        <ele>372.17</ele>
        <time>2019-12-21T08:27:40Z</time>
      </trkpt>
      <trkpt lat="43.49636" lon="2.17705">
        <ele>373.13</ele>
        <time>2019-12-21T08:27:41Z</time>
      </trkpt>
      <trkpt lat="43.49636" lon="2.17706">
        <ele>372.65</ele>
        <time>2019-12-21T08:27:42Z</time>
      </trkpt>
      <trkpt lat="43.49631" lon="2.17718">
        <ele>374.57</ele>
        <time>2019-12-21T08:27:52Z</time>
      </trkpt>
      <trkpt lat="43.4963" lon="2.1772">
        <ele>375.53</ele>
        <time>2019-12-21T08:27:53Z</time>
      </trkpt>
      <trkpt lat="43.49625" lon="2.1773">
        <ele>376.97</ele>
        <time>2019-12-21T08:28:01Z</time>
      </trkpt>
      <trkpt lat="43.49625" lon="2.17732">
        <ele>377.94</ele>
        <time>2019-12-21T08:28:02Z</time>
      </trkpt>
      <trkpt lat="43.49625" lon="2.17733">
        <ele>377.94</ele>
        <time>2019-12-21T08:28:03Z</time>
      </trkpt>
      <trkpt lat="43.49624" lon="2.17735">
        <ele>377.45</ele>
        <time>2019-12-21T08:28:04Z</time>
      </trkpt>
      <trkpt lat="43.49624" lon="2.17737">
        <ele>377.94</ele>
        <time>2019-12-21T08:28:05Z</time>
      </trkpt>
      <trkpt lat="43.49624" lon="2.17738">
        <ele>378.42</ele>
        <time>2019-12-21T08:28:06Z</time>
      </trkpt>
      <trkpt lat="43.49623" lon="2.1774">
        <ele>378.9</ele>
        <time>2019-12-21T08:28:07Z</time>
      </trkpt>
      <trkpt lat="43.49618" lon="2.17763">
        <ele>381.3</ele>
        <time>2019-12-21T08:28:20Z</time>
      </trkpt>
      <trkpt lat="43.49618" lon="2.17773">
        <ele>382.26</ele>
        <time>2019-12-21T08:28:26Z</time>
      </trkpt>
      <trkpt lat="43.49616" lon="2.17778">
        <ele>382.74</ele>
        <time>2019-12-21T08:28:29Z</time>
      </trkpt>
      <trkpt lat="43.49613" lon="2.17788">
        <ele>383.7</ele>
        <time>2019-12-21T08:28:34Z</time>
      </trkpt>
      <trkpt lat="43.49603" lon="2.17823">
        <ele>386.59</ele>
        <time>2019-12-21T08:28:51Z</time>
      </trkpt>
      <trkpt lat="43.49596" lon="2.17832">
        <ele>387.07</ele>
        <time>2019-12-21T08:28:57Z</time>
      </trkpt>
      <trkpt lat="43.49594" lon="2.17833">
        <ele>387.55</ele>
        <time>2019-12-21T08:28:58Z</time>
      </trkpt>
      <trkpt lat="43.49593" lon="2.17835">
        <ele>387.55</ele>
        <time>2019-12-21T08:28:59Z</time>
      </trkpt>
      <trkpt lat="43.49591" lon="2.17836">
        <ele>388.03</ele>
        <time>2019-12-21T08:29:00Z</time>
      </trkpt>
      <trkpt lat="43.4959" lon="2.17837">
        <ele>387.55</ele>
        <time>2019-12-21T08:29:01Z</time>
      </trkpt>
      <trkpt lat="43.49588" lon="2.17838">
        <ele>387.55</ele>
        <time>2019-12-21T08:29:02Z</time>
      </trkpt>
      <trkpt lat="43.49587" lon="2.17839">
        <ele>388.03</ele>
        <time>2019-12-21T08:29:03Z</time>
      </trkpt>
      <trkpt lat="43.49585" lon="2.1784">
        <ele>388.03</ele>
        <time>2019-12-21T08:29:04Z</time>
      </trkpt>
      <trkpt lat="43.49546" lon="2.17838">
        <ele>390.91</ele>
        <time>2019-12-21T08:29:24Z</time>
      </trkpt>
      <trkpt lat="43.4949" lon="2.17831">
        <ele>392.84</ele>
        <time>2019-12-21T08:29:47Z</time>
      </trkpt>
      <trkpt lat="43.49446" lon="2.17805">
        <ele>396.68</ele>
        <time>2019-12-21T08:30:07Z</time>
      </trkpt>
      <trkpt lat="43.49406" lon="2.17764">
        <ele>398.12</ele>
        <time>2019-12-21T08:30:24Z</time>
      </trkpt>
      <trkpt lat="43.49374" lon="2.1772">
        <ele>400.53</ele>
        <time>2019-12-21T08:30:40Z</time>
      </trkpt>
      <trkpt lat="43.49346" lon="2.17676">
        <ele>403.41</ele>
        <time>2019-12-21T08:30:56Z</time>
      </trkpt>
      <trkpt lat="43.49324" lon="2.17637">
        <ele>406.29</ele>
        <time>2019-12-21T08:31:11Z</time>
      </trkpt>
      <trkpt lat="43.49304" lon="2.17617">
        <ele>409.66</ele>
        <time>2019-12-21T08:31:23Z</time>
      </trkpt>
      <trkpt lat="43.49277" lon="2.17599">
        <ele>412.54</ele>
        <time>2019-12-21T08:31:39Z</time>
      </trkpt>
      <trkpt lat="43.49243" lon="2.17569">
        <ele>414.95</ele>
        <time>2019-12-21T08:32:01Z</time>
      </trkpt>
      <trkpt lat="43.49211" lon="2.1755">
        <ele>417.35</ele>
        <time>2019-12-21T08:32:19Z</time>
      </trkpt>
      <trkpt lat="43.49188" lon="2.17576">
        <ele>420.71</ele>
        <time>2019-12-21T08:32:36Z</time>
      </trkpt>
      <trkpt lat="43.49155" lon="2.176">
        <ele>423.12</ele>
        <time>2019-12-21T08:32:54Z</time>
      </trkpt>
      <trkpt lat="43.49148" lon="2.17606">
        <ele>423.6</ele>
        <time>2019-12-21T08:32:58Z</time>
      </trkpt>
      <trkpt lat="43.49126" lon="2.17617">
        <ele>426.48</ele>
        <time>2019-12-21T08:33:09Z</time>
      </trkpt>
      <trkpt lat="43.49104" lon="2.17614">
        <ele>428.4</ele>
        <time>2019-12-21T08:33:20Z</time>
      </trkpt>
      <trkpt lat="43.49077" lon="2.17587">
        <ele>431.29</ele>
        <time>2019-12-21T08:33:37Z</time>
      </trkpt>
      <trkpt lat="43.49048" lon="2.1755">
        <ele>435.13</ele>
        <time>2019-12-21T08:33:58Z</time>
      </trkpt>
      <trkpt lat="43.49019" lon="2.17528">
        <ele>437.54</ele>
        <time>2019-12-21T08:34:18Z</time>
      </trkpt>
      <trkpt lat="43.49009" lon="2.17521">
        <ele>438.5</ele>
        <time>2019-12-21T08:34:24Z</time>
      </trkpt>
      <trkpt lat="43.49007" lon="2.1752">
        <ele>438.98</ele>
        <time>2019-12-21T08:34:25Z</time>
      </trkpt>
      <trkpt lat="43.48984" lon="2.17507">
        <ele>441.86</ele>
        <time>2019-12-21T08:34:40Z</time>
      </trkpt>
      <trkpt lat="43.48965" lon="2.17506">
        <ele>442.82</ele>
        <time>2019-12-21T08:34:50Z</time>
      </trkpt>
      <trkpt lat="43.48943" lon="2.17484">
        <ele>446.67</ele>
        <time>2019-12-21T08:35:03Z</time>
      </trkpt>
      <trkpt lat="43.48942" lon="2.17481">
        <ele>446.19</ele>
        <time>2019-12-21T08:35:04Z</time>
      </trkpt>
      <trkpt lat="43.4894" lon="2.17464">
        <ele>448.11</ele>
        <time>2019-12-21T08:35:11Z</time>
      </trkpt>
      <trkpt lat="43.48941" lon="2.17462">
        <ele>447.63</ele>
        <time>2019-12-21T08:35:12Z</time>
      </trkpt>
      <trkpt lat="43.48943" lon="2.17461">
        <ele>448.11</ele>
        <time>2019-12-21T08:35:13Z</time>
      </trkpt>
      <trkpt lat="43.48944" lon="2.17462">
        <ele>448.59</ele>
        <time>2019-12-21T08:35:14Z</time>
      </trkpt>
      <trkpt lat="43.48946" lon="2.17463">
        <ele>448.11</ele>
        <time>2019-12-21T08:35:15Z</time>
      </trkpt>
      <trkpt lat="43.48948" lon="2.17464">
        <ele>448.59</ele>
        <time>2019-12-21T08:35:16Z</time>
      </trkpt>
      <trkpt lat="43.48949" lon="2.17465">
        <ele>448.11</ele>
        <time>2019-12-21T08:35:17Z</time>
      </trkpt>
      <trkpt lat="43.48951" lon="2.17467">
        <ele>448.59</ele>
        <time>2019-12-21T08:35:18Z</time>
      </trkpt>
      <trkpt lat="43.48983" lon="2.17478">
        <ele>450.52</ele>
        <time>2019-12-21T08:35:35Z</time>
      </trkpt>
      <trkpt lat="43.4901" lon="2.17462">
        <ele>451.96</ele>
        <time>2019-12-21T08:35:47Z</time>
      </trkpt>
      <trkpt lat="43.49012" lon="2.1746">
        <ele>452.44</ele>
        <time>2019-12-21T08:35:48Z</time>
      </trkpt>
      <trkpt lat="43.49013" lon="2.17457">
        <ele>452.44</ele>
        <time>2019-12-21T08:35:49Z</time>
      </trkpt>
      <trkpt lat="43.49024" lon="2.17439">
        <ele>452.92</ele>
        <time>2019-12-21T08:35:56Z</time>
      </trkpt>
      <trkpt lat="43.49025" lon="2.17437">
        <ele>452.92</ele>
        <time>2019-12-21T08:35:57Z</time>
      </trkpt>
      <trkpt lat="43.49026" lon="2.17435">
        <ele>452.44</ele>
        <time>2019-12-21T08:35:58Z</time>
      </trkpt>
      <trkpt lat="43.49027" lon="2.17432">
        <ele>453.88</ele>
        <time>2019-12-21T08:35:59Z</time>
      </trkpt>
      <trkpt lat="43.49028" lon="2.1743">
        <ele>454.36</ele>
        <time>2019-12-21T08:36:00Z</time>
      </trkpt>
      <trkpt lat="43.49029" lon="2.17428">
        <ele>454.84</ele>
        <time>2019-12-21T08:36:01Z</time>
      </trkpt>
      <trkpt lat="43.4903" lon="2.17425">
        <ele>454.36</ele>
        <time>2019-12-21T08:36:02Z</time>
      </trkpt>
      <trkpt lat="43.49032" lon="2.17423">
        <ele>453.88</ele>
        <time>2019-12-21T08:36:03Z</time>
      </trkpt>
      <trkpt lat="43.49033" lon="2.17421">
        <ele>453.88</ele>
        <time>2019-12-21T08:36:04Z</time>
      </trkpt>
      <trkpt lat="43.49034" lon="2.17418">
        <ele>455.32</ele>
        <time>2019-12-21T08:36:05Z</time>
      </trkpt>
      <trkpt lat="43.49035" lon="2.17415">
        <ele>454.84</ele>
        <time>2019-12-21T08:36:06Z</time>
      </trkpt>
      <trkpt lat="43.49036" lon="2.17412">
        <ele>455.8</ele>
        <time>2019-12-21T08:36:07Z</time>
      </trkpt>
      <trkpt lat="43.49037" lon="2.17409">
        <ele>455.8</ele>
        <time>2019-12-21T08:36:08Z</time>
      </trkpt>
      <trkpt lat="43.49038" lon="2.17406">
        <ele>455.8</ele>
        <time>2019-12-21T08:36:09Z</time>
      </trkpt>
      <trkpt lat="43.49049" lon="2.17352">
        <ele>457.24</ele>
        <time>2019-12-21T08:36:27Z</time>
      </trkpt>
      <trkpt lat="43.49035" lon="2.17318">
        <ele>459.65</ele>
        <time>2019-12-21T08:36:39Z</time>
      </trkpt>
      <trkpt lat="43.49007" lon="2.17292">
        <ele>463.01</ele>
        <time>2019-12-21T08:36:56Z</time>
      </trkpt>
      <trkpt lat="43.48972" lon="2.1727">
        <ele>464.93</ele>
        <time>2019-12-21T08:37:15Z</time>
      </trkpt>
      <trkpt lat="43.48945" lon="2.17268">
        <ele>468.3</ele>
        <time>2019-12-21T08:37:30Z</time>
      </trkpt>
      <trkpt lat="43.4892" lon="2.17289">
        <ele>471.18</ele>
        <time>2019-12-21T08:37:47Z</time>
      </trkpt>
      <trkpt lat="43.48905" lon="2.17305">
        <ele>474.55</ele>
        <time>2019-12-21T08:38:01Z</time>
      </trkpt>
      <trkpt lat="43.48888" lon="2.17323">
        <ele>476.95</ele>
        <time>2019-12-21T08:38:18Z</time>
      </trkpt>
      <trkpt lat="43.4888" lon="2.17336">
        <ele>479.35</ele>
        <time>2019-12-21T08:38:28Z</time>
      </trkpt>
      <trkpt lat="43.48877" lon="2.17339">
        <ele>478.87</ele>
        <time>2019-12-21T08:38:31Z</time>
      </trkpt>
      <trkpt lat="43.48876" lon="2.1734">
        <ele>479.84</ele>
        <time>2019-12-21T08:38:32Z</time>
      </trkpt>
      <trkpt lat="43.48859" lon="2.17355">
        <ele>482.72</ele>
        <time>2019-12-21T08:38:47Z</time>
      </trkpt>
      <trkpt lat="43.48836" lon="2.17381">
        <ele>484.16</ele>
        <time>2019-12-21T08:39:01Z</time>
      </trkpt>
      <trkpt lat="43.48827" lon="2.17387">
        <ele>484.16</ele>
        <time>2019-12-21T08:39:06Z</time>
      </trkpt>
      <trkpt lat="43.48793" lon="2.17397">
        <ele>487.05</ele>
        <time>2019-12-21T08:39:22Z</time>
      </trkpt>
      <trkpt lat="43.48782" lon="2.17398">
        <ele>488.97</ele>
        <time>2019-12-21T08:39:29Z</time>
      </trkpt>
      <trkpt lat="43.4878" lon="2.17399">
        <ele>489.45</ele>
        <time>2019-12-21T08:39:30Z</time>
      </trkpt>
      <trkpt lat="43.48772" lon="2.17404">
        <ele>488.97</ele>
        <time>2019-12-21T08:39:34Z</time>
      </trkpt>
      <trkpt lat="43.48753" lon="2.1742">
        <ele>491.37</ele>
        <time>2019-12-21T08:39:46Z</time>
      </trkpt>
      <trkpt lat="43.48752" lon="2.17421">
        <ele>492.33</ele>
        <time>2019-12-21T08:39:47Z</time>
      </trkpt>
      <trkpt lat="43.4875" lon="2.17423">
        <ele>490.89</ele>
        <time>2019-12-21T08:39:48Z</time>
      </trkpt>
      <trkpt lat="43.48749" lon="2.17424">
        <ele>491.85</ele>
        <time>2019-12-21T08:39:49Z</time>
      </trkpt>
      <trkpt lat="43.48748" lon="2.17425">
        <ele>490.89</ele>
        <time>2019-12-21T08:39:50Z</time>
      </trkpt>
      <trkpt lat="43.48747" lon="2.17426">
        <ele>491.85</ele>
        <time>2019-12-21T08:39:51Z</time>
      </trkpt>
      <trkpt lat="43.48746" lon="2.17428">
        <ele>491.37</ele>
        <time>2019-12-21T08:39:52Z</time>
      </trkpt>
      <trkpt lat="43.48745" lon="2.17431">
        <ele>491.85</ele>
        <time>2019-12-21T08:39:53Z</time>
      </trkpt>
      <trkpt lat="43.48744" lon="2.17434">
        <ele>491.37</ele>
        <time>2019-12-21T08:39:55Z</time>
      </trkpt>
      <trkpt lat="43.48743" lon="2.17436">
        <ele>493.77</ele>
        <time>2019-12-21T08:39:56Z</time>
      </trkpt>
      <trkpt lat="43.48742" lon="2.17438">
        <ele>491.85</ele>
        <time>2019-12-21T08:39:57Z</time>
      </trkpt>
      <trkpt lat="43.48741" lon="2.1744">
        <ele>492.81</ele>
        <time>2019-12-21T08:39:58Z</time>
      </trkpt>
      <trkpt lat="43.48739" lon="2.17442">
        <ele>492.81</ele>
        <time>2019-12-21T08:39:59Z</time>
      </trkpt>
      <trkpt lat="43.48739" lon="2.17446">
        <ele>493.77</ele>
        <time>2019-12-21T08:40:00Z</time>
      </trkpt>
      <trkpt lat="43.48739" lon="2.17449">
        <ele>493.77</ele>
        <time>2019-12-21T08:40:01Z</time>
      </trkpt>
      <trkpt lat="43.48738" lon="2.17451">
        <ele>493.77</ele>
        <time>2019-12-21T08:40:02Z</time>
      </trkpt>
      <trkpt lat="43.48737" lon="2.17454">
        <ele>493.29</ele>
        <time>2019-12-21T08:40:03Z</time>
      </trkpt>
      <trkpt lat="43.48737" lon="2.17456">
        <ele>493.77</ele>
        <time>2019-12-21T08:40:04Z</time>
      </trkpt>
      <trkpt lat="43.48736" lon="2.17459">
        <ele>493.29</ele>
        <time>2019-12-21T08:40:05Z</time>
      </trkpt>
      <trkpt lat="43.48736" lon="2.17461">
        <ele>494.26</ele>
        <time>2019-12-21T08:40:06Z</time>
      </trkpt>
      <trkpt lat="43.48736" lon="2.17464">
        <ele>494.74</ele>
        <time>2019-12-21T08:40:07Z</time>
      </trkpt>
      <trkpt lat="43.48736" lon="2.17467">
        <ele>494.74</ele>
        <time>2019-12-21T08:40:08Z</time>
      </trkpt>
      <trkpt lat="43.48734" lon="2.17479">
        <ele>494.74</ele>
        <time>2019-12-21T08:40:12Z</time>
      </trkpt>
      <trkpt lat="43.48733" lon="2.17482">
        <ele>495.22</ele>
        <time>2019-12-21T08:40:13Z</time>
      </trkpt>
      <trkpt lat="43.48729" lon="2.17513">
        <ele>496.66</ele>
        <time>2019-12-21T08:40:25Z</time>
      </trkpt>
      <trkpt lat="43.48728" lon="2.17515">
        <ele>497.14</ele>
        <time>2019-12-21T08:40:26Z</time>
      </trkpt>
      <trkpt lat="43.48726" lon="2.17517">
        <ele>498.1</ele>
        <time>2019-12-21T08:40:27Z</time>
      </trkpt>
      <trkpt lat="43.48725" lon="2.17519">
        <ele>498.1</ele>
        <time>2019-12-21T08:40:28Z</time>
      </trkpt>
      <trkpt lat="43.48724" lon="2.17521">
        <ele>498.1</ele>
        <time>2019-12-21T08:40:29Z</time>
      </trkpt>
      <trkpt lat="43.48704" lon="2.17559">
        <ele>499.06</ele>
        <time>2019-12-21T08:40:47Z</time>
      </trkpt>
      <trkpt lat="43.48665" lon="2.17597">
        <ele>500.5</ele>
        <time>2019-12-21T08:41:03Z</time>
      </trkpt>
      <trkpt lat="43.48625" lon="2.17623">
        <ele>501.95</ele>
        <time>2019-12-21T08:41:19Z</time>
      </trkpt>
      <trkpt lat="43.486" lon="2.17635">
        <ele>505.31</ele>
        <time>2019-12-21T08:41:31Z</time>
      </trkpt>
      <trkpt lat="43.48582" lon="2.17645">
        <ele>507.71</ele>
        <time>2019-12-21T08:41:40Z</time>
      </trkpt>
      <trkpt lat="43.48577" lon="2.17652">
        <ele>508.19</ele>
        <time>2019-12-21T08:41:43Z</time>
      </trkpt>
      <trkpt lat="43.48576" lon="2.17655">
        <ele>509.16</ele>
        <time>2019-12-21T08:41:44Z</time>
      </trkpt>
      <trkpt lat="43.48557" lon="2.17705">
        <ele>507.71</ele>
        <time>2019-12-21T08:41:58Z</time>
      </trkpt>
      <trkpt lat="43.48559" lon="2.1774">
        <ele>509.64</ele>
        <time>2019-12-21T08:42:07Z</time>
      </trkpt>
      <trkpt lat="43.48569" lon="2.17766">
        <ele>510.6</ele>
        <time>2019-12-21T08:42:17Z</time>
      </trkpt>
      <trkpt lat="43.48608" lon="2.17795">
        <ele>513.48</ele>
        <time>2019-12-21T08:42:35Z</time>
      </trkpt>
      <trkpt lat="43.48641" lon="2.17821">
        <ele>514.92</ele>
        <time>2019-12-21T08:42:51Z</time>
      </trkpt>
      <trkpt lat="43.48642" lon="2.17838">
        <ele>516.85</ele>
        <time>2019-12-21T08:42:57Z</time>
      </trkpt>
      <trkpt lat="43.48637" lon="2.17841">
        <ele>516.85</ele>
        <time>2019-12-21T08:43:00Z</time>
      </trkpt>
      <trkpt lat="43.48613" lon="2.17839">
        <ele>519.73</ele>
        <time>2019-12-21T08:43:14Z</time>
      </trkpt>
      <trkpt lat="43.48594" lon="2.1784">
        <ele>522.13</ele>
        <time>2019-12-21T08:43:27Z</time>
      </trkpt>
      <trkpt lat="43.48593" lon="2.17848">
        <ele>522.13</ele>
        <time>2019-12-21T08:43:32Z</time>
      </trkpt>
      <trkpt lat="43.48595" lon="2.17851">
        <ele>523.58</ele>
        <time>2019-12-21T08:43:34Z</time>
      </trkpt>
      <trkpt lat="43.48601" lon="2.17861">
        <ele>526.46</ele>
        <time>2019-12-21T08:43:42Z</time>
      </trkpt>
      <trkpt lat="43.48602" lon="2.17863">
        <ele>526.46</ele>
        <time>2019-12-21T08:43:43Z</time>
      </trkpt>
      <trkpt lat="43.48603" lon="2.17864">
        <ele>525.98</ele>
        <time>2019-12-21T08:43:44Z</time>
      </trkpt>
      <trkpt lat="43.48603" lon="2.17868">
        <ele>527.42</ele>
        <time>2019-12-21T08:43:46Z</time>
      </trkpt>
      <trkpt lat="43.48595" lon="2.17885">
        <ele>531.27</ele>
        <time>2019-12-21T08:44:04Z</time>
      </trkpt>
      <trkpt lat="43.48587" lon="2.17888">
        <ele>532.23</ele>
        <time>2019-12-21T08:44:12Z</time>
      </trkpt>
      <trkpt lat="43.48581" lon="2.17888">
        <ele>533.19</ele>
        <time>2019-12-21T08:44:17Z</time>
      </trkpt>
      <trkpt lat="43.4856" lon="2.17896">
        <ele>535.59</ele>
        <time>2019-12-21T08:44:31Z</time>
      </trkpt>
      <trkpt lat="43.4854" lon="2.179">
        <ele>538.48</ele>
        <time>2019-12-21T08:44:48Z</time>
      </trkpt>
      <trkpt lat="43.48536" lon="2.17899">
        <ele>539.44</ele>
        <time>2019-12-21T08:44:53Z</time>
      </trkpt>
      <trkpt lat="43.48525" lon="2.179">
        <ele>541.84</ele>
        <time>2019-12-21T08:45:02Z</time>
      </trkpt>
      <trkpt lat="43.48514" lon="2.17901">
        <ele>544.72</ele>
        <time>2019-12-21T08:45:13Z</time>
      </trkpt>
      <trkpt lat="43.48508" lon="2.17895">
        <ele>544.24</ele>
        <time>2019-12-21T08:45:38Z</time>
      </trkpt>
      <trkpt lat="43.48504" lon="2.17896">
        <ele>545.69</ele>
        <time>2019-12-21T08:45:43Z</time>
      </trkpt>
      <trkpt lat="43.48503" lon="2.17896">
        <ele>545.2</ele>
        <time>2019-12-21T08:45:44Z</time>
      </trkpt>
      <trkpt lat="43.48491" lon="2.179">
        <ele>549.53</ele>
        <time>2019-12-21T08:45:56Z</time>
      </trkpt>
      <trkpt lat="43.48479" lon="2.17902">
        <ele>552.9</ele>
        <time>2019-12-21T08:46:07Z</time>
      </trkpt>
      <trkpt lat="43.48464" lon="2.17902">
        <ele>555.78</ele>
        <time>2019-12-21T08:46:25Z</time>
      </trkpt>
      <trkpt lat="43.48449" lon="2.17905">
        <ele>559.14</ele>
        <time>2019-12-21T08:46:40Z</time>
      </trkpt>
      <trkpt lat="43.48437" lon="2.17918">
        <ele>560.11</ele>
        <time>2019-12-21T08:46:56Z</time>
      </trkpt>
      <trkpt lat="43.48431" lon="2.17929">
        <ele>560.59</ele>
        <time>2019-12-21T08:47:23Z</time>
      </trkpt>
      <trkpt lat="43.48423" lon="2.17933">
        <ele>560.59</ele>
        <time>2019-12-21T08:48:00Z</time>
      </trkpt>
      <trkpt lat="43.48427" lon="2.17937">
        <ele>561.07</ele>
        <time>2019-12-21T08:48:49Z</time>
      </trkpt>
      <trkpt lat="43.48427" lon="2.17933">
        <ele>561.55</ele>
        <time>2019-12-21T08:49:22Z</time>
      </trkpt>
      <trkpt lat="43.48427" lon="2.17936">
        <ele>561.55</ele>
        <time>2019-12-21T08:49:26Z</time>
      </trkpt>
      <trkpt lat="43.48429" lon="2.17941">
        <ele>561.55</ele>
        <time>2019-12-21T08:49:30Z</time>
      </trkpt>
      <trkpt lat="43.48432" lon="2.1796">
        <ele>563.47</ele>
        <time>2019-12-21T08:49:39Z</time>
      </trkpt>
      <trkpt lat="43.48431" lon="2.1798">
        <ele>565.87</ele>
        <time>2019-12-21T08:49:50Z</time>
      </trkpt>
      <trkpt lat="43.48428" lon="2.18006">
        <ele>568.76</ele>
        <time>2019-12-21T08:50:03Z</time>
      </trkpt>
      <trkpt lat="43.48425" lon="2.18028">
        <ele>572.12</ele>
        <time>2019-12-21T08:50:16Z</time>
      </trkpt>
      <trkpt lat="43.48419" lon="2.18056">
        <ele>575.49</ele>
        <time>2019-12-21T08:50:35Z</time>
      </trkpt>
      <trkpt lat="43.48411" lon="2.1808">
        <ele>578.37</ele>
        <time>2019-12-21T08:50:52Z</time>
      </trkpt>
      <trkpt lat="43.48403" lon="2.18102">
        <ele>581.73</ele>
        <time>2019-12-21T08:51:08Z</time>
      </trkpt>
      <trkpt lat="43.48402" lon="2.18106">
        <ele>580.77</ele>
        <time>2019-12-21T08:51:11Z</time>
      </trkpt>
      <trkpt lat="43.48396" lon="2.18122">
        <ele>584.62</ele>
        <time>2019-12-21T08:51:25Z</time>
      </trkpt>
      <trkpt lat="43.48391" lon="2.1814">
        <ele>588.46</ele>
        <time>2019-12-21T08:51:39Z</time>
      </trkpt>
      <trkpt lat="43.48388" lon="2.18159">
        <ele>591.35</ele>
        <time>2019-12-21T08:51:55Z</time>
      </trkpt>
      <trkpt lat="43.48381" lon="2.18184">
        <ele>593.75</ele>
        <time>2019-12-21T08:52:11Z</time>
      </trkpt>
      <trkpt lat="43.48381" lon="2.18201">
        <ele>597.6</ele>
        <time>2019-12-21T08:52:24Z</time>
      </trkpt>
      <trkpt lat="43.48376" lon="2.18222">
        <ele>599.52</ele>
        <time>2019-12-21T08:52:44Z</time>
      </trkpt>
      <trkpt lat="43.48371" lon="2.18234">
        <ele>600.96</ele>
        <time>2019-12-21T08:53:15Z</time>
      </trkpt>
      <trkpt lat="43.48371" lon="2.18236">
        <ele>601.92</ele>
        <time>2019-12-21T08:53:17Z</time>
      </trkpt>
      <trkpt lat="43.48369" lon="2.1825">
        <ele>603.36</ele>
        <time>2019-12-21T08:53:27Z</time>
      </trkpt>
      <trkpt lat="43.48366" lon="2.18265">
        <ele>607.21</ele>
        <time>2019-12-21T08:53:38Z</time>
      </trkpt>
      <trkpt lat="43.48362" lon="2.18285">
        <ele>610.09</ele>
        <time>2019-12-21T08:53:53Z</time>
      </trkpt>
      <trkpt lat="43.48358" lon="2.18302">
        <ele>613.46</ele>
        <time>2019-12-21T08:54:05Z</time>
      </trkpt>
      <trkpt lat="43.48352" lon="2.18318">
        <ele>616.34</ele>
        <time>2019-12-21T08:54:18Z</time>
      </trkpt>
      <trkpt lat="43.48345" lon="2.18326">
        <ele>618.26</ele>
        <time>2019-12-21T08:54:29Z</time>
      </trkpt>
      <trkpt lat="43.48338" lon="2.18339">
        <ele>620.67</ele>
        <time>2019-12-21T08:54:43Z</time>
      </trkpt>
      <trkpt lat="43.48332" lon="2.18346">
        <ele>621.15</ele>
        <time>2019-12-21T08:54:53Z</time>
      </trkpt>
      <trkpt lat="43.48326" lon="2.18353">
        <ele>622.11</ele>
        <time>2019-12-21T08:55:01Z</time>
      </trkpt>
      <trkpt lat="43.48314" lon="2.18368">
        <ele>625.47</ele>
        <time>2019-12-21T08:55:17Z</time>
      </trkpt>
      <trkpt lat="43.48304" lon="2.18381">
        <ele>628.36</ele>
        <time>2019-12-21T08:55:32Z</time>
      </trkpt>
      <trkpt lat="43.48299" lon="2.18385">
        <ele>628.84</ele>
        <time>2019-12-21T08:55:38Z</time>
      </trkpt>
      <trkpt lat="43.48278" lon="2.18399">
        <ele>631.72</ele>
        <time>2019-12-21T08:55:57Z</time>
      </trkpt>
      <trkpt lat="43.48251" lon="2.18407">
        <ele>635.09</ele>
        <time>2019-12-21T08:56:19Z</time>
      </trkpt>
      <trkpt lat="43.4824" lon="2.18428">
        <ele>637.01</ele>
        <time>2019-12-21T08:56:34Z</time>
      </trkpt>
      <trkpt lat="43.48237" lon="2.18433">
        <ele>637.01</ele>
        <time>2019-12-21T08:56:38Z</time>
      </trkpt>
      <trkpt lat="43.48225" lon="2.18461">
        <ele>640.86</ele>
        <time>2019-12-21T08:56:56Z</time>
      </trkpt>
      <trkpt lat="43.48217" lon="2.18507">
        <ele>643.74</ele>
        <time>2019-12-21T08:57:20Z</time>
      </trkpt>
      <trkpt lat="43.48217" lon="2.18511">
        <ele>643.74</ele>
        <time>2019-12-21T08:57:22Z</time>
      </trkpt>
      <trkpt lat="43.48217" lon="2.18519">
        <ele>645.18</ele>
        <time>2019-12-21T08:57:26Z</time>
      </trkpt>
      <trkpt lat="43.48206" lon="2.18571">
        <ele>648.55</ele>
        <time>2019-12-21T08:57:54Z</time>
      </trkpt>
      <trkpt lat="43.48187" lon="2.186">
        <ele>650.47</ele>
        <time>2019-12-21T08:58:13Z</time>
      </trkpt>
      <trkpt lat="43.48183" lon="2.18607">
        <ele>649.99</ele>
        <time>2019-12-21T08:58:17Z</time>
      </trkpt>
      <trkpt lat="43.48172" lon="2.1863">
        <ele>651.91</ele>
        <time>2019-12-21T08:58:30Z</time>
      </trkpt>
      <trkpt lat="43.4816" lon="2.18643">
        <ele>653.35</ele>
        <time>2019-12-21T08:58:40Z</time>
      </trkpt>
      <trkpt lat="43.48157" lon="2.18651">
        <ele>653.83</ele>
        <time>2019-12-21T08:58:44Z</time>
      </trkpt>
      <trkpt lat="43.48139" lon="2.18672">
        <ele>655.76</ele>
        <time>2019-12-21T08:59:01Z</time>
      </trkpt>
      <trkpt lat="43.48114" lon="2.18694">
        <ele>657.2</ele>
        <time>2019-12-21T08:59:20Z</time>
      </trkpt>
      <trkpt lat="43.48101" lon="2.18705">
        <ele>659.6</ele>
        <time>2019-12-21T08:59:29Z</time>
      </trkpt>
      <trkpt lat="43.48074" lon="2.18723">
        <ele>660.56</ele>
        <time>2019-12-21T08:59:43Z</time>
      </trkpt>
      <trkpt lat="43.48054" lon="2.1874">
        <ele>662.97</ele>
        <time>2019-12-21T09:00:00Z</time>
      </trkpt>
      <trkpt lat="43.48053" lon="2.18742">
        <ele>662.97</ele>
        <time>2019-12-21T09:00:01Z</time>
      </trkpt>
      <trkpt lat="43.48024" lon="2.18772">
        <ele>663.93</ele>
        <time>2019-12-21T09:00:18Z</time>
      </trkpt>
      <trkpt lat="43.48013" lon="2.18783">
        <ele>664.41</ele>
        <time>2019-12-21T09:00:24Z</time>
      </trkpt>
      <trkpt lat="43.48012" lon="2.18785">
        <ele>664.89</ele>
        <time>2019-12-21T09:00:25Z</time>
      </trkpt>
      <trkpt lat="43.48011" lon="2.18786">
        <ele>665.37</ele>
        <time>2019-12-21T09:00:26Z</time>
      </trkpt>
      <trkpt lat="43.48003" lon="2.18797">
        <ele>665.85</ele>
        <time>2019-12-21T09:00:34Z</time>
      </trkpt>
      <trkpt lat="43.48001" lon="2.188">
        <ele>665.85</ele>
        <time>2019-12-21T09:00:35Z</time>
      </trkpt>
      <trkpt lat="43.47973" lon="2.18829">
        <ele>668.25</ele>
        <time>2019-12-21T09:00:49Z</time>
      </trkpt>
      <trkpt lat="43.47968" lon="2.18835">
        <ele>668.25</ele>
        <time>2019-12-21T09:00:53Z</time>
      </trkpt>
      <trkpt lat="43.47957" lon="2.18848">
        <ele>670.18</ele>
        <time>2019-12-21T09:01:01Z</time>
      </trkpt>
      <trkpt lat="43.47944" lon="2.18867">
        <ele>670.66</ele>
        <time>2019-12-21T09:01:09Z</time>
      </trkpt>
      <trkpt lat="43.47942" lon="2.18869">
        <ele>671.14</ele>
        <time>2019-12-21T09:01:10Z</time>
      </trkpt>
      <trkpt lat="43.4794" lon="2.18872">
        <ele>671.14</ele>
        <time>2019-12-21T09:01:11Z</time>
      </trkpt>
      <trkpt lat="43.47934" lon="2.18883">
        <ele>671.14</ele>
        <time>2019-12-21T09:01:15Z</time>
      </trkpt>
      <trkpt lat="43.47933" lon="2.18886">
        <ele>671.62</ele>
        <time>2019-12-21T09:01:16Z</time>
      </trkpt>
      <trkpt lat="43.47932" lon="2.18889">
        <ele>672.58</ele>
        <time>2019-12-21T09:01:17Z</time>
      </trkpt>
      <trkpt lat="43.47931" lon="2.18891">
        <ele>672.1</ele>
        <time>2019-12-21T09:01:18Z</time>
      </trkpt>
      <trkpt lat="43.4793" lon="2.18895">
        <ele>672.1</ele>
        <time>2019-12-21T09:01:20Z</time>
      </trkpt>
      <trkpt lat="43.47928" lon="2.18899">
        <ele>672.1</ele>
        <time>2019-12-21T09:01:22Z</time>
      </trkpt>
      <trkpt lat="43.47927" lon="2.18913">
        <ele>673.06</ele>
        <time>2019-12-21T09:01:29Z</time>
      </trkpt>
      <trkpt lat="43.47923" lon="2.18922">
        <ele>673.54</ele>
        <time>2019-12-21T09:01:33Z</time>
      </trkpt>
      <trkpt lat="43.47921" lon="2.18926">
        <ele>673.06</ele>
        <time>2019-12-21T09:01:34Z</time>
      </trkpt>
      <trkpt lat="43.47919" lon="2.18928">
        <ele>673.54</ele>
        <time>2019-12-21T09:01:35Z</time>
      </trkpt>
      <trkpt lat="43.47907" lon="2.18955">
        <ele>674.98</ele>
        <time>2019-12-21T09:01:51Z</time>
      </trkpt>
      <trkpt lat="43.47895" lon="2.18976">
        <ele>675.94</ele>
        <time>2019-12-21T09:02:04Z</time>
      </trkpt>
      <trkpt lat="43.47894" lon="2.18981">
        <ele>676.42</ele>
        <time>2019-12-21T09:02:06Z</time>
      </trkpt>
      <trkpt lat="43.47887" lon="2.18991">
        <ele>676.42</ele>
        <time>2019-12-21T09:02:07Z</time>
      </trkpt>
      <trkpt lat="43.47877" lon="2.19006">
        <ele>676.42</ele>
        <time>2019-12-21T09:02:09Z</time>
      </trkpt>
      <trkpt lat="43.47876" lon="2.19012">
        <ele>676.91</ele>
        <time>2019-12-21T09:02:10Z</time>
      </trkpt>
      <trkpt lat="43.47874" lon="2.19016">
        <ele>676.91</ele>
        <time>2019-12-21T09:02:11Z</time>
      </trkpt>
      <trkpt lat="43.47874" lon="2.19019">
        <ele>677.39</ele>
        <time>2019-12-21T09:02:12Z</time>
      </trkpt>
      <trkpt lat="43.47871" lon="2.19022">
        <ele>677.39</ele>
        <time>2019-12-21T09:02:13Z</time>
      </trkpt>
      <trkpt lat="43.47856" lon="2.19032">
        <ele>676.42</ele>
        <time>2019-12-21T09:02:35Z</time>
      </trkpt>
      <trkpt lat="43.47849" lon="2.19033">
        <ele>676.91</ele>
        <time>2019-12-21T09:03:18Z</time>
      </trkpt>
      <trkpt lat="43.47846" lon="2.19038">
        <ele>677.39</ele>
        <time>2019-12-21T09:03:32Z</time>
      </trkpt>
      <trkpt lat="43.47846" lon="2.1904">
        <ele>677.39</ele>
        <time>2019-12-21T09:03:33Z</time>
      </trkpt>
      <trkpt lat="43.47846" lon="2.19043">
        <ele>677.39</ele>
        <time>2019-12-21T09:03:34Z</time>
      </trkpt>
      <trkpt lat="43.47845" lon="2.19045">
        <ele>676.91</ele>
        <time>2019-12-21T09:03:35Z</time>
      </trkpt>
      <trkpt lat="43.47846" lon="2.19048">
        <ele>677.39</ele>
        <time>2019-12-21T09:03:36Z</time>
      </trkpt>
      <trkpt lat="43.47846" lon="2.1905">
        <ele>677.39</ele>
        <time>2019-12-21T09:03:37Z</time>
      </trkpt>
      <trkpt lat="43.47847" lon="2.19053">
        <ele>677.87</ele>
        <time>2019-12-21T09:03:38Z</time>
      </trkpt>
      <trkpt lat="43.47847" lon="2.19056">
        <ele>677.87</ele>
        <time>2019-12-21T09:03:39Z</time>
      </trkpt>
      <trkpt lat="43.47847" lon="2.19058">
        <ele>678.35</ele>
        <time>2019-12-21T09:03:40Z</time>
      </trkpt>
      <trkpt lat="43.47846" lon="2.19061">
        <ele>677.87</ele>
        <time>2019-12-21T09:03:41Z</time>
      </trkpt>
      <trkpt lat="43.47846" lon="2.19063">
        <ele>677.87</ele>
        <time>2019-12-21T09:03:42Z</time>
      </trkpt>
      <trkpt lat="43.47844" lon="2.19129">
        <ele>677.39</ele>
        <time>2019-12-21T09:04:01Z</time>
      </trkpt>
      <trkpt lat="43.47844" lon="2.19131">
        <ele>676.91</ele>
        <time>2019-12-21T09:04:02Z</time>
      </trkpt>
      <trkpt lat="43.47859" lon="2.19182">
        <ele>678.35</ele>
        <time>2019-12-21T09:04:18Z</time>
      </trkpt>
      <trkpt lat="43.47873" lon="2.19265">
        <ele>680.27</ele>
        <time>2019-12-21T09:04:38Z</time>
      </trkpt>
      <trkpt lat="43.47876" lon="2.19347">
        <ele>682.67</ele>
        <time>2019-12-21T09:05:00Z</time>
      </trkpt>
      <trkpt lat="43.47882" lon="2.19415">
        <ele>683.15</ele>
        <time>2019-12-21T09:05:18Z</time>
      </trkpt>
      <trkpt lat="43.47907" lon="2.19484">
        <ele>682.19</ele>
        <time>2019-12-21T09:05:33Z</time>
      </trkpt>
      <trkpt lat="43.47919" lon="2.19536">
        <ele>680.75</ele>
        <time>2019-12-21T09:05:44Z</time>
      </trkpt>
      <trkpt lat="43.47919" lon="2.19543">
        <ele>680.27</ele>
        <time>2019-12-21T09:05:45Z</time>
      </trkpt>
      <trkpt lat="43.47917" lon="2.1955">
        <ele>679.31</ele>
        <time>2019-12-21T09:05:46Z</time>
      </trkpt>
      <trkpt lat="43.47912" lon="2.19567">
        <ele>678.83</ele>
        <time>2019-12-21T09:05:48Z</time>
      </trkpt>
      <trkpt lat="43.47906" lon="2.19598">
        <ele>677.87</ele>
        <time>2019-12-21T09:05:51Z</time>
      </trkpt>
      <trkpt lat="43.47907" lon="2.19609">
        <ele>676.91</ele>
        <time>2019-12-21T09:05:52Z</time>
      </trkpt>
      <trkpt lat="43.47909" lon="2.19621">
        <ele>675.94</ele>
        <time>2019-12-21T09:05:53Z</time>
      </trkpt>
      <trkpt lat="43.47911" lon="2.19632">
        <ele>674.98</ele>
        <time>2019-12-21T09:05:54Z</time>
      </trkpt>
      <trkpt lat="43.47911" lon="2.19645">
        <ele>674.98</ele>
        <time>2019-12-21T09:05:55Z</time>
      </trkpt>
      <trkpt lat="43.47912" lon="2.19657">
        <ele>674.02</ele>
        <time>2019-12-21T09:05:56Z</time>
      </trkpt>
      <trkpt lat="43.47913" lon="2.19669">
        <ele>674.02</ele>
        <time>2019-12-21T09:05:57Z</time>
      </trkpt>
      <trkpt lat="43.47916" lon="2.19693">
        <ele>673.06</ele>
        <time>2019-12-21T09:05:59Z</time>
      </trkpt>
      <trkpt lat="43.47923" lon="2.19727">
        <ele>671.62</ele>
        <time>2019-12-21T09:06:02Z</time>
      </trkpt>
      <trkpt lat="43.47924" lon="2.19739">
        <ele>670.66</ele>
        <time>2019-12-21T09:06:03Z</time>
      </trkpt>
      <trkpt lat="43.47928" lon="2.19774">
        <ele>668.25</ele>
        <time>2019-12-21T09:06:06Z</time>
      </trkpt>
      <trkpt lat="43.47934" lon="2.19828">
        <ele>664.41</ele>
        <time>2019-12-21T09:06:11Z</time>
      </trkpt>
      <trkpt lat="43.47934" lon="2.19837">
        <ele>664.41</ele>
        <time>2019-12-21T09:06:12Z</time>
      </trkpt>
      <trkpt lat="43.47934" lon="2.19845">
        <ele>664.41</ele>
        <time>2019-12-21T09:06:13Z</time>
      </trkpt>
      <trkpt lat="43.47927" lon="2.19887">
        <ele>660.08</ele>
        <time>2019-12-21T09:06:19Z</time>
      </trkpt>
      <trkpt lat="43.47928" lon="2.19893">
        <ele>658.64</ele>
        <time>2019-12-21T09:06:21Z</time>
      </trkpt>
      <trkpt lat="43.47929" lon="2.19902">
        <ele>659.6</ele>
        <time>2019-12-21T09:06:35Z</time>
      </trkpt>
      <trkpt lat="43.47928" lon="2.19903">
        <ele>659.12</ele>
        <time>2019-12-21T09:06:36Z</time>
      </trkpt>
      <trkpt lat="43.47928" lon="2.19905">
        <ele>659.12</ele>
        <time>2019-12-21T09:06:37Z</time>
      </trkpt>
      <trkpt lat="43.47927" lon="2.19907">
        <ele>658.64</ele>
        <time>2019-12-21T09:06:38Z</time>
      </trkpt>
      <trkpt lat="43.47927" lon="2.19909">
        <ele>658.64</ele>
        <time>2019-12-21T09:06:39Z</time>
      </trkpt>
      <trkpt lat="43.47921" lon="2.1992">
        <ele>656.72</ele>
        <time>2019-12-21T09:06:46Z</time>
      </trkpt>
      <trkpt lat="43.4792" lon="2.19921">
        <ele>657.2</ele>
        <time>2019-12-21T09:06:47Z</time>
      </trkpt>
      <trkpt lat="43.47915" lon="2.19927">
        <ele>657.2</ele>
        <time>2019-12-21T09:07:14Z</time>
      </trkpt>
      <trkpt lat="43.4792" lon="2.19931">
        <ele>656.72</ele>
        <time>2019-12-21T09:07:44Z</time>
      </trkpt>
      <trkpt lat="43.47926" lon="2.19932">
        <ele>654.8</ele>
        <time>2019-12-21T09:07:47Z</time>
      </trkpt>
      <trkpt lat="43.47934" lon="2.19936">
        <ele>652.39</ele>
        <time>2019-12-21T09:07:50Z</time>
      </trkpt>
      <trkpt lat="43.4794" lon="2.1994">
        <ele>651.43</ele>
        <time>2019-12-21T09:07:53Z</time>
      </trkpt>
      <trkpt lat="43.47945" lon="2.19943">
        <ele>649.99</ele>
        <time>2019-12-21T09:07:55Z</time>
      </trkpt>
      <trkpt lat="43.47952" lon="2.19944">
        <ele>649.03</ele>
        <time>2019-12-21T09:07:57Z</time>
      </trkpt>
      <trkpt lat="43.4803" lon="2.19933">
        <ele>648.07</ele>
        <time>2019-12-21T09:08:13Z</time>
      </trkpt>
      <trkpt lat="43.48081" lon="2.19926">
        <ele>650.47</ele>
        <time>2019-12-21T09:08:23Z</time>
      </trkpt>
      <trkpt lat="43.48086" lon="2.19924">
        <ele>650.95</ele>
        <time>2019-12-21T09:08:24Z</time>
      </trkpt>
      <trkpt lat="43.48101" lon="2.19916">
        <ele>650.47</ele>
        <time>2019-12-21T09:08:27Z</time>
      </trkpt>
      <trkpt lat="43.48105" lon="2.19912">
        <ele>651.43</ele>
        <time>2019-12-21T09:08:28Z</time>
      </trkpt>
      <trkpt lat="43.48116" lon="2.19904">
        <ele>651.91</ele>
        <time>2019-12-21T09:08:31Z</time>
      </trkpt>
      <trkpt lat="43.48125" lon="2.19901">
        <ele>651.43</ele>
        <time>2019-12-21T09:08:33Z</time>
      </trkpt>
      <trkpt lat="43.48129" lon="2.199">
        <ele>650.95</ele>
        <time>2019-12-21T09:08:34Z</time>
      </trkpt>
      <trkpt lat="43.48189" lon="2.19876">
        <ele>647.1</ele>
        <time>2019-12-21T09:08:43Z</time>
      </trkpt>
      <trkpt lat="43.48206" lon="2.1987">
        <ele>646.14</ele>
        <time>2019-12-21T09:08:45Z</time>
      </trkpt>
      <trkpt lat="43.4825" lon="2.19855">
        <ele>642.3</ele>
        <time>2019-12-21T09:08:50Z</time>
      </trkpt>
      <trkpt lat="43.48259" lon="2.19851">
        <ele>642.3</ele>
        <time>2019-12-21T09:08:51Z</time>
      </trkpt>
      <trkpt lat="43.48298" lon="2.1984">
        <ele>638.45</ele>
        <time>2019-12-21T09:08:55Z</time>
      </trkpt>
      <trkpt lat="43.4833" lon="2.19829">
        <ele>634.61</ele>
        <time>2019-12-21T09:08:58Z</time>
      </trkpt>
      <trkpt lat="43.48363" lon="2.19817">
        <ele>631.24</ele>
        <time>2019-12-21T09:09:01Z</time>
      </trkpt>
      <trkpt lat="43.484" lon="2.19807">
        <ele>627.88</ele>
        <time>2019-12-21T09:09:04Z</time>
      </trkpt>
      <trkpt lat="43.48423" lon="2.19802">
        <ele>624.03</ele>
        <time>2019-12-21T09:09:06Z</time>
      </trkpt>
      <trkpt lat="43.48451" lon="2.19793">
        <ele>619.71</ele>
        <time>2019-12-21T09:09:09Z</time>
      </trkpt>
      <trkpt lat="43.48457" lon="2.1979">
        <ele>616.82</ele>
        <time>2019-12-21T09:09:10Z</time>
      </trkpt>
      <trkpt lat="43.48464" lon="2.19784">
        <ele>614.9</ele>
        <time>2019-12-21T09:09:12Z</time>
      </trkpt>
      <trkpt lat="43.48468" lon="2.19779">
        <ele>615.38</ele>
        <time>2019-12-21T09:09:13Z</time>
      </trkpt>
      <trkpt lat="43.48472" lon="2.19773">
        <ele>614.42</ele>
        <time>2019-12-21T09:09:14Z</time>
      </trkpt>
      <trkpt lat="43.48477" lon="2.19767">
        <ele>613.94</ele>
        <time>2019-12-21T09:09:15Z</time>
      </trkpt>
      <trkpt lat="43.48482" lon="2.19759">
        <ele>612.98</ele>
        <time>2019-12-21T09:09:16Z</time>
      </trkpt>
      <trkpt lat="43.48486" lon="2.19751">
        <ele>613.46</ele>
        <time>2019-12-21T09:09:17Z</time>
      </trkpt>
      <trkpt lat="43.48492" lon="2.19742">
        <ele>611.54</ele>
        <time>2019-12-21T09:09:19Z</time>
      </trkpt>
      <trkpt lat="43.48497" lon="2.19739">
        <ele>610.57</ele>
        <time>2019-12-21T09:09:21Z</time>
      </trkpt>
      <trkpt lat="43.48501" lon="2.1974">
        <ele>610.57</ele>
        <time>2019-12-21T09:09:22Z</time>
      </trkpt>
      <trkpt lat="43.48509" lon="2.19743">
        <ele>609.61</ele>
        <time>2019-12-21T09:09:24Z</time>
      </trkpt>
      <trkpt lat="43.48539" lon="2.19749">
        <ele>606.73</ele>
        <time>2019-12-21T09:09:32Z</time>
      </trkpt>
      <trkpt lat="43.48544" lon="2.19751">
        <ele>606.25</ele>
        <time>2019-12-21T09:09:33Z</time>
      </trkpt>
      <trkpt lat="43.48565" lon="2.19759">
        <ele>602.88</ele>
        <time>2019-12-21T09:09:38Z</time>
      </trkpt>
      <trkpt lat="43.48569" lon="2.19763">
        <ele>601.92</ele>
        <time>2019-12-21T09:09:39Z</time>
      </trkpt>
      <trkpt lat="43.48579" lon="2.19774">
        <ele>598.56</ele>
        <time>2019-12-21T09:09:42Z</time>
      </trkpt>
      <trkpt lat="43.48582" lon="2.19777">
        <ele>597.6</ele>
        <time>2019-12-21T09:09:43Z</time>
      </trkpt>
      <trkpt lat="43.48593" lon="2.19793">
        <ele>594.71</ele>
        <time>2019-12-21T09:09:47Z</time>
      </trkpt>
      <trkpt lat="43.48596" lon="2.19798">
        <ele>594.71</ele>
        <time>2019-12-21T09:09:48Z</time>
      </trkpt>
      <trkpt lat="43.48605" lon="2.19813">
        <ele>590.87</ele>
        <time>2019-12-21T09:09:51Z</time>
      </trkpt>
      <trkpt lat="43.48608" lon="2.19816">
        <ele>589.91</ele>
        <time>2019-12-21T09:09:52Z</time>
      </trkpt>
      <trkpt lat="43.48614" lon="2.19821">
        <ele>588.46</ele>
        <time>2019-12-21T09:09:54Z</time>
      </trkpt>
      <trkpt lat="43.48623" lon="2.19824">
        <ele>587.02</ele>
        <time>2019-12-21T09:09:57Z</time>
      </trkpt>
      <trkpt lat="43.48639" lon="2.19821">
        <ele>583.66</ele>
        <time>2019-12-21T09:10:04Z</time>
      </trkpt>
      <trkpt lat="43.48647" lon="2.19818">
        <ele>582.22</ele>
        <time>2019-12-21T09:10:07Z</time>
      </trkpt>
      <trkpt lat="43.48655" lon="2.19814">
        <ele>580.29</ele>
        <time>2019-12-21T09:10:10Z</time>
      </trkpt>
      <trkpt lat="43.48661" lon="2.19813">
        <ele>578.37</ele>
        <time>2019-12-21T09:10:13Z</time>
      </trkpt>
      <trkpt lat="43.48673" lon="2.19817">
        <ele>574.04</ele>
        <time>2019-12-21T09:10:18Z</time>
      </trkpt>
      <trkpt lat="43.48676" lon="2.19819">
        <ele>575.01</ele>
        <time>2019-12-21T09:10:19Z</time>
      </trkpt>
      <trkpt lat="43.48686" lon="2.19822">
        <ele>571.64</ele>
        <time>2019-12-21T09:10:23Z</time>
      </trkpt>
      <trkpt lat="43.48693" lon="2.19816">
        <ele>569.24</ele>
        <time>2019-12-21T09:10:26Z</time>
      </trkpt>
      <trkpt lat="43.487" lon="2.19796">
        <ele>567.32</ele>
        <time>2019-12-21T09:10:32Z</time>
      </trkpt>
      <trkpt lat="43.487" lon="2.19793">
        <ele>567.32</ele>
        <time>2019-12-21T09:10:33Z</time>
      </trkpt>
      <trkpt lat="43.487" lon="2.1979">
        <ele>566.35</ele>
        <time>2019-12-21T09:10:34Z</time>
      </trkpt>
      <trkpt lat="43.48701" lon="2.19787">
        <ele>566.83</ele>
        <time>2019-12-21T09:10:35Z</time>
      </trkpt>
      <trkpt lat="43.48702" lon="2.19785">
        <ele>566.35</ele>
        <time>2019-12-21T09:10:36Z</time>
      </trkpt>
      <trkpt lat="43.48708" lon="2.19779">
        <ele>563.95</ele>
        <time>2019-12-21T09:10:40Z</time>
      </trkpt>
      <trkpt lat="43.4872" lon="2.19776">
        <ele>562.03</ele>
        <time>2019-12-21T09:10:45Z</time>
      </trkpt>
      <trkpt lat="43.48735" lon="2.19772">
        <ele>558.66</ele>
        <time>2019-12-21T09:10:49Z</time>
      </trkpt>
      <trkpt lat="43.4874" lon="2.19771">
        <ele>558.66</ele>
        <time>2019-12-21T09:10:50Z</time>
      </trkpt>
      <trkpt lat="43.48755" lon="2.19766">
        <ele>554.82</ele>
        <time>2019-12-21T09:10:53Z</time>
      </trkpt>
      <trkpt lat="43.4876" lon="2.19764">
        <ele>554.82</ele>
        <time>2019-12-21T09:10:54Z</time>
      </trkpt>
      <trkpt lat="43.48769" lon="2.19761">
        <ele>551.93</ele>
        <time>2019-12-21T09:10:56Z</time>
      </trkpt>
      <trkpt lat="43.48783" lon="2.19756">
        <ele>550.01</ele>
        <time>2019-12-21T09:10:59Z</time>
      </trkpt>
      <trkpt lat="43.48794" lon="2.19752">
        <ele>548.09</ele>
        <time>2019-12-21T09:11:02Z</time>
      </trkpt>
      <trkpt lat="43.48813" lon="2.19748">
        <ele>544.24</ele>
        <time>2019-12-21T09:11:08Z</time>
      </trkpt>
      <trkpt lat="43.48821" lon="2.19748">
        <ele>542.8</ele>
        <time>2019-12-21T09:11:11Z</time>
      </trkpt>
      <trkpt lat="43.48828" lon="2.1975">
        <ele>542.8</ele>
        <time>2019-12-21T09:11:25Z</time>
      </trkpt>
      <trkpt lat="43.4883" lon="2.1975">
        <ele>542.8</ele>
        <time>2019-12-21T09:11:55Z</time>
      </trkpt>
      <trkpt lat="43.48829" lon="2.19749">
        <ele>542.32</ele>
        <time>2019-12-21T09:12:39Z</time>
      </trkpt>
      <trkpt lat="43.4883" lon="2.19748">
        <ele>543.28</ele>
        <time>2019-12-21T09:13:24Z</time>
      </trkpt>
      <trkpt lat="43.48829" lon="2.19746">
        <ele>542.32</ele>
        <time>2019-12-21T09:13:50Z</time>
      </trkpt>
      <trkpt lat="43.48828" lon="2.1975">
        <ele>543.28</ele>
        <time>2019-12-21T09:14:12Z</time>
      </trkpt>
      <trkpt lat="43.48829" lon="2.19753">
        <ele>542.8</ele>
        <time>2019-12-21T09:14:39Z</time>
      </trkpt>
      <trkpt lat="43.4883" lon="2.19753">
        <ele>542.8</ele>
        <time>2019-12-21T09:14:46Z</time>
      </trkpt>
      <trkpt lat="43.48832" lon="2.19754">
        <ele>542.8</ele>
        <time>2019-12-21T09:14:47Z</time>
      </trkpt>
      <trkpt lat="43.48853" lon="2.1975">
        <ele>538.96</ele>
        <time>2019-12-21T09:14:55Z</time>
      </trkpt>
      <trkpt lat="43.48855" lon="2.19747">
        <ele>538.96</ele>
        <time>2019-12-21T09:14:56Z</time>
      </trkpt>
      <trkpt lat="43.4887" lon="2.19731">
        <ele>537.51</ele>
        <time>2019-12-21T09:15:01Z</time>
      </trkpt>
      <trkpt lat="43.48884" lon="2.1971">
        <ele>534.63</ele>
        <time>2019-12-21T09:15:07Z</time>
      </trkpt>
      <trkpt lat="43.48884" lon="2.19708">
        <ele>534.63</ele>
        <time>2019-12-21T09:15:08Z</time>
      </trkpt>
      <trkpt lat="43.48898" lon="2.19689">
        <ele>531.27</ele>
        <time>2019-12-21T09:15:15Z</time>
      </trkpt>
      <trkpt lat="43.48901" lon="2.19684">
        <ele>531.27</ele>
        <time>2019-12-21T09:15:16Z</time>
      </trkpt>
      <trkpt lat="43.48907" lon="2.19676">
        <ele>529.34</ele>
        <time>2019-12-21T09:15:18Z</time>
      </trkpt>
      <trkpt lat="43.48921" lon="2.19657">
        <ele>525.98</ele>
        <time>2019-12-21T09:15:23Z</time>
      </trkpt>
      <trkpt lat="43.48929" lon="2.19645">
        <ele>522.61</ele>
        <time>2019-12-21T09:15:27Z</time>
      </trkpt>
      <trkpt lat="43.48933" lon="2.1964">
        <ele>521.65</ele>
        <time>2019-12-21T09:15:29Z</time>
      </trkpt>
      <trkpt lat="43.48946" lon="2.1962">
        <ele>516.85</ele>
        <time>2019-12-21T09:15:36Z</time>
      </trkpt>
      <trkpt lat="43.48952" lon="2.19604">
        <ele>513.48</ele>
        <time>2019-12-21T09:15:42Z</time>
      </trkpt>
      <trkpt lat="43.48953" lon="2.19601">
        <ele>513.48</ele>
        <time>2019-12-21T09:15:43Z</time>
      </trkpt>
      <trkpt lat="43.48956" lon="2.19588">
        <ele>510.12</ele>
        <time>2019-12-21T09:15:47Z</time>
      </trkpt>
      <trkpt lat="43.48963" lon="2.19575">
        <ele>506.75</ele>
        <time>2019-12-21T09:15:52Z</time>
      </trkpt>
      <trkpt lat="43.48964" lon="2.19574">
        <ele>507.23</ele>
        <time>2019-12-21T09:15:53Z</time>
      </trkpt>
      <trkpt lat="43.48997" lon="2.19567">
        <ele>505.31</ele>
        <time>2019-12-21T09:16:08Z</time>
      </trkpt>
      <trkpt lat="43.49013" lon="2.19552">
        <ele>501.46</ele>
        <time>2019-12-21T09:16:13Z</time>
      </trkpt>
      <trkpt lat="43.49026" lon="2.19542">
        <ele>499.54</ele>
        <time>2019-12-21T09:16:17Z</time>
      </trkpt>
      <trkpt lat="43.49033" lon="2.19537">
        <ele>498.1</ele>
        <time>2019-12-21T09:16:19Z</time>
      </trkpt>
      <trkpt lat="43.49053" lon="2.19521">
        <ele>494.26</ele>
        <time>2019-12-21T09:16:26Z</time>
      </trkpt>
      <trkpt lat="43.49061" lon="2.19516">
        <ele>494.26</ele>
        <time>2019-12-21T09:16:38Z</time>
      </trkpt>
      <trkpt lat="43.49062" lon="2.19516">
        <ele>493.77</ele>
        <time>2019-12-21T09:16:44Z</time>
      </trkpt>
      <trkpt lat="43.49089" lon="2.19499">
        <ele>490.41</ele>
        <time>2019-12-21T09:18:26Z</time>
      </trkpt>
      <trkpt lat="43.49092" lon="2.19498">
        <ele>490.89</ele>
        <time>2019-12-21T09:18:47Z</time>
      </trkpt>
      <trkpt lat="43.49088" lon="2.19498">
        <ele>491.37</ele>
        <time>2019-12-21T09:19:13Z</time>
      </trkpt>
      <trkpt lat="43.49106" lon="2.19505">
        <ele>489.45</ele>
        <time>2019-12-21T09:22:03Z</time>
      </trkpt>
      <trkpt lat="43.49122" lon="2.19509">
        <ele>486.56</ele>
        <time>2019-12-21T09:22:09Z</time>
      </trkpt>
      <trkpt lat="43.49131" lon="2.1951">
        <ele>485.12</ele>
        <time>2019-12-21T09:22:12Z</time>
      </trkpt>
      <trkpt lat="43.49145" lon="2.19513">
        <ele>481.28</ele>
        <time>2019-12-21T09:22:17Z</time>
      </trkpt>
      <trkpt lat="43.49147" lon="2.19513">
        <ele>481.76</ele>
        <time>2019-12-21T09:22:18Z</time>
      </trkpt>
      <trkpt lat="43.4916" lon="2.19511">
        <ele>477.91</ele>
        <time>2019-12-21T09:22:22Z</time>
      </trkpt>
      <trkpt lat="43.49161" lon="2.19511">
        <ele>476.95</ele>
        <time>2019-12-21T09:22:23Z</time>
      </trkpt>
      <trkpt lat="43.49178" lon="2.19508">
        <ele>474.07</ele>
        <time>2019-12-21T09:22:29Z</time>
      </trkpt>
      <trkpt lat="43.4918" lon="2.19508">
        <ele>472.63</ele>
        <time>2019-12-21T09:22:30Z</time>
      </trkpt>
      <trkpt lat="43.49183" lon="2.19508">
        <ele>472.14</ele>
        <time>2019-12-21T09:22:31Z</time>
      </trkpt>
      <trkpt lat="43.49186" lon="2.19508">
        <ele>471.18</ele>
        <time>2019-12-21T09:22:32Z</time>
      </trkpt>
      <trkpt lat="43.49204" lon="2.19511">
        <ele>467.82</ele>
        <time>2019-12-21T09:22:37Z</time>
      </trkpt>
      <trkpt lat="43.49207" lon="2.1951">
        <ele>467.34</ele>
        <time>2019-12-21T09:22:38Z</time>
      </trkpt>
      <trkpt lat="43.49217" lon="2.1951">
        <ele>465.42</ele>
        <time>2019-12-21T09:22:40Z</time>
      </trkpt>
      <trkpt lat="43.49231" lon="2.19506">
        <ele>463.49</ele>
        <time>2019-12-21T09:22:43Z</time>
      </trkpt>
      <trkpt lat="43.49235" lon="2.19504">
        <ele>462.53</ele>
        <time>2019-12-21T09:22:44Z</time>
      </trkpt>
      <trkpt lat="43.49239" lon="2.19502">
        <ele>461.57</ele>
        <time>2019-12-21T09:22:45Z</time>
      </trkpt>
      <trkpt lat="43.49243" lon="2.19499">
        <ele>459.17</ele>
        <time>2019-12-21T09:22:46Z</time>
      </trkpt>
      <trkpt lat="43.49255" lon="2.19492">
        <ele>458.21</ele>
        <time>2019-12-21T09:22:48Z</time>
      </trkpt>
      <trkpt lat="43.49269" lon="2.19491">
        <ele>455.8</ele>
        <time>2019-12-21T09:22:51Z</time>
      </trkpt>
      <trkpt lat="43.49271" lon="2.19493">
        <ele>455.32</ele>
        <time>2019-12-21T09:22:52Z</time>
      </trkpt>
      <trkpt lat="43.49285" lon="2.19493">
        <ele>451.48</ele>
        <time>2019-12-21T09:22:57Z</time>
      </trkpt>
      <trkpt lat="43.49309" lon="2.19498">
        <ele>448.11</ele>
        <time>2019-12-21T09:23:02Z</time>
      </trkpt>
      <trkpt lat="43.49321" lon="2.19506">
        <ele>447.63</ele>
        <time>2019-12-21T09:23:03Z</time>
      </trkpt>
      <trkpt lat="43.49341" lon="2.19529">
        <ele>446.67</ele>
        <time>2019-12-21T09:23:06Z</time>
      </trkpt>
      <trkpt lat="43.49361" lon="2.19555">
        <ele>442.34</ele>
        <time>2019-12-21T09:23:10Z</time>
      </trkpt>
      <trkpt lat="43.49363" lon="2.19558">
        <ele>441.86</ele>
        <time>2019-12-21T09:23:11Z</time>
      </trkpt>
      <trkpt lat="43.49372" lon="2.19562">
        <ele>440.42</ele>
        <time>2019-12-21T09:23:12Z</time>
      </trkpt>
      <trkpt lat="43.49377" lon="2.19564">
        <ele>440.42</ele>
        <time>2019-12-21T09:23:13Z</time>
      </trkpt>
      <trkpt lat="43.49382" lon="2.19564">
        <ele>439.94</ele>
        <time>2019-12-21T09:23:14Z</time>
      </trkpt>
      <trkpt lat="43.49386" lon="2.19564">
        <ele>438.98</ele>
        <time>2019-12-21T09:23:15Z</time>
      </trkpt>
      <trkpt lat="43.49392" lon="2.1956">
        <ele>438.02</ele>
        <time>2019-12-21T09:23:17Z</time>
      </trkpt>
      <trkpt lat="43.49395" lon="2.19556">
        <ele>437.54</ele>
        <time>2019-12-21T09:23:18Z</time>
      </trkpt>
      <trkpt lat="43.49399" lon="2.19549">
        <ele>436.1</ele>
        <time>2019-12-21T09:23:20Z</time>
      </trkpt>
      <trkpt lat="43.49401" lon="2.19546">
        <ele>435.13</ele>
        <time>2019-12-21T09:23:21Z</time>
      </trkpt>
      <trkpt lat="43.49407" lon="2.19531">
        <ele>433.21</ele>
        <time>2019-12-21T09:23:25Z</time>
      </trkpt>
      <trkpt lat="43.49413" lon="2.19504">
        <ele>430.33</ele>
        <time>2019-12-21T09:23:31Z</time>
      </trkpt>
      <trkpt lat="43.49418" lon="2.19497">
        <ele>429.37</ele>
        <time>2019-12-21T09:23:33Z</time>
      </trkpt>
      <trkpt lat="43.49433" lon="2.19479">
        <ele>425.04</ele>
        <time>2019-12-21T09:23:38Z</time>
      </trkpt>
      <trkpt lat="43.49435" lon="2.19477">
        <ele>424.08</ele>
        <time>2019-12-21T09:23:39Z</time>
      </trkpt>
      <trkpt lat="43.49439" lon="2.19475">
        <ele>423.6</ele>
        <time>2019-12-21T09:23:40Z</time>
      </trkpt>
      <trkpt lat="43.49443" lon="2.19474">
        <ele>423.12</ele>
        <time>2019-12-21T09:23:41Z</time>
      </trkpt>
      <trkpt lat="43.49447" lon="2.19473">
        <ele>423.12</ele>
        <time>2019-12-21T09:23:42Z</time>
      </trkpt>
      <trkpt lat="43.49467" lon="2.19467">
        <ele>419.27</ele>
        <time>2019-12-21T09:23:46Z</time>
      </trkpt>
      <trkpt lat="43.49488" lon="2.19471">
        <ele>415.91</ele>
        <time>2019-12-21T09:23:52Z</time>
      </trkpt>
      <trkpt lat="43.49491" lon="2.19474">
        <ele>416.39</ele>
        <time>2019-12-21T09:23:53Z</time>
      </trkpt>
      <trkpt lat="43.49493" lon="2.19478">
        <ele>415.43</ele>
        <time>2019-12-21T09:23:54Z</time>
      </trkpt>
      <trkpt lat="43.49495" lon="2.19482">
        <ele>414.95</ele>
        <time>2019-12-21T09:23:55Z</time>
      </trkpt>
      <trkpt lat="43.495" lon="2.19493">
        <ele>414.95</ele>
        <time>2019-12-21T09:24:07Z</time>
      </trkpt>
      <trkpt lat="43.49502" lon="2.19494">
        <ele>415.43</ele>
        <time>2019-12-21T09:24:08Z</time>
      </trkpt>
      <trkpt lat="43.49505" lon="2.19495">
        <ele>415.43</ele>
        <time>2019-12-21T09:24:09Z</time>
      </trkpt>
      <trkpt lat="43.49507" lon="2.19496">
        <ele>414.47</ele>
        <time>2019-12-21T09:24:10Z</time>
      </trkpt>
      <trkpt lat="43.49509" lon="2.19499">
        <ele>414.95</ele>
        <time>2019-12-21T09:24:11Z</time>
      </trkpt>
      <trkpt lat="43.4951" lon="2.19501">
        <ele>413.5</ele>
        <time>2019-12-21T09:24:12Z</time>
      </trkpt>
      <trkpt lat="43.49512" lon="2.19504">
        <ele>413.98</ele>
        <time>2019-12-21T09:24:13Z</time>
      </trkpt>
      <trkpt lat="43.49524" lon="2.1955">
        <ele>411.1</ele>
        <time>2019-12-21T09:24:24Z</time>
      </trkpt>
      <trkpt lat="43.49524" lon="2.1964">
        <ele>409.66</ele>
        <time>2019-12-21T09:24:42Z</time>
      </trkpt>
      <trkpt lat="43.49524" lon="2.19652">
        <ele>409.18</ele>
        <time>2019-12-21T09:24:45Z</time>
      </trkpt>
      <trkpt lat="43.49517" lon="2.19696">
        <ele>408.22</ele>
        <time>2019-12-21T09:25:02Z</time>
      </trkpt>
      <trkpt lat="43.49509" lon="2.19709">
        <ele>408.7</ele>
        <time>2019-12-21T09:25:13Z</time>
      </trkpt>
      <trkpt lat="43.49507" lon="2.19713">
        <ele>407.74</ele>
        <time>2019-12-21T09:25:15Z</time>
      </trkpt>
      <trkpt lat="43.49497" lon="2.19742">
        <ele>408.22</ele>
        <time>2019-12-21T09:25:32Z</time>
      </trkpt>
      <trkpt lat="43.49495" lon="2.19749">
        <ele>407.26</ele>
        <time>2019-12-21T09:25:35Z</time>
      </trkpt>
      <trkpt lat="43.49495" lon="2.19751">
        <ele>407.74</ele>
        <time>2019-12-21T09:25:36Z</time>
      </trkpt>
      <trkpt lat="43.49486" lon="2.19776">
        <ele>405.81</ele>
        <time>2019-12-21T09:25:48Z</time>
      </trkpt>
      <trkpt lat="43.49481" lon="2.19791">
        <ele>405.81</ele>
        <time>2019-12-21T09:25:55Z</time>
      </trkpt>
      <trkpt lat="43.4948" lon="2.19793">
        <ele>403.89</ele>
        <time>2019-12-21T09:25:56Z</time>
      </trkpt>
      <trkpt lat="43.49479" lon="2.19796">
        <ele>405.33</ele>
        <time>2019-12-21T09:25:57Z</time>
      </trkpt>
      <trkpt lat="43.49478" lon="2.19798">
        <ele>403.89</ele>
        <time>2019-12-21T09:25:58Z</time>
      </trkpt>
      <trkpt lat="43.49477" lon="2.198">
        <ele>403.89</ele>
        <time>2019-12-21T09:25:59Z</time>
      </trkpt>
      <trkpt lat="43.49477" lon="2.19803">
        <ele>404.85</ele>
        <time>2019-12-21T09:26:00Z</time>
      </trkpt>
      <trkpt lat="43.49476" lon="2.19806">
        <ele>403.89</ele>
        <time>2019-12-21T09:26:01Z</time>
      </trkpt>
      <trkpt lat="43.49475" lon="2.19809">
        <ele>403.41</ele>
        <time>2019-12-21T09:26:02Z</time>
      </trkpt>
      <trkpt lat="43.49474" lon="2.19815">
        <ele>403.41</ele>
        <time>2019-12-21T09:26:18Z</time>
      </trkpt>
      <trkpt lat="43.49474" lon="2.19822">
        <ele>404.37</ele>
        <time>2019-12-21T09:26:39Z</time>
      </trkpt>
      <trkpt lat="43.49469" lon="2.19832">
        <ele>401.97</ele>
        <time>2019-12-21T09:26:43Z</time>
      </trkpt>
      <trkpt lat="43.49468" lon="2.19835">
        <ele>402.93</ele>
        <time>2019-12-21T09:26:44Z</time>
      </trkpt>
      <trkpt lat="43.49467" lon="2.19838">
        <ele>401.49</ele>
        <time>2019-12-21T09:26:45Z</time>
      </trkpt>
      <trkpt lat="43.49459" lon="2.19854">
        <ele>399.57</ele>
        <time>2019-12-21T09:26:51Z</time>
      </trkpt>
      <trkpt lat="43.49452" lon="2.1988">
        <ele>397.64</ele>
        <time>2019-12-21T09:26:58Z</time>
      </trkpt>
      <trkpt lat="43.49445" lon="2.19901">
        <ele>395.72</ele>
        <time>2019-12-21T09:27:04Z</time>
      </trkpt>
      <trkpt lat="43.49435" lon="2.19941">
        <ele>392.84</ele>
        <time>2019-12-21T09:27:15Z</time>
      </trkpt>
      <trkpt lat="43.49427" lon="2.19964">
        <ele>390.91</ele>
        <time>2019-12-21T09:27:21Z</time>
      </trkpt>
      <trkpt lat="43.4942" lon="2.19984">
        <ele>388.99</ele>
        <time>2019-12-21T09:27:26Z</time>
      </trkpt>
      <trkpt lat="43.4942" lon="2.19989">
        <ele>389.47</ele>
        <time>2019-12-21T09:27:28Z</time>
      </trkpt>
      <trkpt lat="43.49421" lon="2.19992">
        <ele>388.03</ele>
        <time>2019-12-21T09:27:29Z</time>
      </trkpt>
      <trkpt lat="43.49413" lon="2.20005">
        <ele>388.03</ele>
        <time>2019-12-21T09:27:37Z</time>
      </trkpt>
      <trkpt lat="43.49412" lon="2.20009">
        <ele>387.55</ele>
        <time>2019-12-21T09:27:38Z</time>
      </trkpt>
      <trkpt lat="43.49401" lon="2.20033">
        <ele>384.18</ele>
        <time>2019-12-21T09:27:47Z</time>
      </trkpt>
      <trkpt lat="43.49397" lon="2.20035">
        <ele>384.18</ele>
        <time>2019-12-21T09:27:50Z</time>
      </trkpt>
      <trkpt lat="43.49395" lon="2.20037">
        <ele>384.18</ele>
        <time>2019-12-21T09:27:51Z</time>
      </trkpt>
      <trkpt lat="43.49388" lon="2.20043">
        <ele>381.3</ele>
        <time>2019-12-21T09:27:54Z</time>
      </trkpt>
      <trkpt lat="43.49349" lon="2.20082">
        <ele>377.94</ele>
        <time>2019-12-21T09:28:04Z</time>
      </trkpt>
      <trkpt lat="43.49347" lon="2.20086">
        <ele>377.45</ele>
        <time>2019-12-21T09:28:05Z</time>
      </trkpt>
      <trkpt lat="43.49341" lon="2.20096">
        <ele>377.45</ele>
        <time>2019-12-21T09:28:07Z</time>
      </trkpt>
      <trkpt lat="43.49339" lon="2.201">
        <ele>376.97</ele>
        <time>2019-12-21T09:28:08Z</time>
      </trkpt>
      <trkpt lat="43.49333" lon="2.20116">
        <ele>375.05</ele>
        <time>2019-12-21T09:28:11Z</time>
      </trkpt>
      <trkpt lat="43.49327" lon="2.20143">
        <ele>370.73</ele>
        <time>2019-12-21T09:28:16Z</time>
      </trkpt>
      <trkpt lat="43.49325" lon="2.20151">
        <ele>370.73</ele>
        <time>2019-12-21T09:28:18Z</time>
      </trkpt>
      <trkpt lat="43.49327" lon="2.20157">
        <ele>369.28</ele>
        <time>2019-12-21T09:28:20Z</time>
      </trkpt>
      <trkpt lat="43.49329" lon="2.20162">
        <ele>368.32</ele>
        <time>2019-12-21T09:28:22Z</time>
      </trkpt>
      <trkpt lat="43.49324" lon="2.20182">
        <ele>366.88</ele>
        <time>2019-12-21T09:28:26Z</time>
      </trkpt>
      <trkpt lat="43.49321" lon="2.20207">
        <ele>363.52</ele>
        <time>2019-12-21T09:28:31Z</time>
      </trkpt>
      <trkpt lat="43.49322" lon="2.20225">
        <ele>361.59</ele>
        <time>2019-12-21T09:28:35Z</time>
      </trkpt>
      <trkpt lat="43.4932" lon="2.20229">
        <ele>360.15</ele>
        <time>2019-12-21T09:28:36Z</time>
      </trkpt>
      <trkpt lat="43.49318" lon="2.20237">
        <ele>361.11</ele>
        <time>2019-12-21T09:28:38Z</time>
      </trkpt>
      <trkpt lat="43.49309" lon="2.2027">
        <ele>359.19</ele>
        <time>2019-12-21T09:28:47Z</time>
      </trkpt>
      <trkpt lat="43.49303" lon="2.20279">
        <ele>357.75</ele>
        <time>2019-12-21T09:28:50Z</time>
      </trkpt>
      <trkpt lat="43.493" lon="2.20284">
        <ele>359.19</ele>
        <time>2019-12-21T09:28:52Z</time>
      </trkpt>
      <trkpt lat="43.49287" lon="2.20303">
        <ele>361.11</ele>
        <time>2019-12-21T09:29:01Z</time>
      </trkpt>
      <trkpt lat="43.4923" lon="2.20358">
        <ele>351.5</ele>
        <time>2019-12-21T09:31:15Z</time>
      </trkpt>
      <trkpt lat="43.49226" lon="2.20378">
        <ele>350.54</ele>
        <time>2019-12-21T09:31:18Z</time>
      </trkpt>
      <trkpt lat="43.49224" lon="2.20393">
        <ele>348.13</ele>
        <time>2019-12-21T09:31:21Z</time>
      </trkpt>
      <trkpt lat="43.49227" lon="2.20414">
        <ele>345.25</ele>
        <time>2019-12-21T09:31:25Z</time>
      </trkpt>
      <trkpt lat="43.49239" lon="2.20436">
        <ele>341.89</ele>
        <time>2019-12-21T09:31:31Z</time>
      </trkpt>
      <trkpt lat="43.49242" lon="2.20436">
        <ele>341.89</ele>
        <time>2019-12-21T09:31:46Z</time>
      </trkpt>
      <trkpt lat="43.49243" lon="2.20437">
        <ele>341.89</ele>
        <time>2019-12-21T09:32:14Z</time>
      </trkpt>
      <trkpt lat="43.49246" lon="2.20434">
        <ele>342.37</ele>
        <time>2019-12-21T09:32:47Z</time>
      </trkpt>
      <trkpt lat="43.49267" lon="2.20474">
        <ele>340.44</ele>
        <time>2019-12-21T09:33:02Z</time>
      </trkpt>
      <trkpt lat="43.49269" lon="2.20478">
        <ele>339.96</ele>
        <time>2019-12-21T09:33:03Z</time>
      </trkpt>
      <trkpt lat="43.49282" lon="2.2052">
        <ele>336.6</ele>
        <time>2019-12-21T09:33:11Z</time>
      </trkpt>
      <trkpt lat="43.49284" lon="2.20526">
        <ele>336.6</ele>
        <time>2019-12-21T09:33:14Z</time>
      </trkpt>
      <trkpt lat="43.49286" lon="2.20547">
        <ele>334.68</ele>
        <time>2019-12-21T09:33:21Z</time>
      </trkpt>
      <trkpt lat="43.49284" lon="2.20548">
        <ele>334.68</ele>
        <time>2019-12-21T09:33:22Z</time>
      </trkpt>
      <trkpt lat="43.49282" lon="2.20549">
        <ele>335.16</ele>
        <time>2019-12-21T09:33:23Z</time>
      </trkpt>
      <trkpt lat="43.4928" lon="2.2055">
        <ele>334.68</ele>
        <time>2019-12-21T09:33:24Z</time>
      </trkpt>
      <trkpt lat="43.49275" lon="2.20549">
        <ele>334.68</ele>
        <time>2019-12-21T09:33:44Z</time>
      </trkpt>
      <trkpt lat="43.49275" lon="2.20551">
        <ele>334.68</ele>
        <time>2019-12-21T09:34:16Z</time>
      </trkpt>
      <trkpt lat="43.4926" lon="2.20548">
        <ele>333.71</ele>
        <time>2019-12-21T09:34:21Z</time>
      </trkpt>
      <trkpt lat="43.49237" lon="2.20536">
        <ele>330.83</ele>
        <time>2019-12-21T09:34:25Z</time>
      </trkpt>
      <trkpt lat="43.49219" lon="2.20523">
        <ele>326.5</ele>
        <time>2019-12-21T09:34:28Z</time>
      </trkpt>
      <trkpt lat="43.49203" lon="2.20512">
        <ele>323.14</ele>
        <time>2019-12-21T09:34:31Z</time>
      </trkpt>
      <trkpt lat="43.49197" lon="2.20509">
        <ele>321.7</ele>
        <time>2019-12-21T09:34:32Z</time>
      </trkpt>
      <trkpt lat="43.48943" lon="2.20405">
        <ele>415.43</ele>
        <time>2019-12-21T09:58:28Z</time>
      </trkpt>
      <trkpt lat="43.48941" lon="2.2039">
        <ele>418.31</ele>
        <time>2019-12-21T09:58:46Z</time>
      </trkpt>
      <trkpt lat="43.48939" lon="2.20379">
        <ele>421.68</ele>
        <time>2019-12-21T09:59:00Z</time>
      </trkpt>
      <trkpt lat="43.48933" lon="2.20368">
        <ele>425.04</ele>
        <time>2019-12-21T09:59:18Z</time>
      </trkpt>
      <trkpt lat="43.48925" lon="2.20355">
        <ele>428.4</ele>
        <time>2019-12-21T09:59:38Z</time>
      </trkpt>
      <trkpt lat="43.48921" lon="2.2035">
        <ele>431.29</ele>
        <time>2019-12-21T09:59:52Z</time>
      </trkpt>
      <trkpt lat="43.48916" lon="2.20341">
        <ele>434.17</ele>
        <time>2019-12-21T10:00:10Z</time>
      </trkpt>
      <trkpt lat="43.48906" lon="2.20338">
        <ele>437.54</ele>
        <time>2019-12-21T10:00:27Z</time>
      </trkpt>
      <trkpt lat="43.48894" lon="2.20344">
        <ele>440.42</ele>
        <time>2019-12-21T10:00:45Z</time>
      </trkpt>
      <trkpt lat="43.48886" lon="2.20335">
        <ele>443.79</ele>
        <time>2019-12-21T10:01:03Z</time>
      </trkpt>
      <trkpt lat="43.48882" lon="2.20319">
        <ele>446.67</ele>
        <time>2019-12-21T10:01:23Z</time>
      </trkpt>
      <trkpt lat="43.48877" lon="2.20299">
        <ele>449.55</ele>
        <time>2019-12-21T10:01:41Z</time>
      </trkpt>
      <trkpt lat="43.48872" lon="2.20286">
        <ele>452.92</ele>
        <time>2019-12-21T10:01:59Z</time>
      </trkpt>
      <trkpt lat="43.48865" lon="2.20273">
        <ele>455.32</ele>
        <time>2019-12-21T10:02:17Z</time>
      </trkpt>
      <trkpt lat="43.4886" lon="2.20256">
        <ele>458.69</ele>
        <time>2019-12-21T10:02:36Z</time>
      </trkpt>
      <trkpt lat="43.48849" lon="2.20257">
        <ele>461.57</ele>
        <time>2019-12-21T10:02:53Z</time>
      </trkpt>
      <trkpt lat="43.4884" lon="2.20264">
        <ele>464.93</ele>
        <time>2019-12-21T10:03:08Z</time>
      </trkpt>
      <trkpt lat="43.48829" lon="2.20275">
        <ele>467.82</ele>
        <time>2019-12-21T10:03:26Z</time>
      </trkpt>
      <trkpt lat="43.4882" lon="2.20283">
        <ele>469.74</ele>
        <time>2019-12-21T10:03:47Z</time>
      </trkpt>
      <trkpt lat="43.4881" lon="2.20293">
        <ele>469.74</ele>
        <time>2019-12-21T10:04:03Z</time>
      </trkpt>
      <trkpt lat="43.48791" lon="2.20302">
        <ele>472.63</ele>
        <time>2019-12-21T10:04:18Z</time>
      </trkpt>
      <trkpt lat="43.48773" lon="2.20308">
        <ele>476.47</ele>
        <time>2019-12-21T10:04:35Z</time>
      </trkpt>
      <trkpt lat="43.48759" lon="2.20306">
        <ele>479.35</ele>
        <time>2019-12-21T10:04:54Z</time>
      </trkpt>
      <trkpt lat="43.48747" lon="2.203">
        <ele>482.24</ele>
        <time>2019-12-21T10:05:13Z</time>
      </trkpt>
      <trkpt lat="43.48733" lon="2.20307">
        <ele>484.64</ele>
        <time>2019-12-21T10:05:33Z</time>
      </trkpt>
      <trkpt lat="43.4872" lon="2.20313">
        <ele>486.08</ele>
        <time>2019-12-21T10:05:51Z</time>
      </trkpt>
      <trkpt lat="43.48703" lon="2.20321">
        <ele>488.97</ele>
        <time>2019-12-21T10:06:10Z</time>
      </trkpt>
      <trkpt lat="43.48685" lon="2.20323">
        <ele>490.89</ele>
        <time>2019-12-21T10:06:27Z</time>
      </trkpt>
      <trkpt lat="43.48689" lon="2.20318">
        <ele>492.33</ele>
        <time>2019-12-21T10:06:39Z</time>
      </trkpt>
      <trkpt lat="43.48697" lon="2.20312">
        <ele>493.29</ele>
        <time>2019-12-21T10:06:53Z</time>
      </trkpt>
      <trkpt lat="43.48698" lon="2.20311">
        <ele>492.81</ele>
        <time>2019-12-21T10:06:54Z</time>
      </trkpt>
      <trkpt lat="43.48705" lon="2.20295">
        <ele>495.7</ele>
        <time>2019-12-21T10:07:10Z</time>
      </trkpt>
      <trkpt lat="43.48718" lon="2.20275">
        <ele>497.62</ele>
        <time>2019-12-21T10:07:24Z</time>
      </trkpt>
      <trkpt lat="43.48729" lon="2.20256">
        <ele>499.54</ele>
        <time>2019-12-21T10:07:39Z</time>
      </trkpt>
      <trkpt lat="43.48746" lon="2.20221">
        <ele>501.46</ele>
        <time>2019-12-21T10:07:55Z</time>
      </trkpt>
      <trkpt lat="43.48748" lon="2.20208">
        <ele>503.39</ele>
        <time>2019-12-21T10:08:10Z</time>
      </trkpt>
      <trkpt lat="43.48742" lon="2.20201">
        <ele>506.75</ele>
        <time>2019-12-21T10:08:31Z</time>
      </trkpt>
      <trkpt lat="43.48736" lon="2.20198">
        <ele>509.64</ele>
        <time>2019-12-21T10:08:51Z</time>
      </trkpt>
      <trkpt lat="43.4873" lon="2.20194">
        <ele>512.52</ele>
        <time>2019-12-21T10:09:09Z</time>
      </trkpt>
      <trkpt lat="43.48728" lon="2.20181">
        <ele>515.88</ele>
        <time>2019-12-21T10:09:27Z</time>
      </trkpt>
      <trkpt lat="43.48722" lon="2.20174">
        <ele>519.25</ele>
        <time>2019-12-21T10:09:41Z</time>
      </trkpt>
      <trkpt lat="43.48716" lon="2.20167">
        <ele>520.21</ele>
        <time>2019-12-21T10:10:01Z</time>
      </trkpt>
      <trkpt lat="43.48713" lon="2.20174">
        <ele>521.17</ele>
        <time>2019-12-21T10:10:07Z</time>
      </trkpt>
      <trkpt lat="43.48712" lon="2.20176">
        <ele>520.69</ele>
        <time>2019-12-21T10:10:08Z</time>
      </trkpt>
      <trkpt lat="43.48711" lon="2.20178">
        <ele>521.65</ele>
        <time>2019-12-21T10:10:09Z</time>
      </trkpt>
      <trkpt lat="43.4871" lon="2.2018">
        <ele>521.65</ele>
        <time>2019-12-21T10:10:10Z</time>
      </trkpt>
      <trkpt lat="43.48709" lon="2.20181">
        <ele>521.65</ele>
        <time>2019-12-21T10:10:11Z</time>
      </trkpt>
      <trkpt lat="43.48692" lon="2.202">
        <ele>525.02</ele>
        <time>2019-12-21T10:10:26Z</time>
      </trkpt>
      <trkpt lat="43.48665" lon="2.2022">
        <ele>527.9</ele>
        <time>2019-12-21T10:10:50Z</time>
      </trkpt>
      <trkpt lat="43.48639" lon="2.20231">
        <ele>530.79</ele>
        <time>2019-12-21T10:11:08Z</time>
      </trkpt>
      <trkpt lat="43.48631" lon="2.2023">
        <ele>531.75</ele>
        <time>2019-12-21T10:11:14Z</time>
      </trkpt>
      <trkpt lat="43.48609" lon="2.2024">
        <ele>534.15</ele>
        <time>2019-12-21T10:11:32Z</time>
      </trkpt>
      <trkpt lat="43.48589" lon="2.20268">
        <ele>537.03</ele>
        <time>2019-12-21T10:11:50Z</time>
      </trkpt>
      <trkpt lat="43.48572" lon="2.20283">
        <ele>539.44</ele>
        <time>2019-12-21T10:12:05Z</time>
      </trkpt>
      <trkpt lat="43.48543" lon="2.20292">
        <ele>542.8</ele>
        <time>2019-12-21T10:12:24Z</time>
      </trkpt>
      <trkpt lat="43.48518" lon="2.20309">
        <ele>543.76</ele>
        <time>2019-12-21T10:12:43Z</time>
      </trkpt>
      <trkpt lat="43.48501" lon="2.20314">
        <ele>546.17</ele>
        <time>2019-12-21T10:12:59Z</time>
      </trkpt>
      <trkpt lat="43.48486" lon="2.2031">
        <ele>548.09</ele>
        <time>2019-12-21T10:13:16Z</time>
      </trkpt>
      <trkpt lat="43.48471" lon="2.20305">
        <ele>550.01</ele>
        <time>2019-12-21T10:13:31Z</time>
      </trkpt>
      <trkpt lat="43.48461" lon="2.20294">
        <ele>550.49</ele>
        <time>2019-12-21T10:13:41Z</time>
      </trkpt>
      <trkpt lat="43.48451" lon="2.20289">
        <ele>551.93</ele>
        <time>2019-12-21T10:13:56Z</time>
      </trkpt>
      <trkpt lat="43.48448" lon="2.20286">
        <ele>552.9</ele>
        <time>2019-12-21T10:14:00Z</time>
      </trkpt>
      <trkpt lat="43.48447" lon="2.20285">
        <ele>552.9</ele>
        <time>2019-12-21T10:14:01Z</time>
      </trkpt>
      <trkpt lat="43.48445" lon="2.20285">
        <ele>552.9</ele>
        <time>2019-12-21T10:14:02Z</time>
      </trkpt>
      <trkpt lat="43.48444" lon="2.20284">
        <ele>552.9</ele>
        <time>2019-12-21T10:14:03Z</time>
      </trkpt>
      <trkpt lat="43.48443" lon="2.20284">
        <ele>552.9</ele>
        <time>2019-12-21T10:14:04Z</time>
      </trkpt>
      <trkpt lat="43.4844" lon="2.2028">
        <ele>553.86</ele>
        <time>2019-12-21T10:14:08Z</time>
      </trkpt>
      <trkpt lat="43.48439" lon="2.20279">
        <ele>553.86</ele>
        <time>2019-12-21T10:14:09Z</time>
      </trkpt>
      <trkpt lat="43.48437" lon="2.20276">
        <ele>554.34</ele>
        <time>2019-12-21T10:14:11Z</time>
      </trkpt>
      <trkpt lat="43.48421" lon="2.20265">
        <ele>557.22</ele>
        <time>2019-12-21T10:14:26Z</time>
      </trkpt>
      <trkpt lat="43.48405" lon="2.20258">
        <ele>557.22</ele>
        <time>2019-12-21T10:14:40Z</time>
      </trkpt>
      <trkpt lat="43.4838" lon="2.20264">
        <ele>558.18</ele>
        <time>2019-12-21T10:14:57Z</time>
      </trkpt>
      <trkpt lat="43.48353" lon="2.20282">
        <ele>558.66</ele>
        <time>2019-12-21T10:15:12Z</time>
      </trkpt>
      <trkpt lat="43.48351" lon="2.20283">
        <ele>558.18</ele>
        <time>2019-12-21T10:15:13Z</time>
      </trkpt>
      <trkpt lat="43.4835" lon="2.20284">
        <ele>559.14</ele>
        <time>2019-12-21T10:15:14Z</time>
      </trkpt>
      <trkpt lat="43.48348" lon="2.20285">
        <ele>558.18</ele>
        <time>2019-12-21T10:15:15Z</time>
      </trkpt>
      <trkpt lat="43.48346" lon="2.20286">
        <ele>558.66</ele>
        <time>2019-12-21T10:15:16Z</time>
      </trkpt>
      <trkpt lat="43.48345" lon="2.20286">
        <ele>558.66</ele>
        <time>2019-12-21T10:15:17Z</time>
      </trkpt>
      <trkpt lat="43.4834" lon="2.20289">
        <ele>559.14</ele>
        <time>2019-12-21T10:15:19Z</time>
      </trkpt>
      <trkpt lat="43.48339" lon="2.2029">
        <ele>558.66</ele>
        <time>2019-12-21T10:15:20Z</time>
      </trkpt>
      <trkpt lat="43.48337" lon="2.20291">
        <ele>559.62</ele>
        <time>2019-12-21T10:15:21Z</time>
      </trkpt>
      <trkpt lat="43.48335" lon="2.20292">
        <ele>560.59</ele>
        <time>2019-12-21T10:15:22Z</time>
      </trkpt>
      <trkpt lat="43.48333" lon="2.20293">
        <ele>559.62</ele>
        <time>2019-12-21T10:15:23Z</time>
      </trkpt>
      <trkpt lat="43.48326" lon="2.20298">
        <ele>561.07</ele>
        <time>2019-12-21T10:15:27Z</time>
      </trkpt>
      <trkpt lat="43.48324" lon="2.20298">
        <ele>561.07</ele>
        <time>2019-12-21T10:15:28Z</time>
      </trkpt>
      <trkpt lat="43.48323" lon="2.20298">
        <ele>561.55</ele>
        <time>2019-12-21T10:15:29Z</time>
      </trkpt>
      <trkpt lat="43.48321" lon="2.20298">
        <ele>562.03</ele>
        <time>2019-12-21T10:15:30Z</time>
      </trkpt>
      <trkpt lat="43.4832" lon="2.20298">
        <ele>562.03</ele>
        <time>2019-12-21T10:15:31Z</time>
      </trkpt>
      <trkpt lat="43.48318" lon="2.20299">
        <ele>562.03</ele>
        <time>2019-12-21T10:15:32Z</time>
      </trkpt>
      <trkpt lat="43.48316" lon="2.20299">
        <ele>562.51</ele>
        <time>2019-12-21T10:15:33Z</time>
      </trkpt>
      <trkpt lat="43.48315" lon="2.203">
        <ele>562.03</ele>
        <time>2019-12-21T10:15:34Z</time>
      </trkpt>
      <trkpt lat="43.48313" lon="2.203">
        <ele>562.03</ele>
        <time>2019-12-21T10:15:35Z</time>
      </trkpt>
      <trkpt lat="43.48299" lon="2.20303">
        <ele>564.43</ele>
        <time>2019-12-21T10:15:47Z</time>
      </trkpt>
      <trkpt lat="43.48297" lon="2.20304">
        <ele>564.43</ele>
        <time>2019-12-21T10:15:48Z</time>
      </trkpt>
      <trkpt lat="43.48291" lon="2.20306">
        <ele>565.39</ele>
        <time>2019-12-21T10:15:53Z</time>
      </trkpt>
      <trkpt lat="43.48283" lon="2.20307">
        <ele>566.35</ele>
        <time>2019-12-21T10:15:58Z</time>
      </trkpt>
      <trkpt lat="43.48282" lon="2.20308">
        <ele>566.35</ele>
        <time>2019-12-21T10:15:59Z</time>
      </trkpt>
      <trkpt lat="43.4827" lon="2.203">
        <ele>567.32</ele>
        <time>2019-12-21T10:16:18Z</time>
      </trkpt>
      <trkpt lat="43.48253" lon="2.20289">
        <ele>570.2</ele>
        <time>2019-12-21T10:16:33Z</time>
      </trkpt>
      <trkpt lat="43.48236" lon="2.20284">
        <ele>572.6</ele>
        <time>2019-12-21T10:16:48Z</time>
      </trkpt>
      <trkpt lat="43.48214" lon="2.20283">
        <ele>575.49</ele>
        <time>2019-12-21T10:17:05Z</time>
      </trkpt>
      <trkpt lat="43.48213" lon="2.20282">
        <ele>575.49</ele>
        <time>2019-12-21T10:17:06Z</time>
      </trkpt>
      <trkpt lat="43.48191" lon="2.20264">
        <ele>577.41</ele>
        <time>2019-12-21T10:17:24Z</time>
      </trkpt>
      <trkpt lat="43.4819" lon="2.20263">
        <ele>577.89</ele>
        <time>2019-12-21T10:17:25Z</time>
      </trkpt>
      <trkpt lat="43.48188" lon="2.20259">
        <ele>577.41</ele>
        <time>2019-12-21T10:17:27Z</time>
      </trkpt>
      <trkpt lat="43.4817" lon="2.20248">
        <ele>579.81</ele>
        <time>2019-12-21T10:17:40Z</time>
      </trkpt>
      <trkpt lat="43.48168" lon="2.20248">
        <ele>580.29</ele>
        <time>2019-12-21T10:17:41Z</time>
      </trkpt>
      <trkpt lat="43.48167" lon="2.20248">
        <ele>580.29</ele>
        <time>2019-12-21T10:17:42Z</time>
      </trkpt>
      <trkpt lat="43.48162" lon="2.20248">
        <ele>580.77</ele>
        <time>2019-12-21T10:17:45Z</time>
      </trkpt>
      <trkpt lat="43.48161" lon="2.20248">
        <ele>581.25</ele>
        <time>2019-12-21T10:17:46Z</time>
      </trkpt>
      <trkpt lat="43.4816" lon="2.20247">
        <ele>581.25</ele>
        <time>2019-12-21T10:17:47Z</time>
      </trkpt>
      <trkpt lat="43.48156" lon="2.20247">
        <ele>581.25</ele>
        <time>2019-12-21T10:17:50Z</time>
      </trkpt>
      <trkpt lat="43.48128" lon="2.20242">
        <ele>583.18</ele>
        <time>2019-12-21T10:18:05Z</time>
      </trkpt>
      <trkpt lat="43.48103" lon="2.20227">
        <ele>586.54</ele>
        <time>2019-12-21T10:18:23Z</time>
      </trkpt>
      <trkpt lat="43.48099" lon="2.20225">
        <ele>587.02</ele>
        <time>2019-12-21T10:18:26Z</time>
      </trkpt>
      <trkpt lat="43.48097" lon="2.20224">
        <ele>587.5</ele>
        <time>2019-12-21T10:18:27Z</time>
      </trkpt>
      <trkpt lat="43.48096" lon="2.20224">
        <ele>587.02</ele>
        <time>2019-12-21T10:18:28Z</time>
      </trkpt>
      <trkpt lat="43.4807" lon="2.20214">
        <ele>589.43</ele>
        <time>2019-12-21T10:18:46Z</time>
      </trkpt>
      <trkpt lat="43.4806" lon="2.20209">
        <ele>589.91</ele>
        <time>2019-12-21T10:18:52Z</time>
      </trkpt>
      <trkpt lat="43.48059" lon="2.20208">
        <ele>590.39</ele>
        <time>2019-12-21T10:18:53Z</time>
      </trkpt>
      <trkpt lat="43.48057" lon="2.20207">
        <ele>589.91</ele>
        <time>2019-12-21T10:18:54Z</time>
      </trkpt>
      <trkpt lat="43.48027" lon="2.20189">
        <ele>592.31</ele>
        <time>2019-12-21T10:19:12Z</time>
      </trkpt>
      <trkpt lat="43.48023" lon="2.20188">
        <ele>592.79</ele>
        <time>2019-12-21T10:19:15Z</time>
      </trkpt>
      <trkpt lat="43.48021" lon="2.20188">
        <ele>592.79</ele>
        <time>2019-12-21T10:19:16Z</time>
      </trkpt>
      <trkpt lat="43.48019" lon="2.20187">
        <ele>592.79</ele>
        <time>2019-12-21T10:19:17Z</time>
      </trkpt>
      <trkpt lat="43.48016" lon="2.20186">
        <ele>592.79</ele>
        <time>2019-12-21T10:19:18Z</time>
      </trkpt>
      <trkpt lat="43.48014" lon="2.20185">
        <ele>593.27</ele>
        <time>2019-12-21T10:19:19Z</time>
      </trkpt>
      <trkpt lat="43.48011" lon="2.20183">
        <ele>592.79</ele>
        <time>2019-12-21T10:19:20Z</time>
      </trkpt>
      <trkpt lat="43.48009" lon="2.20182">
        <ele>593.27</ele>
        <time>2019-12-21T10:19:21Z</time>
      </trkpt>
      <trkpt lat="43.48008" lon="2.20181">
        <ele>593.27</ele>
        <time>2019-12-21T10:19:22Z</time>
      </trkpt>
      <trkpt lat="43.47994" lon="2.20174">
        <ele>594.71</ele>
        <time>2019-12-21T10:19:28Z</time>
      </trkpt>
      <trkpt lat="43.47991" lon="2.20174">
        <ele>594.71</ele>
        <time>2019-12-21T10:19:29Z</time>
      </trkpt>
      <trkpt lat="43.47989" lon="2.20173">
        <ele>594.71</ele>
        <time>2019-12-21T10:19:30Z</time>
      </trkpt>
      <trkpt lat="43.47988" lon="2.20171">
        <ele>594.71</ele>
        <time>2019-12-21T10:19:31Z</time>
      </trkpt>
      <trkpt lat="43.47986" lon="2.2017">
        <ele>595.67</ele>
        <time>2019-12-21T10:19:32Z</time>
      </trkpt>
      <trkpt lat="43.47984" lon="2.20169">
        <ele>594.71</ele>
        <time>2019-12-21T10:19:33Z</time>
      </trkpt>
      <trkpt lat="43.47983" lon="2.20167">
        <ele>595.67</ele>
        <time>2019-12-21T10:19:34Z</time>
      </trkpt>
      <trkpt lat="43.47981" lon="2.20166">
        <ele>595.67</ele>
        <time>2019-12-21T10:19:35Z</time>
      </trkpt>
      <trkpt lat="43.47979" lon="2.20164">
        <ele>596.15</ele>
        <time>2019-12-21T10:19:36Z</time>
      </trkpt>
      <trkpt lat="43.47965" lon="2.20155">
        <ele>595.19</ele>
        <time>2019-12-21T10:19:44Z</time>
      </trkpt>
      <trkpt lat="43.47963" lon="2.20154">
        <ele>595.67</ele>
        <time>2019-12-21T10:19:45Z</time>
      </trkpt>
      <trkpt lat="43.47961" lon="2.20154">
        <ele>595.19</ele>
        <time>2019-12-21T10:19:46Z</time>
      </trkpt>
      <trkpt lat="43.47958" lon="2.20154">
        <ele>595.19</ele>
        <time>2019-12-21T10:19:47Z</time>
      </trkpt>
      <trkpt lat="43.47956" lon="2.20153">
        <ele>594.71</ele>
        <time>2019-12-21T10:19:48Z</time>
      </trkpt>
      <trkpt lat="43.47953" lon="2.20152">
        <ele>595.19</ele>
        <time>2019-12-21T10:19:49Z</time>
      </trkpt>
      <trkpt lat="43.47951" lon="2.2015">
        <ele>595.19</ele>
        <time>2019-12-21T10:19:50Z</time>
      </trkpt>
      <trkpt lat="43.4795" lon="2.20148">
        <ele>596.15</ele>
        <time>2019-12-21T10:19:51Z</time>
      </trkpt>
      <trkpt lat="43.47947" lon="2.20147">
        <ele>595.67</ele>
        <time>2019-12-21T10:19:52Z</time>
      </trkpt>
      <trkpt lat="43.47945" lon="2.20146">
        <ele>596.15</ele>
        <time>2019-12-21T10:19:53Z</time>
      </trkpt>
      <trkpt lat="43.47943" lon="2.20145">
        <ele>596.15</ele>
        <time>2019-12-21T10:19:54Z</time>
      </trkpt>
      <trkpt lat="43.47937" lon="2.20143">
        <ele>596.15</ele>
        <time>2019-12-21T10:19:57Z</time>
      </trkpt>
      <trkpt lat="43.47935" lon="2.20143">
        <ele>595.67</ele>
        <time>2019-12-21T10:19:58Z</time>
      </trkpt>
      <trkpt lat="43.47906" lon="2.2013">
        <ele>597.6</ele>
        <time>2019-12-21T10:20:13Z</time>
      </trkpt>
      <trkpt lat="43.47869" lon="2.20138">
        <ele>599.04</ele>
        <time>2019-12-21T10:20:32Z</time>
      </trkpt>
      <trkpt lat="43.47845" lon="2.20156">
        <ele>600.96</ele>
        <time>2019-12-21T10:20:48Z</time>
      </trkpt>
      <trkpt lat="43.47817" lon="2.20164">
        <ele>602.4</ele>
        <time>2019-12-21T10:21:03Z</time>
      </trkpt>
      <trkpt lat="43.47815" lon="2.20163">
        <ele>602.4</ele>
        <time>2019-12-21T10:21:04Z</time>
      </trkpt>
      <trkpt lat="43.47813" lon="2.20161">
        <ele>603.36</ele>
        <time>2019-12-21T10:21:06Z</time>
      </trkpt>
      <trkpt lat="43.47812" lon="2.20161">
        <ele>603.36</ele>
        <time>2019-12-21T10:21:07Z</time>
      </trkpt>
      <trkpt lat="43.47781" lon="2.20166">
        <ele>606.25</ele>
        <time>2019-12-21T10:21:25Z</time>
      </trkpt>
      <trkpt lat="43.47767" lon="2.20168">
        <ele>607.21</ele>
        <time>2019-12-21T10:21:33Z</time>
      </trkpt>
      <trkpt lat="43.47765" lon="2.20167">
        <ele>606.25</ele>
        <time>2019-12-21T10:21:34Z</time>
      </trkpt>
      <trkpt lat="43.47763" lon="2.20166">
        <ele>607.21</ele>
        <time>2019-12-21T10:21:35Z</time>
      </trkpt>
      <trkpt lat="43.47761" lon="2.20165">
        <ele>606.73</ele>
        <time>2019-12-21T10:21:36Z</time>
      </trkpt>
      <trkpt lat="43.47759" lon="2.20164">
        <ele>606.25</ele>
        <time>2019-12-21T10:21:37Z</time>
      </trkpt>
      <trkpt lat="43.47757" lon="2.20163">
        <ele>606.73</ele>
        <time>2019-12-21T10:21:38Z</time>
      </trkpt>
      <trkpt lat="43.47754" lon="2.20162">
        <ele>607.21</ele>
        <time>2019-12-21T10:21:39Z</time>
      </trkpt>
      <trkpt lat="43.47752" lon="2.20161">
        <ele>606.73</ele>
        <time>2019-12-21T10:21:40Z</time>
      </trkpt>
      <trkpt lat="43.47719" lon="2.2016">
        <ele>608.17</ele>
        <time>2019-12-21T10:21:56Z</time>
      </trkpt>
      <trkpt lat="43.47703" lon="2.20161">
        <ele>611.06</ele>
        <time>2019-12-21T10:22:06Z</time>
      </trkpt>
      <trkpt lat="43.47701" lon="2.20161">
        <ele>611.06</ele>
        <time>2019-12-21T10:22:07Z</time>
      </trkpt>
      <trkpt lat="43.47685" lon="2.20161">
        <ele>613.94</ele>
        <time>2019-12-21T10:22:20Z</time>
      </trkpt>
      <trkpt lat="43.47678" lon="2.20161">
        <ele>614.42</ele>
        <time>2019-12-21T10:22:42Z</time>
      </trkpt>
      <trkpt lat="43.47665" lon="2.20161">
        <ele>615.86</ele>
        <time>2019-12-21T10:22:59Z</time>
      </trkpt>
      <trkpt lat="43.47654" lon="2.20164">
        <ele>619.23</ele>
        <time>2019-12-21T10:23:09Z</time>
      </trkpt>
      <trkpt lat="43.47644" lon="2.20167">
        <ele>621.15</ele>
        <time>2019-12-21T10:23:18Z</time>
      </trkpt>
      <trkpt lat="43.47639" lon="2.20169">
        <ele>622.11</ele>
        <time>2019-12-21T10:23:22Z</time>
      </trkpt>
      <trkpt lat="43.47635" lon="2.2017">
        <ele>622.59</ele>
        <time>2019-12-21T10:23:26Z</time>
      </trkpt>
      <trkpt lat="43.47602" lon="2.20189">
        <ele>623.07</ele>
        <time>2019-12-21T10:23:47Z</time>
      </trkpt>
      <trkpt lat="43.47564" lon="2.20182">
        <ele>621.63</ele>
        <time>2019-12-21T10:24:01Z</time>
      </trkpt>
      <trkpt lat="43.47562" lon="2.2018">
        <ele>621.63</ele>
        <time>2019-12-21T10:24:02Z</time>
      </trkpt>
      <trkpt lat="43.4756" lon="2.20178">
        <ele>621.63</ele>
        <time>2019-12-21T10:24:03Z</time>
      </trkpt>
      <trkpt lat="43.47555" lon="2.20171">
        <ele>622.11</ele>
        <time>2019-12-21T10:24:07Z</time>
      </trkpt>
      <trkpt lat="43.47553" lon="2.20169">
        <ele>622.11</ele>
        <time>2019-12-21T10:24:08Z</time>
      </trkpt>
      <trkpt lat="43.47552" lon="2.20168">
        <ele>622.11</ele>
        <time>2019-12-21T10:24:09Z</time>
      </trkpt>
      <trkpt lat="43.47551" lon="2.20166">
        <ele>623.07</ele>
        <time>2019-12-21T10:24:10Z</time>
      </trkpt>
      <trkpt lat="43.47549" lon="2.20165">
        <ele>622.59</ele>
        <time>2019-12-21T10:24:11Z</time>
      </trkpt>
      <trkpt lat="43.47548" lon="2.20164">
        <ele>623.07</ele>
        <time>2019-12-21T10:24:12Z</time>
      </trkpt>
      <trkpt lat="43.47546" lon="2.20162">
        <ele>623.07</ele>
        <time>2019-12-21T10:24:13Z</time>
      </trkpt>
      <trkpt lat="43.47545" lon="2.2016">
        <ele>623.07</ele>
        <time>2019-12-21T10:24:14Z</time>
      </trkpt>
      <trkpt lat="43.47541" lon="2.20155">
        <ele>623.55</ele>
        <time>2019-12-21T10:24:17Z</time>
      </trkpt>
      <trkpt lat="43.4754" lon="2.20153">
        <ele>624.03</ele>
        <time>2019-12-21T10:24:18Z</time>
      </trkpt>
      <trkpt lat="43.4754" lon="2.20151">
        <ele>623.55</ele>
        <time>2019-12-21T10:24:19Z</time>
      </trkpt>
      <trkpt lat="43.47539" lon="2.20149">
        <ele>624.03</ele>
        <time>2019-12-21T10:24:20Z</time>
      </trkpt>
      <trkpt lat="43.47538" lon="2.20147">
        <ele>624.51</ele>
        <time>2019-12-21T10:24:21Z</time>
      </trkpt>
      <trkpt lat="43.47534" lon="2.20143">
        <ele>625.96</ele>
        <time>2019-12-21T10:24:25Z</time>
      </trkpt>
      <trkpt lat="43.47533" lon="2.20142">
        <ele>625.47</ele>
        <time>2019-12-21T10:24:26Z</time>
      </trkpt>
      <trkpt lat="43.47522" lon="2.20133">
        <ele>627.88</ele>
        <time>2019-12-21T10:24:41Z</time>
      </trkpt>
      <trkpt lat="43.47516" lon="2.20124">
        <ele>630.76</ele>
        <time>2019-12-21T10:24:54Z</time>
      </trkpt>
      <trkpt lat="43.47507" lon="2.20112">
        <ele>633.17</ele>
        <time>2019-12-21T10:25:12Z</time>
      </trkpt>
      <trkpt lat="43.47538" lon="2.20097">
        <ele>645.18</ele>
        <time>2019-12-21T10:30:33Z</time>
      </trkpt>
      <trkpt lat="43.47543" lon="2.20098">
        <ele>645.18</ele>
        <time>2019-12-21T10:30:37Z</time>
      </trkpt>
      <trkpt lat="43.47559" lon="2.20101">
        <ele>648.07</ele>
        <time>2019-12-21T10:30:52Z</time>
      </trkpt>
      <trkpt lat="43.47561" lon="2.20101">
        <ele>647.59</ele>
        <time>2019-12-21T10:30:53Z</time>
      </trkpt>
      <trkpt lat="43.47564" lon="2.20104">
        <ele>648.55</ele>
        <time>2019-12-21T10:30:57Z</time>
      </trkpt>
      <trkpt lat="43.47567" lon="2.20103">
        <ele>649.99</ele>
        <time>2019-12-21T10:30:59Z</time>
      </trkpt>
      <trkpt lat="43.47579" lon="2.20105">
        <ele>651.43</ele>
        <time>2019-12-21T10:31:09Z</time>
      </trkpt>
      <trkpt lat="43.47604" lon="2.20101">
        <ele>652.87</ele>
        <time>2019-12-21T10:31:26Z</time>
      </trkpt>
      <trkpt lat="43.47619" lon="2.20093">
        <ele>655.28</ele>
        <time>2019-12-21T10:31:35Z</time>
      </trkpt>
      <trkpt lat="43.47648" lon="2.20073">
        <ele>656.24</ele>
        <time>2019-12-21T10:31:52Z</time>
      </trkpt>
      <trkpt lat="43.47678" lon="2.20054">
        <ele>657.68</ele>
        <time>2019-12-21T10:32:09Z</time>
      </trkpt>
      <trkpt lat="43.47721" lon="2.20032">
        <ele>657.2</ele>
        <time>2019-12-21T10:32:24Z</time>
      </trkpt>
      <trkpt lat="43.47782" lon="2.1999">
        <ele>657.68</ele>
        <time>2019-12-21T10:32:42Z</time>
      </trkpt>
      <trkpt lat="43.47836" lon="2.19962">
        <ele>659.6</ele>
        <time>2019-12-21T10:32:59Z</time>
      </trkpt>
      <trkpt lat="43.47882" lon="2.19951">
        <ele>662.49</ele>
        <time>2019-12-21T10:33:15Z</time>
      </trkpt>
      <trkpt lat="43.47907" lon="2.19932">
        <ele>664.41</ele>
        <time>2019-12-21T10:33:30Z</time>
      </trkpt>
      <trkpt lat="43.47914" lon="2.1992">
        <ele>665.85</ele>
        <time>2019-12-21T10:33:44Z</time>
      </trkpt>
      <trkpt lat="43.4792" lon="2.19903">
        <ele>667.77</ele>
        <time>2019-12-21T10:34:20Z</time>
      </trkpt>
      <trkpt lat="43.47928" lon="2.19862">
        <ele>670.18</ele>
        <time>2019-12-21T10:34:39Z</time>
      </trkpt>
      <trkpt lat="43.47929" lon="2.19858">
        <ele>670.66</ele>
        <time>2019-12-21T10:34:40Z</time>
      </trkpt>
      <trkpt lat="43.47932" lon="2.1982">
        <ele>672.58</ele>
        <time>2019-12-21T10:34:57Z</time>
      </trkpt>
      <trkpt lat="43.4793" lon="2.19786">
        <ele>673.54</ele>
        <time>2019-12-21T10:35:09Z</time>
      </trkpt>
      <trkpt lat="43.4793" lon="2.19783">
        <ele>674.02</ele>
        <time>2019-12-21T10:35:10Z</time>
      </trkpt>
      <trkpt lat="43.47929" lon="2.1978">
        <ele>674.5</ele>
        <time>2019-12-21T10:35:11Z</time>
      </trkpt>
      <trkpt lat="43.4793" lon="2.19777">
        <ele>674.02</ele>
        <time>2019-12-21T10:35:12Z</time>
      </trkpt>
      <trkpt lat="43.4793" lon="2.19774">
        <ele>674.5</ele>
        <time>2019-12-21T10:35:13Z</time>
      </trkpt>
      <trkpt lat="43.4793" lon="2.1977">
        <ele>674.5</ele>
        <time>2019-12-21T10:35:14Z</time>
      </trkpt>
      <trkpt lat="43.47929" lon="2.19767">
        <ele>674.5</ele>
        <time>2019-12-21T10:35:15Z</time>
      </trkpt>
      <trkpt lat="43.47929" lon="2.19764">
        <ele>674.5</ele>
        <time>2019-12-21T10:35:16Z</time>
      </trkpt>
      <trkpt lat="43.47923" lon="2.19711">
        <ele>676.91</ele>
        <time>2019-12-21T10:35:31Z</time>
      </trkpt>
      <trkpt lat="43.47912" lon="2.19662">
        <ele>678.83</ele>
        <time>2019-12-21T10:35:48Z</time>
      </trkpt>
      <trkpt lat="43.47912" lon="2.19645">
        <ele>679.31</ele>
        <time>2019-12-21T10:35:54Z</time>
      </trkpt>
      <trkpt lat="43.47913" lon="2.19642">
        <ele>679.79</ele>
        <time>2019-12-21T10:35:55Z</time>
      </trkpt>
      <trkpt lat="43.47914" lon="2.1964">
        <ele>679.79</ele>
        <time>2019-12-21T10:35:56Z</time>
      </trkpt>
      <trkpt lat="43.47914" lon="2.19637">
        <ele>679.79</ele>
        <time>2019-12-21T10:35:57Z</time>
      </trkpt>
      <trkpt lat="43.47914" lon="2.19635">
        <ele>680.27</ele>
        <time>2019-12-21T10:35:58Z</time>
      </trkpt>
      <trkpt lat="43.47913" lon="2.19632">
        <ele>680.27</ele>
        <time>2019-12-21T10:35:59Z</time>
      </trkpt>
      <trkpt lat="43.47911" lon="2.19621">
        <ele>680.75</ele>
        <time>2019-12-21T10:36:03Z</time>
      </trkpt>
      <trkpt lat="43.4791" lon="2.19619">
        <ele>681.23</ele>
        <time>2019-12-21T10:36:04Z</time>
      </trkpt>
      <trkpt lat="43.47909" lon="2.19616">
        <ele>681.23</ele>
        <time>2019-12-21T10:36:05Z</time>
      </trkpt>
      <trkpt lat="43.47909" lon="2.19614">
        <ele>681.23</ele>
        <time>2019-12-21T10:36:06Z</time>
      </trkpt>
      <trkpt lat="43.47909" lon="2.19611">
        <ele>681.71</ele>
        <time>2019-12-21T10:36:07Z</time>
      </trkpt>
      <trkpt lat="43.47908" lon="2.19606">
        <ele>681.71</ele>
        <time>2019-12-21T10:36:09Z</time>
      </trkpt>
      <trkpt lat="43.47909" lon="2.19604">
        <ele>682.19</ele>
        <time>2019-12-21T10:36:10Z</time>
      </trkpt>
      <trkpt lat="43.47909" lon="2.19602">
        <ele>681.71</ele>
        <time>2019-12-21T10:36:11Z</time>
      </trkpt>
      <trkpt lat="43.47909" lon="2.196">
        <ele>682.67</ele>
        <time>2019-12-21T10:36:12Z</time>
      </trkpt>
      <trkpt lat="43.4791" lon="2.19597">
        <ele>682.19</ele>
        <time>2019-12-21T10:36:13Z</time>
      </trkpt>
      <trkpt lat="43.47911" lon="2.19567">
        <ele>685.56</ele>
        <time>2019-12-21T10:36:27Z</time>
      </trkpt>
      <trkpt lat="43.47919" lon="2.19534">
        <ele>687.96</ele>
        <time>2019-12-21T10:36:42Z</time>
      </trkpt>
      <trkpt lat="43.47919" lon="2.19532">
        <ele>687.48</ele>
        <time>2019-12-21T10:36:43Z</time>
      </trkpt>
      <trkpt lat="43.47899" lon="2.19467">
        <ele>689.88</ele>
        <time>2019-12-21T10:37:06Z</time>
      </trkpt>
      <trkpt lat="43.47876" lon="2.19392">
        <ele>690.84</ele>
        <time>2019-12-21T10:37:26Z</time>
      </trkpt>
      <trkpt lat="43.47872" lon="2.19317">
        <ele>688.92</ele>
        <time>2019-12-21T10:37:43Z</time>
      </trkpt>
      <trkpt lat="43.47871" lon="2.19287">
        <ele>688.44</ele>
        <time>2019-12-21T10:37:48Z</time>
      </trkpt>
      <trkpt lat="43.47869" lon="2.19251">
        <ele>687.96</ele>
        <time>2019-12-21T10:37:53Z</time>
      </trkpt>
      <trkpt lat="43.47861" lon="2.19182">
        <ele>686.04</ele>
        <time>2019-12-21T10:38:02Z</time>
      </trkpt>
      <trkpt lat="43.47858" lon="2.19174">
        <ele>685.56</ele>
        <time>2019-12-21T10:38:03Z</time>
      </trkpt>
      <trkpt lat="43.47851" lon="2.19147">
        <ele>685.08</ele>
        <time>2019-12-21T10:38:07Z</time>
      </trkpt>
      <trkpt lat="43.47849" lon="2.19134">
        <ele>685.08</ele>
        <time>2019-12-21T10:38:09Z</time>
      </trkpt>
      <trkpt lat="43.47844" lon="2.19111">
        <ele>685.08</ele>
        <time>2019-12-21T10:38:13Z</time>
      </trkpt>
      <trkpt lat="43.47844" lon="2.19105">
        <ele>684.6</ele>
        <time>2019-12-21T10:38:14Z</time>
      </trkpt>
      <trkpt lat="43.47845" lon="2.19071">
        <ele>685.08</ele>
        <time>2019-12-21T10:38:20Z</time>
      </trkpt>
      <trkpt lat="43.47846" lon="2.19066">
        <ele>685.08</ele>
        <time>2019-12-21T10:38:21Z</time>
      </trkpt>
      <trkpt lat="43.47854" lon="2.19031">
        <ele>684.6</ele>
        <time>2019-12-21T10:38:28Z</time>
      </trkpt>
      <trkpt lat="43.47855" lon="2.19025">
        <ele>684.12</ele>
        <time>2019-12-21T10:38:29Z</time>
      </trkpt>
      <trkpt lat="43.47856" lon="2.19019">
        <ele>684.12</ele>
        <time>2019-12-21T10:38:30Z</time>
      </trkpt>
      <trkpt lat="43.47857" lon="2.19012">
        <ele>684.12</ele>
        <time>2019-12-21T10:38:31Z</time>
      </trkpt>
      <trkpt lat="43.47857" lon="2.19005">
        <ele>683.63</ele>
        <time>2019-12-21T10:38:32Z</time>
      </trkpt>
      <trkpt lat="43.47859" lon="2.18997">
        <ele>682.67</ele>
        <time>2019-12-21T10:38:33Z</time>
      </trkpt>
      <trkpt lat="43.4786" lon="2.18988">
        <ele>682.19</ele>
        <time>2019-12-21T10:38:34Z</time>
      </trkpt>
      <trkpt lat="43.47866" lon="2.18943">
        <ele>679.31</ele>
        <time>2019-12-21T10:38:38Z</time>
      </trkpt>
      <trkpt lat="43.47873" lon="2.18909">
        <ele>677.87</ele>
        <time>2019-12-21T10:38:41Z</time>
      </trkpt>
      <trkpt lat="43.47875" lon="2.18898">
        <ele>676.42</ele>
        <time>2019-12-21T10:38:42Z</time>
      </trkpt>
      <trkpt lat="43.47881" lon="2.18867">
        <ele>674.5</ele>
        <time>2019-12-21T10:38:45Z</time>
      </trkpt>
      <trkpt lat="43.47883" lon="2.18859">
        <ele>672.58</ele>
        <time>2019-12-21T10:38:46Z</time>
      </trkpt>
      <trkpt lat="43.47885" lon="2.18852">
        <ele>672.1</ele>
        <time>2019-12-21T10:38:47Z</time>
      </trkpt>
      <trkpt lat="43.47887" lon="2.18845">
        <ele>671.14</ele>
        <time>2019-12-21T10:38:48Z</time>
      </trkpt>
      <trkpt lat="43.47888" lon="2.18837">
        <ele>670.66</ele>
        <time>2019-12-21T10:38:49Z</time>
      </trkpt>
      <trkpt lat="43.47889" lon="2.1883">
        <ele>670.66</ele>
        <time>2019-12-21T10:38:50Z</time>
      </trkpt>
      <trkpt lat="43.47891" lon="2.18821">
        <ele>669.7</ele>
        <time>2019-12-21T10:38:51Z</time>
      </trkpt>
      <trkpt lat="43.47897" lon="2.18794">
        <ele>668.73</ele>
        <time>2019-12-21T10:38:54Z</time>
      </trkpt>
      <trkpt lat="43.47921" lon="2.18728">
        <ele>665.37</ele>
        <time>2019-12-21T10:39:01Z</time>
      </trkpt>
      <trkpt lat="43.47937" lon="2.18684">
        <ele>663.45</ele>
        <time>2019-12-21T10:39:05Z</time>
      </trkpt>
      <trkpt lat="43.47949" lon="2.18654">
        <ele>660.56</ele>
        <time>2019-12-21T10:39:08Z</time>
      </trkpt>
      <trkpt lat="43.47956" lon="2.18632">
        <ele>658.64</ele>
        <time>2019-12-21T10:39:11Z</time>
      </trkpt>
      <trkpt lat="43.47957" lon="2.18626">
        <ele>657.68</ele>
        <time>2019-12-21T10:39:12Z</time>
      </trkpt>
      <trkpt lat="43.47958" lon="2.18619">
        <ele>658.16</ele>
        <time>2019-12-21T10:39:13Z</time>
      </trkpt>
      <trkpt lat="43.4796" lon="2.18613">
        <ele>657.68</ele>
        <time>2019-12-21T10:39:14Z</time>
      </trkpt>
      <trkpt lat="43.47962" lon="2.18607">
        <ele>658.16</ele>
        <time>2019-12-21T10:39:15Z</time>
      </trkpt>
      <trkpt lat="43.47964" lon="2.18601">
        <ele>657.2</ele>
        <time>2019-12-21T10:39:16Z</time>
      </trkpt>
      <trkpt lat="43.47966" lon="2.18594">
        <ele>657.68</ele>
        <time>2019-12-21T10:39:17Z</time>
      </trkpt>
      <trkpt lat="43.47968" lon="2.18588">
        <ele>657.2</ele>
        <time>2019-12-21T10:39:18Z</time>
      </trkpt>
      <trkpt lat="43.47971" lon="2.18581">
        <ele>657.68</ele>
        <time>2019-12-21T10:39:19Z</time>
      </trkpt>
      <trkpt lat="43.47973" lon="2.18575">
        <ele>657.68</ele>
        <time>2019-12-21T10:39:20Z</time>
      </trkpt>
      <trkpt lat="43.47981" lon="2.18556">
        <ele>657.2</ele>
        <time>2019-12-21T10:39:23Z</time>
      </trkpt>
      <trkpt lat="43.47984" lon="2.18541">
        <ele>657.68</ele>
        <time>2019-12-21T10:39:25Z</time>
      </trkpt>
      <trkpt lat="43.47986" lon="2.18534">
        <ele>657.68</ele>
        <time>2019-12-21T10:39:26Z</time>
      </trkpt>
      <trkpt lat="43.47988" lon="2.18527">
        <ele>657.2</ele>
        <time>2019-12-21T10:39:27Z</time>
      </trkpt>
      <trkpt lat="43.48002" lon="2.18485">
        <ele>656.24</ele>
        <time>2019-12-21T10:39:33Z</time>
      </trkpt>
      <trkpt lat="43.48004" lon="2.18478">
        <ele>655.76</ele>
        <time>2019-12-21T10:39:34Z</time>
      </trkpt>
      <trkpt lat="43.48052" lon="2.18372">
        <ele>652.39</ele>
        <time>2019-12-21T10:39:48Z</time>
      </trkpt>
      <trkpt lat="43.48064" lon="2.18351">
        <ele>651.91</ele>
        <time>2019-12-21T10:39:51Z</time>
      </trkpt>
      <trkpt lat="43.48089" lon="2.18315">
        <ele>648.55</ele>
        <time>2019-12-21T10:39:56Z</time>
      </trkpt>
      <trkpt lat="43.48094" lon="2.18306">
        <ele>648.07</ele>
        <time>2019-12-21T10:39:57Z</time>
      </trkpt>
      <trkpt lat="43.48114" lon="2.1829">
        <ele>650.95</ele>
        <time>2019-12-21T10:58:18Z</time>
      </trkpt>
      <trkpt lat="43.48123" lon="2.1831">
        <ele>654.31</ele>
        <time>2019-12-21T10:58:32Z</time>
      </trkpt>
      <trkpt lat="43.48124" lon="2.18313">
        <ele>654.8</ele>
        <time>2019-12-21T10:58:34Z</time>
      </trkpt>
      <trkpt lat="43.4814" lon="2.18328">
        <ele>654.31</ele>
        <time>2019-12-21T10:58:49Z</time>
      </trkpt>
      <trkpt lat="43.48163" lon="2.18374">
        <ele>651.91</ele>
        <time>2019-12-21T10:59:01Z</time>
      </trkpt>
      <trkpt lat="43.48171" lon="2.18442">
        <ele>651.91</ele>
        <time>2019-12-21T10:59:20Z</time>
      </trkpt>
      <trkpt lat="43.48175" lon="2.18496">
        <ele>653.83</ele>
        <time>2019-12-21T10:59:40Z</time>
      </trkpt>
      <trkpt lat="43.48179" lon="2.18529">
        <ele>655.76</ele>
        <time>2019-12-21T10:59:54Z</time>
      </trkpt>
      <trkpt lat="43.48179" lon="2.18531">
        <ele>656.24</ele>
        <time>2019-12-21T10:59:55Z</time>
      </trkpt>
      <trkpt lat="43.48179" lon="2.18533">
        <ele>656.24</ele>
        <time>2019-12-21T10:59:56Z</time>
      </trkpt>
      <trkpt lat="43.48181" lon="2.18564">
        <ele>658.64</ele>
        <time>2019-12-21T11:00:10Z</time>
      </trkpt>
      <trkpt lat="43.48181" lon="2.18566">
        <ele>658.64</ele>
        <time>2019-12-21T11:00:11Z</time>
      </trkpt>
      <trkpt lat="43.48186" lon="2.18592">
        <ele>660.08</ele>
        <time>2019-12-21T11:00:22Z</time>
      </trkpt>
      <trkpt lat="43.48188" lon="2.18592">
        <ele>660.08</ele>
        <time>2019-12-21T11:00:23Z</time>
      </trkpt>
      <trkpt lat="43.4819" lon="2.18591">
        <ele>659.6</ele>
        <time>2019-12-21T11:00:24Z</time>
      </trkpt>
      <trkpt lat="43.48191" lon="2.1859">
        <ele>659.6</ele>
        <time>2019-12-21T11:00:25Z</time>
      </trkpt>
      <trkpt lat="43.48194" lon="2.18589">
        <ele>659.6</ele>
        <time>2019-12-21T11:00:26Z</time>
      </trkpt>
      <trkpt lat="43.48196" lon="2.18588">
        <ele>659.6</ele>
        <time>2019-12-21T11:00:27Z</time>
      </trkpt>
      <trkpt lat="43.48199" lon="2.18584">
        <ele>658.64</ele>
        <time>2019-12-21T11:00:28Z</time>
      </trkpt>
      <trkpt lat="43.48201" lon="2.1858">
        <ele>659.12</ele>
        <time>2019-12-21T11:00:29Z</time>
      </trkpt>
      <trkpt lat="43.48204" lon="2.18575">
        <ele>659.12</ele>
        <time>2019-12-21T11:00:30Z</time>
      </trkpt>
      <trkpt lat="43.48209" lon="2.18562">
        <ele>658.64</ele>
        <time>2019-12-21T11:00:32Z</time>
      </trkpt>
      <trkpt lat="43.48214" lon="2.18547">
        <ele>657.68</ele>
        <time>2019-12-21T11:00:34Z</time>
      </trkpt>
      <trkpt lat="43.48215" lon="2.18538">
        <ele>656.72</ele>
        <time>2019-12-21T11:00:35Z</time>
      </trkpt>
      <trkpt lat="43.48216" lon="2.18528">
        <ele>656.24</ele>
        <time>2019-12-21T11:00:36Z</time>
      </trkpt>
      <trkpt lat="43.48216" lon="2.18517">
        <ele>656.24</ele>
        <time>2019-12-21T11:00:37Z</time>
      </trkpt>
      <trkpt lat="43.48219" lon="2.18485">
        <ele>653.83</ele>
        <time>2019-12-21T11:00:40Z</time>
      </trkpt>
      <trkpt lat="43.4822" lon="2.18475">
        <ele>652.39</ele>
        <time>2019-12-21T11:00:41Z</time>
      </trkpt>
      <trkpt lat="43.48222" lon="2.18467">
        <ele>651.43</ele>
        <time>2019-12-21T11:00:42Z</time>
      </trkpt>
      <trkpt lat="43.48224" lon="2.1846">
        <ele>649.99</ele>
        <time>2019-12-21T11:00:43Z</time>
      </trkpt>
      <trkpt lat="43.48227" lon="2.18453">
        <ele>650.47</ele>
        <time>2019-12-21T11:00:44Z</time>
      </trkpt>
      <trkpt lat="43.4823" lon="2.18446">
        <ele>649.51</ele>
        <time>2019-12-21T11:00:45Z</time>
      </trkpt>
      <trkpt lat="43.48235" lon="2.18438">
        <ele>649.51</ele>
        <time>2019-12-21T11:00:46Z</time>
      </trkpt>
      <trkpt lat="43.4824" lon="2.18429">
        <ele>647.59</ele>
        <time>2019-12-21T11:00:47Z</time>
      </trkpt>
      <trkpt lat="43.48245" lon="2.1842">
        <ele>647.59</ele>
        <time>2019-12-21T11:00:48Z</time>
      </trkpt>
      <trkpt lat="43.48249" lon="2.18411">
        <ele>645.66</ele>
        <time>2019-12-21T11:00:49Z</time>
      </trkpt>
      <trkpt lat="43.48255" lon="2.18405">
        <ele>644.22</ele>
        <time>2019-12-21T11:00:50Z</time>
      </trkpt>
      <trkpt lat="43.48262" lon="2.18401">
        <ele>644.22</ele>
        <time>2019-12-21T11:00:51Z</time>
      </trkpt>
      <trkpt lat="43.48269" lon="2.18397">
        <ele>643.26</ele>
        <time>2019-12-21T11:00:52Z</time>
      </trkpt>
      <trkpt lat="43.48276" lon="2.18395">
        <ele>642.3</ele>
        <time>2019-12-21T11:00:53Z</time>
      </trkpt>
      <trkpt lat="43.48282" lon="2.18393">
        <ele>641.82</ele>
        <time>2019-12-21T11:00:54Z</time>
      </trkpt>
      <trkpt lat="43.48288" lon="2.18391">
        <ele>640.38</ele>
        <time>2019-12-21T11:00:55Z</time>
      </trkpt>
      <trkpt lat="43.48293" lon="2.18388">
        <ele>639.41</ele>
        <time>2019-12-21T11:00:56Z</time>
      </trkpt>
      <trkpt lat="43.48298" lon="2.18383">
        <ele>637.49</ele>
        <time>2019-12-21T11:00:57Z</time>
      </trkpt>
      <trkpt lat="43.48304" lon="2.18378">
        <ele>637.49</ele>
        <time>2019-12-21T11:00:58Z</time>
      </trkpt>
      <trkpt lat="43.48309" lon="2.18373">
        <ele>635.57</ele>
        <time>2019-12-21T11:00:59Z</time>
      </trkpt>
      <trkpt lat="43.48325" lon="2.18353">
        <ele>632.2</ele>
        <time>2019-12-21T11:01:02Z</time>
      </trkpt>
      <trkpt lat="43.48336" lon="2.18339">
        <ele>630.76</ele>
        <time>2019-12-21T11:01:04Z</time>
      </trkpt>
      <trkpt lat="43.48346" lon="2.18324">
        <ele>627.4</ele>
        <time>2019-12-21T11:01:06Z</time>
      </trkpt>
      <trkpt lat="43.48357" lon="2.18303">
        <ele>624.03</ele>
        <time>2019-12-21T11:01:09Z</time>
      </trkpt>
      <trkpt lat="43.4836" lon="2.18296">
        <ele>622.11</ele>
        <time>2019-12-21T11:01:10Z</time>
      </trkpt>
      <trkpt lat="43.48362" lon="2.18289">
        <ele>621.63</ele>
        <time>2019-12-21T11:01:11Z</time>
      </trkpt>
      <trkpt lat="43.48366" lon="2.1827">
        <ele>617.78</ele>
        <time>2019-12-21T11:01:14Z</time>
      </trkpt>
      <trkpt lat="43.48372" lon="2.18241">
        <ele>613.46</ele>
        <time>2019-12-21T11:01:17Z</time>
      </trkpt>
      <trkpt lat="43.48376" lon="2.18222">
        <ele>609.61</ele>
        <time>2019-12-21T11:01:19Z</time>
      </trkpt>
      <trkpt lat="43.48381" lon="2.18192">
        <ele>606.25</ele>
        <time>2019-12-21T11:01:22Z</time>
      </trkpt>
      <trkpt lat="43.48382" lon="2.18174">
        <ele>602.4</ele>
        <time>2019-12-21T11:01:24Z</time>
      </trkpt>
      <trkpt lat="43.48383" lon="2.18165">
        <ele>601.92</ele>
        <time>2019-12-21T11:01:25Z</time>
      </trkpt>
      <trkpt lat="43.48386" lon="2.18143">
        <ele>598.56</ele>
        <time>2019-12-21T11:01:27Z</time>
      </trkpt>
      <trkpt lat="43.48391" lon="2.18123">
        <ele>594.71</ele>
        <time>2019-12-21T11:01:29Z</time>
      </trkpt>
      <trkpt lat="43.48394" lon="2.18113">
        <ele>593.75</ele>
        <time>2019-12-21T11:01:30Z</time>
      </trkpt>
      <trkpt lat="43.48402" lon="2.18091">
        <ele>590.87</ele>
        <time>2019-12-21T11:01:32Z</time>
      </trkpt>
      <trkpt lat="43.48414" lon="2.18056">
        <ele>587.02</ele>
        <time>2019-12-21T11:01:35Z</time>
      </trkpt>
      <trkpt lat="43.4842" lon="2.18034">
        <ele>583.18</ele>
        <time>2019-12-21T11:01:37Z</time>
      </trkpt>
      <trkpt lat="43.48424" lon="2.18012">
        <ele>579.81</ele>
        <time>2019-12-21T11:01:39Z</time>
      </trkpt>
      <trkpt lat="43.48428" lon="2.17975">
        <ele>576.93</ele>
        <time>2019-12-21T11:01:42Z</time>
      </trkpt>
      <trkpt lat="43.48431" lon="2.17938">
        <ele>572.12</ele>
        <time>2019-12-21T11:01:45Z</time>
      </trkpt>
      <trkpt lat="43.48432" lon="2.17928">
        <ele>569.72</ele>
        <time>2019-12-21T11:01:46Z</time>
      </trkpt>
      <trkpt lat="43.48435" lon="2.17921">
        <ele>568.76</ele>
        <time>2019-12-21T11:01:47Z</time>
      </trkpt>
      <trkpt lat="43.48438" lon="2.17916">
        <ele>568.76</ele>
        <time>2019-12-21T11:01:48Z</time>
      </trkpt>
      <trkpt lat="43.48442" lon="2.17912">
        <ele>568.28</ele>
        <time>2019-12-21T11:01:49Z</time>
      </trkpt>
      <trkpt lat="43.48446" lon="2.17911">
        <ele>566.35</ele>
        <time>2019-12-21T11:01:50Z</time>
      </trkpt>
      <trkpt lat="43.4845" lon="2.1791">
        <ele>566.35</ele>
        <time>2019-12-21T11:01:51Z</time>
      </trkpt>
      <trkpt lat="43.48454" lon="2.1791">
        <ele>565.39</ele>
        <time>2019-12-21T11:01:52Z</time>
      </trkpt>
      <trkpt lat="43.48459" lon="2.17911">
        <ele>564.91</ele>
        <time>2019-12-21T11:01:53Z</time>
      </trkpt>
      <trkpt lat="43.48468" lon="2.17912">
        <ele>562.99</ele>
        <time>2019-12-21T11:01:55Z</time>
      </trkpt>
      <trkpt lat="43.48484" lon="2.17912">
        <ele>559.14</ele>
        <time>2019-12-21T11:01:58Z</time>
      </trkpt>
      <trkpt lat="43.48499" lon="2.1791">
        <ele>555.78</ele>
        <time>2019-12-21T11:02:00Z</time>
      </trkpt>
      <trkpt lat="43.48515" lon="2.17908">
        <ele>552.9</ele>
        <time>2019-12-21T11:02:02Z</time>
      </trkpt>
      <trkpt lat="43.4854" lon="2.17904">
        <ele>549.53</ele>
        <time>2019-12-21T11:02:05Z</time>
      </trkpt>
      <trkpt lat="43.48565" lon="2.17899">
        <ele>546.17</ele>
        <time>2019-12-21T11:02:08Z</time>
      </trkpt>
      <trkpt lat="43.48578" lon="2.17896">
        <ele>543.28</ele>
        <time>2019-12-21T11:02:10Z</time>
      </trkpt>
      <trkpt lat="43.48584" lon="2.17893">
        <ele>541.84</ele>
        <time>2019-12-21T11:02:11Z</time>
      </trkpt>
      <trkpt lat="43.48595" lon="2.17885">
        <ele>539.44</ele>
        <time>2019-12-21T11:02:13Z</time>
      </trkpt>
      <trkpt lat="43.48598" lon="2.1788">
        <ele>538.48</ele>
        <time>2019-12-21T11:02:14Z</time>
      </trkpt>
      <trkpt lat="43.48599" lon="2.17875">
        <ele>537.51</ele>
        <time>2019-12-21T11:02:15Z</time>
      </trkpt>
      <trkpt lat="43.48599" lon="2.17871">
        <ele>536.55</ele>
        <time>2019-12-21T11:02:16Z</time>
      </trkpt>
      <trkpt lat="43.48598" lon="2.17867">
        <ele>536.07</ele>
        <time>2019-12-21T11:02:17Z</time>
      </trkpt>
      <trkpt lat="43.48596" lon="2.17863">
        <ele>535.59</ele>
        <time>2019-12-21T11:02:18Z</time>
      </trkpt>
      <trkpt lat="43.4859" lon="2.17847">
        <ele>531.75</ele>
        <time>2019-12-21T11:02:22Z</time>
      </trkpt>
      <trkpt lat="43.4859" lon="2.17838">
        <ele>531.75</ele>
        <time>2019-12-21T11:02:35Z</time>
      </trkpt>
      <trkpt lat="43.48602" lon="2.17835">
        <ele>531.27</ele>
        <time>2019-12-21T11:02:39Z</time>
      </trkpt>
      <trkpt lat="43.48631" lon="2.17839">
        <ele>526.94</ele>
        <time>2019-12-21T11:02:45Z</time>
      </trkpt>
      <trkpt lat="43.48645" lon="2.17828">
        <ele>525.02</ele>
        <time>2019-12-21T11:02:50Z</time>
      </trkpt>
      <trkpt lat="43.48636" lon="2.17817">
        <ele>525.02</ele>
        <time>2019-12-21T11:02:54Z</time>
      </trkpt>
      <trkpt lat="43.48607" lon="2.178">
        <ele>523.58</ele>
        <time>2019-12-21T11:03:00Z</time>
      </trkpt>
      <trkpt lat="43.48583" lon="2.1779">
        <ele>522.13</ele>
        <time>2019-12-21T11:03:04Z</time>
      </trkpt>
      <trkpt lat="43.48562" lon="2.17763">
        <ele>520.21</ele>
        <time>2019-12-21T11:03:09Z</time>
      </trkpt>
      <trkpt lat="43.48555" lon="2.17702">
        <ele>518.29</ele>
        <time>2019-12-21T11:03:17Z</time>
      </trkpt>
      <trkpt lat="43.48565" lon="2.17668">
        <ele>516.37</ele>
        <time>2019-12-21T11:03:22Z</time>
      </trkpt>
      <trkpt lat="43.48567" lon="2.17655">
        <ele>516.37</ele>
        <time>2019-12-21T11:03:25Z</time>
      </trkpt>
      <trkpt lat="43.48562" lon="2.17648">
        <ele>517.81</ele>
        <time>2019-12-21T11:03:41Z</time>
      </trkpt>
      <trkpt lat="43.48556" lon="2.17642">
        <ele>514.44</ele>
        <time>2019-12-21T11:35:48Z</time>
      </trkpt>
      <trkpt lat="43.48569" lon="2.1763">
        <ele>511.08</ele>
        <time>2019-12-21T11:35:58Z</time>
      </trkpt>
      <trkpt lat="43.48588" lon="2.17614">
        <ele>509.64</ele>
        <time>2019-12-21T11:36:08Z</time>
      </trkpt>
      <trkpt lat="43.4859" lon="2.17613">
        <ele>509.16</ele>
        <time>2019-12-21T11:36:09Z</time>
      </trkpt>
      <trkpt lat="43.48592" lon="2.17611">
        <ele>509.16</ele>
        <time>2019-12-21T11:36:11Z</time>
      </trkpt>
      <trkpt lat="43.48593" lon="2.1761">
        <ele>509.64</ele>
        <time>2019-12-21T11:36:12Z</time>
      </trkpt>
      <trkpt lat="43.48608" lon="2.17597">
        <ele>507.71</ele>
        <time>2019-12-21T11:36:24Z</time>
      </trkpt>
      <trkpt lat="43.4864" lon="2.1756">
        <ele>505.31</ele>
        <time>2019-12-21T11:36:37Z</time>
      </trkpt>
      <trkpt lat="43.48655" lon="2.17539">
        <ele>503.87</ele>
        <time>2019-12-21T11:36:51Z</time>
      </trkpt>
      <trkpt lat="43.48662" lon="2.1753">
        <ele>502.91</ele>
        <time>2019-12-21T11:36:55Z</time>
      </trkpt>
      <trkpt lat="43.48665" lon="2.17528">
        <ele>503.39</ele>
        <time>2019-12-21T11:36:56Z</time>
      </trkpt>
      <trkpt lat="43.48666" lon="2.17525">
        <ele>503.39</ele>
        <time>2019-12-21T11:36:57Z</time>
      </trkpt>
      <trkpt lat="43.48689" lon="2.17481">
        <ele>501.95</ele>
        <time>2019-12-21T11:37:13Z</time>
      </trkpt>
      <trkpt lat="43.48705" lon="2.17447">
        <ele>503.39</ele>
        <time>2019-12-21T11:37:25Z</time>
      </trkpt>
      <trkpt lat="43.48705" lon="2.17443">
        <ele>502.43</ele>
        <time>2019-12-21T11:37:26Z</time>
      </trkpt>
      <trkpt lat="43.48715" lon="2.17378">
        <ele>505.31</ele>
        <time>2019-12-21T11:37:41Z</time>
      </trkpt>
      <trkpt lat="43.48705" lon="2.17301">
        <ele>507.23</ele>
        <time>2019-12-21T11:37:57Z</time>
      </trkpt>
      <trkpt lat="43.4867" lon="2.17272">
        <ele>508.67</ele>
        <time>2019-12-21T11:38:11Z</time>
      </trkpt>
      <trkpt lat="43.48623" lon="2.1725">
        <ele>508.67</ele>
        <time>2019-12-21T11:38:28Z</time>
      </trkpt>
      <trkpt lat="43.48617" lon="2.17249">
        <ele>508.67</ele>
        <time>2019-12-21T11:38:42Z</time>
      </trkpt>
      <trkpt lat="43.48618" lon="2.17247">
        <ele>509.16</ele>
        <time>2019-12-21T11:38:58Z</time>
      </trkpt>
      <trkpt lat="43.48619" lon="2.17247">
        <ele>509.64</ele>
        <time>2019-12-21T11:39:00Z</time>
      </trkpt>
      <trkpt lat="43.48637" lon="2.17254">
        <ele>508.67</ele>
        <time>2019-12-21T11:39:13Z</time>
      </trkpt>
      <trkpt lat="43.48636" lon="2.17254">
        <ele>509.64</ele>
        <time>2019-12-21T11:39:14Z</time>
      </trkpt>
      <trkpt lat="43.48615" lon="2.17244">
        <ele>509.64</ele>
        <time>2019-12-21T11:39:27Z</time>
      </trkpt>
      <trkpt lat="43.48617" lon="2.17248">
        <ele>510.6</ele>
        <time>2019-12-21T11:39:56Z</time>
      </trkpt>
      <trkpt lat="43.48618" lon="2.17247">
        <ele>510.12</ele>
        <time>2019-12-21T11:39:59Z</time>
      </trkpt>
      <trkpt lat="43.4862" lon="2.17247">
        <ele>510.6</ele>
        <time>2019-12-21T11:40:00Z</time>
      </trkpt>
      <trkpt lat="43.48621" lon="2.17248">
        <ele>510.6</ele>
        <time>2019-12-21T11:40:01Z</time>
      </trkpt>
      <trkpt lat="43.48623" lon="2.17249">
        <ele>510.6</ele>
        <time>2019-12-21T11:40:02Z</time>
      </trkpt>
      <trkpt lat="43.48624" lon="2.1725">
        <ele>509.64</ele>
        <time>2019-12-21T11:40:03Z</time>
      </trkpt>
      <trkpt lat="43.48631" lon="2.17253">
        <ele>510.12</ele>
        <time>2019-12-21T11:40:14Z</time>
      </trkpt>
      <trkpt lat="43.4863" lon="2.17252">
        <ele>510.6</ele>
        <time>2019-12-21T11:40:15Z</time>
      </trkpt>
      <trkpt lat="43.48615" lon="2.17244">
        <ele>510.12</ele>
        <time>2019-12-21T11:40:33Z</time>
      </trkpt>
      <trkpt lat="43.48616" lon="2.17243">
        <ele>511.56</ele>
        <time>2019-12-21T11:41:25Z</time>
      </trkpt>
      <trkpt lat="43.48616" lon="2.17243">
        <ele>512.52</ele>
        <time>2019-12-21T11:41:40Z</time>
      </trkpt>
      <trkpt lat="43.48616" lon="2.17241">
        <ele>512.04</ele>
        <time>2019-12-21T11:41:41Z</time>
      </trkpt>
      <trkpt lat="43.48615" lon="2.17239">
        <ele>512.52</ele>
        <time>2019-12-21T11:41:42Z</time>
      </trkpt>
      <trkpt lat="43.48613" lon="2.17237">
        <ele>512.04</ele>
        <time>2019-12-21T11:42:01Z</time>
      </trkpt>
      <trkpt lat="43.48615" lon="2.17235">
        <ele>512.52</ele>
        <time>2019-12-21T11:42:04Z</time>
      </trkpt>
      <trkpt lat="43.48615" lon="2.17232">
        <ele>511.56</ele>
        <time>2019-12-21T11:42:05Z</time>
      </trkpt>
      <trkpt lat="43.48616" lon="2.1723">
        <ele>512.04</ele>
        <time>2019-12-21T11:42:06Z</time>
      </trkpt>
      <trkpt lat="43.48616" lon="2.17228">
        <ele>511.56</ele>
        <time>2019-12-21T11:42:07Z</time>
      </trkpt>
      <trkpt lat="43.48618" lon="2.17226">
        <ele>511.08</ele>
        <time>2019-12-21T11:42:08Z</time>
      </trkpt>
      <trkpt lat="43.4862" lon="2.17225">
        <ele>511.08</ele>
        <time>2019-12-21T11:42:09Z</time>
      </trkpt>
      <trkpt lat="43.48621" lon="2.17224">
        <ele>511.08</ele>
        <time>2019-12-21T11:42:10Z</time>
      </trkpt>
      <trkpt lat="43.48622" lon="2.17221">
        <ele>510.12</ele>
        <time>2019-12-21T11:42:11Z</time>
      </trkpt>
      <trkpt lat="43.48623" lon="2.17219">
        <ele>509.64</ele>
        <time>2019-12-21T11:42:12Z</time>
      </trkpt>
      <trkpt lat="43.48624" lon="2.17216">
        <ele>508.67</ele>
        <time>2019-12-21T11:42:13Z</time>
      </trkpt>
      <trkpt lat="43.48624" lon="2.17214">
        <ele>508.19</ele>
        <time>2019-12-21T11:42:14Z</time>
      </trkpt>
      <trkpt lat="43.48627" lon="2.17208">
        <ele>504.83</ele>
        <time>2019-12-21T11:42:24Z</time>
      </trkpt>
      <trkpt lat="43.48626" lon="2.17202">
        <ele>503.39</ele>
        <time>2019-12-21T11:42:27Z</time>
      </trkpt>
      <trkpt lat="43.48624" lon="2.17195">
        <ele>500.5</ele>
        <time>2019-12-21T11:42:32Z</time>
      </trkpt>
      <trkpt lat="43.48626" lon="2.17194">
        <ele>499.54</ele>
        <time>2019-12-21T11:42:35Z</time>
      </trkpt>
      <trkpt lat="43.48634" lon="2.1719">
        <ele>496.18</ele>
        <time>2019-12-21T11:42:46Z</time>
      </trkpt>
      <trkpt lat="43.48634" lon="2.17189">
        <ele>496.18</ele>
        <time>2019-12-21T11:42:47Z</time>
      </trkpt>
      <trkpt lat="43.48635" lon="2.17178">
        <ele>492.33</ele>
        <time>2019-12-21T11:42:54Z</time>
      </trkpt>
      <trkpt lat="43.48636" lon="2.17177">
        <ele>491.37</ele>
        <time>2019-12-21T11:42:56Z</time>
      </trkpt>
      <trkpt lat="43.48639" lon="2.17174">
        <ele>489.93</ele>
        <time>2019-12-21T11:43:00Z</time>
      </trkpt>
      <trkpt lat="43.48642" lon="2.17171">
        <ele>487.05</ele>
        <time>2019-12-21T11:43:07Z</time>
      </trkpt>
      <trkpt lat="43.48643" lon="2.17168">
        <ele>485.12</ele>
        <time>2019-12-21T11:43:10Z</time>
      </trkpt>
      <trkpt lat="43.48646" lon="2.17158">
        <ele>485.6</ele>
        <time>2019-12-21T11:43:37Z</time>
      </trkpt>
      <trkpt lat="43.48642" lon="2.17156">
        <ele>485.6</ele>
        <time>2019-12-21T11:44:25Z</time>
      </trkpt>
      <trkpt lat="43.48649" lon="2.17148">
        <ele>481.76</ele>
        <time>2019-12-21T11:44:39Z</time>
      </trkpt>
      <trkpt lat="43.4865" lon="2.17147">
        <ele>481.76</ele>
        <time>2019-12-21T11:44:40Z</time>
      </trkpt>
      <trkpt lat="43.48653" lon="2.17145">
        <ele>481.28</ele>
        <time>2019-12-21T11:44:50Z</time>
      </trkpt>
      <trkpt lat="43.48658" lon="2.17141">
        <ele>480.32</ele>
        <time>2019-12-21T11:44:54Z</time>
      </trkpt>
      <trkpt lat="43.48661" lon="2.17133">
        <ele>477.43</ele>
        <time>2019-12-21T11:44:59Z</time>
      </trkpt>
      <trkpt lat="43.48668" lon="2.17125">
        <ele>474.07</ele>
        <time>2019-12-21T11:45:05Z</time>
      </trkpt>
      <trkpt lat="43.48673" lon="2.17117">
        <ele>471.66</ele>
        <time>2019-12-21T11:45:09Z</time>
      </trkpt>
      <trkpt lat="43.48675" lon="2.17112">
        <ele>469.74</ele>
        <time>2019-12-21T11:45:12Z</time>
      </trkpt>
      <trkpt lat="43.48676" lon="2.17109">
        <ele>468.78</ele>
        <time>2019-12-21T11:45:17Z</time>
      </trkpt>
      <trkpt lat="43.48682" lon="2.17101">
        <ele>467.82</ele>
        <time>2019-12-21T11:45:35Z</time>
      </trkpt>
      <trkpt lat="43.48682" lon="2.17101">
        <ele>467.82</ele>
        <time>2019-12-21T11:45:36Z</time>
      </trkpt>
      <trkpt lat="43.48688" lon="2.1709">
        <ele>465.9</ele>
        <time>2019-12-21T11:45:42Z</time>
      </trkpt>
      <trkpt lat="43.48691" lon="2.17083">
        <ele>463.97</ele>
        <time>2019-12-21T11:45:45Z</time>
      </trkpt>
      <trkpt lat="43.48692" lon="2.17069">
        <ele>459.17</ele>
        <time>2019-12-21T11:45:51Z</time>
      </trkpt>
      <trkpt lat="43.48692" lon="2.17068">
        <ele>459.17</ele>
        <time>2019-12-21T11:45:52Z</time>
      </trkpt>
      <trkpt lat="43.48693" lon="2.17064">
        <ele>459.17</ele>
        <time>2019-12-21T11:46:12Z</time>
      </trkpt>
      <trkpt lat="43.48694" lon="2.17063">
        <ele>459.17</ele>
        <time>2019-12-21T11:46:20Z</time>
      </trkpt>
      <trkpt lat="43.48699" lon="2.1705">
        <ele>457.24</ele>
        <time>2019-12-21T11:46:26Z</time>
      </trkpt>
      <trkpt lat="43.48703" lon="2.17048">
        <ele>457.24</ele>
        <time>2019-12-21T11:46:28Z</time>
      </trkpt>
      <trkpt lat="43.4871" lon="2.17041">
        <ele>458.21</ele>
        <time>2019-12-21T11:46:32Z</time>
      </trkpt>
      <trkpt lat="43.48726" lon="2.17015">
        <ele>461.09</ele>
        <time>2019-12-21T11:46:49Z</time>
      </trkpt>
      <trkpt lat="43.48742" lon="2.16992">
        <ele>462.53</ele>
        <time>2019-12-21T11:47:11Z</time>
      </trkpt>
      <trkpt lat="43.48747" lon="2.16989">
        <ele>463.97</ele>
        <time>2019-12-21T11:47:23Z</time>
      </trkpt>
      <trkpt lat="43.48749" lon="2.16985">
        <ele>464.45</ele>
        <time>2019-12-21T11:47:27Z</time>
      </trkpt>
      <trkpt lat="43.48755" lon="2.16979">
        <ele>464.45</ele>
        <time>2019-12-21T11:47:34Z</time>
      </trkpt>
      <trkpt lat="43.48755" lon="2.1697">
        <ele>462.53</ele>
        <time>2019-12-21T11:47:53Z</time>
      </trkpt>
      <trkpt lat="43.48755" lon="2.16972">
        <ele>463.49</ele>
        <time>2019-12-21T11:48:21Z</time>
      </trkpt>
      <trkpt lat="43.48757" lon="2.16976">
        <ele>463.97</ele>
        <time>2019-12-21T11:48:26Z</time>
      </trkpt>
      <trkpt lat="43.48756" lon="2.1697">
        <ele>463.49</ele>
        <time>2019-12-21T11:48:49Z</time>
      </trkpt>
      <trkpt lat="43.48755" lon="2.16976">
        <ele>463.97</ele>
        <time>2019-12-21T11:49:44Z</time>
      </trkpt>
      <trkpt lat="43.48757" lon="2.16976">
        <ele>463.97</ele>
        <time>2019-12-21T11:50:34Z</time>
      </trkpt>
      <trkpt lat="43.48758" lon="2.16975">
        <ele>464.45</ele>
        <time>2019-12-21T11:50:46Z</time>
      </trkpt>
      <trkpt lat="43.48769" lon="2.1697">
        <ele>464.45</ele>
        <time>2019-12-21T11:50:59Z</time>
      </trkpt>
      <trkpt lat="43.48773" lon="2.16973">
        <ele>463.49</ele>
        <time>2019-12-21T11:51:04Z</time>
      </trkpt>
      <trkpt lat="43.48776" lon="2.1698">
        <ele>463.01</ele>
        <time>2019-12-21T11:51:08Z</time>
      </trkpt>
      <trkpt lat="43.4879" lon="2.17002">
        <ele>462.53</ele>
        <time>2019-12-21T11:51:16Z</time>
      </trkpt>
      <trkpt lat="43.48794" lon="2.17025">
        <ele>463.97</ele>
        <time>2019-12-21T11:51:24Z</time>
      </trkpt>
      <trkpt lat="43.48798" lon="2.1704">
        <ele>464.93</ele>
        <time>2019-12-21T11:51:29Z</time>
      </trkpt>
      <trkpt lat="43.48811" lon="2.17099">
        <ele>468.78</ele>
        <time>2019-12-21T11:51:47Z</time>
      </trkpt>
      <trkpt lat="43.48833" lon="2.17144">
        <ele>470.22</ele>
        <time>2019-12-21T11:52:06Z</time>
      </trkpt>
      <trkpt lat="43.48845" lon="2.17157">
        <ele>469.26</ele>
        <time>2019-12-21T11:52:19Z</time>
      </trkpt>
      <trkpt lat="43.48847" lon="2.17162">
        <ele>469.26</ele>
        <time>2019-12-21T11:52:23Z</time>
      </trkpt>
      <trkpt lat="43.48858" lon="2.1718">
        <ele>469.26</ele>
        <time>2019-12-21T11:52:30Z</time>
      </trkpt>
      <trkpt lat="43.48875" lon="2.1723">
        <ele>470.7</ele>
        <time>2019-12-21T11:52:44Z</time>
      </trkpt>
      <trkpt lat="43.48889" lon="2.17271">
        <ele>468.78</ele>
        <time>2019-12-21T11:52:54Z</time>
      </trkpt>
      <trkpt lat="43.48894" lon="2.17277">
        <ele>468.3</ele>
        <time>2019-12-21T11:52:58Z</time>
      </trkpt>
      <trkpt lat="43.48899" lon="2.17278">
        <ele>466.86</ele>
        <time>2019-12-21T11:53:00Z</time>
      </trkpt>
      <trkpt lat="43.4892" lon="2.17275">
        <ele>464.45</ele>
        <time>2019-12-21T11:53:06Z</time>
      </trkpt>
      <trkpt lat="43.48935" lon="2.17247">
        <ele>461.09</ele>
        <time>2019-12-21T11:53:16Z</time>
      </trkpt>
      <trkpt lat="43.48939" lon="2.17246">
        <ele>460.61</ele>
        <time>2019-12-21T11:53:17Z</time>
      </trkpt>
      <trkpt lat="43.48955" lon="2.17245">
        <ele>457.72</ele>
        <time>2019-12-21T11:53:20Z</time>
      </trkpt>
      <trkpt lat="43.4896" lon="2.17245">
        <ele>458.21</ele>
        <time>2019-12-21T11:53:21Z</time>
      </trkpt>
      <trkpt lat="43.48965" lon="2.17246">
        <ele>456.76</ele>
        <time>2019-12-21T11:53:22Z</time>
      </trkpt>
      <trkpt lat="43.48968" lon="2.17247">
        <ele>456.76</ele>
        <time>2019-12-21T11:53:23Z</time>
      </trkpt>
      <trkpt lat="43.48972" lon="2.17249">
        <ele>456.28</ele>
        <time>2019-12-21T11:53:24Z</time>
      </trkpt>
      <trkpt lat="43.4898" lon="2.1725">
        <ele>455.8</ele>
        <time>2019-12-21T11:53:26Z</time>
      </trkpt>
      <trkpt lat="43.48985" lon="2.17249">
        <ele>455.32</ele>
        <time>2019-12-21T11:53:27Z</time>
      </trkpt>
      <trkpt lat="43.49" lon="2.17236">
        <ele>451.96</ele>
        <time>2019-12-21T11:53:30Z</time>
      </trkpt>
      <trkpt lat="43.49005" lon="2.1723">
        <ele>450.03</ele>
        <time>2019-12-21T11:53:31Z</time>
      </trkpt>
      <trkpt lat="43.49026" lon="2.17196">
        <ele>445.71</ele>
        <time>2019-12-21T11:53:36Z</time>
      </trkpt>
      <trkpt lat="43.49039" lon="2.17172">
        <ele>441.86</ele>
        <time>2019-12-21T11:53:39Z</time>
      </trkpt>
      <trkpt lat="43.49042" lon="2.17166">
        <ele>440.42</ele>
        <time>2019-12-21T11:53:40Z</time>
      </trkpt>
      <trkpt lat="43.49053" lon="2.1715">
        <ele>438.5</ele>
        <time>2019-12-21T11:53:43Z</time>
      </trkpt>
      <trkpt lat="43.4907" lon="2.1712">
        <ele>434.65</ele>
        <time>2019-12-21T11:53:51Z</time>
      </trkpt>
      <trkpt lat="43.49071" lon="2.17118">
        <ele>434.17</ele>
        <time>2019-12-21T11:53:52Z</time>
      </trkpt>
      <trkpt lat="43.49078" lon="2.17107">
        <ele>432.25</ele>
        <time>2019-12-21T11:53:58Z</time>
      </trkpt>
      <trkpt lat="43.4907" lon="2.17077">
        <ele>430.81</ele>
        <time>2019-12-21T11:54:08Z</time>
      </trkpt>
      <trkpt lat="43.49072" lon="2.17065">
        <ele>429.85</ele>
        <time>2019-12-21T11:54:10Z</time>
      </trkpt>
      <trkpt lat="43.49075" lon="2.17054">
        <ele>426.96</ele>
        <time>2019-12-21T11:54:12Z</time>
      </trkpt>
      <trkpt lat="43.49076" lon="2.17039">
        <ele>424.56</ele>
        <time>2019-12-21T11:54:15Z</time>
      </trkpt>
      <trkpt lat="43.49078" lon="2.1702">
        <ele>421.19</ele>
        <time>2019-12-21T11:54:19Z</time>
      </trkpt>
      <trkpt lat="43.49084" lon="2.17002">
        <ele>417.35</ele>
        <time>2019-12-21T11:54:24Z</time>
      </trkpt>
      <trkpt lat="43.49085" lon="2.16988">
        <ele>415.91</ele>
        <time>2019-12-21T11:54:27Z</time>
      </trkpt>
      <trkpt lat="43.49087" lon="2.16968">
        <ele>412.54</ele>
        <time>2019-12-21T11:54:31Z</time>
      </trkpt>
      <trkpt lat="43.49094" lon="2.1695">
        <ele>409.18</ele>
        <time>2019-12-21T11:54:36Z</time>
      </trkpt>
      <trkpt lat="43.49097" lon="2.16922">
        <ele>405.81</ele>
        <time>2019-12-21T11:54:42Z</time>
      </trkpt>
      <trkpt lat="43.49108" lon="2.16878">
        <ele>402.93</ele>
        <time>2019-12-21T11:54:50Z</time>
      </trkpt>
      <trkpt lat="43.49112" lon="2.16864">
        <ele>401.01</ele>
        <time>2019-12-21T11:54:53Z</time>
      </trkpt>
      <trkpt lat="43.49112" lon="2.1686">
        <ele>400.53</ele>
        <time>2019-12-21T11:54:54Z</time>
      </trkpt>
      <trkpt lat="43.49123" lon="2.16843">
        <ele>399.57</ele>
        <time>2019-12-21T11:55:02Z</time>
      </trkpt>
      <trkpt lat="43.49133" lon="2.1682">
        <ele>397.64</ele>
        <time>2019-12-21T11:55:10Z</time>
      </trkpt>
      <trkpt lat="43.49137" lon="2.16801">
        <ele>396.68</ele>
        <time>2019-12-21T11:55:17Z</time>
      </trkpt>
      <trkpt lat="43.49147" lon="2.16769">
        <ele>395.24</ele>
        <time>2019-12-21T11:55:24Z</time>
      </trkpt>
      <trkpt lat="43.4916" lon="2.16707">
        <ele>391.87</ele>
        <time>2019-12-21T11:55:36Z</time>
      </trkpt>
      <trkpt lat="43.49157" lon="2.16695">
        <ele>390.43</ele>
        <time>2019-12-21T11:55:39Z</time>
      </trkpt>
      <trkpt lat="43.49155" lon="2.16675">
        <ele>388.51</ele>
        <time>2019-12-21T11:55:48Z</time>
      </trkpt>
      <trkpt lat="43.49174" lon="2.16655">
        <ele>387.07</ele>
        <time>2019-12-21T12:00:44Z</time>
      </trkpt>
      <trkpt lat="43.49181" lon="2.16642">
        <ele>383.7</ele>
        <time>2019-12-21T12:00:49Z</time>
      </trkpt>
      <trkpt lat="43.49185" lon="2.16634">
        <ele>380.82</ele>
        <time>2019-12-21T12:00:52Z</time>
      </trkpt>
      <trkpt lat="43.49186" lon="2.16627">
        <ele>378.9</ele>
        <time>2019-12-21T12:00:55Z</time>
      </trkpt>
      <trkpt lat="43.49187" lon="2.16623">
        <ele>377.45</ele>
        <time>2019-12-21T12:00:57Z</time>
      </trkpt>
      <trkpt lat="43.49189" lon="2.16611">
        <ele>374.57</ele>
        <time>2019-12-21T12:01:01Z</time>
      </trkpt>
      <trkpt lat="43.49193" lon="2.16602">
        <ele>372.65</ele>
        <time>2019-12-21T12:01:04Z</time>
      </trkpt>
      <trkpt lat="43.49201" lon="2.16589">
        <ele>368.8</ele>
        <time>2019-12-21T12:01:08Z</time>
      </trkpt>
      <trkpt lat="43.49206" lon="2.16584">
        <ele>367.36</ele>
        <time>2019-12-21T12:01:11Z</time>
      </trkpt>
      <trkpt lat="43.49211" lon="2.16584">
        <ele>365.44</ele>
        <time>2019-12-21T12:01:14Z</time>
      </trkpt>
      <trkpt lat="43.49217" lon="2.16584">
        <ele>364</ele>
        <time>2019-12-21T12:01:17Z</time>
      </trkpt>
      <trkpt lat="43.49218" lon="2.16584">
        <ele>363.52</ele>
        <time>2019-12-21T12:01:18Z</time>
      </trkpt>
      <trkpt lat="43.49225" lon="2.16574">
        <ele>359.67</ele>
        <time>2019-12-21T12:01:24Z</time>
      </trkpt>
      <trkpt lat="43.49226" lon="2.16573">
        <ele>359.19</ele>
        <time>2019-12-21T12:01:25Z</time>
      </trkpt>
      <trkpt lat="43.49228" lon="2.16567">
        <ele>356.31</ele>
        <time>2019-12-21T12:01:29Z</time>
      </trkpt>
      <trkpt lat="43.4923" lon="2.16563">
        <ele>356.79</ele>
        <time>2019-12-21T12:01:36Z</time>
      </trkpt>
      <trkpt lat="43.49236" lon="2.16554">
        <ele>352.94</ele>
        <time>2019-12-21T12:01:41Z</time>
      </trkpt>
      <trkpt lat="43.49243" lon="2.16547">
        <ele>350.06</ele>
        <time>2019-12-21T12:01:45Z</time>
      </trkpt>
      <trkpt lat="43.49249" lon="2.16541">
        <ele>346.69</ele>
        <time>2019-12-21T12:01:48Z</time>
      </trkpt>
      <trkpt lat="43.49257" lon="2.16532">
        <ele>344.29</ele>
        <time>2019-12-21T12:01:52Z</time>
      </trkpt>
      <trkpt lat="43.49268" lon="2.16523">
        <ele>341.41</ele>
        <time>2019-12-21T12:01:57Z</time>
      </trkpt>
      <trkpt lat="43.49278" lon="2.16517">
        <ele>338.52</ele>
        <time>2019-12-21T12:02:09Z</time>
      </trkpt>
      <trkpt lat="43.49287" lon="2.16514">
        <ele>335.64</ele>
        <time>2019-12-21T12:02:21Z</time>
      </trkpt>
      <trkpt lat="43.4929" lon="2.16512">
        <ele>334.68</ele>
        <time>2019-12-21T12:02:26Z</time>
      </trkpt>
      <trkpt lat="43.49292" lon="2.16512">
        <ele>333.71</ele>
        <time>2019-12-21T12:02:28Z</time>
      </trkpt>
      <trkpt lat="43.49294" lon="2.16504">
        <ele>330.35</ele>
        <time>2019-12-21T12:02:40Z</time>
      </trkpt>
      <trkpt lat="43.49294" lon="2.16504">
        <ele>330.35</ele>
        <time>2019-12-21T12:02:41Z</time>
      </trkpt>
      <trkpt lat="43.493" lon="2.165">
        <ele>326.99</ele>
        <time>2019-12-21T12:02:50Z</time>
      </trkpt>
      <trkpt lat="43.49302" lon="2.16497">
        <ele>325.54</ele>
        <time>2019-12-21T12:02:54Z</time>
      </trkpt>
      <trkpt lat="43.49303" lon="2.16499">
        <ele>324.58</ele>
        <time>2019-12-21T12:02:57Z</time>
      </trkpt>
      <trkpt lat="43.49304" lon="2.16501">
        <ele>324.1</ele>
        <time>2019-12-21T12:02:59Z</time>
      </trkpt>
      <trkpt lat="43.49308" lon="2.165">
        <ele>322.66</ele>
        <time>2019-12-21T12:03:03Z</time>
      </trkpt>
      <trkpt lat="43.4931" lon="2.16495">
        <ele>321.22</ele>
        <time>2019-12-21T12:03:08Z</time>
      </trkpt>
      <trkpt lat="43.49311" lon="2.16484">
        <ele>317.37</ele>
        <time>2019-12-21T12:03:19Z</time>
      </trkpt>
      <trkpt lat="43.49312" lon="2.16479">
        <ele>316.41</ele>
        <time>2019-12-21T12:03:23Z</time>
      </trkpt>
      <trkpt lat="43.49311" lon="2.16474">
        <ele>314.97</ele>
        <time>2019-12-21T12:03:27Z</time>
      </trkpt>
      <trkpt lat="43.49305" lon="2.16461">
        <ele>310.64</ele>
        <time>2019-12-21T12:03:41Z</time>
      </trkpt>
      <trkpt lat="43.49295" lon="2.16454">
        <ele>308.24</ele>
        <time>2019-12-21T12:03:48Z</time>
      </trkpt>
      <trkpt lat="43.49286" lon="2.16449">
        <ele>305.36</ele>
        <time>2019-12-21T12:03:53Z</time>
      </trkpt>
      <trkpt lat="43.49277" lon="2.16443">
        <ele>302.47</ele>
        <time>2019-12-21T12:03:59Z</time>
      </trkpt>
      <trkpt lat="43.49271" lon="2.16436">
        <ele>300.55</ele>
        <time>2019-12-21T12:04:03Z</time>
      </trkpt>
      <trkpt lat="43.49266" lon="2.16435">
        <ele>300.07</ele>
        <time>2019-12-21T12:04:05Z</time>
      </trkpt>
      <trkpt lat="43.49262" lon="2.16432">
        <ele>299.11</ele>
        <time>2019-12-21T12:04:07Z</time>
      </trkpt>
      <trkpt lat="43.49258" lon="2.16429">
        <ele>297.18</ele>
        <time>2019-12-21T12:04:10Z</time>
      </trkpt>
      <trkpt lat="43.49246" lon="2.16424">
        <ele>295.26</ele>
        <time>2019-12-21T12:04:15Z</time>
      </trkpt>
      <trkpt lat="43.49233" lon="2.1642">
        <ele>291.9</ele>
        <time>2019-12-21T12:04:20Z</time>
      </trkpt>
      <trkpt lat="43.49227" lon="2.16407">
        <ele>289.01</ele>
        <time>2019-12-21T12:04:35Z</time>
      </trkpt>
      <trkpt lat="43.49227" lon="2.16404">
        <ele>289.01</ele>
        <time>2019-12-21T12:04:58Z</time>
      </trkpt>
      <trkpt lat="43.49227" lon="2.16403">
        <ele>288.53</ele>
        <time>2019-12-21T12:05:04Z</time>
      </trkpt>
      <trkpt lat="43.49227" lon="2.16398">
        <ele>289.01</ele>
        <time>2019-12-21T12:05:07Z</time>
      </trkpt>
      <trkpt lat="43.49219" lon="2.16393">
        <ele>287.09</ele>
        <time>2019-12-21T12:05:22Z</time>
      </trkpt>
      <trkpt lat="43.49216" lon="2.16391">
        <ele>287.09</ele>
        <time>2019-12-21T12:05:38Z</time>
      </trkpt>
      <trkpt lat="43.49216" lon="2.16391">
        <ele>287.09</ele>
        <time>2019-12-21T12:06:01Z</time>
      </trkpt>
      <trkpt lat="43.49212" lon="2.1639">
        <ele>287.57</ele>
        <time>2019-12-21T12:06:39Z</time>
      </trkpt>
      <trkpt lat="43.49214" lon="2.16389">
        <ele>288.05</ele>
        <time>2019-12-21T12:07:18Z</time>
      </trkpt>
      <trkpt lat="43.49171" lon="2.16391">
        <ele>287.57</ele>
        <time>2019-12-21T12:07:33Z</time>
      </trkpt>
      <trkpt lat="43.49105" lon="2.1639">
        <ele>289.01</ele>
        <time>2019-12-21T12:07:53Z</time>
      </trkpt>
      <trkpt lat="43.48995" lon="2.16402">
        <ele>291.42</ele>
        <time>2019-12-21T12:13:50Z</time>
      </trkpt>
      <trkpt lat="43.48994" lon="2.16401">
        <ele>291.42</ele>
        <time>2019-12-21T12:13:51Z</time>
      </trkpt>
      <trkpt lat="43.48993" lon="2.16401">
        <ele>291.42</ele>
        <time>2019-12-21T12:13:52Z</time>
      </trkpt>
      <trkpt lat="43.48991" lon="2.164">
        <ele>291.42</ele>
        <time>2019-12-21T12:13:53Z</time>
      </trkpt>
      <trkpt lat="43.48988" lon="2.16398">
        <ele>291.42</ele>
        <time>2019-12-21T12:13:54Z</time>
      </trkpt>
      <trkpt lat="43.48967" lon="2.1639">
        <ele>291.42</ele>
        <time>2019-12-21T12:14:00Z</time>
      </trkpt>
      <trkpt lat="43.48964" lon="2.16393">
        <ele>290.94</ele>
        <time>2019-12-21T12:14:01Z</time>
      </trkpt>
      <trkpt lat="43.48892" lon="2.16438">
        <ele>293.34</ele>
        <time>2019-12-21T12:14:21Z</time>
      </trkpt>
      <trkpt lat="43.48819" lon="2.16471">
        <ele>294.78</ele>
        <time>2019-12-21T12:14:41Z</time>
      </trkpt>
      <trkpt lat="43.48756" lon="2.16481">
        <ele>298.15</ele>
        <time>2019-12-21T12:14:59Z</time>
      </trkpt>
      <trkpt lat="43.48684" lon="2.16526">
        <ele>301.03</ele>
        <time>2019-12-21T12:15:23Z</time>
      </trkpt>
      <trkpt lat="43.48636" lon="2.16583">
        <ele>302.95</ele>
        <time>2019-12-21T12:15:43Z</time>
      </trkpt>
      <trkpt lat="43.48583" lon="2.16619">
        <ele>305.36</ele>
        <time>2019-12-21T12:16:00Z</time>
      </trkpt>
      <trkpt lat="43.4852" lon="2.16599">
        <ele>305.84</ele>
        <time>2019-12-21T12:16:18Z</time>
      </trkpt>
      <trkpt lat="43.48464" lon="2.16632">
        <ele>306.8</ele>
        <time>2019-12-21T12:16:34Z</time>
      </trkpt>
      <trkpt lat="43.484" lon="2.16663">
        <ele>309.2</ele>
        <time>2019-12-21T12:16:53Z</time>
      </trkpt>
      <trkpt lat="43.48357" lon="2.16707">
        <ele>312.57</ele>
        <time>2019-12-21T12:17:09Z</time>
      </trkpt>
      <trkpt lat="43.48325" lon="2.16765">
        <ele>315.93</ele>
        <time>2019-12-21T12:17:28Z</time>
      </trkpt>
      <trkpt lat="43.48319" lon="2.16774">
        <ele>316.89</ele>
        <time>2019-12-21T12:17:31Z</time>
      </trkpt>
      <trkpt lat="43.48312" lon="2.16784">
        <ele>317.37</ele>
        <time>2019-12-21T12:17:35Z</time>
      </trkpt>
      <trkpt lat="43.48264" lon="2.1682">
        <ele>320.74</ele>
        <time>2019-12-21T12:17:55Z</time>
      </trkpt>
      <trkpt lat="43.48235" lon="2.16848">
        <ele>323.14</ele>
        <time>2019-12-21T12:18:08Z</time>
      </trkpt>
      <trkpt lat="43.48198" lon="2.16886">
        <ele>326.02</ele>
        <time>2019-12-21T12:18:26Z</time>
      </trkpt>
      <trkpt lat="43.48159" lon="2.16934">
        <ele>328.43</ele>
        <time>2019-12-21T12:18:45Z</time>
      </trkpt>
      <trkpt lat="43.48117" lon="2.16986">
        <ele>327.95</ele>
        <time>2019-12-21T12:19:00Z</time>
      </trkpt>
      <trkpt lat="43.48109" lon="2.16991">
        <ele>327.47</ele>
        <time>2019-12-21T12:19:02Z</time>
      </trkpt>
      <trkpt lat="43.48105" lon="2.16993">
        <ele>326.99</ele>
        <time>2019-12-21T12:19:03Z</time>
      </trkpt>
      <trkpt lat="43.481" lon="2.16994">
        <ele>326.99</ele>
        <time>2019-12-21T12:19:04Z</time>
      </trkpt>
      <trkpt lat="43.48096" lon="2.16992">
        <ele>326.99</ele>
        <time>2019-12-21T12:19:05Z</time>
      </trkpt>
      <trkpt lat="43.48092" lon="2.16989">
        <ele>326.99</ele>
        <time>2019-12-21T12:19:06Z</time>
      </trkpt>
      <trkpt lat="43.48088" lon="2.16986">
        <ele>327.47</ele>
        <time>2019-12-21T12:19:07Z</time>
      </trkpt>
      <trkpt lat="43.48084" lon="2.16982">
        <ele>327.47</ele>
        <time>2019-12-21T12:19:08Z</time>
      </trkpt>
      <trkpt lat="43.48072" lon="2.16966">
        <ele>327.47</ele>
        <time>2019-12-21T12:19:12Z</time>
      </trkpt>
      <trkpt lat="43.48069" lon="2.16964">
        <ele>327.47</ele>
        <time>2019-12-21T12:19:13Z</time>
      </trkpt>
      <trkpt lat="43.48065" lon="2.16962">
        <ele>327.95</ele>
        <time>2019-12-21T12:19:14Z</time>
      </trkpt>
      <trkpt lat="43.48062" lon="2.16962">
        <ele>327.47</ele>
        <time>2019-12-21T12:19:15Z</time>
      </trkpt>
      <trkpt lat="43.48058" lon="2.16963">
        <ele>327.47</ele>
        <time>2019-12-21T12:19:16Z</time>
      </trkpt>
      <trkpt lat="43.48055" lon="2.16964">
        <ele>327.47</ele>
        <time>2019-12-21T12:19:17Z</time>
      </trkpt>
      <trkpt lat="43.48052" lon="2.16965">
        <ele>327.47</ele>
        <time>2019-12-21T12:19:18Z</time>
      </trkpt>
      <trkpt lat="43.48049" lon="2.16966">
        <ele>327.47</ele>
        <time>2019-12-21T12:19:19Z</time>
      </trkpt>
      <trkpt lat="43.48046" lon="2.16968">
        <ele>327.95</ele>
        <time>2019-12-21T12:19:20Z</time>
      </trkpt>
      <trkpt lat="43.48043" lon="2.1697">
        <ele>328.43</ele>
        <time>2019-12-21T12:19:21Z</time>
      </trkpt>
      <trkpt lat="43.4804" lon="2.16971">
        <ele>328.91</ele>
        <time>2019-12-21T12:19:22Z</time>
      </trkpt>
      <trkpt lat="43.47991" lon="2.16984">
        <ele>332.27</ele>
        <time>2019-12-21T12:19:42Z</time>
      </trkpt>
      <trkpt lat="43.47953" lon="2.1699">
        <ele>334.68</ele>
        <time>2019-12-21T12:20:00Z</time>
      </trkpt>
      <trkpt lat="43.47943" lon="2.16998">
        <ele>335.64</ele>
        <time>2019-12-21T12:20:05Z</time>
      </trkpt>
      <trkpt lat="43.47936" lon="2.17004">
        <ele>336.12</ele>
        <time>2019-12-21T12:20:09Z</time>
      </trkpt>
      <trkpt lat="43.47934" lon="2.17004">
        <ele>336.12</ele>
        <time>2019-12-21T12:20:10Z</time>
      </trkpt>
      <trkpt lat="43.47897" lon="2.17041">
        <ele>339</ele>
        <time>2019-12-21T12:20:30Z</time>
      </trkpt>
      <trkpt lat="43.47868" lon="2.17096">
        <ele>341.41</ele>
        <time>2019-12-21T12:20:51Z</time>
      </trkpt>
      <trkpt lat="43.47841" lon="2.17123">
        <ele>343.33</ele>
        <time>2019-12-21T12:21:07Z</time>
      </trkpt>
      <trkpt lat="43.47807" lon="2.17141">
        <ele>345.73</ele>
        <time>2019-12-21T12:21:25Z</time>
      </trkpt>
      <trkpt lat="43.47779" lon="2.17151">
        <ele>348.13</ele>
        <time>2019-12-21T12:21:40Z</time>
      </trkpt>
      <trkpt lat="43.47778" lon="2.17151">
        <ele>347.65</ele>
        <time>2019-12-21T12:21:41Z</time>
      </trkpt>
      <trkpt lat="43.47776" lon="2.17151">
        <ele>348.62</ele>
        <time>2019-12-21T12:21:42Z</time>
      </trkpt>
      <trkpt lat="43.47774" lon="2.17151">
        <ele>348.62</ele>
        <time>2019-12-21T12:21:43Z</time>
      </trkpt>
      <trkpt lat="43.47772" lon="2.17151">
        <ele>348.62</ele>
        <time>2019-12-21T12:21:44Z</time>
      </trkpt>
      <trkpt lat="43.4777" lon="2.17151">
        <ele>348.62</ele>
        <time>2019-12-21T12:21:45Z</time>
      </trkpt>
      <trkpt lat="43.47748" lon="2.17138">
        <ele>350.54</ele>
        <time>2019-12-21T12:22:02Z</time>
      </trkpt>
      <trkpt lat="43.47726" lon="2.17095">
        <ele>353.9</ele>
        <time>2019-12-21T12:22:22Z</time>
      </trkpt>
      <trkpt lat="43.47697" lon="2.17045">
        <ele>355.83</ele>
        <time>2019-12-21T12:22:45Z</time>
      </trkpt>
      <trkpt lat="43.47689" lon="2.17034">
        <ele>356.31</ele>
        <time>2019-12-21T12:22:50Z</time>
      </trkpt>
      <trkpt lat="43.47688" lon="2.17032">
        <ele>355.83</ele>
        <time>2019-12-21T12:22:51Z</time>
      </trkpt>
      <trkpt lat="43.47687" lon="2.1703">
        <ele>356.79</ele>
        <time>2019-12-21T12:22:52Z</time>
      </trkpt>
      <trkpt lat="43.47686" lon="2.17028">
        <ele>356.79</ele>
        <time>2019-12-21T12:22:53Z</time>
      </trkpt>
      <trkpt lat="43.47684" lon="2.17026">
        <ele>356.79</ele>
        <time>2019-12-21T12:22:54Z</time>
      </trkpt>
      <trkpt lat="43.47683" lon="2.17024">
        <ele>356.31</ele>
        <time>2019-12-21T12:22:55Z</time>
      </trkpt>
      <trkpt lat="43.47682" lon="2.17022">
        <ele>356.31</ele>
        <time>2019-12-21T12:22:56Z</time>
      </trkpt>
      <trkpt lat="43.47667" lon="2.17005">
        <ele>357.75</ele>
        <time>2019-12-21T12:23:07Z</time>
      </trkpt>
      <trkpt lat="43.47666" lon="2.17003">
        <ele>357.75</ele>
        <time>2019-12-21T12:23:08Z</time>
      </trkpt>
      <trkpt lat="43.47663" lon="2.16997">
        <ele>358.23</ele>
        <time>2019-12-21T12:23:12Z</time>
      </trkpt>
      <trkpt lat="43.47661" lon="2.16996">
        <ele>358.71</ele>
        <time>2019-12-21T12:23:13Z</time>
      </trkpt>
      <trkpt lat="43.4766" lon="2.16995">
        <ele>358.71</ele>
        <time>2019-12-21T12:23:14Z</time>
      </trkpt>
      <trkpt lat="43.47658" lon="2.16992">
        <ele>359.19</ele>
        <time>2019-12-21T12:23:16Z</time>
      </trkpt>
      <trkpt lat="43.47649" lon="2.16985">
        <ele>359.67</ele>
        <time>2019-12-21T12:23:21Z</time>
      </trkpt>
      <trkpt lat="43.47642" lon="2.16975">
        <ele>360.63</ele>
        <time>2019-12-21T12:23:28Z</time>
      </trkpt>
      <trkpt lat="43.4764" lon="2.16974">
        <ele>360.63</ele>
        <time>2019-12-21T12:23:29Z</time>
      </trkpt>
      <trkpt lat="43.4763" lon="2.16963">
        <ele>361.59</ele>
        <time>2019-12-21T12:23:37Z</time>
      </trkpt>
      <trkpt lat="43.47608" lon="2.16937">
        <ele>364</ele>
        <time>2019-12-21T12:23:51Z</time>
      </trkpt>
      <trkpt lat="43.47608" lon="2.16935">
        <ele>364</ele>
        <time>2019-12-21T12:23:52Z</time>
      </trkpt>
      <trkpt lat="43.47606" lon="2.16932">
        <ele>364.48</ele>
        <time>2019-12-21T12:23:54Z</time>
      </trkpt>
      <trkpt lat="43.47605" lon="2.16928">
        <ele>364.96</ele>
        <time>2019-12-21T12:23:56Z</time>
      </trkpt>
      <trkpt lat="43.47605" lon="2.16927">
        <ele>365.44</ele>
        <time>2019-12-21T12:23:57Z</time>
      </trkpt>
      <trkpt lat="43.47603" lon="2.1692">
        <ele>365.92</ele>
        <time>2019-12-21T12:24:01Z</time>
      </trkpt>
      <trkpt lat="43.47603" lon="2.16914">
        <ele>366.88</ele>
        <time>2019-12-21T12:24:05Z</time>
      </trkpt>
      <trkpt lat="43.47603" lon="2.16913">
        <ele>366.88</ele>
        <time>2019-12-21T12:24:06Z</time>
      </trkpt>
      <trkpt lat="43.47604" lon="2.16911">
        <ele>366.88</ele>
        <time>2019-12-21T12:24:08Z</time>
      </trkpt>
      <trkpt lat="43.47604" lon="2.16906">
        <ele>368.32</ele>
        <time>2019-12-21T12:24:11Z</time>
      </trkpt>
      <trkpt lat="43.47603" lon="2.16904">
        <ele>368.8</ele>
        <time>2019-12-21T12:24:12Z</time>
      </trkpt>
      <trkpt lat="43.47602" lon="2.16903">
        <ele>369.28</ele>
        <time>2019-12-21T12:24:13Z</time>
      </trkpt>
      <trkpt lat="43.47599" lon="2.169">
        <ele>369.76</ele>
        <time>2019-12-21T12:24:16Z</time>
      </trkpt>
      <trkpt lat="43.47595" lon="2.16895">
        <ele>369.76</ele>
        <time>2019-12-21T12:24:19Z</time>
      </trkpt>
      <trkpt lat="43.47594" lon="2.16894">
        <ele>369.76</ele>
        <time>2019-12-21T12:24:20Z</time>
      </trkpt>
      <trkpt lat="43.47591" lon="2.16892">
        <ele>369.76</ele>
        <time>2019-12-21T12:24:22Z</time>
      </trkpt>
      <trkpt lat="43.47581" lon="2.16878">
        <ele>372.17</ele>
        <time>2019-12-21T12:24:36Z</time>
      </trkpt>
      <trkpt lat="43.47567" lon="2.16861">
        <ele>372.65</ele>
        <time>2019-12-21T12:24:47Z</time>
      </trkpt>
      <trkpt lat="43.47565" lon="2.1686">
        <ele>374.09</ele>
        <time>2019-12-21T12:24:48Z</time>
      </trkpt>
      <trkpt lat="43.47563" lon="2.16859">
        <ele>374.09</ele>
        <time>2019-12-21T12:24:49Z</time>
      </trkpt>
      <trkpt lat="43.47555" lon="2.16851">
        <ele>375.05</ele>
        <time>2019-12-21T12:24:54Z</time>
      </trkpt>
      <trkpt lat="43.4754" lon="2.16822">
        <ele>376.97</ele>
        <time>2019-12-21T12:25:12Z</time>
      </trkpt>
      <trkpt lat="43.4754" lon="2.16818">
        <ele>377.45</ele>
        <time>2019-12-21T12:25:14Z</time>
      </trkpt>
      <trkpt lat="43.47542" lon="2.16817">
        <ele>378.42</ele>
        <time>2019-12-21T12:25:17Z</time>
      </trkpt>
      <trkpt lat="43.47545" lon="2.16819">
        <ele>378.42</ele>
        <time>2019-12-21T12:25:19Z</time>
      </trkpt>
      <trkpt lat="43.4755" lon="2.16821">
        <ele>378.9</ele>
        <time>2019-12-21T12:25:24Z</time>
      </trkpt>
      <trkpt lat="43.47562" lon="2.1683">
        <ele>381.3</ele>
        <time>2019-12-21T12:25:38Z</time>
      </trkpt>
      <trkpt lat="43.47576" lon="2.16839">
        <ele>384.18</ele>
        <time>2019-12-21T12:25:54Z</time>
      </trkpt>
      <trkpt lat="43.47581" lon="2.16844">
        <ele>385.15</ele>
        <time>2019-12-21T12:26:00Z</time>
      </trkpt>
      <trkpt lat="43.47591" lon="2.16855">
        <ele>386.59</ele>
        <time>2019-12-21T12:26:11Z</time>
      </trkpt>
      <trkpt lat="43.4759" lon="2.16862">
        <ele>388.03</ele>
        <time>2019-12-21T12:26:19Z</time>
      </trkpt>
      <trkpt lat="43.47605" lon="2.16875">
        <ele>389.47</ele>
        <time>2019-12-21T12:26:30Z</time>
      </trkpt>
      <trkpt lat="43.47619" lon="2.16889">
        <ele>391.39</ele>
        <time>2019-12-21T12:26:41Z</time>
      </trkpt>
      <trkpt lat="43.47628" lon="2.16896">
        <ele>392.84</ele>
        <time>2019-12-21T12:26:48Z</time>
      </trkpt>
      <trkpt lat="43.47627" lon="2.16897">
        <ele>393.32</ele>
        <time>2019-12-21T12:30:05Z</time>
      </trkpt>
      <trkpt lat="43.4762" lon="2.16883">
        <ele>395.24</ele>
        <time>2019-12-21T12:30:19Z</time>
      </trkpt>
      <trkpt lat="43.47617" lon="2.16877">
        <ele>396.68</ele>
        <time>2019-12-21T12:30:24Z</time>
      </trkpt>
      <trkpt lat="43.47615" lon="2.16866">
        <ele>397.16</ele>
        <time>2019-12-21T12:30:31Z</time>
      </trkpt>
      <trkpt lat="43.4761" lon="2.16849">
        <ele>399.08</ele>
        <time>2019-12-21T12:30:44Z</time>
      </trkpt>
      <trkpt lat="43.47604" lon="2.16841">
        <ele>399.57</ele>
        <time>2019-12-21T12:30:51Z</time>
      </trkpt>
      <trkpt lat="43.47589" lon="2.16819">
        <ele>401.49</ele>
        <time>2019-12-21T12:31:06Z</time>
      </trkpt>
      <trkpt lat="43.47581" lon="2.16801">
        <ele>403.89</ele>
        <time>2019-12-21T12:31:22Z</time>
      </trkpt>
      <trkpt lat="43.4758" lon="2.16798">
        <ele>403.89</ele>
        <time>2019-12-21T12:31:24Z</time>
      </trkpt>
      <trkpt lat="43.47573" lon="2.16788">
        <ele>405.33</ele>
        <time>2019-12-21T12:31:34Z</time>
      </trkpt>
      <trkpt lat="43.47563" lon="2.16772">
        <ele>407.74</ele>
        <time>2019-12-21T12:31:50Z</time>
      </trkpt>
      <trkpt lat="43.4756" lon="2.16769">
        <ele>407.26</ele>
        <time>2019-12-21T12:31:53Z</time>
      </trkpt>
      <trkpt lat="43.47547" lon="2.16748">
        <ele>409.66</ele>
        <time>2019-12-21T12:32:10Z</time>
      </trkpt>
      <trkpt lat="43.47543" lon="2.16738">
        <ele>411.1</ele>
        <time>2019-12-21T12:32:16Z</time>
      </trkpt>
      <trkpt lat="43.47532" lon="2.16726">
        <ele>412.54</ele>
        <time>2019-12-21T12:32:29Z</time>
      </trkpt>
      <trkpt lat="43.47526" lon="2.16717">
        <ele>413.5</ele>
        <time>2019-12-21T12:32:38Z</time>
      </trkpt>
      <trkpt lat="43.47519" lon="2.16705">
        <ele>414.95</ele>
        <time>2019-12-21T12:32:50Z</time>
      </trkpt>
      <trkpt lat="43.47507" lon="2.16699">
        <ele>416.87</ele>
        <time>2019-12-21T12:33:02Z</time>
      </trkpt>
      <trkpt lat="43.47495" lon="2.16685">
        <ele>419.27</ele>
        <time>2019-12-21T12:33:19Z</time>
      </trkpt>
      <trkpt lat="43.47485" lon="2.1668">
        <ele>420.23</ele>
        <time>2019-12-21T12:33:26Z</time>
      </trkpt>
      <trkpt lat="43.47477" lon="2.16672">
        <ele>421.68</ele>
        <time>2019-12-21T12:33:33Z</time>
      </trkpt>
      <trkpt lat="43.47471" lon="2.16664">
        <ele>421.68</ele>
        <time>2019-12-21T12:33:40Z</time>
      </trkpt>
      <trkpt lat="43.47471" lon="2.16659">
        <ele>422.64</ele>
        <time>2019-12-21T12:33:45Z</time>
      </trkpt>
      <trkpt lat="43.47473" lon="2.16658">
        <ele>423.12</ele>
        <time>2019-12-21T12:33:47Z</time>
      </trkpt>
      <trkpt lat="43.47464" lon="2.16642">
        <ele>424.56</ele>
        <time>2019-12-21T12:34:01Z</time>
      </trkpt>
      <trkpt lat="43.47462" lon="2.16631">
        <ele>425.52</ele>
        <time>2019-12-21T12:34:10Z</time>
      </trkpt>
      <trkpt lat="43.47453" lon="2.16612">
        <ele>427.44</ele>
        <time>2019-12-21T12:34:25Z</time>
      </trkpt>
      <trkpt lat="43.47439" lon="2.166">
        <ele>429.37</ele>
        <time>2019-12-21T12:34:37Z</time>
      </trkpt>
      <trkpt lat="43.4743" lon="2.1659">
        <ele>430.81</ele>
        <time>2019-12-21T12:34:46Z</time>
      </trkpt>
      <trkpt lat="43.47424" lon="2.16582">
        <ele>431.77</ele>
        <time>2019-12-21T12:34:54Z</time>
      </trkpt>
      <trkpt lat="43.47417" lon="2.16576">
        <ele>432.25</ele>
        <time>2019-12-21T12:35:02Z</time>
      </trkpt>
      <trkpt lat="43.47417" lon="2.16573">
        <ele>432.25</ele>
        <time>2019-12-21T12:35:04Z</time>
      </trkpt>
      <trkpt lat="43.47416" lon="2.16572">
        <ele>432.73</ele>
        <time>2019-12-21T12:35:05Z</time>
      </trkpt>
      <trkpt lat="43.47408" lon="2.16565">
        <ele>433.69</ele>
        <time>2019-12-21T12:35:17Z</time>
      </trkpt>
      <trkpt lat="43.47406" lon="2.16563">
        <ele>433.69</ele>
        <time>2019-12-21T12:35:19Z</time>
      </trkpt>
      <trkpt lat="43.47393" lon="2.16553">
        <ele>435.61</ele>
        <time>2019-12-21T12:35:34Z</time>
      </trkpt>
      <trkpt lat="43.47376" lon="2.16548">
        <ele>437.06</ele>
        <time>2019-12-21T12:35:51Z</time>
      </trkpt>
      <trkpt lat="43.47375" lon="2.16548">
        <ele>437.06</ele>
        <time>2019-12-21T12:35:54Z</time>
      </trkpt>
      <trkpt lat="43.47365" lon="2.16549">
        <ele>437.54</ele>
        <time>2019-12-21T12:36:03Z</time>
      </trkpt>
      <trkpt lat="43.47362" lon="2.1655">
        <ele>438.02</ele>
        <time>2019-12-21T12:36:06Z</time>
      </trkpt>
      <trkpt lat="43.47351" lon="2.16551">
        <ele>438.98</ele>
        <time>2019-12-21T12:36:13Z</time>
      </trkpt>
      <trkpt lat="43.47347" lon="2.16552">
        <ele>439.94</ele>
        <time>2019-12-21T12:36:14Z</time>
      </trkpt>
      <trkpt lat="43.47342" lon="2.16553">
        <ele>439.94</ele>
        <time>2019-12-21T12:36:17Z</time>
      </trkpt>
      <trkpt lat="43.47341" lon="2.16551">
        <ele>439.94</ele>
        <time>2019-12-21T12:36:21Z</time>
      </trkpt>
      <trkpt lat="43.47338" lon="2.16551">
        <ele>440.42</ele>
        <time>2019-12-21T12:36:23Z</time>
      </trkpt>
      <trkpt lat="43.4733" lon="2.16552">
        <ele>440.42</ele>
        <time>2019-12-21T12:36:27Z</time>
      </trkpt>
      <trkpt lat="43.47328" lon="2.16551">
        <ele>440.9</ele>
        <time>2019-12-21T12:36:30Z</time>
      </trkpt>
      <trkpt lat="43.47326" lon="2.16548">
        <ele>441.86</ele>
        <time>2019-12-21T12:36:34Z</time>
      </trkpt>
      <trkpt lat="43.47317" lon="2.16543">
        <ele>442.34</ele>
        <time>2019-12-21T12:36:43Z</time>
      </trkpt>
      <trkpt lat="43.4731" lon="2.16538">
        <ele>443.79</ele>
        <time>2019-12-21T12:36:49Z</time>
      </trkpt>
      <trkpt lat="43.47298" lon="2.16533">
        <ele>443.79</ele>
        <time>2019-12-21T12:36:56Z</time>
      </trkpt>
      <trkpt lat="43.47293" lon="2.16533">
        <ele>444.27</ele>
        <time>2019-12-21T12:36:58Z</time>
      </trkpt>
      <trkpt lat="43.47284" lon="2.1653">
        <ele>444.75</ele>
        <time>2019-12-21T12:37:04Z</time>
      </trkpt>
      <trkpt lat="43.47282" lon="2.16529">
        <ele>444.75</ele>
        <time>2019-12-21T12:37:05Z</time>
      </trkpt>
      <trkpt lat="43.47273" lon="2.16527">
        <ele>445.23</ele>
        <time>2019-12-21T12:37:10Z</time>
      </trkpt>
      <trkpt lat="43.47266" lon="2.16522">
        <ele>446.67</ele>
        <time>2019-12-21T12:37:20Z</time>
      </trkpt>
      <trkpt lat="43.47253" lon="2.16515">
        <ele>447.15</ele>
        <time>2019-12-21T12:37:29Z</time>
      </trkpt>
      <trkpt lat="43.4725" lon="2.16509">
        <ele>448.11</ele>
        <time>2019-12-21T12:37:32Z</time>
      </trkpt>
      <trkpt lat="43.47246" lon="2.16508">
        <ele>449.07</ele>
        <time>2019-12-21T12:37:34Z</time>
      </trkpt>
      <trkpt lat="43.47236" lon="2.16494">
        <ele>449.55</ele>
        <time>2019-12-21T12:37:45Z</time>
      </trkpt>
      <trkpt lat="43.47232" lon="2.16483">
        <ele>451.96</ele>
        <time>2019-12-21T12:37:54Z</time>
      </trkpt>
      <trkpt lat="43.47227" lon="2.16482">
        <ele>451.48</ele>
        <time>2019-12-21T12:37:57Z</time>
      </trkpt>
      <trkpt lat="43.47224" lon="2.1648">
        <ele>451.96</ele>
        <time>2019-12-21T12:38:00Z</time>
      </trkpt>
      <trkpt lat="43.4721" lon="2.16478">
        <ele>452.92</ele>
        <time>2019-12-21T12:38:06Z</time>
      </trkpt>
      <trkpt lat="43.47195" lon="2.16472">
        <ele>453.4</ele>
        <time>2019-12-21T12:38:13Z</time>
      </trkpt>
      <trkpt lat="43.47191" lon="2.16466">
        <ele>454.84</ele>
        <time>2019-12-21T12:38:19Z</time>
      </trkpt>
      <trkpt lat="43.47189" lon="2.16465">
        <ele>454.36</ele>
        <time>2019-12-21T12:38:20Z</time>
      </trkpt>
      <trkpt lat="43.47179" lon="2.16463">
        <ele>455.32</ele>
        <time>2019-12-21T12:38:26Z</time>
      </trkpt>
      <trkpt lat="43.47169" lon="2.1646">
        <ele>455.8</ele>
        <time>2019-12-21T12:38:32Z</time>
      </trkpt>
      <trkpt lat="43.47156" lon="2.16456">
        <ele>456.76</ele>
        <time>2019-12-21T12:38:40Z</time>
      </trkpt>
      <trkpt lat="43.47154" lon="2.16453">
        <ele>456.76</ele>
        <time>2019-12-21T12:38:44Z</time>
      </trkpt>
      <trkpt lat="43.47129" lon="2.16452">
        <ele>458.69</ele>
        <time>2019-12-21T12:38:57Z</time>
      </trkpt>
      <trkpt lat="43.47111" lon="2.1645">
        <ele>460.13</ele>
        <time>2019-12-21T12:39:04Z</time>
      </trkpt>
      <trkpt lat="43.47109" lon="2.1645">
        <ele>460.13</ele>
        <time>2019-12-21T12:39:05Z</time>
      </trkpt>
      <trkpt lat="43.47105" lon="2.16445">
        <ele>460.13</ele>
        <time>2019-12-21T12:39:09Z</time>
      </trkpt>
      <trkpt lat="43.47099" lon="2.16442">
        <ele>460.61</ele>
        <time>2019-12-21T12:39:14Z</time>
      </trkpt>
      <trkpt lat="43.47081" lon="2.16436">
        <ele>462.05</ele>
        <time>2019-12-21T12:39:25Z</time>
      </trkpt>
      <trkpt lat="43.47068" lon="2.16425">
        <ele>463.97</ele>
        <time>2019-12-21T12:39:33Z</time>
      </trkpt>
      <trkpt lat="43.47062" lon="2.16417">
        <ele>464.45</ele>
        <time>2019-12-21T12:39:44Z</time>
      </trkpt>
      <trkpt lat="43.47057" lon="2.16407">
        <ele>466.38</ele>
        <time>2019-12-21T12:40:00Z</time>
      </trkpt>
      <trkpt lat="43.47059" lon="2.16401">
        <ele>465.9</ele>
        <time>2019-12-21T12:40:04Z</time>
      </trkpt>
      <trkpt lat="43.47053" lon="2.164">
        <ele>465.9</ele>
        <time>2019-12-21T12:40:07Z</time>
      </trkpt>
      <trkpt lat="43.47044" lon="2.16393">
        <ele>466.38</ele>
        <time>2019-12-21T12:40:12Z</time>
      </trkpt>
      <trkpt lat="43.47041" lon="2.16388">
        <ele>466.86</ele>
        <time>2019-12-21T12:40:17Z</time>
      </trkpt>
      <trkpt lat="43.47032" lon="2.16381">
        <ele>467.82</ele>
        <time>2019-12-21T12:40:24Z</time>
      </trkpt>
      <trkpt lat="43.47016" lon="2.1637">
        <ele>469.26</ele>
        <time>2019-12-21T12:40:38Z</time>
      </trkpt>
      <trkpt lat="43.47001" lon="2.16354">
        <ele>471.18</ele>
        <time>2019-12-21T12:40:54Z</time>
      </trkpt>
      <trkpt lat="43.46991" lon="2.16349">
        <ele>470.7</ele>
        <time>2019-12-21T12:41:00Z</time>
      </trkpt>
      <trkpt lat="43.46982" lon="2.16339">
        <ele>472.14</ele>
        <time>2019-12-21T12:41:06Z</time>
      </trkpt>
      <trkpt lat="43.46962" lon="2.1633">
        <ele>473.11</ele>
        <time>2019-12-21T12:41:18Z</time>
      </trkpt>
      <trkpt lat="43.46953" lon="2.16325">
        <ele>473.59</ele>
        <time>2019-12-21T12:41:23Z</time>
      </trkpt>
      <trkpt lat="43.46941" lon="2.16319">
        <ele>475.03</ele>
        <time>2019-12-21T12:41:30Z</time>
      </trkpt>
      <trkpt lat="43.46925" lon="2.16306">
        <ele>476.47</ele>
        <time>2019-12-21T12:41:47Z</time>
      </trkpt>
      <trkpt lat="43.46918" lon="2.16301">
        <ele>477.43</ele>
        <time>2019-12-21T12:41:52Z</time>
      </trkpt>
      <trkpt lat="43.46909" lon="2.16294">
        <ele>477.91</ele>
        <time>2019-12-21T12:41:57Z</time>
      </trkpt>
      <trkpt lat="43.46891" lon="2.16271">
        <ele>480.32</ele>
        <time>2019-12-21T12:42:13Z</time>
      </trkpt>
      <trkpt lat="43.46889" lon="2.16269">
        <ele>480.32</ele>
        <time>2019-12-21T12:42:15Z</time>
      </trkpt>
      <trkpt lat="43.46884" lon="2.16267">
        <ele>480.8</ele>
        <time>2019-12-21T12:42:17Z</time>
      </trkpt>
      <trkpt lat="43.46876" lon="2.16264">
        <ele>481.28</ele>
        <time>2019-12-21T12:42:22Z</time>
      </trkpt>
      <trkpt lat="43.46873" lon="2.16257">
        <ele>482.24</ele>
        <time>2019-12-21T12:42:26Z</time>
      </trkpt>
      <trkpt lat="43.46849" lon="2.16242">
        <ele>483.2</ele>
        <time>2019-12-21T12:42:44Z</time>
      </trkpt>
      <trkpt lat="43.46848" lon="2.16241">
        <ele>484.16</ele>
        <time>2019-12-21T12:42:45Z</time>
      </trkpt>
      <trkpt lat="43.46844" lon="2.16237">
        <ele>484.16</ele>
        <time>2019-12-21T12:42:50Z</time>
      </trkpt>
      <trkpt lat="43.46844" lon="2.16236">
        <ele>484.16</ele>
        <time>2019-12-21T12:42:51Z</time>
      </trkpt>
      <trkpt lat="43.46843" lon="2.16231">
        <ele>484.64</ele>
        <time>2019-12-21T12:42:54Z</time>
      </trkpt>
      <trkpt lat="43.4684" lon="2.16228">
        <ele>485.12</ele>
        <time>2019-12-21T12:42:57Z</time>
      </trkpt>
      <trkpt lat="43.46836" lon="2.16222">
        <ele>486.56</ele>
        <time>2019-12-21T12:43:05Z</time>
      </trkpt>
      <trkpt lat="43.46815" lon="2.16206">
        <ele>488.49</ele>
        <time>2019-12-21T12:43:21Z</time>
      </trkpt>
      <trkpt lat="43.46808" lon="2.16197">
        <ele>489.93</ele>
        <time>2019-12-21T12:43:31Z</time>
      </trkpt>
      <trkpt lat="43.468" lon="2.16189">
        <ele>490.41</ele>
        <time>2019-12-21T12:43:39Z</time>
      </trkpt>
      <trkpt lat="43.46792" lon="2.16183">
        <ele>491.37</ele>
        <time>2019-12-21T12:43:44Z</time>
      </trkpt>
      <trkpt lat="43.46779" lon="2.16173">
        <ele>491.85</ele>
        <time>2019-12-21T12:43:51Z</time>
      </trkpt>
      <trkpt lat="43.46777" lon="2.16172">
        <ele>491.85</ele>
        <time>2019-12-21T12:43:52Z</time>
      </trkpt>
      <trkpt lat="43.46773" lon="2.1617">
        <ele>492.33</ele>
        <time>2019-12-21T12:43:55Z</time>
      </trkpt>
      <trkpt lat="43.46764" lon="2.16166">
        <ele>493.29</ele>
        <time>2019-12-21T12:43:59Z</time>
      </trkpt>
      <trkpt lat="43.4677" lon="2.16141">
        <ele>494.74</ele>
        <time>2019-12-21T12:44:11Z</time>
      </trkpt>
      <trkpt lat="43.46762" lon="2.16135">
        <ele>494.74</ele>
        <time>2019-12-21T12:44:17Z</time>
      </trkpt>
      <trkpt lat="43.46759" lon="2.16129">
        <ele>495.7</ele>
        <time>2019-12-21T12:44:24Z</time>
      </trkpt>
      <trkpt lat="43.46758" lon="2.16128">
        <ele>495.7</ele>
        <time>2019-12-21T12:44:25Z</time>
      </trkpt>
      <trkpt lat="43.46746" lon="2.16113">
        <ele>498.1</ele>
        <time>2019-12-21T12:44:38Z</time>
      </trkpt>
      <trkpt lat="43.46746" lon="2.16111">
        <ele>498.1</ele>
        <time>2019-12-21T12:44:39Z</time>
      </trkpt>
      <trkpt lat="43.46744" lon="2.161">
        <ele>499.06</ele>
        <time>2019-12-21T12:44:48Z</time>
      </trkpt>
      <trkpt lat="43.46743" lon="2.16098">
        <ele>499.06</ele>
        <time>2019-12-21T12:44:49Z</time>
      </trkpt>
      <trkpt lat="43.46728" lon="2.16092">
        <ele>500.98</ele>
        <time>2019-12-21T12:44:59Z</time>
      </trkpt>
      <trkpt lat="43.46722" lon="2.16092">
        <ele>500.98</ele>
        <time>2019-12-21T12:45:02Z</time>
      </trkpt>
      <trkpt lat="43.46702" lon="2.16088">
        <ele>502.43</ele>
        <time>2019-12-21T12:45:15Z</time>
      </trkpt>
      <trkpt lat="43.46688" lon="2.16083">
        <ele>504.83</ele>
        <time>2019-12-21T12:45:27Z</time>
      </trkpt>
      <trkpt lat="43.46687" lon="2.16081">
        <ele>504.35</ele>
        <time>2019-12-21T12:45:29Z</time>
      </trkpt>
      <trkpt lat="43.46671" lon="2.16082">
        <ele>504.83</ele>
        <time>2019-12-21T12:45:49Z</time>
      </trkpt>
      <trkpt lat="43.46663" lon="2.16078">
        <ele>505.79</ele>
        <time>2019-12-21T12:45:55Z</time>
      </trkpt>
      <trkpt lat="43.46663" lon="2.16077">
        <ele>506.27</ele>
        <time>2019-12-21T12:45:56Z</time>
      </trkpt>
      <trkpt lat="43.4666" lon="2.16076">
        <ele>506.75</ele>
        <time>2019-12-21T12:45:58Z</time>
      </trkpt>
      <trkpt lat="43.46655" lon="2.16074">
        <ele>507.71</ele>
        <time>2019-12-21T12:46:01Z</time>
      </trkpt>
      <trkpt lat="43.46653" lon="2.1607">
        <ele>508.19</ele>
        <time>2019-12-21T12:46:04Z</time>
      </trkpt>
      <trkpt lat="43.46637" lon="2.16066">
        <ele>509.64</ele>
        <time>2019-12-21T12:46:17Z</time>
      </trkpt>
      <trkpt lat="43.46633" lon="2.16059">
        <ele>510.6</ele>
        <time>2019-12-21T12:46:23Z</time>
      </trkpt>
      <trkpt lat="43.46624" lon="2.16056">
        <ele>512.04</ele>
        <time>2019-12-21T12:46:30Z</time>
      </trkpt>
      <trkpt lat="43.46614" lon="2.16052">
        <ele>512.52</ele>
        <time>2019-12-21T12:46:37Z</time>
      </trkpt>
      <trkpt lat="43.46611" lon="2.16048">
        <ele>513.48</ele>
        <time>2019-12-21T12:46:40Z</time>
      </trkpt>
      <trkpt lat="43.46602" lon="2.16047">
        <ele>513.96</ele>
        <time>2019-12-21T12:46:46Z</time>
      </trkpt>
      <trkpt lat="43.46581" lon="2.16044">
        <ele>516.37</ele>
        <time>2019-12-21T12:47:01Z</time>
      </trkpt>
      <trkpt lat="43.46576" lon="2.16036">
        <ele>517.33</ele>
        <time>2019-12-21T12:47:09Z</time>
      </trkpt>
      <trkpt lat="43.46574" lon="2.16032">
        <ele>518.29</ele>
        <time>2019-12-21T12:47:13Z</time>
      </trkpt>
      <trkpt lat="43.4657" lon="2.16028">
        <ele>519.25</ele>
        <time>2019-12-21T12:47:18Z</time>
      </trkpt>
      <trkpt lat="43.46568" lon="2.16024">
        <ele>519.73</ele>
        <time>2019-12-21T12:47:22Z</time>
      </trkpt>
      <trkpt lat="43.46559" lon="2.16017">
        <ele>520.69</ele>
        <time>2019-12-21T12:47:31Z</time>
      </trkpt>
      <trkpt lat="43.46547" lon="2.16018">
        <ele>521.17</ele>
        <time>2019-12-21T12:47:36Z</time>
      </trkpt>
      <trkpt lat="43.46538" lon="2.16017">
        <ele>522.13</ele>
        <time>2019-12-21T12:47:44Z</time>
      </trkpt>
      <trkpt lat="43.46536" lon="2.16013">
        <ele>522.61</ele>
        <time>2019-12-21T12:47:47Z</time>
      </trkpt>
      <trkpt lat="43.46536" lon="2.16012">
        <ele>522.61</ele>
        <time>2019-12-21T12:47:48Z</time>
      </trkpt>
      <trkpt lat="43.46536" lon="2.16011">
        <ele>523.58</ele>
        <time>2019-12-21T12:47:49Z</time>
      </trkpt>
      <trkpt lat="43.46534" lon="2.16007">
        <ele>522.61</ele>
        <time>2019-12-21T12:47:52Z</time>
      </trkpt>
      <trkpt lat="43.46527" lon="2.16004">
        <ele>524.06</ele>
        <time>2019-12-21T12:47:57Z</time>
      </trkpt>
      <trkpt lat="43.46523" lon="2.15997">
        <ele>524.06</ele>
        <time>2019-12-21T12:48:02Z</time>
      </trkpt>
      <trkpt lat="43.46507" lon="2.15986">
        <ele>525.5</ele>
        <time>2019-12-21T12:48:16Z</time>
      </trkpt>
      <trkpt lat="43.46489" lon="2.15981">
        <ele>525.98</ele>
        <time>2019-12-21T12:48:31Z</time>
      </trkpt>
      <trkpt lat="43.46472" lon="2.15996">
        <ele>525.98</ele>
        <time>2019-12-21T12:48:39Z</time>
      </trkpt>
      <trkpt lat="43.46477" lon="2.15985">
        <ele>525.98</ele>
        <time>2019-12-21T12:48:49Z</time>
      </trkpt>
      <trkpt lat="43.46464" lon="2.15977">
        <ele>527.42</ele>
        <time>2019-12-21T12:49:01Z</time>
      </trkpt>
      <trkpt lat="43.46434" lon="2.15971">
        <ele>527.42</ele>
        <time>2019-12-21T12:49:17Z</time>
      </trkpt>
      <trkpt lat="43.46401" lon="2.1598">
        <ele>528.86</ele>
        <time>2019-12-21T12:49:36Z</time>
      </trkpt>
      <trkpt lat="43.46401" lon="2.15978">
        <ele>528.86</ele>
        <time>2019-12-21T12:49:38Z</time>
      </trkpt>
      <trkpt lat="43.46393" lon="2.15977">
        <ele>529.34</ele>
        <time>2019-12-21T12:49:43Z</time>
      </trkpt>
      <trkpt lat="43.46368" lon="2.15972">
        <ele>530.79</ele>
        <time>2019-12-21T12:49:59Z</time>
      </trkpt>
      <trkpt lat="43.46368" lon="2.15971">
        <ele>530.79</ele>
        <time>2019-12-21T12:50:00Z</time>
      </trkpt>
      <trkpt lat="43.46365" lon="2.15967">
        <ele>531.75</ele>
        <time>2019-12-21T12:50:03Z</time>
      </trkpt>
      <trkpt lat="43.46356" lon="2.1596">
        <ele>533.19</ele>
        <time>2019-12-21T12:50:12Z</time>
      </trkpt>
      <trkpt lat="43.46349" lon="2.15957">
        <ele>532.71</ele>
        <time>2019-12-21T12:50:16Z</time>
      </trkpt>
      <trkpt lat="43.46345" lon="2.15955">
        <ele>533.67</ele>
        <time>2019-12-21T12:50:20Z</time>
      </trkpt>
      <trkpt lat="43.46345" lon="2.15948">
        <ele>534.63</ele>
        <time>2019-12-21T12:50:37Z</time>
      </trkpt>
      <trkpt lat="43.46343" lon="2.15947">
        <ele>534.63</ele>
        <time>2019-12-21T12:50:39Z</time>
      </trkpt>
      <trkpt lat="43.46337" lon="2.15937">
        <ele>536.07</ele>
        <time>2019-12-21T12:50:48Z</time>
      </trkpt>
      <trkpt lat="43.46324" lon="2.15932">
        <ele>535.59</ele>
        <time>2019-12-21T12:51:09Z</time>
      </trkpt>
      <trkpt lat="43.46326" lon="2.15936">
        <ele>535.11</ele>
        <time>2019-12-21T12:51:18Z</time>
      </trkpt>
      <trkpt lat="43.46336" lon="2.15939">
        <ele>536.07</ele>
        <time>2019-12-21T12:51:25Z</time>
      </trkpt>
      <trkpt lat="43.46343" lon="2.15944">
        <ele>537.03</ele>
        <time>2019-12-21T12:51:30Z</time>
      </trkpt>
      <trkpt lat="43.46348" lon="2.15944">
        <ele>537.03</ele>
        <time>2019-12-21T12:51:33Z</time>
      </trkpt>
      <trkpt lat="43.46385" lon="2.15942">
        <ele>539.92</ele>
        <time>2019-12-21T12:51:50Z</time>
      </trkpt>
      <trkpt lat="43.46408" lon="2.15942">
        <ele>541.36</ele>
        <time>2019-12-21T12:52:03Z</time>
      </trkpt>
      <trkpt lat="43.4641" lon="2.15943">
        <ele>541.84</ele>
        <time>2019-12-21T12:52:04Z</time>
      </trkpt>
      <trkpt lat="43.46417" lon="2.15944">
        <ele>542.8</ele>
        <time>2019-12-21T12:52:07Z</time>
      </trkpt>
      <trkpt lat="43.46425" lon="2.15946">
        <ele>542.8</ele>
        <time>2019-12-21T12:52:11Z</time>
      </trkpt>
      <trkpt lat="43.46449" lon="2.1595">
        <ele>544.72</ele>
        <time>2019-12-21T12:52:25Z</time>
      </trkpt>
      <trkpt lat="43.46484" lon="2.15957">
        <ele>547.13</ele>
        <time>2019-12-21T12:52:40Z</time>
      </trkpt>
      <trkpt lat="43.46495" lon="2.1596">
        <ele>548.09</ele>
        <time>2019-12-21T12:52:46Z</time>
      </trkpt>
      <trkpt lat="43.46498" lon="2.15959">
        <ele>547.61</ele>
        <time>2019-12-21T12:52:47Z</time>
      </trkpt>
      <trkpt lat="43.46502" lon="2.15959">
        <ele>548.57</ele>
        <time>2019-12-21T12:52:48Z</time>
      </trkpt>
      <trkpt lat="43.46505" lon="2.15959">
        <ele>548.57</ele>
        <time>2019-12-21T12:52:49Z</time>
      </trkpt>
      <trkpt lat="43.46508" lon="2.15959">
        <ele>548.09</ele>
        <time>2019-12-21T12:52:50Z</time>
      </trkpt>
      <trkpt lat="43.46511" lon="2.15959">
        <ele>548.57</ele>
        <time>2019-12-21T12:52:51Z</time>
      </trkpt>
      <trkpt lat="43.46514" lon="2.1596">
        <ele>549.05</ele>
        <time>2019-12-21T12:52:52Z</time>
      </trkpt>
      <trkpt lat="43.46517" lon="2.1596">
        <ele>548.57</ele>
        <time>2019-12-21T12:52:53Z</time>
      </trkpt>
      <trkpt lat="43.4652" lon="2.15961">
        <ele>549.05</ele>
        <time>2019-12-21T12:52:54Z</time>
      </trkpt>
      <trkpt lat="43.46523" lon="2.15961">
        <ele>549.05</ele>
        <time>2019-12-21T12:52:55Z</time>
      </trkpt>
      <trkpt lat="43.46527" lon="2.15962">
        <ele>549.53</ele>
        <time>2019-12-21T12:52:57Z</time>
      </trkpt>
      <trkpt lat="43.46529" lon="2.15963">
        <ele>549.53</ele>
        <time>2019-12-21T12:52:58Z</time>
      </trkpt>
      <trkpt lat="43.46531" lon="2.15963">
        <ele>549.53</ele>
        <time>2019-12-21T12:52:59Z</time>
      </trkpt>
      <trkpt lat="43.46534" lon="2.15963">
        <ele>549.53</ele>
        <time>2019-12-21T12:53:00Z</time>
      </trkpt>
      <trkpt lat="43.46537" lon="2.15963">
        <ele>550.01</ele>
        <time>2019-12-21T12:53:01Z</time>
      </trkpt>
      <trkpt lat="43.46539" lon="2.15963">
        <ele>549.53</ele>
        <time>2019-12-21T12:53:02Z</time>
      </trkpt>
      <trkpt lat="43.46542" lon="2.15964">
        <ele>549.53</ele>
        <time>2019-12-21T12:53:03Z</time>
      </trkpt>
      <trkpt lat="43.46597" lon="2.15969">
        <ele>550.49</ele>
        <time>2019-12-21T12:53:17Z</time>
      </trkpt>
      <trkpt lat="43.46639" lon="2.15976">
        <ele>548.09</ele>
        <time>2019-12-21T12:53:26Z</time>
      </trkpt>
      <trkpt lat="43.46644" lon="2.15977">
        <ele>548.57</ele>
        <time>2019-12-21T12:53:27Z</time>
      </trkpt>
      <trkpt lat="43.4665" lon="2.15978">
        <ele>548.09</ele>
        <time>2019-12-21T12:53:28Z</time>
      </trkpt>
      <trkpt lat="43.46675" lon="2.15983">
        <ele>547.61</ele>
        <time>2019-12-21T12:53:33Z</time>
      </trkpt>
      <trkpt lat="43.46731" lon="2.15991">
        <ele>549.05</ele>
        <time>2019-12-21T12:53:47Z</time>
      </trkpt>
      <trkpt lat="43.46756" lon="2.15994">
        <ele>550.97</ele>
        <time>2019-12-21T12:53:57Z</time>
      </trkpt>
      <trkpt lat="43.46758" lon="2.15995">
        <ele>551.45</ele>
        <time>2019-12-21T12:53:58Z</time>
      </trkpt>
      <trkpt lat="43.4676" lon="2.15996">
        <ele>551.45</ele>
        <time>2019-12-21T12:53:59Z</time>
      </trkpt>
      <trkpt lat="43.46761" lon="2.15996">
        <ele>551.45</ele>
        <time>2019-12-21T12:54:00Z</time>
      </trkpt>
      <trkpt lat="43.46763" lon="2.15997">
        <ele>551.45</ele>
        <time>2019-12-21T12:54:01Z</time>
      </trkpt>
      <trkpt lat="43.46765" lon="2.15998">
        <ele>551.45</ele>
        <time>2019-12-21T12:54:02Z</time>
      </trkpt>
      <trkpt lat="43.46768" lon="2.15998">
        <ele>551.93</ele>
        <time>2019-12-21T12:54:03Z</time>
      </trkpt>
      <trkpt lat="43.46771" lon="2.15997">
        <ele>552.41</ele>
        <time>2019-12-21T12:54:04Z</time>
      </trkpt>
      <trkpt lat="43.468" lon="2.16">
        <ele>554.82</ele>
        <time>2019-12-21T12:54:16Z</time>
      </trkpt>
      <trkpt lat="43.46802" lon="2.16001">
        <ele>555.3</ele>
        <time>2019-12-21T12:54:17Z</time>
      </trkpt>
      <trkpt lat="43.46827" lon="2.16011">
        <ele>558.66</ele>
        <time>2019-12-21T12:54:30Z</time>
      </trkpt>
      <trkpt lat="43.46846" lon="2.16014">
        <ele>559.14</ele>
        <time>2019-12-21T12:54:36Z</time>
      </trkpt>
      <trkpt lat="43.46858" lon="2.1602">
        <ele>560.59</ele>
        <time>2019-12-21T12:54:42Z</time>
      </trkpt>
      <trkpt lat="43.4688" lon="2.16028">
        <ele>561.55</ele>
        <time>2019-12-21T12:54:51Z</time>
      </trkpt>
      <trkpt lat="43.46906" lon="2.1604">
        <ele>565.87</ele>
        <time>2019-12-21T12:55:02Z</time>
      </trkpt>
      <trkpt lat="43.4692" lon="2.16047">
        <ele>567.8</ele>
        <time>2019-12-21T12:55:11Z</time>
      </trkpt>
      <trkpt lat="43.46933" lon="2.16053">
        <ele>569.72</ele>
        <time>2019-12-21T12:55:20Z</time>
      </trkpt>
      <trkpt lat="43.46936" lon="2.16055">
        <ele>570.68</ele>
        <time>2019-12-21T12:55:23Z</time>
      </trkpt>
      <trkpt lat="43.46955" lon="2.16067">
        <ele>573.56</ele>
        <time>2019-12-21T12:55:38Z</time>
      </trkpt>
      <trkpt lat="43.46964" lon="2.16065">
        <ele>574.53</ele>
        <time>2019-12-21T12:55:47Z</time>
      </trkpt>
      <trkpt lat="43.46972" lon="2.16073">
        <ele>576.93</ele>
        <time>2019-12-21T12:56:00Z</time>
      </trkpt>
      <trkpt lat="43.46976" lon="2.16072">
        <ele>578.85</ele>
        <time>2019-12-21T12:56:10Z</time>
      </trkpt>
      <trkpt lat="43.46979" lon="2.16073">
        <ele>579.33</ele>
        <time>2019-12-21T12:56:13Z</time>
      </trkpt>
      <trkpt lat="43.46996" lon="2.16086">
        <ele>581.73</ele>
        <time>2019-12-21T12:56:30Z</time>
      </trkpt>
      <trkpt lat="43.47013" lon="2.16101">
        <ele>584.14</ele>
        <time>2019-12-21T12:56:45Z</time>
      </trkpt>
      <trkpt lat="43.47028" lon="2.16115">
        <ele>587.02</ele>
        <time>2019-12-21T12:56:59Z</time>
      </trkpt>
      <trkpt lat="43.47037" lon="2.16124">
        <ele>587.5</ele>
        <time>2019-12-21T12:57:07Z</time>
      </trkpt>
      <trkpt lat="43.4704" lon="2.16125">
        <ele>587.5</ele>
        <time>2019-12-21T12:57:08Z</time>
      </trkpt>
      <trkpt lat="43.47044" lon="2.16128">
        <ele>587.98</ele>
        <time>2019-12-21T12:57:13Z</time>
      </trkpt>
      <trkpt lat="43.47051" lon="2.16131">
        <ele>589.43</ele>
        <time>2019-12-21T12:57:21Z</time>
      </trkpt>
      <trkpt lat="43.47056" lon="2.16133">
        <ele>589.91</ele>
        <time>2019-12-21T12:57:25Z</time>
      </trkpt>
      <trkpt lat="43.47063" lon="2.16136">
        <ele>590.87</ele>
        <time>2019-12-21T12:57:30Z</time>
      </trkpt>
      <trkpt lat="43.47093" lon="2.16159">
        <ele>591.35</ele>
        <time>2019-12-21T12:57:39Z</time>
      </trkpt>
      <trkpt lat="43.47087" lon="2.16178">
        <ele>593.27</ele>
        <time>2019-12-21T12:57:56Z</time>
      </trkpt>
      <trkpt lat="43.47098" lon="2.16186">
        <ele>595.67</ele>
        <time>2019-12-21T12:58:12Z</time>
      </trkpt>
      <trkpt lat="43.47127" lon="2.16173">
        <ele>597.12</ele>
        <time>2019-12-21T12:58:30Z</time>
      </trkpt>
      <trkpt lat="43.47148" lon="2.16153">
        <ele>598.56</ele>
        <time>2019-12-21T12:58:44Z</time>
      </trkpt>
      <trkpt lat="43.47149" lon="2.16151">
        <ele>599.04</ele>
        <time>2019-12-21T12:58:46Z</time>
      </trkpt>
      <trkpt lat="43.4715" lon="2.16149">
        <ele>599.52</ele>
        <time>2019-12-21T12:58:47Z</time>
      </trkpt>
      <trkpt lat="43.47151" lon="2.16147">
        <ele>599.04</ele>
        <time>2019-12-21T12:58:48Z</time>
      </trkpt>
      <trkpt lat="43.47163" lon="2.16132">
        <ele>599.52</ele>
        <time>2019-12-21T12:58:57Z</time>
      </trkpt>
      <trkpt lat="43.47164" lon="2.16132">
        <ele>600</ele>
        <time>2019-12-21T12:58:58Z</time>
      </trkpt>
      <trkpt lat="43.47166" lon="2.16131">
        <ele>599.52</ele>
        <time>2019-12-21T12:58:59Z</time>
      </trkpt>
      <trkpt lat="43.47189" lon="2.16127">
        <ele>600.48</ele>
        <time>2019-12-21T12:59:12Z</time>
      </trkpt>
      <trkpt lat="43.47214" lon="2.16113">
        <ele>601.44</ele>
        <time>2019-12-21T12:59:25Z</time>
      </trkpt>
      <trkpt lat="43.47236" lon="2.16105">
        <ele>601.92</ele>
        <time>2019-12-21T12:59:37Z</time>
      </trkpt>
      <trkpt lat="43.47238" lon="2.16105">
        <ele>601.92</ele>
        <time>2019-12-21T12:59:38Z</time>
      </trkpt>
      <trkpt lat="43.47277" lon="2.16083">
        <ele>602.4</ele>
        <time>2019-12-21T12:59:53Z</time>
      </trkpt>
      <trkpt lat="43.47283" lon="2.16077">
        <ele>601.92</ele>
        <time>2019-12-21T12:59:56Z</time>
      </trkpt>
      <trkpt lat="43.47297" lon="2.16037">
        <ele>604.33</ele>
        <time>2019-12-21T13:00:11Z</time>
      </trkpt>
      <trkpt lat="43.47295" lon="2.16035">
        <ele>603.85</ele>
        <time>2019-12-21T13:00:13Z</time>
      </trkpt>
      <trkpt lat="43.47293" lon="2.16034">
        <ele>604.33</ele>
        <time>2019-12-21T13:00:14Z</time>
      </trkpt>
      <trkpt lat="43.47292" lon="2.16034">
        <ele>604.33</ele>
        <time>2019-12-21T13:00:15Z</time>
      </trkpt>
      <trkpt lat="43.4729" lon="2.16034">
        <ele>604.33</ele>
        <time>2019-12-21T13:00:16Z</time>
      </trkpt>
      <trkpt lat="43.47288" lon="2.16035">
        <ele>603.85</ele>
        <time>2019-12-21T13:00:17Z</time>
      </trkpt>
      <trkpt lat="43.47252" lon="2.16031">
        <ele>605.29</ele>
        <time>2019-12-21T13:00:34Z</time>
      </trkpt>
      <trkpt lat="43.47214" lon="2.16031">
        <ele>606.25</ele>
        <time>2019-12-21T13:00:51Z</time>
      </trkpt>
      <trkpt lat="43.47177" lon="2.16033">
        <ele>608.17</ele>
        <time>2019-12-21T13:01:06Z</time>
      </trkpt>
      <trkpt lat="43.47173" lon="2.16033">
        <ele>608.65</ele>
        <time>2019-12-21T13:01:08Z</time>
      </trkpt>
      <trkpt lat="43.47147" lon="2.16035">
        <ele>610.09</ele>
        <time>2019-12-21T13:01:22Z</time>
      </trkpt>
      <trkpt lat="43.47104" lon="2.16028">
        <ele>612.02</ele>
        <time>2019-12-21T13:01:42Z</time>
      </trkpt>
      <trkpt lat="43.47088" lon="2.16029">
        <ele>612.98</ele>
        <time>2019-12-21T13:01:52Z</time>
      </trkpt>
      <trkpt lat="43.47086" lon="2.16029">
        <ele>613.46</ele>
        <time>2019-12-21T13:01:53Z</time>
      </trkpt>
      <trkpt lat="43.47084" lon="2.16029">
        <ele>613.46</ele>
        <time>2019-12-21T13:01:54Z</time>
      </trkpt>
      <trkpt lat="43.47081" lon="2.16028">
        <ele>613.46</ele>
        <time>2019-12-21T13:01:57Z</time>
      </trkpt>
      <trkpt lat="43.47079" lon="2.16028">
        <ele>613.94</ele>
        <time>2019-12-21T13:01:58Z</time>
      </trkpt>
      <trkpt lat="43.47041" lon="2.16024">
        <ele>614.9</ele>
        <time>2019-12-21T13:02:15Z</time>
      </trkpt>
      <trkpt lat="43.47005" lon="2.16015">
        <ele>615.38</ele>
        <time>2019-12-21T13:02:30Z</time>
      </trkpt>
      <trkpt lat="43.46977" lon="2.16004">
        <ele>616.82</ele>
        <time>2019-12-21T13:02:43Z</time>
      </trkpt>
      <trkpt lat="43.46936" lon="2.15983">
        <ele>618.75</ele>
        <time>2019-12-21T13:03:01Z</time>
      </trkpt>
      <trkpt lat="43.46911" lon="2.15969">
        <ele>619.71</ele>
        <time>2019-12-21T13:03:13Z</time>
      </trkpt>
      <trkpt lat="43.46878" lon="2.15941">
        <ele>622.11</ele>
        <time>2019-12-21T13:03:31Z</time>
      </trkpt>
      <trkpt lat="43.4686" lon="2.15916">
        <ele>625.47</ele>
        <time>2019-12-21T13:03:46Z</time>
      </trkpt>
      <trkpt lat="43.46857" lon="2.15907">
        <ele>625.47</ele>
        <time>2019-12-21T13:03:51Z</time>
      </trkpt>
      <trkpt lat="43.46855" lon="2.15906">
        <ele>625.47</ele>
        <time>2019-12-21T13:03:53Z</time>
      </trkpt>
      <trkpt lat="43.46854" lon="2.15905">
        <ele>625.96</ele>
        <time>2019-12-21T13:03:54Z</time>
      </trkpt>
      <trkpt lat="43.46853" lon="2.15903">
        <ele>625.47</ele>
        <time>2019-12-21T13:03:55Z</time>
      </trkpt>
      <trkpt lat="43.46851" lon="2.15902">
        <ele>625.96</ele>
        <time>2019-12-21T13:03:56Z</time>
      </trkpt>
      <trkpt lat="43.4685" lon="2.15901">
        <ele>625.96</ele>
        <time>2019-12-21T13:03:57Z</time>
      </trkpt>
      <trkpt lat="43.46848" lon="2.15899">
        <ele>625.96</ele>
        <time>2019-12-21T13:03:58Z</time>
      </trkpt>
      <trkpt lat="43.46847" lon="2.15898">
        <ele>625.96</ele>
        <time>2019-12-21T13:03:59Z</time>
      </trkpt>
      <trkpt lat="43.46846" lon="2.15896">
        <ele>625.96</ele>
        <time>2019-12-21T13:04:00Z</time>
      </trkpt>
      <trkpt lat="43.46845" lon="2.15894">
        <ele>625.96</ele>
        <time>2019-12-21T13:04:01Z</time>
      </trkpt>
      <trkpt lat="43.46845" lon="2.15892">
        <ele>625.96</ele>
        <time>2019-12-21T13:04:02Z</time>
      </trkpt>
      <trkpt lat="43.46829" lon="2.15865">
        <ele>628.36</ele>
        <time>2019-12-21T13:04:19Z</time>
      </trkpt>
      <trkpt lat="43.46811" lon="2.15832">
        <ele>630.76</ele>
        <time>2019-12-21T13:04:37Z</time>
      </trkpt>
      <trkpt lat="43.46784" lon="2.15803">
        <ele>632.68</ele>
        <time>2019-12-21T13:04:57Z</time>
      </trkpt>
      <trkpt lat="43.4678" lon="2.15795">
        <ele>633.17</ele>
        <time>2019-12-21T13:05:01Z</time>
      </trkpt>
      <trkpt lat="43.46764" lon="2.15752">
        <ele>634.61</ele>
        <time>2019-12-21T13:05:23Z</time>
      </trkpt>
      <trkpt lat="43.46751" lon="2.15733">
        <ele>636.53</ele>
        <time>2019-12-21T13:05:41Z</time>
      </trkpt>
      <trkpt lat="43.46756" lon="2.15733">
        <ele>636.05</ele>
        <time>2019-12-21T13:06:30Z</time>
      </trkpt>
      <trkpt lat="43.46755" lon="2.15734">
        <ele>634.61</ele>
        <time>2019-12-21T13:07:17Z</time>
      </trkpt>
      <trkpt lat="43.46756" lon="2.15734">
        <ele>634.13</ele>
        <time>2019-12-21T13:08:11Z</time>
      </trkpt>
      <trkpt lat="43.46757" lon="2.15732">
        <ele>634.13</ele>
        <time>2019-12-21T13:08:56Z</time>
      </trkpt>
      <trkpt lat="43.46754" lon="2.15732">
        <ele>633.65</ele>
        <time>2019-12-21T13:09:38Z</time>
      </trkpt>
      <trkpt lat="43.46753" lon="2.15732">
        <ele>633.65</ele>
        <time>2019-12-21T13:09:39Z</time>
      </trkpt>
      <trkpt lat="43.46751" lon="2.15725">
        <ele>634.13</ele>
        <time>2019-12-21T13:09:49Z</time>
      </trkpt>
      <trkpt lat="43.4675" lon="2.15724">
        <ele>634.13</ele>
        <time>2019-12-21T13:09:50Z</time>
      </trkpt>
      <trkpt lat="43.46728" lon="2.15705">
        <ele>637.49</ele>
        <time>2019-12-21T13:10:05Z</time>
      </trkpt>
      <trkpt lat="43.46707" lon="2.15683">
        <ele>639.89</ele>
        <time>2019-12-21T13:10:19Z</time>
      </trkpt>
      <trkpt lat="43.46675" lon="2.15638">
        <ele>643.26</ele>
        <time>2019-12-21T13:10:43Z</time>
      </trkpt>
      <trkpt lat="43.46658" lon="2.1556">
        <ele>642.3</ele>
        <time>2019-12-21T13:11:03Z</time>
      </trkpt>
      <trkpt lat="43.46639" lon="2.15517">
        <ele>639.89</ele>
        <time>2019-12-21T13:11:11Z</time>
      </trkpt>
      <trkpt lat="43.46627" lon="2.1549">
        <ele>635.57</ele>
        <time>2019-12-21T13:11:16Z</time>
      </trkpt>
      <trkpt lat="43.46624" lon="2.15485">
        <ele>635.57</ele>
        <time>2019-12-21T13:11:17Z</time>
      </trkpt>
      <trkpt lat="43.4662" lon="2.15483">
        <ele>635.57</ele>
        <time>2019-12-21T13:11:18Z</time>
      </trkpt>
      <trkpt lat="43.46582" lon="2.15481">
        <ele>638.45</ele>
        <time>2019-12-21T13:11:34Z</time>
      </trkpt>
      <trkpt lat="43.46565" lon="2.15479">
        <ele>639.89</ele>
        <time>2019-12-21T13:11:43Z</time>
      </trkpt>
      <trkpt lat="43.46537" lon="2.15483">
        <ele>642.78</ele>
        <time>2019-12-21T13:12:02Z</time>
      </trkpt>
      <trkpt lat="43.46498" lon="2.1549">
        <ele>645.66</ele>
        <time>2019-12-21T13:12:28Z</time>
      </trkpt>
      <trkpt lat="43.46463" lon="2.15486">
        <ele>648.55</ele>
        <time>2019-12-21T13:12:51Z</time>
      </trkpt>
      <trkpt lat="43.4646" lon="2.15485">
        <ele>649.51</ele>
        <time>2019-12-21T13:12:53Z</time>
      </trkpt>
      <trkpt lat="43.46431" lon="2.15473">
        <ele>654.31</ele>
        <time>2019-12-21T13:13:12Z</time>
      </trkpt>
      <trkpt lat="43.46429" lon="2.15472">
        <ele>654.31</ele>
        <time>2019-12-21T13:13:13Z</time>
      </trkpt>
      <trkpt lat="43.46417" lon="2.15467">
        <ele>653.83</ele>
        <time>2019-12-21T13:13:21Z</time>
      </trkpt>
      <trkpt lat="43.46396" lon="2.15453">
        <ele>656.24</ele>
        <time>2019-12-21T13:13:36Z</time>
      </trkpt>
      <trkpt lat="43.46394" lon="2.15452">
        <ele>655.76</ele>
        <time>2019-12-21T13:13:37Z</time>
      </trkpt>
      <trkpt lat="43.46393" lon="2.15452">
        <ele>655.76</ele>
        <time>2019-12-21T13:13:38Z</time>
      </trkpt>
      <trkpt lat="43.46392" lon="2.15451">
        <ele>655.76</ele>
        <time>2019-12-21T13:13:39Z</time>
      </trkpt>
      <trkpt lat="43.4639" lon="2.1545">
        <ele>656.72</ele>
        <time>2019-12-21T13:13:40Z</time>
      </trkpt>
      <trkpt lat="43.46389" lon="2.15449">
        <ele>657.2</ele>
        <time>2019-12-21T13:13:41Z</time>
      </trkpt>
      <trkpt lat="43.46387" lon="2.15448">
        <ele>655.76</ele>
        <time>2019-12-21T13:13:42Z</time>
      </trkpt>
      <trkpt lat="43.46386" lon="2.15448">
        <ele>655.28</ele>
        <time>2019-12-21T13:13:43Z</time>
      </trkpt>
      <trkpt lat="43.46384" lon="2.15447">
        <ele>655.28</ele>
        <time>2019-12-21T13:13:44Z</time>
      </trkpt>
      <trkpt lat="43.4637" lon="2.15437">
        <ele>658.16</ele>
        <time>2019-12-21T13:13:55Z</time>
      </trkpt>
      <trkpt lat="43.46369" lon="2.15435">
        <ele>658.16</ele>
        <time>2019-12-21T13:13:56Z</time>
      </trkpt>
      <trkpt lat="43.46337" lon="2.15402">
        <ele>660.56</ele>
        <time>2019-12-21T13:14:20Z</time>
      </trkpt>
      <trkpt lat="43.46335" lon="2.15399">
        <ele>661.04</ele>
        <time>2019-12-21T13:14:22Z</time>
      </trkpt>
      <trkpt lat="43.46329" lon="2.1539">
        <ele>663.45</ele>
        <time>2019-12-21T13:14:27Z</time>
      </trkpt>
      <trkpt lat="43.46294" lon="2.1538">
        <ele>666.33</ele>
        <time>2019-12-21T13:14:51Z</time>
      </trkpt>
      <trkpt lat="43.46262" lon="2.154">
        <ele>670.66</ele>
        <time>2019-12-21T13:15:14Z</time>
      </trkpt>
      <trkpt lat="43.46261" lon="2.15401">
        <ele>670.18</ele>
        <time>2019-12-21T13:15:15Z</time>
      </trkpt>
      <trkpt lat="43.46235" lon="2.1542">
        <ele>669.7</ele>
        <time>2019-12-21T13:15:35Z</time>
      </trkpt>
      <trkpt lat="43.4621" lon="2.15433">
        <ele>672.58</ele>
        <time>2019-12-21T13:15:53Z</time>
      </trkpt>
      <trkpt lat="43.4618" lon="2.15439">
        <ele>675.94</ele>
        <time>2019-12-21T13:16:10Z</time>
      </trkpt>
      <trkpt lat="43.46149" lon="2.15442">
        <ele>677.39</ele>
        <time>2019-12-21T13:16:30Z</time>
      </trkpt>
      <trkpt lat="43.46125" lon="2.15451">
        <ele>680.75</ele>
        <time>2019-12-21T13:16:47Z</time>
      </trkpt>
      <trkpt lat="43.46098" lon="2.1546">
        <ele>683.63</ele>
        <time>2019-12-21T13:17:07Z</time>
      </trkpt>
      <trkpt lat="43.46084" lon="2.15455">
        <ele>686.04</ele>
        <time>2019-12-21T13:17:17Z</time>
      </trkpt>
      <trkpt lat="43.4606" lon="2.15445">
        <ele>688.92</ele>
        <time>2019-12-21T13:17:35Z</time>
      </trkpt>
      <trkpt lat="43.46035" lon="2.15441">
        <ele>689.4</ele>
        <time>2019-12-21T13:17:54Z</time>
      </trkpt>
      <trkpt lat="43.46034" lon="2.15441">
        <ele>689.88</ele>
        <time>2019-12-21T13:17:55Z</time>
      </trkpt>
      <trkpt lat="43.46033" lon="2.15441">
        <ele>689.88</ele>
        <time>2019-12-21T13:17:56Z</time>
      </trkpt>
      <trkpt lat="43.46023" lon="2.1544">
        <ele>691.33</ele>
        <time>2019-12-21T13:18:05Z</time>
      </trkpt>
      <trkpt lat="43.46022" lon="2.1544">
        <ele>690.84</ele>
        <time>2019-12-21T13:18:06Z</time>
      </trkpt>
      <trkpt lat="43.46012" lon="2.1544">
        <ele>692.29</ele>
        <time>2019-12-21T13:18:11Z</time>
      </trkpt>
      <trkpt lat="43.4601" lon="2.1544">
        <ele>691.81</ele>
        <time>2019-12-21T13:18:12Z</time>
      </trkpt>
      <trkpt lat="43.46008" lon="2.1544">
        <ele>691.81</ele>
        <time>2019-12-21T13:18:13Z</time>
      </trkpt>
      <trkpt lat="43.46007" lon="2.1544">
        <ele>691.33</ele>
        <time>2019-12-21T13:18:14Z</time>
      </trkpt>
      <trkpt lat="43.45979" lon="2.15433">
        <ele>695.17</ele>
        <time>2019-12-21T13:18:33Z</time>
      </trkpt>
      <trkpt lat="43.4597" lon="2.15431">
        <ele>695.65</ele>
        <time>2019-12-21T13:18:39Z</time>
      </trkpt>
      <trkpt lat="43.45969" lon="2.1543">
        <ele>695.17</ele>
        <time>2019-12-21T13:18:40Z</time>
      </trkpt>
      <trkpt lat="43.45964" lon="2.15428">
        <ele>695.65</ele>
        <time>2019-12-21T13:18:43Z</time>
      </trkpt>
      <trkpt lat="43.4594" lon="2.1542">
        <ele>698.53</ele>
        <time>2019-12-21T13:19:00Z</time>
      </trkpt>
      <trkpt lat="43.45923" lon="2.15398">
        <ele>700.46</ele>
        <time>2019-12-21T13:19:16Z</time>
      </trkpt>
      <trkpt lat="43.45922" lon="2.15397">
        <ele>701.42</ele>
        <time>2019-12-21T13:19:17Z</time>
      </trkpt>
      <trkpt lat="43.45908" lon="2.15375">
        <ele>702.86</ele>
        <time>2019-12-21T13:19:34Z</time>
      </trkpt>
      <trkpt lat="43.45904" lon="2.1537">
        <ele>704.3</ele>
        <time>2019-12-21T13:19:37Z</time>
      </trkpt>
      <trkpt lat="43.45888" lon="2.15343">
        <ele>707.19</ele>
        <time>2019-12-21T13:19:56Z</time>
      </trkpt>
      <trkpt lat="43.45884" lon="2.15333">
        <ele>709.11</ele>
        <time>2019-12-21T13:20:04Z</time>
      </trkpt>
      <trkpt lat="43.45882" lon="2.15331">
        <ele>709.59</ele>
        <time>2019-12-21T13:20:05Z</time>
      </trkpt>
      <trkpt lat="43.45882" lon="2.1533">
        <ele>709.11</ele>
        <time>2019-12-21T13:20:06Z</time>
      </trkpt>
      <trkpt lat="43.45881" lon="2.1533">
        <ele>710.07</ele>
        <time>2019-12-21T13:20:07Z</time>
      </trkpt>
      <trkpt lat="43.45879" lon="2.1533">
        <ele>710.07</ele>
        <time>2019-12-21T13:20:08Z</time>
      </trkpt>
      <trkpt lat="43.45878" lon="2.15331">
        <ele>710.07</ele>
        <time>2019-12-21T13:20:09Z</time>
      </trkpt>
      <trkpt lat="43.45877" lon="2.15331">
        <ele>709.11</ele>
        <time>2019-12-21T13:20:10Z</time>
      </trkpt>
      <trkpt lat="43.45876" lon="2.15332">
        <ele>710.07</ele>
        <time>2019-12-21T13:20:11Z</time>
      </trkpt>
      <trkpt lat="43.45856" lon="2.15349">
        <ele>709.59</ele>
        <time>2019-12-21T13:20:27Z</time>
      </trkpt>
      <trkpt lat="43.45856" lon="2.15351">
        <ele>710.07</ele>
        <time>2019-12-21T13:20:28Z</time>
      </trkpt>
      <trkpt lat="43.45855" lon="2.15352">
        <ele>710.07</ele>
        <time>2019-12-21T13:20:29Z</time>
      </trkpt>
      <trkpt lat="43.45854" lon="2.15354">
        <ele>710.07</ele>
        <time>2019-12-21T13:20:30Z</time>
      </trkpt>
      <trkpt lat="43.45853" lon="2.15356">
        <ele>711.03</ele>
        <time>2019-12-21T13:20:31Z</time>
      </trkpt>
      <trkpt lat="43.45853" lon="2.15358">
        <ele>710.55</ele>
        <time>2019-12-21T13:20:32Z</time>
      </trkpt>
      <trkpt lat="43.4585" lon="2.1538">
        <ele>711.51</ele>
        <time>2019-12-21T13:20:42Z</time>
      </trkpt>
      <trkpt lat="43.45848" lon="2.15387">
        <ele>711.51</ele>
        <time>2019-12-21T13:20:45Z</time>
      </trkpt>
      <trkpt lat="43.45849" lon="2.1539">
        <ele>711.99</ele>
        <time>2019-12-21T13:20:46Z</time>
      </trkpt>
      <trkpt lat="43.45849" lon="2.15393">
        <ele>711.03</ele>
        <time>2019-12-21T13:20:47Z</time>
      </trkpt>
      <trkpt lat="43.45848" lon="2.15396">
        <ele>711.51</ele>
        <time>2019-12-21T13:20:48Z</time>
      </trkpt>
      <trkpt lat="43.45847" lon="2.154">
        <ele>711.99</ele>
        <time>2019-12-21T13:20:49Z</time>
      </trkpt>
      <trkpt lat="43.45846" lon="2.15404">
        <ele>711.99</ele>
        <time>2019-12-21T13:20:50Z</time>
      </trkpt>
      <trkpt lat="43.45845" lon="2.15408">
        <ele>711.99</ele>
        <time>2019-12-21T13:20:51Z</time>
      </trkpt>
      <trkpt lat="43.45844" lon="2.15412">
        <ele>711.51</ele>
        <time>2019-12-21T13:20:52Z</time>
      </trkpt>
      <trkpt lat="43.45828" lon="2.15479">
        <ele>713.44</ele>
        <time>2019-12-21T13:21:10Z</time>
      </trkpt>
      <trkpt lat="43.45809" lon="2.15535">
        <ele>715.36</ele>
        <time>2019-12-21T13:21:28Z</time>
      </trkpt>
      <trkpt lat="43.45802" lon="2.15554">
        <ele>715.84</ele>
        <time>2019-12-21T13:21:34Z</time>
      </trkpt>
      <trkpt lat="43.45799" lon="2.15556">
        <ele>715.84</ele>
        <time>2019-12-21T13:21:35Z</time>
      </trkpt>
      <trkpt lat="43.45796" lon="2.15558">
        <ele>716.8</ele>
        <time>2019-12-21T13:21:36Z</time>
      </trkpt>
      <trkpt lat="43.45793" lon="2.15559">
        <ele>715.84</ele>
        <time>2019-12-21T13:21:37Z</time>
      </trkpt>
      <trkpt lat="43.4579" lon="2.1556">
        <ele>716.32</ele>
        <time>2019-12-21T13:21:38Z</time>
      </trkpt>
      <trkpt lat="43.45787" lon="2.15559">
        <ele>716.8</ele>
        <time>2019-12-21T13:21:39Z</time>
      </trkpt>
      <trkpt lat="43.45744" lon="2.1556">
        <ele>716.8</ele>
        <time>2019-12-21T13:21:52Z</time>
      </trkpt>
      <trkpt lat="43.45741" lon="2.15564">
        <ele>717.28</ele>
        <time>2019-12-21T13:21:53Z</time>
      </trkpt>
      <trkpt lat="43.45706" lon="2.15616">
        <ele>718.72</ele>
        <time>2019-12-21T13:22:09Z</time>
      </trkpt>
      <trkpt lat="43.45703" lon="2.15617">
        <ele>719.2</ele>
        <time>2019-12-21T13:22:10Z</time>
      </trkpt>
      <trkpt lat="43.45699" lon="2.15616">
        <ele>719.2</ele>
        <time>2019-12-21T13:22:11Z</time>
      </trkpt>
      <trkpt lat="43.45682" lon="2.15611">
        <ele>718.72</ele>
        <time>2019-12-21T13:22:15Z</time>
      </trkpt>
      <trkpt lat="43.45679" lon="2.15609">
        <ele>717.76</ele>
        <time>2019-12-21T13:22:16Z</time>
      </trkpt>
      <trkpt lat="43.45676" lon="2.1561">
        <ele>717.76</ele>
        <time>2019-12-21T13:22:17Z</time>
      </trkpt>
      <trkpt lat="43.45673" lon="2.15612">
        <ele>717.28</ele>
        <time>2019-12-21T13:22:18Z</time>
      </trkpt>
      <trkpt lat="43.45671" lon="2.15616">
        <ele>717.76</ele>
        <time>2019-12-21T13:22:19Z</time>
      </trkpt>
      <trkpt lat="43.45669" lon="2.15621">
        <ele>716.8</ele>
        <time>2019-12-21T13:22:20Z</time>
      </trkpt>
      <trkpt lat="43.45668" lon="2.15627">
        <ele>717.76</ele>
        <time>2019-12-21T13:22:21Z</time>
      </trkpt>
      <trkpt lat="43.45667" lon="2.15632">
        <ele>717.28</ele>
        <time>2019-12-21T13:22:22Z</time>
      </trkpt>
      <trkpt lat="43.45667" lon="2.15638">
        <ele>718.24</ele>
        <time>2019-12-21T13:22:23Z</time>
      </trkpt>
      <trkpt lat="43.45668" lon="2.15643">
        <ele>717.76</ele>
        <time>2019-12-21T13:22:24Z</time>
      </trkpt>
      <trkpt lat="43.45669" lon="2.15649">
        <ele>717.76</ele>
        <time>2019-12-21T13:22:25Z</time>
      </trkpt>
      <trkpt lat="43.45672" lon="2.15659">
        <ele>718.72</ele>
        <time>2019-12-21T13:22:27Z</time>
      </trkpt>
      <trkpt lat="43.45714" lon="2.15725">
        <ele>719.68</ele>
        <time>2019-12-21T13:22:43Z</time>
      </trkpt>
      <trkpt lat="43.45767" lon="2.15783">
        <ele>721.61</ele>
        <time>2019-12-21T13:23:02Z</time>
      </trkpt>
      <trkpt lat="43.45808" lon="2.15816">
        <ele>724.97</ele>
        <time>2019-12-21T13:23:21Z</time>
      </trkpt>
      <trkpt lat="43.45846" lon="2.15859">
        <ele>728.34</ele>
        <time>2019-12-21T13:23:39Z</time>
      </trkpt>
      <trkpt lat="43.45863" lon="2.15912">
        <ele>729.78</ele>
        <time>2019-12-21T13:23:56Z</time>
      </trkpt>
      <trkpt lat="43.45868" lon="2.15936">
        <ele>730.74</ele>
        <time>2019-12-21T13:24:04Z</time>
      </trkpt>
      <trkpt lat="43.45868" lon="2.15939">
        <ele>730.74</ele>
        <time>2019-12-21T13:24:05Z</time>
      </trkpt>
      <trkpt lat="43.45868" lon="2.15942">
        <ele>731.7</ele>
        <time>2019-12-21T13:24:06Z</time>
      </trkpt>
      <trkpt lat="43.45868" lon="2.15945">
        <ele>731.7</ele>
        <time>2019-12-21T13:24:07Z</time>
      </trkpt>
      <trkpt lat="43.45868" lon="2.15949">
        <ele>731.22</ele>
        <time>2019-12-21T13:24:08Z</time>
      </trkpt>
      <trkpt lat="43.45867" lon="2.15951">
        <ele>731.7</ele>
        <time>2019-12-21T13:24:09Z</time>
      </trkpt>
      <trkpt lat="43.45863" lon="2.15989">
        <ele>734.1</ele>
        <time>2019-12-21T13:24:22Z</time>
      </trkpt>
      <trkpt lat="43.45862" lon="2.16012">
        <ele>735.07</ele>
        <time>2019-12-21T13:24:29Z</time>
      </trkpt>
      <trkpt lat="43.45858" lon="2.1603">
        <ele>735.07</ele>
        <time>2019-12-21T13:24:35Z</time>
      </trkpt>
      <trkpt lat="43.45858" lon="2.16034">
        <ele>735.55</ele>
        <time>2019-12-21T13:24:36Z</time>
      </trkpt>
      <trkpt lat="43.45868" lon="2.16095">
        <ele>736.99</ele>
        <time>2019-12-21T13:24:56Z</time>
      </trkpt>
      <trkpt lat="43.4587" lon="2.16128">
        <ele>738.43</ele>
        <time>2019-12-21T13:25:07Z</time>
      </trkpt>
      <trkpt lat="43.4587" lon="2.16131">
        <ele>739.39</ele>
        <time>2019-12-21T13:25:08Z</time>
      </trkpt>
      <trkpt lat="43.45869" lon="2.16133">
        <ele>738.91</ele>
        <time>2019-12-21T13:25:09Z</time>
      </trkpt>
      <trkpt lat="43.45869" lon="2.16136">
        <ele>740.35</ele>
        <time>2019-12-21T13:25:10Z</time>
      </trkpt>
      <trkpt lat="43.45868" lon="2.16139">
        <ele>739.39</ele>
        <time>2019-12-21T13:25:11Z</time>
      </trkpt>
      <trkpt lat="43.45868" lon="2.16141">
        <ele>739.39</ele>
        <time>2019-12-21T13:25:12Z</time>
      </trkpt>
      <trkpt lat="43.45867" lon="2.16144">
        <ele>739.87</ele>
        <time>2019-12-21T13:25:13Z</time>
      </trkpt>
      <trkpt lat="43.45866" lon="2.16147">
        <ele>739.39</ele>
        <time>2019-12-21T13:25:14Z</time>
      </trkpt>
      <trkpt lat="43.45866" lon="2.16153">
        <ele>740.35</ele>
        <time>2019-12-21T13:25:16Z</time>
      </trkpt>
      <trkpt lat="43.45865" lon="2.16155">
        <ele>740.35</ele>
        <time>2019-12-21T13:25:17Z</time>
      </trkpt>
      <trkpt lat="43.45865" lon="2.16158">
        <ele>740.35</ele>
        <time>2019-12-21T13:25:18Z</time>
      </trkpt>
      <trkpt lat="43.45851" lon="2.16195">
        <ele>743.24</ele>
        <time>2019-12-21T13:25:33Z</time>
      </trkpt>
      <trkpt lat="43.45849" lon="2.16196">
        <ele>742.28</ele>
        <time>2019-12-21T13:25:34Z</time>
      </trkpt>
      <trkpt lat="43.45848" lon="2.16198">
        <ele>743.24</ele>
        <time>2019-12-21T13:25:35Z</time>
      </trkpt>
      <trkpt lat="43.45846" lon="2.162">
        <ele>742.76</ele>
        <time>2019-12-21T13:25:36Z</time>
      </trkpt>
      <trkpt lat="43.45845" lon="2.16202">
        <ele>742.76</ele>
        <time>2019-12-21T13:25:37Z</time>
      </trkpt>
      <trkpt lat="43.45842" lon="2.16207">
        <ele>744.2</ele>
        <time>2019-12-21T13:25:39Z</time>
      </trkpt>
      <trkpt lat="43.45816" lon="2.16249">
        <ele>745.16</ele>
        <time>2019-12-21T13:25:57Z</time>
      </trkpt>
      <trkpt lat="43.45799" lon="2.16266">
        <ele>746.12</ele>
        <time>2019-12-21T13:26:07Z</time>
      </trkpt>
      <trkpt lat="43.45798" lon="2.16267">
        <ele>747.08</ele>
        <time>2019-12-21T13:26:08Z</time>
      </trkpt>
      <trkpt lat="43.45789" lon="2.16274">
        <ele>748.04</ele>
        <time>2019-12-21T13:26:13Z</time>
      </trkpt>
      <trkpt lat="43.45777" lon="2.16285">
        <ele>748.52</ele>
        <time>2019-12-21T13:26:21Z</time>
      </trkpt>
      <trkpt lat="43.45765" lon="2.16294">
        <ele>749.49</ele>
        <time>2019-12-21T13:26:28Z</time>
      </trkpt>
      <trkpt lat="43.45764" lon="2.16295">
        <ele>749.49</ele>
        <time>2019-12-21T13:26:29Z</time>
      </trkpt>
      <trkpt lat="43.45738" lon="2.16312">
        <ele>750.93</ele>
        <time>2019-12-21T13:26:44Z</time>
      </trkpt>
      <trkpt lat="43.45714" lon="2.16343">
        <ele>751.89</ele>
        <time>2019-12-21T13:26:59Z</time>
      </trkpt>
      <trkpt lat="43.45711" lon="2.16348">
        <ele>752.85</ele>
        <time>2019-12-21T13:27:01Z</time>
      </trkpt>
      <trkpt lat="43.45691" lon="2.16385">
        <ele>754.29</ele>
        <time>2019-12-21T13:27:18Z</time>
      </trkpt>
      <trkpt lat="43.45665" lon="2.16429">
        <ele>756.69</ele>
        <time>2019-12-21T13:27:37Z</time>
      </trkpt>
      <trkpt lat="43.45663" lon="2.16435">
        <ele>757.18</ele>
        <time>2019-12-21T13:27:41Z</time>
      </trkpt>
      <trkpt lat="43.45662" lon="2.16437">
        <ele>757.66</ele>
        <time>2019-12-21T13:27:42Z</time>
      </trkpt>
      <trkpt lat="43.45661" lon="2.1644">
        <ele>758.14</ele>
        <time>2019-12-21T13:27:43Z</time>
      </trkpt>
      <trkpt lat="43.4566" lon="2.16443">
        <ele>758.14</ele>
        <time>2019-12-21T13:27:44Z</time>
      </trkpt>
      <trkpt lat="43.45659" lon="2.16446">
        <ele>759.1</ele>
        <time>2019-12-21T13:27:45Z</time>
      </trkpt>
      <trkpt lat="43.45653" lon="2.16485">
        <ele>759.58</ele>
        <time>2019-12-21T13:27:59Z</time>
      </trkpt>
      <trkpt lat="43.45653" lon="2.16522">
        <ele>760.54</ele>
        <time>2019-12-21T13:28:11Z</time>
      </trkpt>
      <trkpt lat="43.45654" lon="2.16524">
        <ele>760.06</ele>
        <time>2019-12-21T13:28:12Z</time>
      </trkpt>
      <trkpt lat="43.45659" lon="2.16549">
        <ele>761.98</ele>
        <time>2019-12-21T13:28:22Z</time>
      </trkpt>
      <trkpt lat="43.45658" lon="2.16552">
        <ele>761.5</ele>
        <time>2019-12-21T13:28:23Z</time>
      </trkpt>
      <trkpt lat="43.45657" lon="2.16562">
        <ele>761.98</ele>
        <time>2019-12-21T13:28:27Z</time>
      </trkpt>
      <trkpt lat="43.45654" lon="2.16569">
        <ele>763.42</ele>
        <time>2019-12-21T13:28:31Z</time>
      </trkpt>
      <trkpt lat="43.45653" lon="2.16571">
        <ele>763.42</ele>
        <time>2019-12-21T13:28:32Z</time>
      </trkpt>
      <trkpt lat="43.45652" lon="2.16573">
        <ele>763.42</ele>
        <time>2019-12-21T13:28:33Z</time>
      </trkpt>
      <trkpt lat="43.45638" lon="2.16609">
        <ele>763.9</ele>
        <time>2019-12-21T13:28:50Z</time>
      </trkpt>
      <trkpt lat="43.45632" lon="2.16617">
        <ele>764.39</ele>
        <time>2019-12-21T13:28:54Z</time>
      </trkpt>
      <trkpt lat="43.45631" lon="2.16619">
        <ele>764.39</ele>
        <time>2019-12-21T13:28:55Z</time>
      </trkpt>
      <trkpt lat="43.4563" lon="2.16621">
        <ele>764.39</ele>
        <time>2019-12-21T13:28:56Z</time>
      </trkpt>
      <trkpt lat="43.45629" lon="2.16623">
        <ele>763.9</ele>
        <time>2019-12-21T13:28:57Z</time>
      </trkpt>
      <trkpt lat="43.45628" lon="2.16625">
        <ele>764.39</ele>
        <time>2019-12-21T13:28:58Z</time>
      </trkpt>
      <trkpt lat="43.45627" lon="2.16626">
        <ele>764.39</ele>
        <time>2019-12-21T13:28:59Z</time>
      </trkpt>
      <trkpt lat="43.45625" lon="2.16628">
        <ele>764.39</ele>
        <time>2019-12-21T13:29:00Z</time>
      </trkpt>
      <trkpt lat="43.45624" lon="2.16629">
        <ele>763.9</ele>
        <time>2019-12-21T13:29:01Z</time>
      </trkpt>
      <trkpt lat="43.45623" lon="2.16631">
        <ele>764.39</ele>
        <time>2019-12-21T13:29:02Z</time>
      </trkpt>
      <trkpt lat="43.45621" lon="2.16632">
        <ele>763.9</ele>
        <time>2019-12-21T13:29:03Z</time>
      </trkpt>
      <trkpt lat="43.45619" lon="2.16632">
        <ele>763.9</ele>
        <time>2019-12-21T13:29:04Z</time>
      </trkpt>
      <trkpt lat="43.45617" lon="2.16632">
        <ele>764.39</ele>
        <time>2019-12-21T13:29:05Z</time>
      </trkpt>
      <trkpt lat="43.45615" lon="2.16631">
        <ele>763.9</ele>
        <time>2019-12-21T13:29:06Z</time>
      </trkpt>
      <trkpt lat="43.45614" lon="2.16629">
        <ele>765.35</ele>
        <time>2019-12-21T13:29:08Z</time>
      </trkpt>
      <trkpt lat="43.45613" lon="2.16626">
        <ele>765.35</ele>
        <time>2019-12-21T13:29:09Z</time>
      </trkpt>
      <trkpt lat="43.45613" lon="2.16572">
        <ele>763.9</ele>
        <time>2019-12-21T13:29:25Z</time>
      </trkpt>
      <trkpt lat="43.45596" lon="2.16527">
        <ele>765.83</ele>
        <time>2019-12-21T13:29:40Z</time>
      </trkpt>
      <trkpt lat="43.45582" lon="2.16513">
        <ele>767.27</ele>
        <time>2019-12-21T13:29:49Z</time>
      </trkpt>
      <trkpt lat="43.45577" lon="2.16512">
        <ele>765.83</ele>
        <time>2019-12-21T13:29:52Z</time>
      </trkpt>
      <trkpt lat="43.45567" lon="2.165">
        <ele>767.75</ele>
        <time>2019-12-21T13:30:00Z</time>
      </trkpt>
      <trkpt lat="43.45547" lon="2.16474">
        <ele>769.19</ele>
        <time>2019-12-21T13:30:19Z</time>
      </trkpt>
      <trkpt lat="43.45528" lon="2.16449">
        <ele>771.11</ele>
        <time>2019-12-21T13:30:40Z</time>
      </trkpt>
      <trkpt lat="43.45507" lon="2.16427">
        <ele>773.04</ele>
        <time>2019-12-21T13:30:59Z</time>
      </trkpt>
      <trkpt lat="43.45492" lon="2.16419">
        <ele>773.04</ele>
        <time>2019-12-21T13:31:10Z</time>
      </trkpt>
      <trkpt lat="43.45484" lon="2.16413">
        <ele>773.52</ele>
        <time>2019-12-21T13:31:16Z</time>
      </trkpt>
      <trkpt lat="43.45463" lon="2.16387">
        <ele>774.48</ele>
        <time>2019-12-21T13:31:35Z</time>
      </trkpt>
      <trkpt lat="43.45404" lon="2.16332">
        <ele>769.67</ele>
        <time>2019-12-21T13:34:12Z</time>
      </trkpt>
      <trkpt lat="43.45401" lon="2.16332">
        <ele>770.15</ele>
        <time>2019-12-21T13:34:13Z</time>
      </trkpt>
      <trkpt lat="43.45398" lon="2.1633">
        <ele>770.15</ele>
        <time>2019-12-21T13:34:14Z</time>
      </trkpt>
      <trkpt lat="43.45397" lon="2.16329">
        <ele>770.63</ele>
        <time>2019-12-21T13:34:15Z</time>
      </trkpt>
      <trkpt lat="43.45396" lon="2.16329">
        <ele>769.67</ele>
        <time>2019-12-21T13:34:16Z</time>
      </trkpt>
      <trkpt lat="43.45384" lon="2.1632">
        <ele>768.71</ele>
        <time>2019-12-21T13:34:20Z</time>
      </trkpt>
      <trkpt lat="43.45381" lon="2.16317">
        <ele>768.23</ele>
        <time>2019-12-21T13:34:21Z</time>
      </trkpt>
      <trkpt lat="43.45378" lon="2.16314">
        <ele>767.75</ele>
        <time>2019-12-21T13:34:22Z</time>
      </trkpt>
      <trkpt lat="43.45363" lon="2.16307">
        <ele>766.31</ele>
        <time>2019-12-21T13:34:27Z</time>
      </trkpt>
      <trkpt lat="43.45356" lon="2.16307">
        <ele>766.31</ele>
        <time>2019-12-21T13:34:30Z</time>
      </trkpt>
      <trkpt lat="43.45353" lon="2.16305">
        <ele>765.35</ele>
        <time>2019-12-21T13:34:31Z</time>
      </trkpt>
      <trkpt lat="43.45352" lon="2.16299">
        <ele>763.9</ele>
        <time>2019-12-21T13:34:33Z</time>
      </trkpt>
      <trkpt lat="43.4535" lon="2.16297">
        <ele>764.87</ele>
        <time>2019-12-21T13:34:34Z</time>
      </trkpt>
      <trkpt lat="43.45348" lon="2.16295">
        <ele>764.39</ele>
        <time>2019-12-21T13:34:35Z</time>
      </trkpt>
      <trkpt lat="43.45345" lon="2.16295">
        <ele>764.87</ele>
        <time>2019-12-21T13:34:36Z</time>
      </trkpt>
      <trkpt lat="43.45331" lon="2.16286">
        <ele>762.46</ele>
        <time>2019-12-21T13:34:41Z</time>
      </trkpt>
      <trkpt lat="43.45327" lon="2.16282">
        <ele>761.02</ele>
        <time>2019-12-21T13:34:42Z</time>
      </trkpt>
      <trkpt lat="43.45324" lon="2.1628">
        <ele>761.02</ele>
        <time>2019-12-21T13:34:43Z</time>
      </trkpt>
      <trkpt lat="43.45322" lon="2.16279">
        <ele>761.5</ele>
        <time>2019-12-21T13:34:44Z</time>
      </trkpt>
      <trkpt lat="43.4532" lon="2.16279">
        <ele>760.06</ele>
        <time>2019-12-21T13:34:45Z</time>
      </trkpt>
      <trkpt lat="43.45318" lon="2.16278">
        <ele>758.62</ele>
        <time>2019-12-21T13:34:46Z</time>
      </trkpt>
      <trkpt lat="43.45316" lon="2.16277">
        <ele>758.14</ele>
        <time>2019-12-21T13:34:47Z</time>
      </trkpt>
      <trkpt lat="43.45314" lon="2.16277">
        <ele>758.14</ele>
        <time>2019-12-21T13:34:48Z</time>
      </trkpt>
      <trkpt lat="43.45301" lon="2.16281">
        <ele>754.77</ele>
        <time>2019-12-21T13:34:53Z</time>
      </trkpt>
      <trkpt lat="43.45286" lon="2.16281">
        <ele>751.41</ele>
        <time>2019-12-21T13:35:02Z</time>
      </trkpt>
      <trkpt lat="43.45267" lon="2.16278">
        <ele>749.49</ele>
        <time>2019-12-21T13:35:07Z</time>
      </trkpt>
      <trkpt lat="43.4526" lon="2.16276">
        <ele>749</ele>
        <time>2019-12-21T13:35:09Z</time>
      </trkpt>
      <trkpt lat="43.45241" lon="2.16265">
        <ele>747.56</ele>
        <time>2019-12-21T13:35:13Z</time>
      </trkpt>
      <trkpt lat="43.45237" lon="2.1626">
        <ele>748.04</ele>
        <time>2019-12-21T13:35:14Z</time>
      </trkpt>
      <trkpt lat="43.4523" lon="2.1625">
        <ele>745.64</ele>
        <time>2019-12-21T13:35:17Z</time>
      </trkpt>
      <trkpt lat="43.45203" lon="2.16239">
        <ele>742.76</ele>
        <time>2019-12-21T13:35:25Z</time>
      </trkpt>
      <trkpt lat="43.45185" lon="2.16243">
        <ele>740.35</ele>
        <time>2019-12-21T13:35:29Z</time>
      </trkpt>
      <trkpt lat="43.45168" lon="2.16223">
        <ele>738.43</ele>
        <time>2019-12-21T13:35:34Z</time>
      </trkpt>
      <trkpt lat="43.45131" lon="2.1621">
        <ele>735.55</ele>
        <time>2019-12-21T13:35:43Z</time>
      </trkpt>
      <trkpt lat="43.45095" lon="2.16209">
        <ele>732.18</ele>
        <time>2019-12-21T13:35:52Z</time>
      </trkpt>
      <trkpt lat="43.45071" lon="2.16212">
        <ele>731.22</ele>
        <time>2019-12-21T13:35:58Z</time>
      </trkpt>
      <trkpt lat="43.45017" lon="2.16227">
        <ele>731.7</ele>
        <time>2019-12-21T13:36:13Z</time>
      </trkpt>
      <trkpt lat="43.4498" lon="2.16224">
        <ele>729.78</ele>
        <time>2019-12-21T13:36:22Z</time>
      </trkpt>
      <trkpt lat="43.44974" lon="2.16225">
        <ele>729.3</ele>
        <time>2019-12-21T13:36:23Z</time>
      </trkpt>
      <trkpt lat="43.44969" lon="2.16226">
        <ele>728.82</ele>
        <time>2019-12-21T13:36:24Z</time>
      </trkpt>
      <trkpt lat="43.44965" lon="2.16227">
        <ele>728.82</ele>
        <time>2019-12-21T13:36:25Z</time>
      </trkpt>
      <trkpt lat="43.44922" lon="2.16248">
        <ele>732.18</ele>
        <time>2019-12-21T13:36:36Z</time>
      </trkpt>
      <trkpt lat="43.44902" lon="2.16261">
        <ele>733.14</ele>
        <time>2019-12-21T13:36:45Z</time>
      </trkpt>
      <trkpt lat="43.44901" lon="2.16263">
        <ele>734.1</ele>
        <time>2019-12-21T13:36:46Z</time>
      </trkpt>
      <trkpt lat="43.44897" lon="2.16273">
        <ele>735.07</ele>
        <time>2019-12-21T13:36:51Z</time>
      </trkpt>
      <trkpt lat="43.44882" lon="2.16298">
        <ele>736.99</ele>
        <time>2019-12-21T13:37:01Z</time>
      </trkpt>
      <trkpt lat="43.44879" lon="2.16302">
        <ele>737.95</ele>
        <time>2019-12-21T13:37:02Z</time>
      </trkpt>
      <trkpt lat="43.44869" lon="2.16324">
        <ele>739.39</ele>
        <time>2019-12-21T13:37:08Z</time>
      </trkpt>
      <trkpt lat="43.44867" lon="2.16329">
        <ele>739.39</ele>
        <time>2019-12-21T13:37:09Z</time>
      </trkpt>
      <trkpt lat="43.44859" lon="2.16348">
        <ele>740.35</ele>
        <time>2019-12-21T13:37:12Z</time>
      </trkpt>
      <trkpt lat="43.44846" lon="2.16374">
        <ele>741.31</ele>
        <time>2019-12-21T13:37:17Z</time>
      </trkpt>
      <trkpt lat="43.44846" lon="2.16377">
        <ele>741.31</ele>
        <time>2019-12-21T13:37:18Z</time>
      </trkpt>
      <trkpt lat="43.44844" lon="2.16382">
        <ele>742.76</ele>
        <time>2019-12-21T13:37:20Z</time>
      </trkpt>
      <trkpt lat="43.44843" lon="2.16386">
        <ele>743.24</ele>
        <time>2019-12-21T13:37:21Z</time>
      </trkpt>
      <trkpt lat="43.44837" lon="2.16414">
        <ele>744.2</ele>
        <time>2019-12-21T13:37:29Z</time>
      </trkpt>
      <trkpt lat="43.44836" lon="2.16432">
        <ele>744.68</ele>
        <time>2019-12-21T13:37:36Z</time>
      </trkpt>
      <trkpt lat="43.44837" lon="2.16434">
        <ele>744.68</ele>
        <time>2019-12-21T13:37:37Z</time>
      </trkpt>
      <trkpt lat="43.44837" lon="2.16499">
        <ele>747.56</ele>
        <time>2019-12-21T13:37:52Z</time>
      </trkpt>
      <trkpt lat="43.44832" lon="2.16538">
        <ele>750.45</ele>
        <time>2019-12-21T13:38:05Z</time>
      </trkpt>
      <trkpt lat="43.44834" lon="2.16551">
        <ele>750.93</ele>
        <time>2019-12-21T13:38:09Z</time>
      </trkpt>
      <trkpt lat="43.44834" lon="2.16553">
        <ele>750.93</ele>
        <time>2019-12-21T13:38:10Z</time>
      </trkpt>
      <trkpt lat="43.44832" lon="2.16556">
        <ele>750.93</ele>
        <time>2019-12-21T13:38:12Z</time>
      </trkpt>
      <trkpt lat="43.44824" lon="2.16563">
        <ele>751.41</ele>
        <time>2019-12-21T13:38:24Z</time>
      </trkpt>
      <trkpt lat="43.44822" lon="2.16563">
        <ele>752.85</ele>
        <time>2019-12-21T13:38:25Z</time>
      </trkpt>
      <trkpt lat="43.44821" lon="2.16563">
        <ele>751.89</ele>
        <time>2019-12-21T13:38:26Z</time>
      </trkpt>
      <trkpt lat="43.44819" lon="2.16563">
        <ele>751.89</ele>
        <time>2019-12-21T13:38:27Z</time>
      </trkpt>
      <trkpt lat="43.44816" lon="2.16563">
        <ele>752.37</ele>
        <time>2019-12-21T13:38:28Z</time>
      </trkpt>
      <trkpt lat="43.44814" lon="2.16563">
        <ele>752.85</ele>
        <time>2019-12-21T13:38:29Z</time>
      </trkpt>
      <trkpt lat="43.44811" lon="2.16563">
        <ele>753.33</ele>
        <time>2019-12-21T13:38:30Z</time>
      </trkpt>
      <trkpt lat="43.44769" lon="2.16548">
        <ele>754.77</ele>
        <time>2019-12-21T13:38:46Z</time>
      </trkpt>
      <trkpt lat="43.4472" lon="2.16517">
        <ele>751.89</ele>
        <time>2019-12-21T13:39:02Z</time>
      </trkpt>
      <trkpt lat="43.44708" lon="2.16511">
        <ele>750.45</ele>
        <time>2019-12-21T13:39:05Z</time>
      </trkpt>
      <trkpt lat="43.44705" lon="2.16509">
        <ele>750.45</ele>
        <time>2019-12-21T13:39:06Z</time>
      </trkpt>
      <trkpt lat="43.44688" lon="2.16494">
        <ele>749</ele>
        <time>2019-12-21T13:39:10Z</time>
      </trkpt>
      <trkpt lat="43.44683" lon="2.16492">
        <ele>748.52</ele>
        <time>2019-12-21T13:39:11Z</time>
      </trkpt>
      <trkpt lat="43.44671" lon="2.16489">
        <ele>748.04</ele>
        <time>2019-12-21T13:39:13Z</time>
      </trkpt>
      <trkpt lat="43.4464" lon="2.16487">
        <ele>747.08</ele>
        <time>2019-12-21T13:39:18Z</time>
      </trkpt>
      <trkpt lat="43.44635" lon="2.16488">
        <ele>746.6</ele>
        <time>2019-12-21T13:39:19Z</time>
      </trkpt>
      <trkpt lat="43.44628" lon="2.16488">
        <ele>746.12</ele>
        <time>2019-12-21T13:39:20Z</time>
      </trkpt>
      <trkpt lat="43.44605" lon="2.16487">
        <ele>743.24</ele>
        <time>2019-12-21T13:39:25Z</time>
      </trkpt>
      <trkpt lat="43.44589" lon="2.16486">
        <ele>739.87</ele>
        <time>2019-12-21T13:39:29Z</time>
      </trkpt>
      <trkpt lat="43.44586" lon="2.16486">
        <ele>739.87</ele>
        <time>2019-12-21T13:39:30Z</time>
      </trkpt>
      <trkpt lat="43.44569" lon="2.16485">
        <ele>736.51</ele>
        <time>2019-12-21T13:39:35Z</time>
      </trkpt>
      <trkpt lat="43.44566" lon="2.16485">
        <ele>735.55</ele>
        <time>2019-12-21T13:39:36Z</time>
      </trkpt>
      <trkpt lat="43.44563" lon="2.16485">
        <ele>735.55</ele>
        <time>2019-12-21T13:39:37Z</time>
      </trkpt>
      <trkpt lat="43.44559" lon="2.16485">
        <ele>734.1</ele>
        <time>2019-12-21T13:39:38Z</time>
      </trkpt>
      <trkpt lat="43.44555" lon="2.16485">
        <ele>734.1</ele>
        <time>2019-12-21T13:39:39Z</time>
      </trkpt>
      <trkpt lat="43.44552" lon="2.16487">
        <ele>733.62</ele>
        <time>2019-12-21T13:39:40Z</time>
      </trkpt>
      <trkpt lat="43.44545" lon="2.16491">
        <ele>732.66</ele>
        <time>2019-12-21T13:39:42Z</time>
      </trkpt>
      <trkpt lat="43.44529" lon="2.16505">
        <ele>731.22</ele>
        <time>2019-12-21T13:39:46Z</time>
      </trkpt>
      <trkpt lat="43.44524" lon="2.16509">
        <ele>730.74</ele>
        <time>2019-12-21T13:39:47Z</time>
      </trkpt>
      <trkpt lat="43.44484" lon="2.16535">
        <ele>729.78</ele>
        <time>2019-12-21T13:39:57Z</time>
      </trkpt>
      <trkpt lat="43.44479" lon="2.16534">
        <ele>729.78</ele>
        <time>2019-12-21T13:39:58Z</time>
      </trkpt>
      <trkpt lat="43.44445" lon="2.16518">
        <ele>727.37</ele>
        <time>2019-12-21T13:40:07Z</time>
      </trkpt>
      <trkpt lat="43.44421" lon="2.16513">
        <ele>725.93</ele>
        <time>2019-12-21T13:40:11Z</time>
      </trkpt>
      <trkpt lat="43.44409" lon="2.1651">
        <ele>724.01</ele>
        <time>2019-12-21T13:40:14Z</time>
      </trkpt>
      <trkpt lat="43.44393" lon="2.16523">
        <ele>724.01</ele>
        <time>2019-12-21T13:40:38Z</time>
      </trkpt>
      <trkpt lat="43.44391" lon="2.16527">
        <ele>723.53</ele>
        <time>2019-12-21T13:41:29Z</time>
      </trkpt>
      <trkpt lat="43.44385" lon="2.16524">
        <ele>723.05</ele>
        <time>2019-12-21T13:41:37Z</time>
      </trkpt>
      <trkpt lat="43.44383" lon="2.16524">
        <ele>722.57</ele>
        <time>2019-12-21T13:41:38Z</time>
      </trkpt>
      <trkpt lat="43.4438" lon="2.16524">
        <ele>722.57</ele>
        <time>2019-12-21T13:41:39Z</time>
      </trkpt>
      <trkpt lat="43.44378" lon="2.16523">
        <ele>723.05</ele>
        <time>2019-12-21T13:41:40Z</time>
      </trkpt>
      <trkpt lat="43.44375" lon="2.16521">
        <ele>722.57</ele>
        <time>2019-12-21T13:41:41Z</time>
      </trkpt>
      <trkpt lat="43.44371" lon="2.16519">
        <ele>722.57</ele>
        <time>2019-12-21T13:41:42Z</time>
      </trkpt>
      <trkpt lat="43.44368" lon="2.16516">
        <ele>722.09</ele>
        <time>2019-12-21T13:41:43Z</time>
      </trkpt>
      <trkpt lat="43.44361" lon="2.16511">
        <ele>719.68</ele>
        <time>2019-12-21T13:41:45Z</time>
      </trkpt>
      <trkpt lat="43.44353" lon="2.16509">
        <ele>718.24</ele>
        <time>2019-12-21T13:41:47Z</time>
      </trkpt>
      <trkpt lat="43.44345" lon="2.16508">
        <ele>717.28</ele>
        <time>2019-12-21T13:41:49Z</time>
      </trkpt>
      <trkpt lat="43.44341" lon="2.16509">
        <ele>716.8</ele>
        <time>2019-12-21T13:41:50Z</time>
      </trkpt>
      <trkpt lat="43.44338" lon="2.16512">
        <ele>716.8</ele>
        <time>2019-12-21T13:41:51Z</time>
      </trkpt>
      <trkpt lat="43.44334" lon="2.16516">
        <ele>715.84</ele>
        <time>2019-12-21T13:41:52Z</time>
      </trkpt>
      <trkpt lat="43.4433" lon="2.1652">
        <ele>716.32</ele>
        <time>2019-12-21T13:41:53Z</time>
      </trkpt>
      <trkpt lat="43.44325" lon="2.16524">
        <ele>716.32</ele>
        <time>2019-12-21T13:41:54Z</time>
      </trkpt>
      <trkpt lat="43.4432" lon="2.16527">
        <ele>715.84</ele>
        <time>2019-12-21T13:41:55Z</time>
      </trkpt>
      <trkpt lat="43.44318" lon="2.16529">
        <ele>715.36</ele>
        <time>2019-12-21T13:41:56Z</time>
      </trkpt>
      <trkpt lat="43.44287" lon="2.16538">
        <ele>714.4</ele>
        <time>2019-12-21T13:42:01Z</time>
      </trkpt>
      <trkpt lat="43.44257" lon="2.16548">
        <ele>713.92</ele>
        <time>2019-12-21T13:42:07Z</time>
      </trkpt>
      <trkpt lat="43.44252" lon="2.1655">
        <ele>713.92</ele>
        <time>2019-12-21T13:42:08Z</time>
      </trkpt>
      <trkpt lat="43.44202" lon="2.1655">
        <ele>710.07</ele>
        <time>2019-12-21T13:42:18Z</time>
      </trkpt>
      <trkpt lat="43.442" lon="2.1655">
        <ele>710.07</ele>
        <time>2019-12-21T13:42:19Z</time>
      </trkpt>
      <trkpt lat="43.44187" lon="2.1655">
        <ele>708.15</ele>
        <time>2019-12-21T13:42:22Z</time>
      </trkpt>
      <trkpt lat="43.44183" lon="2.16551">
        <ele>707.67</ele>
        <time>2019-12-21T13:42:23Z</time>
      </trkpt>
      <trkpt lat="43.44179" lon="2.1655">
        <ele>706.23</ele>
        <time>2019-12-21T13:42:24Z</time>
      </trkpt>
      <trkpt lat="43.44146" lon="2.16543">
        <ele>705.75</ele>
        <time>2019-12-21T13:42:31Z</time>
      </trkpt>
      <trkpt lat="43.44141" lon="2.16542">
        <ele>704.3</ele>
        <time>2019-12-21T13:42:32Z</time>
      </trkpt>
      <trkpt lat="43.44136" lon="2.16542">
        <ele>703.82</ele>
        <time>2019-12-21T13:42:33Z</time>
      </trkpt>
      <trkpt lat="43.44121" lon="2.16543">
        <ele>701.42</ele>
        <time>2019-12-21T13:42:36Z</time>
      </trkpt>
      <trkpt lat="43.44116" lon="2.16543">
        <ele>700.94</ele>
        <time>2019-12-21T13:42:37Z</time>
      </trkpt>
      <trkpt lat="43.44102" lon="2.1654">
        <ele>698.05</ele>
        <time>2019-12-21T13:42:40Z</time>
      </trkpt>
      <trkpt lat="43.44097" lon="2.16543">
        <ele>697.57</ele>
        <time>2019-12-21T13:42:42Z</time>
      </trkpt>
      <trkpt lat="43.44086" lon="2.16551">
        <ele>696.61</ele>
        <time>2019-12-21T13:43:11Z</time>
      </trkpt>
      <trkpt lat="43.44081" lon="2.16547">
        <ele>696.61</ele>
        <time>2019-12-21T13:43:17Z</time>
      </trkpt>
      <trkpt lat="43.44078" lon="2.16542">
        <ele>695.65</ele>
        <time>2019-12-21T13:43:19Z</time>
      </trkpt>
      <trkpt lat="43.44072" lon="2.16531">
        <ele>694.69</ele>
        <time>2019-12-21T13:43:22Z</time>
      </trkpt>
      <trkpt lat="43.44065" lon="2.16523">
        <ele>692.29</ele>
        <time>2019-12-21T13:43:24Z</time>
      </trkpt>
      <trkpt lat="43.44057" lon="2.16507">
        <ele>691.81</ele>
        <time>2019-12-21T13:43:26Z</time>
      </trkpt>
      <trkpt lat="43.4405" lon="2.16499">
        <ele>689.88</ele>
        <time>2019-12-21T13:43:28Z</time>
      </trkpt>
      <trkpt lat="43.44036" lon="2.16489">
        <ele>689.4</ele>
        <time>2019-12-21T13:43:31Z</time>
      </trkpt>
      <trkpt lat="43.44031" lon="2.16485">
        <ele>688.44</ele>
        <time>2019-12-21T13:43:32Z</time>
      </trkpt>
      <trkpt lat="43.4402" lon="2.16478">
        <ele>688.44</ele>
        <time>2019-12-21T13:43:34Z</time>
      </trkpt>
      <trkpt lat="43.43983" lon="2.16457">
        <ele>685.08</ele>
        <time>2019-12-21T13:43:41Z</time>
      </trkpt>
      <trkpt lat="43.43977" lon="2.16455">
        <ele>685.56</ele>
        <time>2019-12-21T13:43:42Z</time>
      </trkpt>
      <trkpt lat="43.4397" lon="2.16454">
        <ele>685.08</ele>
        <time>2019-12-21T13:43:43Z</time>
      </trkpt>
      <trkpt lat="43.43965" lon="2.16454">
        <ele>684.6</ele>
        <time>2019-12-21T13:43:44Z</time>
      </trkpt>
      <trkpt lat="43.4396" lon="2.16454">
        <ele>684.12</ele>
        <time>2019-12-21T13:43:45Z</time>
      </trkpt>
      <trkpt lat="43.43954" lon="2.16454">
        <ele>684.6</ele>
        <time>2019-12-21T13:43:46Z</time>
      </trkpt>
      <trkpt lat="43.43949" lon="2.16455">
        <ele>684.6</ele>
        <time>2019-12-21T13:43:47Z</time>
      </trkpt>
      <trkpt lat="43.43944" lon="2.16456">
        <ele>684.12</ele>
        <time>2019-12-21T13:43:48Z</time>
      </trkpt>
      <trkpt lat="43.43931" lon="2.16464">
        <ele>684.6</ele>
        <time>2019-12-21T13:43:50Z</time>
      </trkpt>
      <trkpt lat="43.43924" lon="2.16466">
        <ele>684.6</ele>
        <time>2019-12-21T13:43:51Z</time>
      </trkpt>
      <trkpt lat="43.43904" lon="2.16468">
        <ele>684.12</ele>
        <time>2019-12-21T13:43:54Z</time>
      </trkpt>
      <trkpt lat="43.43848" lon="2.1647">
        <ele>682.19</ele>
        <time>2019-12-21T13:44:02Z</time>
      </trkpt>
      <trkpt lat="43.43841" lon="2.1647">
        <ele>682.19</ele>
        <time>2019-12-21T13:44:03Z</time>
      </trkpt>
      <trkpt lat="43.43798" lon="2.16486">
        <ele>678.83</ele>
        <time>2019-12-21T13:44:09Z</time>
      </trkpt>
      <trkpt lat="43.43791" lon="2.1649">
        <ele>675.94</ele>
        <time>2019-12-21T13:44:10Z</time>
      </trkpt>
      <trkpt lat="43.43776" lon="2.16498">
        <ele>674.98</ele>
        <time>2019-12-21T13:44:12Z</time>
      </trkpt>
      <trkpt lat="43.4377" lon="2.16502">
        <ele>673.54</ele>
        <time>2019-12-21T13:44:13Z</time>
      </trkpt>
      <trkpt lat="43.43764" lon="2.16508">
        <ele>672.58</ele>
        <time>2019-12-21T13:44:14Z</time>
      </trkpt>
      <trkpt lat="43.43759" lon="2.16513">
        <ele>672.1</ele>
        <time>2019-12-21T13:44:15Z</time>
      </trkpt>
      <trkpt lat="43.4375" lon="2.16521">
        <ele>671.62</ele>
        <time>2019-12-21T13:44:17Z</time>
      </trkpt>
      <trkpt lat="43.43737" lon="2.16529">
        <ele>671.62</ele>
        <time>2019-12-21T13:44:19Z</time>
      </trkpt>
      <trkpt lat="43.43731" lon="2.16533">
        <ele>671.62</ele>
        <time>2019-12-21T13:44:20Z</time>
      </trkpt>
      <trkpt lat="43.43725" lon="2.16537">
        <ele>671.14</ele>
        <time>2019-12-21T13:44:21Z</time>
      </trkpt>
      <trkpt lat="43.43719" lon="2.1654">
        <ele>670.66</ele>
        <time>2019-12-21T13:44:22Z</time>
      </trkpt>
      <trkpt lat="43.43713" lon="2.16542">
        <ele>670.66</ele>
        <time>2019-12-21T13:44:23Z</time>
      </trkpt>
      <trkpt lat="43.43707" lon="2.16543">
        <ele>671.62</ele>
        <time>2019-12-21T13:44:24Z</time>
      </trkpt>
      <trkpt lat="43.437" lon="2.16543">
        <ele>670.66</ele>
        <time>2019-12-21T13:44:25Z</time>
      </trkpt>
      <trkpt lat="43.43646" lon="2.16552">
        <ele>668.73</ele>
        <time>2019-12-21T13:44:37Z</time>
      </trkpt>
      <trkpt lat="43.43603" lon="2.1658">
        <ele>668.25</ele>
        <time>2019-12-21T13:44:43Z</time>
      </trkpt>
      <trkpt lat="43.43596" lon="2.16582">
        <ele>668.25</ele>
        <time>2019-12-21T13:44:44Z</time>
      </trkpt>
      <trkpt lat="43.43583" lon="2.16586">
        <ele>668.25</ele>
        <time>2019-12-21T13:44:46Z</time>
      </trkpt>
      <trkpt lat="43.43576" lon="2.16587">
        <ele>668.25</ele>
        <time>2019-12-21T13:44:47Z</time>
      </trkpt>
      <trkpt lat="43.4357" lon="2.16588">
        <ele>669.22</ele>
        <time>2019-12-21T13:44:48Z</time>
      </trkpt>
      <trkpt lat="43.43564" lon="2.16589">
        <ele>668.73</ele>
        <time>2019-12-21T13:44:49Z</time>
      </trkpt>
      <trkpt lat="43.43559" lon="2.1659">
        <ele>668.73</ele>
        <time>2019-12-21T13:44:50Z</time>
      </trkpt>
      <trkpt lat="43.43549" lon="2.16593">
        <ele>668.73</ele>
        <time>2019-12-21T13:44:52Z</time>
      </trkpt>
      <trkpt lat="43.43543" lon="2.16593">
        <ele>668.25</ele>
        <time>2019-12-21T13:44:53Z</time>
      </trkpt>
      <trkpt lat="43.4349" lon="2.16602">
        <ele>669.22</ele>
        <time>2019-12-21T13:45:03Z</time>
      </trkpt>
      <trkpt lat="43.43483" lon="2.16602">
        <ele>668.73</ele>
        <time>2019-12-21T13:45:04Z</time>
      </trkpt>
      <trkpt lat="43.43477" lon="2.16603">
        <ele>668.73</ele>
        <time>2019-12-21T13:45:05Z</time>
      </trkpt>
      <trkpt lat="43.4347" lon="2.16602">
        <ele>669.22</ele>
        <time>2019-12-21T13:45:06Z</time>
      </trkpt>
      <trkpt lat="43.43457" lon="2.16599">
        <ele>668.73</ele>
        <time>2019-12-21T13:45:08Z</time>
      </trkpt>
      <trkpt lat="43.4345" lon="2.16597">
        <ele>668.73</ele>
        <time>2019-12-21T13:45:09Z</time>
      </trkpt>
      <trkpt lat="43.43444" lon="2.16595">
        <ele>668.73</ele>
        <time>2019-12-21T13:45:10Z</time>
      </trkpt>
      <trkpt lat="43.43426" lon="2.16586">
        <ele>668.73</ele>
        <time>2019-12-21T13:45:13Z</time>
      </trkpt>
      <trkpt lat="43.43421" lon="2.16581">
        <ele>668.25</ele>
        <time>2019-12-21T13:45:14Z</time>
      </trkpt>
      <trkpt lat="43.43417" lon="2.16576">
        <ele>669.22</ele>
        <time>2019-12-21T13:45:15Z</time>
      </trkpt>
      <trkpt lat="43.43403" lon="2.16554">
        <ele>668.73</ele>
        <time>2019-12-21T13:45:18Z</time>
      </trkpt>
      <trkpt lat="43.43397" lon="2.16548">
        <ele>669.22</ele>
        <time>2019-12-21T13:45:19Z</time>
      </trkpt>
      <trkpt lat="43.43391" lon="2.16542">
        <ele>669.22</ele>
        <time>2019-12-21T13:45:20Z</time>
      </trkpt>
      <trkpt lat="43.43385" lon="2.16538">
        <ele>668.73</ele>
        <time>2019-12-21T13:45:21Z</time>
      </trkpt>
      <trkpt lat="43.43378" lon="2.16536">
        <ele>668.73</ele>
        <time>2019-12-21T13:45:22Z</time>
      </trkpt>
      <trkpt lat="43.43372" lon="2.16535">
        <ele>668.25</ele>
        <time>2019-12-21T13:45:23Z</time>
      </trkpt>
      <trkpt lat="43.43286" lon="2.16541">
        <ele>667.29</ele>
        <time>2019-12-21T13:45:36Z</time>
      </trkpt>
      <trkpt lat="43.43279" lon="2.16543">
        <ele>666.33</ele>
        <time>2019-12-21T13:45:37Z</time>
      </trkpt>
      <trkpt lat="43.43247" lon="2.16549">
        <ele>662.49</ele>
        <time>2019-12-21T13:45:41Z</time>
      </trkpt>
      <trkpt lat="43.43238" lon="2.16549">
        <ele>663.45</ele>
        <time>2019-12-21T13:45:42Z</time>
      </trkpt>
      <trkpt lat="43.43229" lon="2.16547">
        <ele>662.49</ele>
        <time>2019-12-21T13:45:43Z</time>
      </trkpt>
      <trkpt lat="43.4322" lon="2.16545">
        <ele>662.49</ele>
        <time>2019-12-21T13:45:44Z</time>
      </trkpt>
      <trkpt lat="43.43197" lon="2.16538">
        <ele>662.97</ele>
        <time>2019-12-21T13:45:47Z</time>
      </trkpt>
      <trkpt lat="43.4319" lon="2.16537">
        <ele>663.45</ele>
        <time>2019-12-21T13:45:48Z</time>
      </trkpt>
      <trkpt lat="43.43145" lon="2.16536">
        <ele>665.85</ele>
        <time>2019-12-21T13:45:58Z</time>
      </trkpt>
      <trkpt lat="43.43119" lon="2.16534">
        <ele>669.7</ele>
        <time>2019-12-21T13:46:07Z</time>
      </trkpt>
      <trkpt lat="43.43115" lon="2.16534">
        <ele>669.7</ele>
        <time>2019-12-21T13:46:08Z</time>
      </trkpt>
      <trkpt lat="43.43092" lon="2.16541">
        <ele>673.06</ele>
        <time>2019-12-21T13:46:15Z</time>
      </trkpt>
      <trkpt lat="43.43074" lon="2.16545">
        <ele>674.5</ele>
        <time>2019-12-21T13:46:21Z</time>
      </trkpt>
      <trkpt lat="43.4304" lon="2.16506">
        <ele>676.91</ele>
        <time>2019-12-21T13:50:07Z</time>
      </trkpt>
      <trkpt lat="43.43035" lon="2.16499">
        <ele>676.42</ele>
        <time>2019-12-21T13:50:08Z</time>
      </trkpt>
      <trkpt lat="43.4303" lon="2.16492">
        <ele>676.91</ele>
        <time>2019-12-21T13:50:09Z</time>
      </trkpt>
      <trkpt lat="43.43026" lon="2.16482">
        <ele>675.94</ele>
        <time>2019-12-21T13:50:10Z</time>
      </trkpt>
      <trkpt lat="43.4302" lon="2.16472">
        <ele>675.46</ele>
        <time>2019-12-21T13:50:11Z</time>
      </trkpt>
      <trkpt lat="43.43004" lon="2.16437">
        <ele>665.37</ele>
        <time>2019-12-21T13:50:14Z</time>
      </trkpt>
      <trkpt lat="43.42999" lon="2.16426">
        <ele>669.22</ele>
        <time>2019-12-21T13:50:15Z</time>
      </trkpt>
      <trkpt lat="43.42978" lon="2.16368">
        <ele>665.85</ele>
        <time>2019-12-21T13:50:19Z</time>
      </trkpt>
      <trkpt lat="43.42961" lon="2.16328">
        <ele>662.01</ele>
        <time>2019-12-21T13:50:22Z</time>
      </trkpt>
      <trkpt lat="43.42956" lon="2.16318">
        <ele>660.56</ele>
        <time>2019-12-21T13:50:23Z</time>
      </trkpt>
      <trkpt lat="43.42949" lon="2.16311">
        <ele>658.16</ele>
        <time>2019-12-21T13:50:24Z</time>
      </trkpt>
      <trkpt lat="43.42941" lon="2.16307">
        <ele>656.72</ele>
        <time>2019-12-21T13:50:25Z</time>
      </trkpt>
      <trkpt lat="43.42933" lon="2.16304">
        <ele>655.76</ele>
        <time>2019-12-21T13:50:26Z</time>
      </trkpt>
      <trkpt lat="43.42925" lon="2.16303">
        <ele>655.28</ele>
        <time>2019-12-21T13:50:27Z</time>
      </trkpt>
      <trkpt lat="43.42914" lon="2.16302">
        <ele>653.35</ele>
        <time>2019-12-21T13:50:29Z</time>
      </trkpt>
      <trkpt lat="43.4291" lon="2.163">
        <ele>652.39</ele>
        <time>2019-12-21T13:50:30Z</time>
      </trkpt>
      <trkpt lat="43.42906" lon="2.16297">
        <ele>652.39</ele>
        <time>2019-12-21T13:50:31Z</time>
      </trkpt>
      <trkpt lat="43.42906" lon="2.16292">
        <ele>651.91</ele>
        <time>2019-12-21T13:50:32Z</time>
      </trkpt>
      <trkpt lat="43.42908" lon="2.16287">
        <ele>651.43</ele>
        <time>2019-12-21T13:50:33Z</time>
      </trkpt>
      <trkpt lat="43.42911" lon="2.16283">
        <ele>652.39</ele>
        <time>2019-12-21T13:50:34Z</time>
      </trkpt>
      <trkpt lat="43.42913" lon="2.16278">
        <ele>651.91</ele>
        <time>2019-12-21T13:50:35Z</time>
      </trkpt>
      <trkpt lat="43.42914" lon="2.16276">
        <ele>652.39</ele>
        <time>2019-12-21T13:50:36Z</time>
      </trkpt>
      <trkpt lat="43.42916" lon="2.1627">
        <ele>651.91</ele>
        <time>2019-12-21T13:50:37Z</time>
      </trkpt>
      <trkpt lat="43.42897" lon="2.16237">
        <ele>652.39</ele>
        <time>2019-12-21T13:50:49Z</time>
      </trkpt>
      <trkpt lat="43.42854" lon="2.16199">
        <ele>654.31</ele>
        <time>2019-12-21T13:51:10Z</time>
      </trkpt>
      <trkpt lat="43.42803" lon="2.16165">
        <ele>654.8</ele>
        <time>2019-12-21T13:51:29Z</time>
      </trkpt>
      <trkpt lat="43.42778" lon="2.16147">
        <ele>656.24</ele>
        <time>2019-12-21T13:51:41Z</time>
      </trkpt>
      <trkpt lat="43.42776" lon="2.16145">
        <ele>656.72</ele>
        <time>2019-12-21T13:51:42Z</time>
      </trkpt>
      <trkpt lat="43.42751" lon="2.16124">
        <ele>657.68</ele>
        <time>2019-12-21T13:51:54Z</time>
      </trkpt>
      <trkpt lat="43.42749" lon="2.16122">
        <ele>658.16</ele>
        <time>2019-12-21T13:51:55Z</time>
      </trkpt>
      <trkpt lat="43.42747" lon="2.16121">
        <ele>657.68</ele>
        <time>2019-12-21T13:51:56Z</time>
      </trkpt>
      <trkpt lat="43.42745" lon="2.1612">
        <ele>658.16</ele>
        <time>2019-12-21T13:51:57Z</time>
      </trkpt>
      <trkpt lat="43.42744" lon="2.1612">
        <ele>658.16</ele>
        <time>2019-12-21T13:51:58Z</time>
      </trkpt>
      <trkpt lat="43.42743" lon="2.16119">
        <ele>658.64</ele>
        <time>2019-12-21T13:51:59Z</time>
      </trkpt>
      <trkpt lat="43.42741" lon="2.16118">
        <ele>658.16</ele>
        <time>2019-12-21T13:52:00Z</time>
      </trkpt>
      <trkpt lat="43.42739" lon="2.16117">
        <ele>658.16</ele>
        <time>2019-12-21T13:52:01Z</time>
      </trkpt>
      <trkpt lat="43.4273" lon="2.16112">
        <ele>659.6</ele>
        <time>2019-12-21T13:52:07Z</time>
      </trkpt>
      <trkpt lat="43.42728" lon="2.16111">
        <ele>659.6</ele>
        <time>2019-12-21T13:52:08Z</time>
      </trkpt>
      <trkpt lat="43.42726" lon="2.16111">
        <ele>659.6</ele>
        <time>2019-12-21T13:52:09Z</time>
      </trkpt>
      <trkpt lat="43.42722" lon="2.16109">
        <ele>660.08</ele>
        <time>2019-12-21T13:52:11Z</time>
      </trkpt>
      <trkpt lat="43.42702" lon="2.16095">
        <ele>661.52</ele>
        <time>2019-12-21T13:52:24Z</time>
      </trkpt>
      <trkpt lat="43.42677" lon="2.16081">
        <ele>663.45</ele>
        <time>2019-12-21T13:52:37Z</time>
      </trkpt>
      <trkpt lat="43.42666" lon="2.16077">
        <ele>663.93</ele>
        <time>2019-12-21T13:52:43Z</time>
      </trkpt>
      <trkpt lat="43.42665" lon="2.16077">
        <ele>663.93</ele>
        <time>2019-12-21T13:52:44Z</time>
      </trkpt>
      <trkpt lat="43.42663" lon="2.16077">
        <ele>664.89</ele>
        <time>2019-12-21T13:52:45Z</time>
      </trkpt>
      <trkpt lat="43.42656" lon="2.16074">
        <ele>665.37</ele>
        <time>2019-12-21T13:52:50Z</time>
      </trkpt>
      <trkpt lat="43.42641" lon="2.16069">
        <ele>666.81</ele>
        <time>2019-12-21T13:53:01Z</time>
      </trkpt>
      <trkpt lat="43.42626" lon="2.16058">
        <ele>668.25</ele>
        <time>2019-12-21T13:53:13Z</time>
      </trkpt>
      <trkpt lat="43.42625" lon="2.16056">
        <ele>668.73</ele>
        <time>2019-12-21T13:53:14Z</time>
      </trkpt>
      <trkpt lat="43.42623" lon="2.16055">
        <ele>668.25</ele>
        <time>2019-12-21T13:53:15Z</time>
      </trkpt>
      <trkpt lat="43.42622" lon="2.16054">
        <ele>668.73</ele>
        <time>2019-12-21T13:53:16Z</time>
      </trkpt>
      <trkpt lat="43.42621" lon="2.16053">
        <ele>668.25</ele>
        <time>2019-12-21T13:53:17Z</time>
      </trkpt>
      <trkpt lat="43.42597" lon="2.1604">
        <ele>671.14</ele>
        <time>2019-12-21T13:53:35Z</time>
      </trkpt>
      <trkpt lat="43.42583" lon="2.16033">
        <ele>672.58</ele>
        <time>2019-12-21T13:53:47Z</time>
      </trkpt>
      <trkpt lat="43.42581" lon="2.16032">
        <ele>673.54</ele>
        <time>2019-12-21T13:53:49Z</time>
      </trkpt>
      <trkpt lat="43.4258" lon="2.16032">
        <ele>673.54</ele>
        <time>2019-12-21T13:53:50Z</time>
      </trkpt>
      <trkpt lat="43.42578" lon="2.16031">
        <ele>673.06</ele>
        <time>2019-12-21T13:53:51Z</time>
      </trkpt>
      <trkpt lat="43.42573" lon="2.16028">
        <ele>674.5</ele>
        <time>2019-12-21T13:53:56Z</time>
      </trkpt>
      <trkpt lat="43.42571" lon="2.16028">
        <ele>674.02</ele>
        <time>2019-12-21T13:53:57Z</time>
      </trkpt>
      <trkpt lat="43.4257" lon="2.16028">
        <ele>674.5</ele>
        <time>2019-12-21T13:53:58Z</time>
      </trkpt>
      <trkpt lat="43.42568" lon="2.16027">
        <ele>674.98</ele>
        <time>2019-12-21T13:53:59Z</time>
      </trkpt>
      <trkpt lat="43.42563" lon="2.16025">
        <ele>674.98</ele>
        <time>2019-12-21T13:54:03Z</time>
      </trkpt>
      <trkpt lat="43.42561" lon="2.16023">
        <ele>675.46</ele>
        <time>2019-12-21T13:54:04Z</time>
      </trkpt>
      <trkpt lat="43.42561" lon="2.16021">
        <ele>675.46</ele>
        <time>2019-12-21T13:54:05Z</time>
      </trkpt>
      <trkpt lat="43.42559" lon="2.1602">
        <ele>675.46</ele>
        <time>2019-12-21T13:54:06Z</time>
      </trkpt>
      <trkpt lat="43.42558" lon="2.16019">
        <ele>675.94</ele>
        <time>2019-12-21T13:54:07Z</time>
      </trkpt>
      <trkpt lat="43.42557" lon="2.16018">
        <ele>675.94</ele>
        <time>2019-12-21T13:54:08Z</time>
      </trkpt>
      <trkpt lat="43.42555" lon="2.16017">
        <ele>675.46</ele>
        <time>2019-12-21T13:54:09Z</time>
      </trkpt>
      <trkpt lat="43.4255" lon="2.16008">
        <ele>675.94</ele>
        <time>2019-12-21T13:54:13Z</time>
      </trkpt>
      <trkpt lat="43.4255" lon="2.16005">
        <ele>675.46</ele>
        <time>2019-12-21T13:54:14Z</time>
      </trkpt>
      <trkpt lat="43.4255" lon="2.16002">
        <ele>675.46</ele>
        <time>2019-12-21T13:54:15Z</time>
      </trkpt>
      <trkpt lat="43.42548" lon="2.15999">
        <ele>675.94</ele>
        <time>2019-12-21T13:54:16Z</time>
      </trkpt>
      <trkpt lat="43.42549" lon="2.15937">
        <ele>674.98</ele>
        <time>2019-12-21T13:54:33Z</time>
      </trkpt>
      <trkpt lat="43.42548" lon="2.1593">
        <ele>674.98</ele>
        <time>2019-12-21T13:54:37Z</time>
      </trkpt>
      <trkpt lat="43.42537" lon="2.15887">
        <ele>675.46</ele>
        <time>2019-12-21T13:54:52Z</time>
      </trkpt>
      <trkpt lat="43.42516" lon="2.15827">
        <ele>676.42</ele>
        <time>2019-12-21T13:55:08Z</time>
      </trkpt>
      <trkpt lat="43.42494" lon="2.1577">
        <ele>677.87</ele>
        <time>2019-12-21T13:55:25Z</time>
      </trkpt>
      <trkpt lat="43.42494" lon="2.15768">
        <ele>676.91</ele>
        <time>2019-12-21T13:55:26Z</time>
      </trkpt>
      <trkpt lat="43.42495" lon="2.15766">
        <ele>676.91</ele>
        <time>2019-12-21T13:55:27Z</time>
      </trkpt>
      <trkpt lat="43.42503" lon="2.15723">
        <ele>679.79</ele>
        <time>2019-12-21T13:55:46Z</time>
      </trkpt>
      <trkpt lat="43.42509" lon="2.15674">
        <ele>681.23</ele>
        <time>2019-12-21T13:56:00Z</time>
      </trkpt>
      <trkpt lat="43.42503" lon="2.15666">
        <ele>682.19</ele>
        <time>2019-12-21T13:56:05Z</time>
      </trkpt>
      <trkpt lat="43.42498" lon="2.15666">
        <ele>682.67</ele>
        <time>2019-12-21T13:56:08Z</time>
      </trkpt>
      <trkpt lat="43.42473" lon="2.15655">
        <ele>684.12</ele>
        <time>2019-12-21T13:56:23Z</time>
      </trkpt>
      <trkpt lat="43.4247" lon="2.15646">
        <ele>684.6</ele>
        <time>2019-12-21T13:56:28Z</time>
      </trkpt>
      <trkpt lat="43.42472" lon="2.15634">
        <ele>684.6</ele>
        <time>2019-12-21T13:56:34Z</time>
      </trkpt>
      <trkpt lat="43.42476" lon="2.15626">
        <ele>684.6</ele>
        <time>2019-12-21T13:56:37Z</time>
      </trkpt>
      <trkpt lat="43.42489" lon="2.15605">
        <ele>685.56</ele>
        <time>2019-12-21T13:56:45Z</time>
      </trkpt>
      <trkpt lat="43.42496" lon="2.15596">
        <ele>686.04</ele>
        <time>2019-12-21T13:56:50Z</time>
      </trkpt>
      <trkpt lat="43.42499" lon="2.15598">
        <ele>686.04</ele>
        <time>2019-12-21T13:56:53Z</time>
      </trkpt>
      <trkpt lat="43.42502" lon="2.15599">
        <ele>686.04</ele>
        <time>2019-12-21T13:56:55Z</time>
      </trkpt>
      <trkpt lat="43.42509" lon="2.1559">
        <ele>686.52</ele>
        <time>2019-12-21T13:56:59Z</time>
      </trkpt>
      <trkpt lat="43.42511" lon="2.15587">
        <ele>686.52</ele>
        <time>2019-12-21T13:57:00Z</time>
      </trkpt>
      <trkpt lat="43.42512" lon="2.15584">
        <ele>687</ele>
        <time>2019-12-21T13:57:01Z</time>
      </trkpt>
      <trkpt lat="43.42516" lon="2.15577">
        <ele>687</ele>
        <time>2019-12-21T13:57:02Z</time>
      </trkpt>
      <trkpt lat="43.42518" lon="2.15574">
        <ele>686.52</ele>
        <time>2019-12-21T13:57:03Z</time>
      </trkpt>
      <trkpt lat="43.42552" lon="2.15521">
        <ele>688.92</ele>
        <time>2019-12-21T13:57:19Z</time>
      </trkpt>
      <trkpt lat="43.42554" lon="2.1547">
        <ele>688.92</ele>
        <time>2019-12-21T13:57:35Z</time>
      </trkpt>
      <trkpt lat="43.42554" lon="2.15468">
        <ele>688.92</ele>
        <time>2019-12-21T13:57:36Z</time>
      </trkpt>
      <trkpt lat="43.42554" lon="2.15466">
        <ele>689.4</ele>
        <time>2019-12-21T13:57:37Z</time>
      </trkpt>
      <trkpt lat="43.42552" lon="2.15461">
        <ele>689.4</ele>
        <time>2019-12-21T13:57:39Z</time>
      </trkpt>
      <trkpt lat="43.42543" lon="2.15439">
        <ele>689.88</ele>
        <time>2019-12-21T13:57:54Z</time>
      </trkpt>
      <trkpt lat="43.42541" lon="2.15435">
        <ele>689.88</ele>
        <time>2019-12-21T13:57:56Z</time>
      </trkpt>
      <trkpt lat="43.4254" lon="2.15429">
        <ele>689.88</ele>
        <time>2019-12-21T13:57:58Z</time>
      </trkpt>
      <trkpt lat="43.42539" lon="2.15419">
        <ele>690.84</ele>
        <time>2019-12-21T13:58:02Z</time>
      </trkpt>
      <trkpt lat="43.42531" lon="2.15407">
        <ele>691.33</ele>
        <time>2019-12-21T13:58:10Z</time>
      </trkpt>
      <trkpt lat="43.42528" lon="2.15407">
        <ele>690.84</ele>
        <time>2019-12-21T13:58:12Z</time>
      </trkpt>
      <trkpt lat="43.42527" lon="2.15408">
        <ele>691.33</ele>
        <time>2019-12-21T13:58:13Z</time>
      </trkpt>
      <trkpt lat="43.42519" lon="2.15397">
        <ele>692.77</ele>
        <time>2019-12-21T13:58:24Z</time>
      </trkpt>
      <trkpt lat="43.42517" lon="2.15396">
        <ele>692.29</ele>
        <time>2019-12-21T13:58:25Z</time>
      </trkpt>
      <trkpt lat="43.42516" lon="2.15395">
        <ele>692.29</ele>
        <time>2019-12-21T13:58:26Z</time>
      </trkpt>
      <trkpt lat="43.42508" lon="2.15378">
        <ele>693.73</ele>
        <time>2019-12-21T13:58:38Z</time>
      </trkpt>
      <trkpt lat="43.42503" lon="2.1537">
        <ele>693.73</ele>
        <time>2019-12-21T13:58:44Z</time>
      </trkpt>
      <trkpt lat="43.42502" lon="2.15369">
        <ele>694.21</ele>
        <time>2019-12-21T13:58:45Z</time>
      </trkpt>
      <trkpt lat="43.42501" lon="2.15368">
        <ele>694.21</ele>
        <time>2019-12-21T13:58:46Z</time>
      </trkpt>
      <trkpt lat="43.42492" lon="2.15361">
        <ele>697.57</ele>
        <time>2019-12-21T13:58:59Z</time>
      </trkpt>
      <trkpt lat="43.42478" lon="2.15347">
        <ele>699.5</ele>
        <time>2019-12-21T13:59:18Z</time>
      </trkpt>
      <trkpt lat="43.42475" lon="2.15344">
        <ele>700.46</ele>
        <time>2019-12-21T13:59:22Z</time>
      </trkpt>
      <trkpt lat="43.42471" lon="2.15322">
        <ele>701.9</ele>
        <time>2019-12-21T13:59:36Z</time>
      </trkpt>
      <trkpt lat="43.42465" lon="2.15302">
        <ele>703.34</ele>
        <time>2019-12-21T13:59:52Z</time>
      </trkpt>
      <trkpt lat="43.42464" lon="2.153">
        <ele>703.82</ele>
        <time>2019-12-21T13:59:53Z</time>
      </trkpt>
      <trkpt lat="43.42464" lon="2.15299">
        <ele>703.34</ele>
        <time>2019-12-21T13:59:54Z</time>
      </trkpt>
      <trkpt lat="43.42462" lon="2.15262">
        <ele>705.75</ele>
        <time>2019-12-21T14:00:12Z</time>
      </trkpt>
      <trkpt lat="43.42462" lon="2.15258">
        <ele>704.78</ele>
        <time>2019-12-21T14:00:14Z</time>
      </trkpt>
      <trkpt lat="43.42463" lon="2.15256">
        <ele>705.26</ele>
        <time>2019-12-21T14:00:15Z</time>
      </trkpt>
      <trkpt lat="43.42464" lon="2.15254">
        <ele>705.75</ele>
        <time>2019-12-21T14:00:16Z</time>
      </trkpt>
      <trkpt lat="43.42464" lon="2.15252">
        <ele>705.26</ele>
        <time>2019-12-21T14:00:17Z</time>
      </trkpt>
      <trkpt lat="43.42465" lon="2.15249">
        <ele>705.75</ele>
        <time>2019-12-21T14:00:18Z</time>
      </trkpt>
      <trkpt lat="43.42466" lon="2.15248">
        <ele>706.23</ele>
        <time>2019-12-21T14:00:19Z</time>
      </trkpt>
      <trkpt lat="43.42467" lon="2.15244">
        <ele>705.75</ele>
        <time>2019-12-21T14:00:21Z</time>
      </trkpt>
      <trkpt lat="43.42468" lon="2.15243">
        <ele>706.23</ele>
        <time>2019-12-21T14:00:22Z</time>
      </trkpt>
      <trkpt lat="43.42469" lon="2.15242">
        <ele>706.23</ele>
        <time>2019-12-21T14:00:23Z</time>
      </trkpt>
      <trkpt lat="43.42469" lon="2.15241">
        <ele>706.71</ele>
        <time>2019-12-21T14:00:24Z</time>
      </trkpt>
      <trkpt lat="43.4247" lon="2.1524">
        <ele>707.19</ele>
        <time>2019-12-21T14:00:25Z</time>
      </trkpt>
      <trkpt lat="43.42471" lon="2.15239">
        <ele>707.19</ele>
        <time>2019-12-21T14:00:26Z</time>
      </trkpt>
      <trkpt lat="43.42472" lon="2.15238">
        <ele>707.19</ele>
        <time>2019-12-21T14:00:27Z</time>
      </trkpt>
      <trkpt lat="43.4248" lon="2.15223">
        <ele>710.07</ele>
        <time>2019-12-21T14:00:36Z</time>
      </trkpt>
      <trkpt lat="43.42495" lon="2.15192">
        <ele>710.07</ele>
        <time>2019-12-21T14:00:55Z</time>
      </trkpt>
      <trkpt lat="43.42501" lon="2.15184">
        <ele>711.51</ele>
        <time>2019-12-21T14:01:00Z</time>
      </trkpt>
      <trkpt lat="43.42502" lon="2.15183">
        <ele>711.03</ele>
        <time>2019-12-21T14:01:01Z</time>
      </trkpt>
      <trkpt lat="43.42519" lon="2.15163">
        <ele>712.95</ele>
        <time>2019-12-21T14:01:15Z</time>
      </trkpt>
      <trkpt lat="43.42532" lon="2.15149">
        <ele>712.95</ele>
        <time>2019-12-21T14:01:23Z</time>
      </trkpt>
      <trkpt lat="43.42535" lon="2.15147">
        <ele>713.44</ele>
        <time>2019-12-21T14:01:24Z</time>
      </trkpt>
      <trkpt lat="43.42536" lon="2.15145">
        <ele>713.44</ele>
        <time>2019-12-21T14:01:25Z</time>
      </trkpt>
      <trkpt lat="43.42538" lon="2.15144">
        <ele>713.44</ele>
        <time>2019-12-21T14:01:26Z</time>
      </trkpt>
      <trkpt lat="43.4254" lon="2.15141">
        <ele>713.44</ele>
        <time>2019-12-21T14:01:27Z</time>
      </trkpt>
      <trkpt lat="43.42541" lon="2.15139">
        <ele>713.44</ele>
        <time>2019-12-21T14:01:28Z</time>
      </trkpt>
      <trkpt lat="43.42543" lon="2.15137">
        <ele>713.44</ele>
        <time>2019-12-21T14:01:29Z</time>
      </trkpt>
      <trkpt lat="43.42545" lon="2.15135">
        <ele>713.92</ele>
        <time>2019-12-21T14:01:30Z</time>
      </trkpt>
      <trkpt lat="43.42556" lon="2.15122">
        <ele>714.88</ele>
        <time>2019-12-21T14:01:37Z</time>
      </trkpt>
      <trkpt lat="43.42557" lon="2.1512">
        <ele>714.4</ele>
        <time>2019-12-21T14:01:38Z</time>
      </trkpt>
      <trkpt lat="43.42583" lon="2.151">
        <ele>717.76</ele>
        <time>2019-12-21T14:01:53Z</time>
      </trkpt>
      <trkpt lat="43.42593" lon="2.15099">
        <ele>717.76</ele>
        <time>2019-12-21T14:01:58Z</time>
      </trkpt>
      <trkpt lat="43.42595" lon="2.15098">
        <ele>716.8</ele>
        <time>2019-12-21T14:01:59Z</time>
      </trkpt>
      <trkpt lat="43.42597" lon="2.15097">
        <ele>717.76</ele>
        <time>2019-12-21T14:02:00Z</time>
      </trkpt>
      <trkpt lat="43.42621" lon="2.15087">
        <ele>717.76</ele>
        <time>2019-12-21T14:02:10Z</time>
      </trkpt>
      <trkpt lat="43.42623" lon="2.15084">
        <ele>717.76</ele>
        <time>2019-12-21T14:02:11Z</time>
      </trkpt>
      <trkpt lat="43.42665" lon="2.15061">
        <ele>718.24</ele>
        <time>2019-12-21T14:02:28Z</time>
      </trkpt>
      <trkpt lat="43.42708" lon="2.15041">
        <ele>717.28</ele>
        <time>2019-12-21T14:02:43Z</time>
      </trkpt>
      <trkpt lat="43.42713" lon="2.15039">
        <ele>717.76</ele>
        <time>2019-12-21T14:02:46Z</time>
      </trkpt>
      <trkpt lat="43.42715" lon="2.15038">
        <ele>718.24</ele>
        <time>2019-12-21T14:02:47Z</time>
      </trkpt>
      <trkpt lat="43.42718" lon="2.15036">
        <ele>717.76</ele>
        <time>2019-12-21T14:02:49Z</time>
      </trkpt>
      <trkpt lat="43.4272" lon="2.15032">
        <ele>718.72</ele>
        <time>2019-12-21T14:02:50Z</time>
      </trkpt>
      <trkpt lat="43.42724" lon="2.15027">
        <ele>718.24</ele>
        <time>2019-12-21T14:02:52Z</time>
      </trkpt>
      <trkpt lat="43.42726" lon="2.15026">
        <ele>717.76</ele>
        <time>2019-12-21T14:02:53Z</time>
      </trkpt>
      <trkpt lat="43.42728" lon="2.15026">
        <ele>717.76</ele>
        <time>2019-12-21T14:02:54Z</time>
      </trkpt>
      <trkpt lat="43.4273" lon="2.15026">
        <ele>718.24</ele>
        <time>2019-12-21T14:02:55Z</time>
      </trkpt>
      <trkpt lat="43.42732" lon="2.15023">
        <ele>717.76</ele>
        <time>2019-12-21T14:02:56Z</time>
      </trkpt>
      <trkpt lat="43.42734" lon="2.1502">
        <ele>717.76</ele>
        <time>2019-12-21T14:02:57Z</time>
      </trkpt>
      <trkpt lat="43.42741" lon="2.15014">
        <ele>718.24</ele>
        <time>2019-12-21T14:03:00Z</time>
      </trkpt>
      <trkpt lat="43.42744" lon="2.15014">
        <ele>717.76</ele>
        <time>2019-12-21T14:03:01Z</time>
      </trkpt>
      <trkpt lat="43.42746" lon="2.15013">
        <ele>718.72</ele>
        <time>2019-12-21T14:03:02Z</time>
      </trkpt>
      <trkpt lat="43.42748" lon="2.15013">
        <ele>718.72</ele>
        <time>2019-12-21T14:03:03Z</time>
      </trkpt>
      <trkpt lat="43.4275" lon="2.15013">
        <ele>719.2</ele>
        <time>2019-12-21T14:03:04Z</time>
      </trkpt>
      <trkpt lat="43.42764" lon="2.15034">
        <ele>720.65</ele>
        <time>2019-12-21T14:03:15Z</time>
      </trkpt>
      <trkpt lat="43.42765" lon="2.15036">
        <ele>721.13</ele>
        <time>2019-12-21T14:03:16Z</time>
      </trkpt>
      <trkpt lat="43.42776" lon="2.15063">
        <ele>722.57</ele>
        <time>2019-12-21T14:03:28Z</time>
      </trkpt>
      <trkpt lat="43.42778" lon="2.15066">
        <ele>722.57</ele>
        <time>2019-12-21T14:03:30Z</time>
      </trkpt>
      <trkpt lat="43.42792" lon="2.15095">
        <ele>725.93</ele>
        <time>2019-12-21T14:03:47Z</time>
      </trkpt>
      <trkpt lat="43.42801" lon="2.15119">
        <ele>727.86</ele>
        <time>2019-12-21T14:03:58Z</time>
      </trkpt>
      <trkpt lat="43.42805" lon="2.15128">
        <ele>728.82</ele>
        <time>2019-12-21T14:04:03Z</time>
      </trkpt>
      <trkpt lat="43.42806" lon="2.15129">
        <ele>728.82</ele>
        <time>2019-12-21T14:04:04Z</time>
      </trkpt>
      <trkpt lat="43.42807" lon="2.15131">
        <ele>728.34</ele>
        <time>2019-12-21T14:04:05Z</time>
      </trkpt>
      <trkpt lat="43.42808" lon="2.15134">
        <ele>729.3</ele>
        <time>2019-12-21T14:04:07Z</time>
      </trkpt>
      <trkpt lat="43.42809" lon="2.15135">
        <ele>729.3</ele>
        <time>2019-12-21T14:04:08Z</time>
      </trkpt>
      <trkpt lat="43.4281" lon="2.15137">
        <ele>728.34</ele>
        <time>2019-12-21T14:04:09Z</time>
      </trkpt>
      <trkpt lat="43.42811" lon="2.15139">
        <ele>729.78</ele>
        <time>2019-12-21T14:04:10Z</time>
      </trkpt>
      <trkpt lat="43.42812" lon="2.15142">
        <ele>728.34</ele>
        <time>2019-12-21T14:04:12Z</time>
      </trkpt>
      <trkpt lat="43.42813" lon="2.15143">
        <ele>729.78</ele>
        <time>2019-12-21T14:04:13Z</time>
      </trkpt>
      <trkpt lat="43.42823" lon="2.15168">
        <ele>732.66</ele>
        <time>2019-12-21T14:04:26Z</time>
      </trkpt>
      <trkpt lat="43.42824" lon="2.15171">
        <ele>732.66</ele>
        <time>2019-12-21T14:04:28Z</time>
      </trkpt>
      <trkpt lat="43.42825" lon="2.15173">
        <ele>732.66</ele>
        <time>2019-12-21T14:04:29Z</time>
      </trkpt>
      <trkpt lat="43.42837" lon="2.152">
        <ele>735.07</ele>
        <time>2019-12-21T14:04:46Z</time>
      </trkpt>
      <trkpt lat="43.42838" lon="2.15204">
        <ele>735.07</ele>
        <time>2019-12-21T14:04:48Z</time>
      </trkpt>
      <trkpt lat="43.42841" lon="2.15211">
        <ele>735.55</ele>
        <time>2019-12-21T14:04:51Z</time>
      </trkpt>
      <trkpt lat="43.42845" lon="2.15219">
        <ele>735.07</ele>
        <time>2019-12-21T14:04:55Z</time>
      </trkpt>
      <trkpt lat="43.42854" lon="2.15242">
        <ele>738.43</ele>
        <time>2019-12-21T14:05:09Z</time>
      </trkpt>
      <trkpt lat="43.42855" lon="2.15246">
        <ele>738.91</ele>
        <time>2019-12-21T14:05:10Z</time>
      </trkpt>
      <trkpt lat="43.42857" lon="2.15249">
        <ele>738.43</ele>
        <time>2019-12-21T14:05:11Z</time>
      </trkpt>
      <trkpt lat="43.42858" lon="2.15252">
        <ele>737.95</ele>
        <time>2019-12-21T14:05:12Z</time>
      </trkpt>
      <trkpt lat="43.42859" lon="2.15254">
        <ele>737.95</ele>
        <time>2019-12-21T14:05:13Z</time>
      </trkpt>
      <trkpt lat="43.4286" lon="2.15257">
        <ele>737.95</ele>
        <time>2019-12-21T14:05:14Z</time>
      </trkpt>
      <trkpt lat="43.42861" lon="2.15259">
        <ele>738.43</ele>
        <time>2019-12-21T14:05:15Z</time>
      </trkpt>
      <trkpt lat="43.42862" lon="2.15261">
        <ele>739.39</ele>
        <time>2019-12-21T14:05:16Z</time>
      </trkpt>
      <trkpt lat="43.42862" lon="2.15263">
        <ele>738.43</ele>
        <time>2019-12-21T14:05:17Z</time>
      </trkpt>
      <trkpt lat="43.42863" lon="2.15266">
        <ele>738.91</ele>
        <time>2019-12-21T14:05:18Z</time>
      </trkpt>
      <trkpt lat="43.42873" lon="2.15291">
        <ele>740.35</ele>
        <time>2019-12-21T14:05:32Z</time>
      </trkpt>
      <trkpt lat="43.42874" lon="2.15294">
        <ele>741.79</ele>
        <time>2019-12-21T14:05:33Z</time>
      </trkpt>
      <trkpt lat="43.42875" lon="2.15297">
        <ele>741.79</ele>
        <time>2019-12-21T14:05:34Z</time>
      </trkpt>
      <trkpt lat="43.42887" lon="2.15326">
        <ele>741.79</ele>
        <time>2019-12-21T14:05:46Z</time>
      </trkpt>
      <trkpt lat="43.42888" lon="2.15328">
        <ele>742.28</ele>
        <time>2019-12-21T14:05:47Z</time>
      </trkpt>
      <trkpt lat="43.42889" lon="2.15331">
        <ele>741.31</ele>
        <time>2019-12-21T14:05:48Z</time>
      </trkpt>
      <trkpt lat="43.42894" lon="2.15345">
        <ele>742.76</ele>
        <time>2019-12-21T14:05:54Z</time>
      </trkpt>
      <trkpt lat="43.42906" lon="2.15371">
        <ele>741.79</ele>
        <time>2019-12-21T14:06:11Z</time>
      </trkpt>
      <trkpt lat="43.4291" lon="2.15373">
        <ele>742.28</ele>
        <time>2019-12-21T14:06:15Z</time>
      </trkpt>
      <trkpt lat="43.42922" lon="2.15378">
        <ele>744.2</ele>
        <time>2019-12-21T14:06:27Z</time>
      </trkpt>
      <trkpt lat="43.42925" lon="2.15379">
        <ele>744.68</ele>
        <time>2019-12-21T14:06:29Z</time>
      </trkpt>
      <trkpt lat="43.42926" lon="2.15379">
        <ele>745.16</ele>
        <time>2019-12-21T14:06:30Z</time>
      </trkpt>
      <trkpt lat="43.42929" lon="2.15383">
        <ele>744.2</ele>
        <time>2019-12-21T14:06:32Z</time>
      </trkpt>
      <trkpt lat="43.42929" lon="2.15387">
        <ele>744.2</ele>
        <time>2019-12-21T14:06:33Z</time>
      </trkpt>
      <trkpt lat="43.4293" lon="2.15391">
        <ele>744.2</ele>
        <time>2019-12-21T14:06:35Z</time>
      </trkpt>
      <trkpt lat="43.4293" lon="2.15393">
        <ele>743.72</ele>
        <time>2019-12-21T14:06:36Z</time>
      </trkpt>
      <trkpt lat="43.42931" lon="2.15399">
        <ele>742.76</ele>
        <time>2019-12-21T14:06:39Z</time>
      </trkpt>
      <trkpt lat="43.42932" lon="2.154">
        <ele>743.24</ele>
        <time>2019-12-21T14:06:40Z</time>
      </trkpt>
      <trkpt lat="43.42935" lon="2.15401">
        <ele>743.24</ele>
        <time>2019-12-21T14:06:42Z</time>
      </trkpt>
      <trkpt lat="43.42964" lon="2.15391">
        <ele>743.24</ele>
        <time>2019-12-21T14:06:59Z</time>
      </trkpt>
      <trkpt lat="43.42967" lon="2.15392">
        <ele>743.72</ele>
        <time>2019-12-21T14:07:01Z</time>
      </trkpt>
      <trkpt lat="43.42969" lon="2.15392">
        <ele>742.76</ele>
        <time>2019-12-21T14:07:02Z</time>
      </trkpt>
      <trkpt lat="43.42971" lon="2.15392">
        <ele>742.76</ele>
        <time>2019-12-21T14:07:03Z</time>
      </trkpt>
      <trkpt lat="43.42975" lon="2.15395">
        <ele>742.28</ele>
        <time>2019-12-21T14:07:05Z</time>
      </trkpt>
      <trkpt lat="43.42977" lon="2.15395">
        <ele>742.76</ele>
        <time>2019-12-21T14:07:06Z</time>
      </trkpt>
      <trkpt lat="43.4298" lon="2.15394">
        <ele>742.76</ele>
        <time>2019-12-21T14:07:07Z</time>
      </trkpt>
      <trkpt lat="43.42992" lon="2.15388">
        <ele>742.76</ele>
        <time>2019-12-21T14:07:10Z</time>
      </trkpt>
      <trkpt lat="43.43" lon="2.15387">
        <ele>741.79</ele>
        <time>2019-12-21T14:07:11Z</time>
      </trkpt>
      <trkpt lat="43.43008" lon="2.15387">
        <ele>741.31</ele>
        <time>2019-12-21T14:07:12Z</time>
      </trkpt>
      <trkpt lat="43.43013" lon="2.1539">
        <ele>740.83</ele>
        <time>2019-12-21T14:07:13Z</time>
      </trkpt>
      <trkpt lat="43.43059" lon="2.15412">
        <ele>739.87</ele>
        <time>2019-12-21T14:07:22Z</time>
      </trkpt>
      <trkpt lat="43.43063" lon="2.15412">
        <ele>739.87</ele>
        <time>2019-12-21T14:07:23Z</time>
      </trkpt>
      <trkpt lat="43.43066" lon="2.15412">
        <ele>739.87</ele>
        <time>2019-12-21T14:07:25Z</time>
      </trkpt>
      <trkpt lat="43.43106" lon="2.15425">
        <ele>741.79</ele>
        <time>2019-12-21T14:07:40Z</time>
      </trkpt>
      <trkpt lat="43.43144" lon="2.15435">
        <ele>742.76</ele>
        <time>2019-12-21T14:07:54Z</time>
      </trkpt>
      <trkpt lat="43.43194" lon="2.15446">
        <ele>742.28</ele>
        <time>2019-12-21T14:08:11Z</time>
      </trkpt>
      <trkpt lat="43.43257" lon="2.15458">
        <ele>742.28</ele>
        <time>2019-12-21T14:08:32Z</time>
      </trkpt>
      <trkpt lat="43.43323" lon="2.15473">
        <ele>742.28</ele>
        <time>2019-12-21T14:08:54Z</time>
      </trkpt>
      <trkpt lat="43.43401" lon="2.15489">
        <ele>742.76</ele>
        <time>2019-12-21T14:09:18Z</time>
      </trkpt>
      <trkpt lat="43.43474" lon="2.15494">
        <ele>741.79</ele>
        <time>2019-12-21T14:09:41Z</time>
      </trkpt>
      <trkpt lat="43.43501" lon="2.1549">
        <ele>741.31</ele>
        <time>2019-12-21T14:09:59Z</time>
      </trkpt>
      <trkpt lat="43.43509" lon="2.1549">
        <ele>742.28</ele>
        <time>2019-12-21T14:10:19Z</time>
      </trkpt>
      <trkpt lat="43.43509" lon="2.15492">
        <ele>741.79</ele>
        <time>2019-12-21T14:11:24Z</time>
      </trkpt>
      <trkpt lat="43.43508" lon="2.15493">
        <ele>741.79</ele>
        <time>2019-12-21T14:13:23Z</time>
      </trkpt>
      <trkpt lat="43.43508" lon="2.15485">
        <ele>741.31</ele>
        <time>2019-12-21T14:13:24Z</time>
      </trkpt>
      <trkpt lat="43.43508" lon="2.15488">
        <ele>742.28</ele>
        <time>2019-12-21T14:13:30Z</time>
      </trkpt>
      <trkpt lat="43.43508" lon="2.15489">
        <ele>742.28</ele>
        <time>2019-12-21T14:13:36Z</time>
      </trkpt>
      <trkpt lat="43.43508" lon="2.15487">
        <ele>741.79</ele>
        <time>2019-12-21T14:14:16Z</time>
      </trkpt>
      <trkpt lat="43.43512" lon="2.15488">
        <ele>743.24</ele>
        <time>2019-12-21T14:14:44Z</time>
      </trkpt>
      <trkpt lat="43.43512" lon="2.15487">
        <ele>743.24</ele>
        <time>2019-12-21T14:14:47Z</time>
      </trkpt>
      <trkpt lat="43.43559" lon="2.15481">
        <ele>745.16</ele>
        <time>2019-12-21T14:15:08Z</time>
      </trkpt>
      <trkpt lat="43.43599" lon="2.15477">
        <ele>748.04</ele>
        <time>2019-12-21T14:15:29Z</time>
      </trkpt>
      <trkpt lat="43.4362" lon="2.15475">
        <ele>751.41</ele>
        <time>2019-12-21T14:15:41Z</time>
      </trkpt>
      <trkpt lat="43.43633" lon="2.15474">
        <ele>751.89</ele>
        <time>2019-12-21T14:15:49Z</time>
      </trkpt>
      <trkpt lat="43.4367" lon="2.1547">
        <ele>751.89</ele>
        <time>2019-12-21T14:16:11Z</time>
      </trkpt>
      <trkpt lat="43.43684" lon="2.15468">
        <ele>755.25</ele>
        <time>2019-12-21T14:16:19Z</time>
      </trkpt>
      <trkpt lat="43.43686" lon="2.15468">
        <ele>751.89</ele>
        <time>2019-12-21T14:16:20Z</time>
      </trkpt>
      <trkpt lat="43.43689" lon="2.15468">
        <ele>755.73</ele>
        <time>2019-12-21T14:16:22Z</time>
      </trkpt>
      <trkpt lat="43.43716" lon="2.15469">
        <ele>751.89</ele>
        <time>2019-12-21T14:16:35Z</time>
      </trkpt>
      <trkpt lat="43.43718" lon="2.15469">
        <ele>755.25</ele>
        <time>2019-12-21T14:16:36Z</time>
      </trkpt>
      <trkpt lat="43.4374" lon="2.15469">
        <ele>751.89</ele>
        <time>2019-12-21T14:16:45Z</time>
      </trkpt>
      <trkpt lat="43.43742" lon="2.15469">
        <ele>756.21</ele>
        <time>2019-12-21T14:16:46Z</time>
      </trkpt>
      <trkpt lat="43.43744" lon="2.1547">
        <ele>752.85</ele>
        <time>2019-12-21T14:16:47Z</time>
      </trkpt>
      <trkpt lat="43.43747" lon="2.15471">
        <ele>755.73</ele>
        <time>2019-12-21T14:16:48Z</time>
      </trkpt>
      <trkpt lat="43.43749" lon="2.15471">
        <ele>751.89</ele>
        <time>2019-12-21T14:16:49Z</time>
      </trkpt>
      <trkpt lat="43.43751" lon="2.15472">
        <ele>755.73</ele>
        <time>2019-12-21T14:16:50Z</time>
      </trkpt>
      <trkpt lat="43.43759" lon="2.15472">
        <ele>752.37</ele>
        <time>2019-12-21T14:16:55Z</time>
      </trkpt>
      <trkpt lat="43.43759" lon="2.15473">
        <ele>756.21</ele>
        <time>2019-12-21T14:16:56Z</time>
      </trkpt>
      <trkpt lat="43.43761" lon="2.15471">
        <ele>753.81</ele>
        <time>2019-12-21T14:16:58Z</time>
      </trkpt>
      <trkpt lat="43.43763" lon="2.1547">
        <ele>755.25</ele>
        <time>2019-12-21T14:16:59Z</time>
      </trkpt>
      <trkpt lat="43.43765" lon="2.1547">
        <ele>752.37</ele>
        <time>2019-12-21T14:17:00Z</time>
      </trkpt>
      <trkpt lat="43.43767" lon="2.1547">
        <ele>755.25</ele>
        <time>2019-12-21T14:17:01Z</time>
      </trkpt>
      <trkpt lat="43.43771" lon="2.1547">
        <ele>751.89</ele>
        <time>2019-12-21T14:17:03Z</time>
      </trkpt>
      <trkpt lat="43.43773" lon="2.1547">
        <ele>752.85</ele>
        <time>2019-12-21T14:17:04Z</time>
      </trkpt>
      <trkpt lat="43.43818" lon="2.15474">
        <ele>749</ele>
        <time>2019-12-21T14:17:22Z</time>
      </trkpt>
      <trkpt lat="43.43821" lon="2.15475">
        <ele>751.89</ele>
        <time>2019-12-21T14:17:23Z</time>
      </trkpt>
      <trkpt lat="43.43828" lon="2.15476">
        <ele>748.52</ele>
        <time>2019-12-21T14:17:25Z</time>
      </trkpt>
      <trkpt lat="43.43831" lon="2.15477">
        <ele>752.85</ele>
        <time>2019-12-21T14:17:26Z</time>
      </trkpt>
      <trkpt lat="43.43835" lon="2.15477">
        <ele>747.08</ele>
        <time>2019-12-21T14:17:27Z</time>
      </trkpt>
      <trkpt lat="43.43851" lon="2.1548">
        <ele>751.89</ele>
        <time>2019-12-21T14:17:31Z</time>
      </trkpt>
      <trkpt lat="43.43856" lon="2.1548">
        <ele>748.04</ele>
        <time>2019-12-21T14:17:32Z</time>
      </trkpt>
      <trkpt lat="43.43886" lon="2.15478">
        <ele>746.6</ele>
        <time>2019-12-21T14:17:38Z</time>
      </trkpt>
      <trkpt lat="43.43938" lon="2.15477">
        <ele>747.56</ele>
        <time>2019-12-21T14:17:49Z</time>
      </trkpt>
      <trkpt lat="43.43947" lon="2.15478">
        <ele>744.2</ele>
        <time>2019-12-21T14:17:51Z</time>
      </trkpt>
      <trkpt lat="43.43951" lon="2.15478">
        <ele>747.56</ele>
        <time>2019-12-21T14:17:52Z</time>
      </trkpt>
      <trkpt lat="43.43964" lon="2.15479">
        <ele>744.2</ele>
        <time>2019-12-21T14:17:55Z</time>
      </trkpt>
      <trkpt lat="43.43983" lon="2.1548">
        <ele>747.08</ele>
        <time>2019-12-21T14:18:00Z</time>
      </trkpt>
      <trkpt lat="43.43993" lon="2.1548">
        <ele>743.24</ele>
        <time>2019-12-21T14:18:03Z</time>
      </trkpt>
      <trkpt lat="43.43995" lon="2.1548">
        <ele>747.56</ele>
        <time>2019-12-21T14:18:04Z</time>
      </trkpt>
      <trkpt lat="43.43998" lon="2.1548">
        <ele>743.24</ele>
        <time>2019-12-21T14:18:05Z</time>
      </trkpt>
      <trkpt lat="43.44001" lon="2.15479">
        <ele>747.08</ele>
        <time>2019-12-21T14:18:06Z</time>
      </trkpt>
      <trkpt lat="43.44003" lon="2.15478">
        <ele>743.72</ele>
        <time>2019-12-21T14:18:07Z</time>
      </trkpt>
      <trkpt lat="43.44005" lon="2.15478">
        <ele>747.08</ele>
        <time>2019-12-21T14:18:08Z</time>
      </trkpt>
      <trkpt lat="43.44007" lon="2.15477">
        <ele>743.72</ele>
        <time>2019-12-21T14:18:09Z</time>
      </trkpt>
      <trkpt lat="43.4402" lon="2.15471">
        <ele>746.6</ele>
        <time>2019-12-21T14:18:14Z</time>
      </trkpt>
      <trkpt lat="43.44023" lon="2.15469">
        <ele>743.72</ele>
        <time>2019-12-21T14:18:15Z</time>
      </trkpt>
      <trkpt lat="43.4403" lon="2.15466">
        <ele>747.56</ele>
        <time>2019-12-21T14:18:18Z</time>
      </trkpt>
      <trkpt lat="43.44032" lon="2.15465">
        <ele>746.6</ele>
        <time>2019-12-21T14:18:19Z</time>
      </trkpt>
      <trkpt lat="43.44037" lon="2.15464">
        <ele>745.64</ele>
        <time>2019-12-21T14:18:21Z</time>
      </trkpt>
      <trkpt lat="43.44044" lon="2.1546">
        <ele>749.49</ele>
        <time>2019-12-21T14:18:25Z</time>
      </trkpt>
      <trkpt lat="43.44046" lon="2.15459">
        <ele>744.2</ele>
        <time>2019-12-21T14:18:26Z</time>
      </trkpt>
      <trkpt lat="43.44048" lon="2.15458">
        <ele>748.04</ele>
        <time>2019-12-21T14:18:27Z</time>
      </trkpt>
      <trkpt lat="43.44058" lon="2.15454">
        <ele>747.08</ele>
        <time>2019-12-21T14:18:33Z</time>
      </trkpt>
      <trkpt lat="43.4406" lon="2.15452">
        <ele>747.56</ele>
        <time>2019-12-21T14:18:34Z</time>
      </trkpt>
      <trkpt lat="43.44062" lon="2.15451">
        <ele>747.08</ele>
        <time>2019-12-21T14:18:35Z</time>
      </trkpt>
      <trkpt lat="43.44066" lon="2.15448">
        <ele>747.56</ele>
        <time>2019-12-21T14:18:38Z</time>
      </trkpt>
      <trkpt lat="43.4407" lon="2.15448">
        <ele>746.6</ele>
        <time>2019-12-21T14:18:40Z</time>
      </trkpt>
      <trkpt lat="43.44072" lon="2.15447">
        <ele>748.04</ele>
        <time>2019-12-21T14:18:41Z</time>
      </trkpt>
      <trkpt lat="43.44074" lon="2.15446">
        <ele>748.04</ele>
        <time>2019-12-21T14:18:42Z</time>
      </trkpt>
      <trkpt lat="43.44081" lon="2.1544">
        <ele>749</ele>
        <time>2019-12-21T14:18:47Z</time>
      </trkpt>
      <trkpt lat="43.44087" lon="2.15436">
        <ele>750.93</ele>
        <time>2019-12-21T14:18:52Z</time>
      </trkpt>
      <trkpt lat="43.44089" lon="2.15436">
        <ele>749</ele>
        <time>2019-12-21T14:18:53Z</time>
      </trkpt>
      <trkpt lat="43.44091" lon="2.15435">
        <ele>749</ele>
        <time>2019-12-21T14:18:54Z</time>
      </trkpt>
      <trkpt lat="43.44099" lon="2.15433">
        <ele>750.45</ele>
        <time>2019-12-21T14:19:00Z</time>
      </trkpt>
      <trkpt lat="43.4413" lon="2.154">
        <ele>751.41</ele>
        <time>2019-12-21T14:19:16Z</time>
      </trkpt>
      <trkpt lat="43.44166" lon="2.15384">
        <ele>755.25</ele>
        <time>2019-12-21T14:19:33Z</time>
      </trkpt>
      <trkpt lat="43.4418" lon="2.15388">
        <ele>756.21</ele>
        <time>2019-12-21T14:19:40Z</time>
      </trkpt>
      <trkpt lat="43.44215" lon="2.15374">
        <ele>759.58</ele>
        <time>2019-12-21T14:19:56Z</time>
      </trkpt>
      <trkpt lat="43.44217" lon="2.15372">
        <ele>760.06</ele>
        <time>2019-12-21T14:19:57Z</time>
      </trkpt>
      <trkpt lat="43.44273" lon="2.15311">
        <ele>759.58</ele>
        <time>2019-12-21T14:20:21Z</time>
      </trkpt>
      <trkpt lat="43.44275" lon="2.15308">
        <ele>759.58</ele>
        <time>2019-12-21T14:20:22Z</time>
      </trkpt>
      <trkpt lat="43.44299" lon="2.1528">
        <ele>762.46</ele>
        <time>2019-12-21T14:20:31Z</time>
      </trkpt>
      <trkpt lat="43.44337" lon="2.15222">
        <ele>763.9</ele>
        <time>2019-12-21T14:20:49Z</time>
      </trkpt>
      <trkpt lat="43.44346" lon="2.15174">
        <ele>765.35</ele>
        <time>2019-12-21T14:21:01Z</time>
      </trkpt>
      <trkpt lat="43.44359" lon="2.15105">
        <ele>768.23</ele>
        <time>2019-12-21T14:21:20Z</time>
      </trkpt>
      <trkpt lat="43.44377" lon="2.15039">
        <ele>772.08</ele>
        <time>2019-12-21T14:21:40Z</time>
      </trkpt>
      <trkpt lat="43.44422" lon="2.14969">
        <ele>774</ele>
        <time>2019-12-21T14:22:07Z</time>
      </trkpt>
      <trkpt lat="43.4446" lon="2.14897">
        <ele>776.88</ele>
        <time>2019-12-21T14:22:30Z</time>
      </trkpt>
      <trkpt lat="43.44472" lon="2.1484">
        <ele>777.36</ele>
        <time>2019-12-21T14:22:47Z</time>
      </trkpt>
      <trkpt lat="43.44486" lon="2.14789">
        <ele>780.73</ele>
        <time>2019-12-21T14:23:04Z</time>
      </trkpt>
      <trkpt lat="43.4449" lon="2.14776">
        <ele>781.69</ele>
        <time>2019-12-21T14:23:08Z</time>
      </trkpt>
      <trkpt lat="43.44511" lon="2.14723">
        <ele>782.17</ele>
        <time>2019-12-21T14:23:26Z</time>
      </trkpt>
      <trkpt lat="43.4453" lon="2.14669">
        <ele>784.09</ele>
        <time>2019-12-21T14:23:43Z</time>
      </trkpt>
      <trkpt lat="43.44553" lon="2.14615">
        <ele>786.5</ele>
        <time>2019-12-21T14:24:02Z</time>
      </trkpt>
      <trkpt lat="43.44566" lon="2.14589">
        <ele>786.98</ele>
        <time>2019-12-21T14:24:19Z</time>
      </trkpt>
      <trkpt lat="43.44565" lon="2.1459">
        <ele>786.5</ele>
        <time>2019-12-21T14:24:42Z</time>
      </trkpt>
      <trkpt lat="43.44567" lon="2.14591">
        <ele>785.53</ele>
        <time>2019-12-21T14:24:51Z</time>
      </trkpt>
      <trkpt lat="43.44569" lon="2.14593">
        <ele>786.02</ele>
        <time>2019-12-21T14:24:52Z</time>
      </trkpt>
      <trkpt lat="43.44571" lon="2.14594">
        <ele>786.02</ele>
        <time>2019-12-21T14:24:53Z</time>
      </trkpt>
      <trkpt lat="43.44572" lon="2.14596">
        <ele>786.5</ele>
        <time>2019-12-21T14:24:54Z</time>
      </trkpt>
      <trkpt lat="43.44573" lon="2.14598">
        <ele>786.5</ele>
        <time>2019-12-21T14:24:55Z</time>
      </trkpt>
      <trkpt lat="43.44575" lon="2.146">
        <ele>785.53</ele>
        <time>2019-12-21T14:24:56Z</time>
      </trkpt>
      <trkpt lat="43.44579" lon="2.14607">
        <ele>786.98</ele>
        <time>2019-12-21T14:24:59Z</time>
      </trkpt>
      <trkpt lat="43.44602" lon="2.14651">
        <ele>786.5</ele>
        <time>2019-12-21T14:25:21Z</time>
      </trkpt>
      <trkpt lat="43.44607" lon="2.14664">
        <ele>787.94</ele>
        <time>2019-12-21T14:25:27Z</time>
      </trkpt>
      <trkpt lat="43.44608" lon="2.14666">
        <ele>787.94</ele>
        <time>2019-12-21T14:25:28Z</time>
      </trkpt>
      <trkpt lat="43.44609" lon="2.14669">
        <ele>788.42</ele>
        <time>2019-12-21T14:25:29Z</time>
      </trkpt>
      <trkpt lat="43.4461" lon="2.14671">
        <ele>788.9</ele>
        <time>2019-12-21T14:25:30Z</time>
      </trkpt>
      <trkpt lat="43.44611" lon="2.14673">
        <ele>788.42</ele>
        <time>2019-12-21T14:25:31Z</time>
      </trkpt>
      <trkpt lat="43.44613" lon="2.14675">
        <ele>788.42</ele>
        <time>2019-12-21T14:25:32Z</time>
      </trkpt>
      <trkpt lat="43.44614" lon="2.14677">
        <ele>788.9</ele>
        <time>2019-12-21T14:25:33Z</time>
      </trkpt>
      <trkpt lat="43.44615" lon="2.14679">
        <ele>788.42</ele>
        <time>2019-12-21T14:25:34Z</time>
      </trkpt>
      <trkpt lat="43.44616" lon="2.14681">
        <ele>788.9</ele>
        <time>2019-12-21T14:25:35Z</time>
      </trkpt>
      <trkpt lat="43.44616" lon="2.14682">
        <ele>788.9</ele>
        <time>2019-12-21T14:25:36Z</time>
      </trkpt>
      <trkpt lat="43.44631" lon="2.1471">
        <ele>790.34</ele>
        <time>2019-12-21T14:25:50Z</time>
      </trkpt>
      <trkpt lat="43.44646" lon="2.1474">
        <ele>792.26</ele>
        <time>2019-12-21T14:26:05Z</time>
      </trkpt>
      <trkpt lat="43.44647" lon="2.14742">
        <ele>793.22</ele>
        <time>2019-12-21T14:26:06Z</time>
      </trkpt>
      <trkpt lat="43.44647" lon="2.14744">
        <ele>792.26</ele>
        <time>2019-12-21T14:26:07Z</time>
      </trkpt>
      <trkpt lat="43.4465" lon="2.14748">
        <ele>793.71</ele>
        <time>2019-12-21T14:26:10Z</time>
      </trkpt>
      <trkpt lat="43.44664" lon="2.14769">
        <ele>795.15</ele>
        <time>2019-12-21T14:26:21Z</time>
      </trkpt>
      <trkpt lat="43.44667" lon="2.14775">
        <ele>795.63</ele>
        <time>2019-12-21T14:26:25Z</time>
      </trkpt>
      <trkpt lat="43.44668" lon="2.14777">
        <ele>795.63</ele>
        <time>2019-12-21T14:26:26Z</time>
      </trkpt>
      <trkpt lat="43.44674" lon="2.14787">
        <ele>796.59</ele>
        <time>2019-12-21T14:26:32Z</time>
      </trkpt>
      <trkpt lat="43.4468" lon="2.14799">
        <ele>796.59</ele>
        <time>2019-12-21T14:26:39Z</time>
      </trkpt>
      <trkpt lat="43.44681" lon="2.14801">
        <ele>797.55</ele>
        <time>2019-12-21T14:26:40Z</time>
      </trkpt>
      <trkpt lat="43.44682" lon="2.14802">
        <ele>796.59</ele>
        <time>2019-12-21T14:26:41Z</time>
      </trkpt>
      <trkpt lat="43.44683" lon="2.14804">
        <ele>797.07</ele>
        <time>2019-12-21T14:26:42Z</time>
      </trkpt>
      <trkpt lat="43.44684" lon="2.14806">
        <ele>796.59</ele>
        <time>2019-12-21T14:26:43Z</time>
      </trkpt>
      <trkpt lat="43.44687" lon="2.14811">
        <ele>798.51</ele>
        <time>2019-12-21T14:26:46Z</time>
      </trkpt>
      <trkpt lat="43.44702" lon="2.14843">
        <ele>800.44</ele>
        <time>2019-12-21T14:27:08Z</time>
      </trkpt>
      <trkpt lat="43.44703" lon="2.14844">
        <ele>799.95</ele>
        <time>2019-12-21T14:27:09Z</time>
      </trkpt>
      <trkpt lat="43.44704" lon="2.14845">
        <ele>800.92</ele>
        <time>2019-12-21T14:27:10Z</time>
      </trkpt>
      <trkpt lat="43.4472" lon="2.14877">
        <ele>802.36</ele>
        <time>2019-12-21T14:27:33Z</time>
      </trkpt>
      <trkpt lat="43.44724" lon="2.14884">
        <ele>804.76</ele>
        <time>2019-12-21T14:27:39Z</time>
      </trkpt>
      <trkpt lat="43.44724" lon="2.14886">
        <ele>804.76</ele>
        <time>2019-12-21T14:27:40Z</time>
      </trkpt>
      <trkpt lat="43.44725" lon="2.14887">
        <ele>805.72</ele>
        <time>2019-12-21T14:27:41Z</time>
      </trkpt>
      <trkpt lat="43.44737" lon="2.14906">
        <ele>807.16</ele>
        <time>2019-12-21T14:27:56Z</time>
      </trkpt>
      <trkpt lat="43.44738" lon="2.14908">
        <ele>807.64</ele>
        <time>2019-12-21T14:27:57Z</time>
      </trkpt>
      <trkpt lat="43.44758" lon="2.14945">
        <ele>811.01</ele>
        <time>2019-12-21T14:28:20Z</time>
      </trkpt>
      <trkpt lat="43.44769" lon="2.14969">
        <ele>811.49</ele>
        <time>2019-12-21T14:28:37Z</time>
      </trkpt>
      <trkpt lat="43.4477" lon="2.1497">
        <ele>812.45</ele>
        <time>2019-12-21T14:28:38Z</time>
      </trkpt>
      <trkpt lat="43.44794" lon="2.14997">
        <ele>815.34</ele>
        <time>2019-12-21T14:28:55Z</time>
      </trkpt>
      <trkpt lat="43.4482" lon="2.15029">
        <ele>817.26</ele>
        <time>2019-12-21T14:29:12Z</time>
      </trkpt>
      <trkpt lat="43.44855" lon="2.15076">
        <ele>819.18</ele>
        <time>2019-12-21T14:29:35Z</time>
      </trkpt>
      <trkpt lat="43.44884" lon="2.15115">
        <ele>819.66</ele>
        <time>2019-12-21T14:29:53Z</time>
      </trkpt>
      <trkpt lat="43.44885" lon="2.15117">
        <ele>818.7</ele>
        <time>2019-12-21T14:29:55Z</time>
      </trkpt>
      <trkpt lat="43.44886" lon="2.15121">
        <ele>819.66</ele>
        <time>2019-12-21T14:29:58Z</time>
      </trkpt>
      <trkpt lat="43.44887" lon="2.15123">
        <ele>818.7</ele>
        <time>2019-12-21T14:29:59Z</time>
      </trkpt>
      <trkpt lat="43.44888" lon="2.15125">
        <ele>819.66</ele>
        <time>2019-12-21T14:30:00Z</time>
      </trkpt>
      <trkpt lat="43.44889" lon="2.15126">
        <ele>819.18</ele>
        <time>2019-12-21T14:30:01Z</time>
      </trkpt>
      <trkpt lat="43.4489" lon="2.1513">
        <ele>819.18</ele>
        <time>2019-12-21T14:30:04Z</time>
      </trkpt>
      <trkpt lat="43.44891" lon="2.15132">
        <ele>819.18</ele>
        <time>2019-12-21T14:30:05Z</time>
      </trkpt>
      <trkpt lat="43.44937" lon="2.15177">
        <ele>817.26</ele>
        <time>2019-12-21T14:30:19Z</time>
      </trkpt>
      <trkpt lat="43.44965" lon="2.15247">
        <ele>819.18</ele>
        <time>2019-12-21T14:30:34Z</time>
      </trkpt>
      <trkpt lat="43.44963" lon="2.15345">
        <ele>819.18</ele>
        <time>2019-12-21T14:30:53Z</time>
      </trkpt>
      <trkpt lat="43.44964" lon="2.15405">
        <ele>820.14</ele>
        <time>2019-12-21T14:31:04Z</time>
      </trkpt>
      <trkpt lat="43.44969" lon="2.15459">
        <ele>818.22</ele>
        <time>2019-12-21T14:31:14Z</time>
      </trkpt>
      <trkpt lat="43.44969" lon="2.15476">
        <ele>819.66</ele>
        <time>2019-12-21T14:31:17Z</time>
      </trkpt>
      <trkpt lat="43.4498" lon="2.15536">
        <ele>819.18</ele>
        <time>2019-12-21T14:31:27Z</time>
      </trkpt>
      <trkpt lat="43.44982" lon="2.15542">
        <ele>819.66</ele>
        <time>2019-12-21T14:31:28Z</time>
      </trkpt>
      <trkpt lat="43.44988" lon="2.15559">
        <ele>818.22</ele>
        <time>2019-12-21T14:31:31Z</time>
      </trkpt>
      <trkpt lat="43.44991" lon="2.15564">
        <ele>816.78</ele>
        <time>2019-12-21T14:31:32Z</time>
      </trkpt>
      <trkpt lat="43.44993" lon="2.1557">
        <ele>818.22</ele>
        <time>2019-12-21T14:31:33Z</time>
      </trkpt>
      <trkpt lat="43.45009" lon="2.15608">
        <ele>817.74</ele>
        <time>2019-12-21T14:31:40Z</time>
      </trkpt>
      <trkpt lat="43.45013" lon="2.15618">
        <ele>817.74</ele>
        <time>2019-12-21T14:31:42Z</time>
      </trkpt>
      <trkpt lat="43.45015" lon="2.15622">
        <ele>817.26</ele>
        <time>2019-12-21T14:31:43Z</time>
      </trkpt>
      <trkpt lat="43.45016" lon="2.15626">
        <ele>816.78</ele>
        <time>2019-12-21T14:31:44Z</time>
      </trkpt>
      <trkpt lat="43.45057" lon="2.15693">
        <ele>814.85</ele>
        <time>2019-12-21T14:32:01Z</time>
      </trkpt>
      <trkpt lat="43.4506" lon="2.15697">
        <ele>815.34</ele>
        <time>2019-12-21T14:32:02Z</time>
      </trkpt>
      <trkpt lat="43.45098" lon="2.15745">
        <ele>811.49</ele>
        <time>2019-12-21T14:32:11Z</time>
      </trkpt>
      <trkpt lat="43.45103" lon="2.1575">
        <ele>811.01</ele>
        <time>2019-12-21T14:32:12Z</time>
      </trkpt>
      <trkpt lat="43.45108" lon="2.15757">
        <ele>810.05</ele>
        <time>2019-12-21T14:32:13Z</time>
      </trkpt>
      <trkpt lat="43.45113" lon="2.15764">
        <ele>810.53</ele>
        <time>2019-12-21T14:32:14Z</time>
      </trkpt>
      <trkpt lat="43.45119" lon="2.15772">
        <ele>810.05</ele>
        <time>2019-12-21T14:32:15Z</time>
      </trkpt>
      <trkpt lat="43.45151" lon="2.15819">
        <ele>806.2</ele>
        <time>2019-12-21T14:32:20Z</time>
      </trkpt>
      <trkpt lat="43.45158" lon="2.15829">
        <ele>806.2</ele>
        <time>2019-12-21T14:32:21Z</time>
      </trkpt>
      <trkpt lat="43.45165" lon="2.15839">
        <ele>806.2</ele>
        <time>2019-12-21T14:32:22Z</time>
      </trkpt>
      <trkpt lat="43.45178" lon="2.1586">
        <ele>804.76</ele>
        <time>2019-12-21T14:32:24Z</time>
      </trkpt>
      <trkpt lat="43.45184" lon="2.15871">
        <ele>803.8</ele>
        <time>2019-12-21T14:32:25Z</time>
      </trkpt>
      <trkpt lat="43.45212" lon="2.15909">
        <ele>801.4</ele>
        <time>2019-12-21T14:32:29Z</time>
      </trkpt>
      <trkpt lat="43.4524" lon="2.15944">
        <ele>800.44</ele>
        <time>2019-12-21T14:32:33Z</time>
      </trkpt>
      <trkpt lat="43.45245" lon="2.15954">
        <ele>798.51</ele>
        <time>2019-12-21T14:32:34Z</time>
      </trkpt>
      <trkpt lat="43.45249" lon="2.15965">
        <ele>798.03</ele>
        <time>2019-12-21T14:32:35Z</time>
      </trkpt>
      <trkpt lat="43.45253" lon="2.15976">
        <ele>797.07</ele>
        <time>2019-12-21T14:32:36Z</time>
      </trkpt>
      <trkpt lat="43.45257" lon="2.15987">
        <ele>797.07</ele>
        <time>2019-12-21T14:32:37Z</time>
      </trkpt>
      <trkpt lat="43.4527" lon="2.16016">
        <ele>796.11</ele>
        <time>2019-12-21T14:32:40Z</time>
      </trkpt>
      <trkpt lat="43.45275" lon="2.16023">
        <ele>795.63</ele>
        <time>2019-12-21T14:32:41Z</time>
      </trkpt>
      <trkpt lat="43.45281" lon="2.16031">
        <ele>794.67</ele>
        <time>2019-12-21T14:32:42Z</time>
      </trkpt>
      <trkpt lat="43.45287" lon="2.16037">
        <ele>796.11</ele>
        <time>2019-12-21T14:32:43Z</time>
      </trkpt>
      <trkpt lat="43.45293" lon="2.16043">
        <ele>793.71</ele>
        <time>2019-12-21T14:32:44Z</time>
      </trkpt>
      <trkpt lat="43.45306" lon="2.16055">
        <ele>792.74</ele>
        <time>2019-12-21T14:32:46Z</time>
      </trkpt>
      <trkpt lat="43.45321" lon="2.16067">
        <ele>791.78</ele>
        <time>2019-12-21T14:32:48Z</time>
      </trkpt>
      <trkpt lat="43.45338" lon="2.16079">
        <ele>789.86</ele>
        <time>2019-12-21T14:32:50Z</time>
      </trkpt>
      <trkpt lat="43.45346" lon="2.16084">
        <ele>789.86</ele>
        <time>2019-12-21T14:32:51Z</time>
      </trkpt>
      <trkpt lat="43.45354" lon="2.16091">
        <ele>788.42</ele>
        <time>2019-12-21T14:32:52Z</time>
      </trkpt>
      <trkpt lat="43.45362" lon="2.161">
        <ele>787.94</ele>
        <time>2019-12-21T14:32:53Z</time>
      </trkpt>
      <trkpt lat="43.45369" lon="2.1611">
        <ele>787.46</ele>
        <time>2019-12-21T14:32:54Z</time>
      </trkpt>
      <trkpt lat="43.45375" lon="2.16121">
        <ele>789.38</ele>
        <time>2019-12-21T14:32:55Z</time>
      </trkpt>
      <trkpt lat="43.45385" lon="2.16143">
        <ele>786.5</ele>
        <time>2019-12-21T14:32:57Z</time>
      </trkpt>
      <trkpt lat="43.45388" lon="2.16155">
        <ele>785.53</ele>
        <time>2019-12-21T14:32:58Z</time>
      </trkpt>
      <trkpt lat="43.45415" lon="2.16251">
        <ele>783.13</ele>
        <time>2019-12-21T14:33:07Z</time>
      </trkpt>
      <trkpt lat="43.45418" lon="2.1631">
        <ele>780.73</ele>
        <time>2019-12-21T14:33:13Z</time>
      </trkpt>
      <trkpt lat="43.4542" lon="2.16319">
        <ele>782.17</ele>
        <time>2019-12-21T14:33:14Z</time>
      </trkpt>
      <trkpt lat="43.45424" lon="2.16336">
        <ele>779.77</ele>
        <time>2019-12-21T14:33:16Z</time>
      </trkpt>
      <trkpt lat="43.45428" lon="2.16343">
        <ele>780.73</ele>
        <time>2019-12-21T14:33:17Z</time>
      </trkpt>
      <trkpt lat="43.45432" lon="2.16349">
        <ele>780.73</ele>
        <time>2019-12-21T14:33:18Z</time>
      </trkpt>
      <trkpt lat="43.45436" lon="2.16354">
        <ele>780.73</ele>
        <time>2019-12-21T14:33:19Z</time>
      </trkpt>
      <trkpt lat="43.45442" lon="2.16358">
        <ele>781.21</ele>
        <time>2019-12-21T14:33:20Z</time>
      </trkpt>
      <trkpt lat="43.45447" lon="2.16362">
        <ele>781.21</ele>
        <time>2019-12-21T14:33:21Z</time>
      </trkpt>
      <trkpt lat="43.45452" lon="2.16365">
        <ele>782.17</ele>
        <time>2019-12-21T14:33:22Z</time>
      </trkpt>
      <trkpt lat="43.45456" lon="2.16369">
        <ele>781.21</ele>
        <time>2019-12-21T14:33:23Z</time>
      </trkpt>
      <trkpt lat="43.45459" lon="2.16374">
        <ele>781.69</ele>
        <time>2019-12-21T14:33:24Z</time>
      </trkpt>
      <trkpt lat="43.45487" lon="2.16411">
        <ele>778.81</ele>
        <time>2019-12-21T14:33:30Z</time>
      </trkpt>
      <trkpt lat="43.45493" lon="2.16417">
        <ele>779.29</ele>
        <time>2019-12-21T14:33:31Z</time>
      </trkpt>
      <trkpt lat="43.4552" lon="2.16442">
        <ele>775.92</ele>
        <time>2019-12-21T14:33:35Z</time>
      </trkpt>
      <trkpt lat="43.45527" lon="2.16449">
        <ele>776.4</ele>
        <time>2019-12-21T14:33:36Z</time>
      </trkpt>
      <trkpt lat="43.45532" lon="2.16457">
        <ele>776.4</ele>
        <time>2019-12-21T14:33:37Z</time>
      </trkpt>
      <trkpt lat="43.45544" lon="2.16475">
        <ele>773.04</ele>
        <time>2019-12-21T14:33:39Z</time>
      </trkpt>
      <trkpt lat="43.45551" lon="2.16483">
        <ele>772.56</ele>
        <time>2019-12-21T14:33:40Z</time>
      </trkpt>
      <trkpt lat="43.45559" lon="2.16491">
        <ele>771.11</ele>
        <time>2019-12-21T14:33:41Z</time>
      </trkpt>
      <trkpt lat="43.45567" lon="2.16497">
        <ele>769.67</ele>
        <time>2019-12-21T14:33:42Z</time>
      </trkpt>
      <trkpt lat="43.45584" lon="2.16513">
        <ele>769.19</ele>
        <time>2019-12-21T14:33:44Z</time>
      </trkpt>
      <trkpt lat="43.45592" lon="2.16525">
        <ele>768.23</ele>
        <time>2019-12-21T14:33:45Z</time>
      </trkpt>
      <trkpt lat="43.45598" lon="2.16538">
        <ele>767.75</ele>
        <time>2019-12-21T14:33:46Z</time>
      </trkpt>
      <trkpt lat="43.45602" lon="2.1655">
        <ele>767.75</ele>
        <time>2019-12-21T14:33:47Z</time>
      </trkpt>
      <trkpt lat="43.45604" lon="2.16563">
        <ele>768.23</ele>
        <time>2019-12-21T14:33:48Z</time>
      </trkpt>
      <trkpt lat="43.45605" lon="2.16574">
        <ele>768.23</ele>
        <time>2019-12-21T14:33:49Z</time>
      </trkpt>
      <trkpt lat="43.45611" lon="2.1661">
        <ele>764.87</ele>
        <time>2019-12-21T14:33:53Z</time>
      </trkpt>
      <trkpt lat="43.45615" lon="2.16631">
        <ele>764.39</ele>
        <time>2019-12-21T14:33:58Z</time>
      </trkpt>
      <trkpt lat="43.45617" lon="2.16632">
        <ele>765.35</ele>
        <time>2019-12-21T14:33:59Z</time>
      </trkpt>
      <trkpt lat="43.45618" lon="2.16633">
        <ele>765.35</ele>
        <time>2019-12-21T14:34:00Z</time>
      </trkpt>
      <trkpt lat="43.4562" lon="2.16631">
        <ele>765.35</ele>
        <time>2019-12-21T14:34:01Z</time>
      </trkpt>
      <trkpt lat="43.45622" lon="2.1663">
        <ele>765.83</ele>
        <time>2019-12-21T14:34:02Z</time>
      </trkpt>
      <trkpt lat="43.45624" lon="2.16627">
        <ele>764.87</ele>
        <time>2019-12-21T14:34:03Z</time>
      </trkpt>
      <trkpt lat="43.45626" lon="2.16625">
        <ele>764.87</ele>
        <time>2019-12-21T14:34:04Z</time>
      </trkpt>
      <trkpt lat="43.45628" lon="2.16623">
        <ele>765.35</ele>
        <time>2019-12-21T14:34:05Z</time>
      </trkpt>
      <trkpt lat="43.45646" lon="2.16597">
        <ele>763.9</ele>
        <time>2019-12-21T14:34:14Z</time>
      </trkpt>
      <trkpt lat="43.45652" lon="2.16588">
        <ele>764.87</ele>
        <time>2019-12-21T14:34:44Z</time>
      </trkpt>
      <trkpt lat="43.45646" lon="2.16586">
        <ele>763.9</ele>
        <time>2019-12-21T14:34:53Z</time>
      </trkpt>
      <trkpt lat="43.45645" lon="2.16587">
        <ele>764.87</ele>
        <time>2019-12-21T14:34:54Z</time>
      </trkpt>
      <trkpt lat="43.45645" lon="2.1659">
        <ele>764.39</ele>
        <time>2019-12-21T14:34:55Z</time>
      </trkpt>
      <trkpt lat="43.45645" lon="2.16592">
        <ele>764.39</ele>
        <time>2019-12-21T14:34:56Z</time>
      </trkpt>
      <trkpt lat="43.45652" lon="2.16599">
        <ele>763.9</ele>
        <time>2019-12-21T14:35:02Z</time>
      </trkpt>
      <trkpt lat="43.45654" lon="2.16602">
        <ele>763.9</ele>
        <time>2019-12-21T14:35:03Z</time>
      </trkpt>
      <trkpt lat="43.45689" lon="2.16646">
        <ele>762.94</ele>
        <time>2019-12-21T14:35:19Z</time>
      </trkpt>
      <trkpt lat="43.45737" lon="2.16661">
        <ele>758.62</ele>
        <time>2019-12-21T14:35:32Z</time>
      </trkpt>
      <trkpt lat="43.45739" lon="2.16662">
        <ele>758.62</ele>
        <time>2019-12-21T14:35:33Z</time>
      </trkpt>
      <trkpt lat="43.45743" lon="2.16666">
        <ele>759.1</ele>
        <time>2019-12-21T14:35:34Z</time>
      </trkpt>
      <trkpt lat="43.45759" lon="2.16672">
        <ele>757.66</ele>
        <time>2019-12-21T14:35:38Z</time>
      </trkpt>
      <trkpt lat="43.45776" lon="2.16674">
        <ele>755.73</ele>
        <time>2019-12-21T14:35:40Z</time>
      </trkpt>
      <trkpt lat="43.45805" lon="2.16671">
        <ele>754.29</ele>
        <time>2019-12-21T14:35:43Z</time>
      </trkpt>
      <trkpt lat="43.45823" lon="2.16669">
        <ele>752.85</ele>
        <time>2019-12-21T14:35:45Z</time>
      </trkpt>
      <trkpt lat="43.45838" lon="2.1667">
        <ele>752.37</ele>
        <time>2019-12-21T14:35:47Z</time>
      </trkpt>
      <trkpt lat="43.45857" lon="2.16676">
        <ele>751.89</ele>
        <time>2019-12-21T14:35:50Z</time>
      </trkpt>
      <trkpt lat="43.45876" lon="2.16686">
        <ele>750.45</ele>
        <time>2019-12-21T14:35:53Z</time>
      </trkpt>
      <trkpt lat="43.45898" lon="2.16689">
        <ele>748.04</ele>
        <time>2019-12-21T14:35:58Z</time>
      </trkpt>
      <trkpt lat="43.45929" lon="2.16662">
        <ele>745.64</ele>
        <time>2019-12-21T14:36:05Z</time>
      </trkpt>
      <trkpt lat="43.45934" lon="2.16658">
        <ele>744.68</ele>
        <time>2019-12-21T14:36:07Z</time>
      </trkpt>
      <trkpt lat="43.45963" lon="2.16636">
        <ele>742.76</ele>
        <time>2019-12-21T14:36:22Z</time>
      </trkpt>
      <trkpt lat="43.45971" lon="2.16635">
        <ele>742.28</ele>
        <time>2019-12-21T14:36:45Z</time>
      </trkpt>
      <trkpt lat="43.45977" lon="2.16635">
        <ele>742.28</ele>
        <time>2019-12-21T14:37:22Z</time>
      </trkpt>
      <trkpt lat="43.4598" lon="2.16627">
        <ele>742.76</ele>
        <time>2019-12-21T14:37:56Z</time>
      </trkpt>
      <trkpt lat="43.46004" lon="2.16608">
        <ele>738.91</ele>
        <time>2019-12-21T14:38:05Z</time>
      </trkpt>
      <trkpt lat="43.46009" lon="2.16597">
        <ele>737.47</ele>
        <time>2019-12-21T14:38:08Z</time>
      </trkpt>
      <trkpt lat="43.46026" lon="2.16576">
        <ele>734.1</ele>
        <time>2019-12-21T14:38:15Z</time>
      </trkpt>
      <trkpt lat="43.46037" lon="2.16568">
        <ele>731.22</ele>
        <time>2019-12-21T14:38:23Z</time>
      </trkpt>
      <trkpt lat="43.4604" lon="2.16566">
        <ele>731.7</ele>
        <time>2019-12-21T14:38:25Z</time>
      </trkpt>
      <trkpt lat="43.46052" lon="2.16552">
        <ele>728.34</ele>
        <time>2019-12-21T14:38:33Z</time>
      </trkpt>
      <trkpt lat="43.46072" lon="2.16532">
        <ele>724.97</ele>
        <time>2019-12-21T14:38:44Z</time>
      </trkpt>
      <trkpt lat="43.46079" lon="2.16519">
        <ele>723.05</ele>
        <time>2019-12-21T14:38:49Z</time>
      </trkpt>
      <trkpt lat="43.46083" lon="2.16492">
        <ele>718.72</ele>
        <time>2019-12-21T14:38:58Z</time>
      </trkpt>
      <trkpt lat="43.46088" lon="2.1648">
        <ele>717.76</ele>
        <time>2019-12-21T14:39:02Z</time>
      </trkpt>
      <trkpt lat="43.46097" lon="2.16459">
        <ele>714.4</ele>
        <time>2019-12-21T14:39:08Z</time>
      </trkpt>
      <trkpt lat="43.46099" lon="2.16455">
        <ele>714.4</ele>
        <time>2019-12-21T14:39:09Z</time>
      </trkpt>
      <trkpt lat="43.46104" lon="2.16442">
        <ele>712.47</ele>
        <time>2019-12-21T14:39:13Z</time>
      </trkpt>
      <trkpt lat="43.46116" lon="2.16422">
        <ele>710.07</ele>
        <time>2019-12-21T14:39:21Z</time>
      </trkpt>
      <trkpt lat="43.4614" lon="2.16449">
        <ele>708.15</ele>
        <time>2019-12-21T14:39:37Z</time>
      </trkpt>
      <trkpt lat="43.46163" lon="2.16474">
        <ele>704.3</ele>
        <time>2019-12-21T14:39:45Z</time>
      </trkpt>
      <trkpt lat="43.46181" lon="2.1649">
        <ele>700.94</ele>
        <time>2019-12-21T14:39:52Z</time>
      </trkpt>
      <trkpt lat="43.46203" lon="2.16497">
        <ele>699.98</ele>
        <time>2019-12-21T14:39:59Z</time>
      </trkpt>
      <trkpt lat="43.46209" lon="2.16505">
        <ele>698.53</ele>
        <time>2019-12-21T14:40:03Z</time>
      </trkpt>
      <trkpt lat="43.46214" lon="2.1652">
        <ele>695.65</ele>
        <time>2019-12-21T14:40:10Z</time>
      </trkpt>
      <trkpt lat="43.46214" lon="2.16521">
        <ele>695.65</ele>
        <time>2019-12-21T14:40:11Z</time>
      </trkpt>
      <trkpt lat="43.46218" lon="2.1653">
        <ele>692.77</ele>
        <time>2019-12-21T14:40:15Z</time>
      </trkpt>
      <trkpt lat="43.46225" lon="2.16539">
        <ele>689.4</ele>
        <time>2019-12-21T14:40:18Z</time>
      </trkpt>
      <trkpt lat="43.46228" lon="2.16553">
        <ele>685.08</ele>
        <time>2019-12-21T14:40:22Z</time>
      </trkpt>
      <trkpt lat="43.4623" lon="2.1656">
        <ele>683.15</ele>
        <time>2019-12-21T14:40:24Z</time>
      </trkpt>
      <trkpt lat="43.46239" lon="2.16569">
        <ele>680.27</ele>
        <time>2019-12-21T14:40:27Z</time>
      </trkpt>
      <trkpt lat="43.46248" lon="2.16572">
        <ele>677.87</ele>
        <time>2019-12-21T14:40:30Z</time>
      </trkpt>
      <trkpt lat="43.46263" lon="2.1657">
        <ele>676.42</ele>
        <time>2019-12-21T14:40:34Z</time>
      </trkpt>
      <trkpt lat="43.46271" lon="2.16568">
        <ele>675.46</ele>
        <time>2019-12-21T14:40:37Z</time>
      </trkpt>
      <trkpt lat="43.46306" lon="2.16553">
        <ele>673.06</ele>
        <time>2019-12-21T14:40:45Z</time>
      </trkpt>
      <trkpt lat="43.46325" lon="2.1655">
        <ele>673.06</ele>
        <time>2019-12-21T14:40:47Z</time>
      </trkpt>
      <trkpt lat="43.46335" lon="2.16545">
        <ele>674.02</ele>
        <time>2019-12-21T14:41:06Z</time>
      </trkpt>
      <trkpt lat="43.46351" lon="2.1653">
        <ele>673.06</ele>
        <time>2019-12-21T14:41:24Z</time>
      </trkpt>
      <trkpt lat="43.46356" lon="2.16517">
        <ele>671.14</ele>
        <time>2019-12-21T14:41:28Z</time>
      </trkpt>
      <trkpt lat="43.46358" lon="2.16513">
        <ele>670.18</ele>
        <time>2019-12-21T14:41:29Z</time>
      </trkpt>
      <trkpt lat="43.4637" lon="2.16474">
        <ele>666.81</ele>
        <time>2019-12-21T14:41:38Z</time>
      </trkpt>
      <trkpt lat="43.46373" lon="2.16463">
        <ele>664.89</ele>
        <time>2019-12-21T14:41:43Z</time>
      </trkpt>
      <trkpt lat="43.46377" lon="2.1645">
        <ele>662.97</ele>
        <time>2019-12-21T14:41:47Z</time>
      </trkpt>
      <trkpt lat="43.46381" lon="2.164">
        <ele>659.6</ele>
        <time>2019-12-21T14:41:58Z</time>
      </trkpt>
      <trkpt lat="43.46385" lon="2.1638">
        <ele>656.24</ele>
        <time>2019-12-21T14:42:05Z</time>
      </trkpt>
      <trkpt lat="43.46386" lon="2.16377">
        <ele>655.28</ele>
        <time>2019-12-21T14:42:06Z</time>
      </trkpt>
      <trkpt lat="43.46389" lon="2.16368">
        <ele>652.39</ele>
        <time>2019-12-21T14:42:09Z</time>
      </trkpt>
      <trkpt lat="43.46401" lon="2.16356">
        <ele>649.51</ele>
        <time>2019-12-21T14:42:19Z</time>
      </trkpt>
      <trkpt lat="43.46406" lon="2.16351">
        <ele>648.07</ele>
        <time>2019-12-21T14:42:23Z</time>
      </trkpt>
      <trkpt lat="43.46409" lon="2.16342">
        <ele>645.18</ele>
        <time>2019-12-21T14:42:28Z</time>
      </trkpt>
      <trkpt lat="43.46421" lon="2.16332">
        <ele>642.3</ele>
        <time>2019-12-21T14:42:49Z</time>
      </trkpt>
      <trkpt lat="43.46422" lon="2.16316">
        <ele>640.38</ele>
        <time>2019-12-21T14:43:09Z</time>
      </trkpt>
      <trkpt lat="43.46417" lon="2.16305">
        <ele>638.45</ele>
        <time>2019-12-21T14:43:30Z</time>
      </trkpt>
      <trkpt lat="43.46418" lon="2.16305">
        <ele>636.05</ele>
        <time>2019-12-21T14:43:48Z</time>
      </trkpt>
      <trkpt lat="43.46417" lon="2.16304">
        <ele>636.53</ele>
        <time>2019-12-21T14:43:49Z</time>
      </trkpt>
      <trkpt lat="43.4641" lon="2.16295">
        <ele>633.17</ele>
        <time>2019-12-21T14:43:58Z</time>
      </trkpt>
      <trkpt lat="43.4641" lon="2.16295">
        <ele>632.2</ele>
        <time>2019-12-21T14:43:59Z</time>
      </trkpt>
      <trkpt lat="43.46407" lon="2.16297">
        <ele>631.24</ele>
        <time>2019-12-21T14:44:01Z</time>
      </trkpt>
      <trkpt lat="43.46404" lon="2.16288">
        <ele>627.88</ele>
        <time>2019-12-21T14:44:09Z</time>
      </trkpt>
      <trkpt lat="43.46394" lon="2.16262">
        <ele>624.99</ele>
        <time>2019-12-21T14:44:27Z</time>
      </trkpt>
      <trkpt lat="43.46406" lon="2.16259">
        <ele>621.63</ele>
        <time>2019-12-21T14:44:45Z</time>
      </trkpt>
      <trkpt lat="43.46407" lon="2.16259">
        <ele>621.63</ele>
        <time>2019-12-21T14:44:46Z</time>
      </trkpt>
      <trkpt lat="43.46411" lon="2.16261">
        <ele>620.19</ele>
        <time>2019-12-21T14:44:50Z</time>
      </trkpt>
      <trkpt lat="43.46416" lon="2.1626">
        <ele>618.26</ele>
        <time>2019-12-21T14:44:54Z</time>
      </trkpt>
      <trkpt lat="43.4642" lon="2.16259">
        <ele>617.78</ele>
        <time>2019-12-21T14:44:56Z</time>
      </trkpt>
      <trkpt lat="43.46426" lon="2.16263">
        <ele>616.34</ele>
        <time>2019-12-21T14:44:59Z</time>
      </trkpt>
      <trkpt lat="43.46439" lon="2.16269">
        <ele>612.98</ele>
        <time>2019-12-21T14:45:06Z</time>
      </trkpt>
      <trkpt lat="43.46446" lon="2.16264">
        <ele>610.09</ele>
        <time>2019-12-21T14:45:12Z</time>
      </trkpt>
      <trkpt lat="43.46441" lon="2.16246">
        <ele>608.17</ele>
        <time>2019-12-21T14:45:20Z</time>
      </trkpt>
      <trkpt lat="43.4644" lon="2.16245">
        <ele>607.69</ele>
        <time>2019-12-21T14:45:21Z</time>
      </trkpt>
      <trkpt lat="43.46439" lon="2.1624">
        <ele>607.21</ele>
        <time>2019-12-21T14:45:22Z</time>
      </trkpt>
      <trkpt lat="43.46428" lon="2.16218">
        <ele>603.85</ele>
        <time>2019-12-21T14:45:27Z</time>
      </trkpt>
      <trkpt lat="43.46417" lon="2.16195">
        <ele>601.92</ele>
        <time>2019-12-21T14:45:33Z</time>
      </trkpt>
      <trkpt lat="43.46394" lon="2.1615">
        <ele>599.04</ele>
        <time>2019-12-21T14:45:42Z</time>
      </trkpt>
      <trkpt lat="43.46392" lon="2.16149">
        <ele>598.56</ele>
        <time>2019-12-21T14:45:43Z</time>
      </trkpt>
      <trkpt lat="43.46381" lon="2.1611">
        <ele>594.71</ele>
        <time>2019-12-21T14:45:52Z</time>
      </trkpt>
      <trkpt lat="43.4638" lon="2.16106">
        <ele>594.71</ele>
        <time>2019-12-21T14:45:53Z</time>
      </trkpt>
      <trkpt lat="43.46371" lon="2.16091">
        <ele>593.75</ele>
        <time>2019-12-21T14:45:58Z</time>
      </trkpt>
      <trkpt lat="43.46365" lon="2.16076">
        <ele>593.75</ele>
        <time>2019-12-21T14:46:02Z</time>
      </trkpt>
      <trkpt lat="43.46361" lon="2.16071">
        <ele>593.27</ele>
        <time>2019-12-21T14:46:05Z</time>
      </trkpt>
      <trkpt lat="43.46359" lon="2.16064">
        <ele>591.35</ele>
        <time>2019-12-21T14:46:06Z</time>
      </trkpt>
      <trkpt lat="43.46357" lon="2.16056">
        <ele>590.39</ele>
        <time>2019-12-21T14:46:09Z</time>
      </trkpt>
      <trkpt lat="43.46357" lon="2.16053">
        <ele>588.95</ele>
        <time>2019-12-21T14:46:26Z</time>
      </trkpt>
      <trkpt lat="43.46345" lon="2.16026">
        <ele>585.58</ele>
        <time>2019-12-21T14:46:39Z</time>
      </trkpt>
      <trkpt lat="43.46333" lon="2.15997">
        <ele>582.22</ele>
        <time>2019-12-21T14:46:48Z</time>
      </trkpt>
      <trkpt lat="43.46328" lon="2.15983">
        <ele>580.29</ele>
        <time>2019-12-21T14:46:52Z</time>
      </trkpt>
      <trkpt lat="43.46323" lon="2.1597">
        <ele>580.29</ele>
        <time>2019-12-21T14:46:56Z</time>
      </trkpt>
      <trkpt lat="43.46308" lon="2.1594">
        <ele>576.45</ele>
        <time>2019-12-21T14:47:05Z</time>
      </trkpt>
      <trkpt lat="43.46318" lon="2.15937">
        <ele>574.53</ele>
        <time>2019-12-21T14:47:13Z</time>
      </trkpt>
      <trkpt lat="43.4632" lon="2.15925">
        <ele>571.16</ele>
        <time>2019-12-21T14:47:16Z</time>
      </trkpt>
      <trkpt lat="43.46319" lon="2.15922">
        <ele>570.68</ele>
        <time>2019-12-21T14:47:17Z</time>
      </trkpt>
      <trkpt lat="43.46318" lon="2.15918">
        <ele>569.72</ele>
        <time>2019-12-21T14:47:18Z</time>
      </trkpt>
      <trkpt lat="43.46318" lon="2.15909">
        <ele>567.8</ele>
        <time>2019-12-21T14:47:21Z</time>
      </trkpt>
      <trkpt lat="43.46327" lon="2.15912">
        <ele>564.91</ele>
        <time>2019-12-21T14:47:26Z</time>
      </trkpt>
      <trkpt lat="43.46331" lon="2.15906">
        <ele>562.99</ele>
        <time>2019-12-21T14:47:30Z</time>
      </trkpt>
      <trkpt lat="43.4633" lon="2.15903">
        <ele>561.55</ele>
        <time>2019-12-21T14:47:32Z</time>
      </trkpt>
      <trkpt lat="43.46327" lon="2.15897">
        <ele>559.62</ele>
        <time>2019-12-21T14:47:35Z</time>
      </trkpt>
      <trkpt lat="43.46319" lon="2.15884">
        <ele>556.26</ele>
        <time>2019-12-21T14:47:41Z</time>
      </trkpt>
      <trkpt lat="43.46315" lon="2.15874">
        <ele>555.3</ele>
        <time>2019-12-21T14:48:08Z</time>
      </trkpt>
      <trkpt lat="43.4632" lon="2.15872">
        <ele>556.26</ele>
        <time>2019-12-21T14:48:21Z</time>
      </trkpt>
      <trkpt lat="43.46326" lon="2.15878">
        <ele>555.78</ele>
        <time>2019-12-21T14:48:27Z</time>
      </trkpt>
      <trkpt lat="43.46342" lon="2.15896">
        <ele>555.3</ele>
        <time>2019-12-21T14:48:44Z</time>
      </trkpt>
      <trkpt lat="43.4635" lon="2.15899">
        <ele>556.26</ele>
        <time>2019-12-21T14:48:48Z</time>
      </trkpt>
      <trkpt lat="43.46366" lon="2.15909">
        <ele>557.7</ele>
        <time>2019-12-21T14:48:55Z</time>
      </trkpt>
      <trkpt lat="43.46371" lon="2.15911">
        <ele>558.18</ele>
        <time>2019-12-21T14:48:58Z</time>
      </trkpt>
      <trkpt lat="43.464" lon="2.15925">
        <ele>561.07</ele>
        <time>2019-12-21T14:49:15Z</time>
      </trkpt>
      <trkpt lat="43.46402" lon="2.15926">
        <ele>561.07</ele>
        <time>2019-12-21T14:49:16Z</time>
      </trkpt>
      <trkpt lat="43.46403" lon="2.15927">
        <ele>561.07</ele>
        <time>2019-12-21T14:49:17Z</time>
      </trkpt>
      <trkpt lat="43.46429" lon="2.15937">
        <ele>563.47</ele>
        <time>2019-12-21T14:49:37Z</time>
      </trkpt>
      <trkpt lat="43.46431" lon="2.15938">
        <ele>563.95</ele>
        <time>2019-12-21T14:49:38Z</time>
      </trkpt>
      <trkpt lat="43.46452" lon="2.1594">
        <ele>564.43</ele>
        <time>2019-12-21T14:49:51Z</time>
      </trkpt>
      <trkpt lat="43.46488" lon="2.1595">
        <ele>567.32</ele>
        <time>2019-12-21T14:50:05Z</time>
      </trkpt>
      <trkpt lat="43.4649" lon="2.1595">
        <ele>567.32</ele>
        <time>2019-12-21T14:50:06Z</time>
      </trkpt>
      <trkpt lat="43.4651" lon="2.15959">
        <ele>567.8</ele>
        <time>2019-12-21T14:50:15Z</time>
      </trkpt>
      <trkpt lat="43.46516" lon="2.15963">
        <ele>567.8</ele>
        <time>2019-12-21T14:50:16Z</time>
      </trkpt>
      <trkpt lat="43.46519" lon="2.15965">
        <ele>567.8</ele>
        <time>2019-12-21T14:50:17Z</time>
      </trkpt>
      <trkpt lat="43.46521" lon="2.15966">
        <ele>568.28</ele>
        <time>2019-12-21T14:50:18Z</time>
      </trkpt>
      <trkpt lat="43.46522" lon="2.15967">
        <ele>568.28</ele>
        <time>2019-12-21T14:50:19Z</time>
      </trkpt>
      <trkpt lat="43.46545" lon="2.15971">
        <ele>568.28</ele>
        <time>2019-12-21T14:50:30Z</time>
      </trkpt>
      <trkpt lat="43.46554" lon="2.15974">
        <ele>567.8</ele>
        <time>2019-12-21T14:50:31Z</time>
      </trkpt>
      <trkpt lat="43.46623" lon="2.15998">
        <ele>564.91</ele>
        <time>2019-12-21T14:50:44Z</time>
      </trkpt>
      <trkpt lat="43.4668" lon="2.16016">
        <ele>565.87</ele>
        <time>2019-12-21T14:50:59Z</time>
      </trkpt>
      <trkpt lat="43.46716" lon="2.16022">
        <ele>568.76</ele>
        <time>2019-12-21T14:51:15Z</time>
      </trkpt>
      <trkpt lat="43.46756" lon="2.16037">
        <ele>571.16</ele>
        <time>2019-12-21T14:51:31Z</time>
      </trkpt>
      <trkpt lat="43.46771" lon="2.16046">
        <ele>572.6</ele>
        <time>2019-12-21T14:51:40Z</time>
      </trkpt>
      <trkpt lat="43.46774" lon="2.1605">
        <ele>573.08</ele>
        <time>2019-12-21T14:51:43Z</time>
      </trkpt>
      <trkpt lat="43.46784" lon="2.16056">
        <ele>574.04</ele>
        <time>2019-12-21T14:51:49Z</time>
      </trkpt>
      <trkpt lat="43.46812" lon="2.16073">
        <ele>575.01</ele>
        <time>2019-12-21T14:51:59Z</time>
      </trkpt>
      <trkpt lat="43.46827" lon="2.16084">
        <ele>575.01</ele>
        <time>2019-12-21T14:52:03Z</time>
      </trkpt>
      <trkpt lat="43.46829" lon="2.16084">
        <ele>575.49</ele>
        <time>2019-12-21T14:52:04Z</time>
      </trkpt>
      <trkpt lat="43.46832" lon="2.16086">
        <ele>575.49</ele>
        <time>2019-12-21T14:52:05Z</time>
      </trkpt>
      <trkpt lat="43.46835" lon="2.16088">
        <ele>575.49</ele>
        <time>2019-12-21T14:52:06Z</time>
      </trkpt>
      <trkpt lat="43.46837" lon="2.16089">
        <ele>575.97</ele>
        <time>2019-12-21T14:52:07Z</time>
      </trkpt>
      <trkpt lat="43.4687" lon="2.16097">
        <ele>579.33</ele>
        <time>2019-12-21T14:52:23Z</time>
      </trkpt>
      <trkpt lat="43.46885" lon="2.16107">
        <ele>580.29</ele>
        <time>2019-12-21T14:52:42Z</time>
      </trkpt>
      <trkpt lat="43.46891" lon="2.16105">
        <ele>579.33</ele>
        <time>2019-12-21T14:52:50Z</time>
      </trkpt>
      <trkpt lat="43.46906" lon="2.16111">
        <ele>582.7</ele>
        <time>2019-12-21T14:53:06Z</time>
      </trkpt>
      <trkpt lat="43.46926" lon="2.16122">
        <ele>584.62</ele>
        <time>2019-12-21T14:53:25Z</time>
      </trkpt>
      <trkpt lat="43.4695" lon="2.16141">
        <ele>587.5</ele>
        <time>2019-12-21T14:53:43Z</time>
      </trkpt>
      <trkpt lat="43.46968" lon="2.16154">
        <ele>590.87</ele>
        <time>2019-12-21T14:53:57Z</time>
      </trkpt>
      <trkpt lat="43.46985" lon="2.16164">
        <ele>593.75</ele>
        <time>2019-12-21T14:54:11Z</time>
      </trkpt>
      <trkpt lat="43.46998" lon="2.16168">
        <ele>595.67</ele>
        <time>2019-12-21T14:54:19Z</time>
      </trkpt>
      <trkpt lat="43.46999" lon="2.1617">
        <ele>595.19</ele>
        <time>2019-12-21T14:54:20Z</time>
      </trkpt>
      <trkpt lat="43.47018" lon="2.16172">
        <ele>596.64</ele>
        <time>2019-12-21T14:54:31Z</time>
      </trkpt>
      <trkpt lat="43.47025" lon="2.16174">
        <ele>597.12</ele>
        <time>2019-12-21T14:54:35Z</time>
      </trkpt>
      <trkpt lat="43.47027" lon="2.16174">
        <ele>597.12</ele>
        <time>2019-12-21T14:54:36Z</time>
      </trkpt>
      <trkpt lat="43.47049" lon="2.16185">
        <ele>599.52</ele>
        <time>2019-12-21T14:54:50Z</time>
      </trkpt>
      <trkpt lat="43.47069" lon="2.16189">
        <ele>602.88</ele>
        <time>2019-12-21T14:55:00Z</time>
      </trkpt>
      <trkpt lat="43.47115" lon="2.16179">
        <ele>605.29</ele>
        <time>2019-12-21T14:55:19Z</time>
      </trkpt>
      <trkpt lat="43.47146" lon="2.16148">
        <ele>605.29</ele>
        <time>2019-12-21T14:55:37Z</time>
      </trkpt>
      <trkpt lat="43.4715" lon="2.16141">
        <ele>606.73</ele>
        <time>2019-12-21T14:55:40Z</time>
      </trkpt>
      <trkpt lat="43.47175" lon="2.16121">
        <ele>609.61</ele>
        <time>2019-12-21T14:55:57Z</time>
      </trkpt>
      <trkpt lat="43.47199" lon="2.16119">
        <ele>610.09</ele>
        <time>2019-12-21T14:56:05Z</time>
      </trkpt>
      <trkpt lat="43.47246" lon="2.16094">
        <ele>611.54</ele>
        <time>2019-12-21T14:56:24Z</time>
      </trkpt>
      <trkpt lat="43.47253" lon="2.16092">
        <ele>612.02</ele>
        <time>2019-12-21T14:56:27Z</time>
      </trkpt>
      <trkpt lat="43.47255" lon="2.16091">
        <ele>612.02</ele>
        <time>2019-12-21T14:56:28Z</time>
      </trkpt>
      <trkpt lat="43.47287" lon="2.16047">
        <ele>613.94</ele>
        <time>2019-12-21T14:56:45Z</time>
      </trkpt>
      <trkpt lat="43.47289" lon="2.16044">
        <ele>614.9</ele>
        <time>2019-12-21T14:56:46Z</time>
      </trkpt>
      <trkpt lat="43.4729" lon="2.16042">
        <ele>615.38</ele>
        <time>2019-12-21T14:56:47Z</time>
      </trkpt>
      <trkpt lat="43.47292" lon="2.1604">
        <ele>614.9</ele>
        <time>2019-12-21T14:56:48Z</time>
      </trkpt>
      <trkpt lat="43.47293" lon="2.16038">
        <ele>615.86</ele>
        <time>2019-12-21T14:56:49Z</time>
      </trkpt>
      <trkpt lat="43.47295" lon="2.16037">
        <ele>615.38</ele>
        <time>2019-12-21T14:56:50Z</time>
      </trkpt>
      <trkpt lat="43.47296" lon="2.16036">
        <ele>615.38</ele>
        <time>2019-12-21T14:56:51Z</time>
      </trkpt>
      <trkpt lat="43.47307" lon="2.16034">
        <ele>613.46</ele>
        <time>2019-12-21T14:57:10Z</time>
      </trkpt>
      <trkpt lat="43.47325" lon="2.16038">
        <ele>613.46</ele>
        <time>2019-12-21T14:57:24Z</time>
      </trkpt>
      <trkpt lat="43.4737" lon="2.16067">
        <ele>613.46</ele>
        <time>2019-12-21T14:57:43Z</time>
      </trkpt>
      <trkpt lat="43.47403" lon="2.16124">
        <ele>611.06</ele>
        <time>2019-12-21T14:57:57Z</time>
      </trkpt>
      <trkpt lat="43.47412" lon="2.16181">
        <ele>608.17</ele>
        <time>2019-12-21T14:58:05Z</time>
      </trkpt>
      <trkpt lat="43.47413" lon="2.16186">
        <ele>607.69</ele>
        <time>2019-12-21T14:58:06Z</time>
      </trkpt>
      <trkpt lat="43.47419" lon="2.162">
        <ele>607.21</ele>
        <time>2019-12-21T14:58:08Z</time>
      </trkpt>
      <trkpt lat="43.47426" lon="2.16209">
        <ele>607.21</ele>
        <time>2019-12-21T14:58:09Z</time>
      </trkpt>
      <trkpt lat="43.47448" lon="2.16228">
        <ele>606.73</ele>
        <time>2019-12-21T14:58:11Z</time>
      </trkpt>
      <trkpt lat="43.4746" lon="2.16236">
        <ele>605.29</ele>
        <time>2019-12-21T14:58:12Z</time>
      </trkpt>
      <trkpt lat="43.47481" lon="2.1625">
        <ele>602.4</ele>
        <time>2019-12-21T14:58:14Z</time>
      </trkpt>
      <trkpt lat="43.4749" lon="2.16254">
        <ele>601.44</ele>
        <time>2019-12-21T14:58:15Z</time>
      </trkpt>
      <trkpt lat="43.47508" lon="2.1626">
        <ele>599.52</ele>
        <time>2019-12-21T14:58:17Z</time>
      </trkpt>
      <trkpt lat="43.47554" lon="2.16264">
        <ele>597.6</ele>
        <time>2019-12-21T14:58:23Z</time>
      </trkpt>
      <trkpt lat="43.4756" lon="2.16266">
        <ele>597.6</ele>
        <time>2019-12-21T14:58:24Z</time>
      </trkpt>
      <trkpt lat="43.47566" lon="2.16269">
        <ele>597.12</ele>
        <time>2019-12-21T14:58:25Z</time>
      </trkpt>
      <trkpt lat="43.47586" lon="2.16281">
        <ele>594.23</ele>
        <time>2019-12-21T14:58:29Z</time>
      </trkpt>
      <trkpt lat="43.4759" lon="2.16283">
        <ele>593.27</ele>
        <time>2019-12-21T14:58:30Z</time>
      </trkpt>
      <trkpt lat="43.47594" lon="2.16284">
        <ele>592.79</ele>
        <time>2019-12-21T14:58:31Z</time>
      </trkpt>
      <trkpt lat="43.4762" lon="2.16288">
        <ele>591.35</ele>
        <time>2019-12-21T14:58:36Z</time>
      </trkpt>
      <trkpt lat="43.47654" lon="2.16298">
        <ele>590.39</ele>
        <time>2019-12-21T14:58:43Z</time>
      </trkpt>
      <trkpt lat="43.47659" lon="2.16304">
        <ele>590.87</ele>
        <time>2019-12-21T14:58:44Z</time>
      </trkpt>
      <trkpt lat="43.47665" lon="2.16309">
        <ele>590.39</ele>
        <time>2019-12-21T14:58:45Z</time>
      </trkpt>
      <trkpt lat="43.47669" lon="2.16313">
        <ele>590.39</ele>
        <time>2019-12-21T14:58:46Z</time>
      </trkpt>
      <trkpt lat="43.47673" lon="2.16317">
        <ele>589.91</ele>
        <time>2019-12-21T14:58:47Z</time>
      </trkpt>
      <trkpt lat="43.47704" lon="2.16353">
        <ele>590.39</ele>
        <time>2019-12-21T14:58:57Z</time>
      </trkpt>
      <trkpt lat="43.4774" lon="2.16406">
        <ele>592.31</ele>
        <time>2019-12-21T14:59:16Z</time>
      </trkpt>
      <trkpt lat="43.47746" lon="2.16413">
        <ele>594.23</ele>
        <time>2019-12-21T14:59:19Z</time>
      </trkpt>
      <trkpt lat="43.47753" lon="2.1642">
        <ele>593.75</ele>
        <time>2019-12-21T14:59:23Z</time>
      </trkpt>
      <trkpt lat="43.47801" lon="2.16473">
        <ele>595.19</ele>
        <time>2019-12-21T14:59:43Z</time>
      </trkpt>
      <trkpt lat="43.47805" lon="2.16477">
        <ele>596.15</ele>
        <time>2019-12-21T14:59:45Z</time>
      </trkpt>
      <trkpt lat="43.47813" lon="2.16483">
        <ele>594.71</ele>
        <time>2019-12-21T14:59:48Z</time>
      </trkpt>
      <trkpt lat="43.47821" lon="2.16488">
        <ele>596.15</ele>
        <time>2019-12-21T14:59:51Z</time>
      </trkpt>
      <trkpt lat="43.47839" lon="2.16498">
        <ele>592.79</ele>
        <time>2019-12-21T14:59:58Z</time>
      </trkpt>
      <trkpt lat="43.47866" lon="2.16511">
        <ele>592.31</ele>
        <time>2019-12-21T15:00:08Z</time>
      </trkpt>
      <trkpt lat="43.47881" lon="2.16508">
        <ele>593.75</ele>
        <time>2019-12-21T15:00:13Z</time>
      </trkpt>
      <trkpt lat="43.47912" lon="2.16448">
        <ele>593.75</ele>
        <time>2019-12-21T15:00:31Z</time>
      </trkpt>
      <trkpt lat="43.47924" lon="2.16416">
        <ele>591.83</ele>
        <time>2019-12-21T15:00:37Z</time>
      </trkpt>
      <trkpt lat="43.47934" lon="2.16382">
        <ele>588.95</ele>
        <time>2019-12-21T15:00:42Z</time>
      </trkpt>
      <trkpt lat="43.47935" lon="2.16374">
        <ele>589.43</ele>
        <time>2019-12-21T15:00:43Z</time>
      </trkpt>
      <trkpt lat="43.47935" lon="2.16367">
        <ele>590.39</ele>
        <time>2019-12-21T15:00:44Z</time>
      </trkpt>
      <trkpt lat="43.47935" lon="2.16359">
        <ele>589.43</ele>
        <time>2019-12-21T15:00:45Z</time>
      </trkpt>
      <trkpt lat="43.47935" lon="2.16352">
        <ele>588.95</ele>
        <time>2019-12-21T15:00:46Z</time>
      </trkpt>
      <trkpt lat="43.47935" lon="2.16339">
        <ele>587.02</ele>
        <time>2019-12-21T15:00:48Z</time>
      </trkpt>
      <trkpt lat="43.47936" lon="2.16333">
        <ele>586.54</ele>
        <time>2019-12-21T15:00:49Z</time>
      </trkpt>
      <trkpt lat="43.47936" lon="2.16326">
        <ele>586.06</ele>
        <time>2019-12-21T15:00:50Z</time>
      </trkpt>
      <trkpt lat="43.47937" lon="2.1632">
        <ele>585.58</ele>
        <time>2019-12-21T15:00:51Z</time>
      </trkpt>
      <trkpt lat="43.47937" lon="2.16314">
        <ele>584.62</ele>
        <time>2019-12-21T15:00:52Z</time>
      </trkpt>
      <trkpt lat="43.47937" lon="2.16308">
        <ele>584.14</ele>
        <time>2019-12-21T15:00:53Z</time>
      </trkpt>
      <trkpt lat="43.47938" lon="2.16303">
        <ele>583.18</ele>
        <time>2019-12-21T15:00:54Z</time>
      </trkpt>
      <trkpt lat="43.47939" lon="2.16297">
        <ele>582.22</ele>
        <time>2019-12-21T15:00:55Z</time>
      </trkpt>
      <trkpt lat="43.47941" lon="2.16292">
        <ele>580.77</ele>
        <time>2019-12-21T15:00:56Z</time>
      </trkpt>
      <trkpt lat="43.47942" lon="2.16287">
        <ele>580.29</ele>
        <time>2019-12-21T15:00:57Z</time>
      </trkpt>
      <trkpt lat="43.4795" lon="2.16276">
        <ele>577.89</ele>
        <time>2019-12-21T15:01:00Z</time>
      </trkpt>
      <trkpt lat="43.47954" lon="2.16273">
        <ele>578.37</ele>
        <time>2019-12-21T15:01:01Z</time>
      </trkpt>
      <trkpt lat="43.47957" lon="2.16269">
        <ele>577.89</ele>
        <time>2019-12-21T15:01:02Z</time>
      </trkpt>
      <trkpt lat="43.47959" lon="2.16264">
        <ele>577.41</ele>
        <time>2019-12-21T15:01:03Z</time>
      </trkpt>
      <trkpt lat="43.47961" lon="2.16259">
        <ele>577.41</ele>
        <time>2019-12-21T15:01:04Z</time>
      </trkpt>
      <trkpt lat="43.47962" lon="2.16253">
        <ele>575.97</ele>
        <time>2019-12-21T15:01:05Z</time>
      </trkpt>
      <trkpt lat="43.47963" lon="2.16247">
        <ele>575.49</ele>
        <time>2019-12-21T15:01:06Z</time>
      </trkpt>
      <trkpt lat="43.47965" lon="2.16242">
        <ele>575.01</ele>
        <time>2019-12-21T15:01:07Z</time>
      </trkpt>
      <trkpt lat="43.47967" lon="2.16236">
        <ele>575.01</ele>
        <time>2019-12-21T15:01:08Z</time>
      </trkpt>
      <trkpt lat="43.47969" lon="2.1623">
        <ele>574.04</ele>
        <time>2019-12-21T15:01:09Z</time>
      </trkpt>
      <trkpt lat="43.4797" lon="2.16223">
        <ele>574.04</ele>
        <time>2019-12-21T15:01:10Z</time>
      </trkpt>
      <trkpt lat="43.47971" lon="2.16217">
        <ele>574.04</ele>
        <time>2019-12-21T15:01:11Z</time>
      </trkpt>
      <trkpt lat="43.4797" lon="2.1621">
        <ele>574.04</ele>
        <time>2019-12-21T15:01:12Z</time>
      </trkpt>
      <trkpt lat="43.47969" lon="2.16204">
        <ele>574.53</ele>
        <time>2019-12-21T15:01:13Z</time>
      </trkpt>
      <trkpt lat="43.47968" lon="2.16197">
        <ele>572.6</ele>
        <time>2019-12-21T15:01:14Z</time>
      </trkpt>
      <trkpt lat="43.47965" lon="2.16191">
        <ele>573.08</ele>
        <time>2019-12-21T15:01:15Z</time>
      </trkpt>
      <trkpt lat="43.47963" lon="2.16185">
        <ele>573.08</ele>
        <time>2019-12-21T15:01:16Z</time>
      </trkpt>
      <trkpt lat="43.47959" lon="2.16179">
        <ele>571.16</ele>
        <time>2019-12-21T15:01:17Z</time>
      </trkpt>
      <trkpt lat="43.47955" lon="2.16173">
        <ele>568.76</ele>
        <time>2019-12-21T15:01:18Z</time>
      </trkpt>
      <trkpt lat="43.47952" lon="2.16165">
        <ele>568.28</ele>
        <time>2019-12-21T15:01:19Z</time>
      </trkpt>
      <trkpt lat="43.47947" lon="2.16157">
        <ele>567.8</ele>
        <time>2019-12-21T15:01:20Z</time>
      </trkpt>
      <trkpt lat="43.47943" lon="2.1615">
        <ele>567.8</ele>
        <time>2019-12-21T15:01:21Z</time>
      </trkpt>
      <trkpt lat="43.47935" lon="2.16137">
        <ele>567.8</ele>
        <time>2019-12-21T15:01:23Z</time>
      </trkpt>
      <trkpt lat="43.47932" lon="2.16131">
        <ele>566.83</ele>
        <time>2019-12-21T15:01:24Z</time>
      </trkpt>
      <trkpt lat="43.47927" lon="2.16117">
        <ele>566.35</ele>
        <time>2019-12-21T15:01:26Z</time>
      </trkpt>
      <trkpt lat="43.47913" lon="2.1608">
        <ele>562.03</ele>
        <time>2019-12-21T15:01:32Z</time>
      </trkpt>
      <trkpt lat="43.4791" lon="2.16072">
        <ele>561.07</ele>
        <time>2019-12-21T15:01:33Z</time>
      </trkpt>
      <trkpt lat="43.47897" lon="2.1604">
        <ele>557.22</ele>
        <time>2019-12-21T15:01:37Z</time>
      </trkpt>
      <trkpt lat="43.47894" lon="2.16032">
        <ele>557.22</ele>
        <time>2019-12-21T15:01:38Z</time>
      </trkpt>
      <trkpt lat="43.47892" lon="2.16022">
        <ele>555.3</ele>
        <time>2019-12-21T15:01:39Z</time>
      </trkpt>
      <trkpt lat="43.47891" lon="2.16012">
        <ele>555.78</ele>
        <time>2019-12-21T15:01:40Z</time>
      </trkpt>
      <trkpt lat="43.47891" lon="2.16001">
        <ele>554.34</ele>
        <time>2019-12-21T15:01:41Z</time>
      </trkpt>
      <trkpt lat="43.4789" lon="2.1598">
        <ele>553.38</ele>
        <time>2019-12-21T15:01:43Z</time>
      </trkpt>
      <trkpt lat="43.4789" lon="2.15971">
        <ele>554.82</ele>
        <time>2019-12-21T15:01:44Z</time>
      </trkpt>
      <trkpt lat="43.47889" lon="2.15963">
        <ele>553.38</ele>
        <time>2019-12-21T15:01:45Z</time>
      </trkpt>
      <trkpt lat="43.47874" lon="2.159">
        <ele>554.82</ele>
        <time>2019-12-21T15:02:00Z</time>
      </trkpt>
      <trkpt lat="43.47852" lon="2.15864">
        <ele>556.26</ele>
        <time>2019-12-21T15:02:12Z</time>
      </trkpt>
      <trkpt lat="43.47834" lon="2.1583">
        <ele>558.18</ele>
        <time>2019-12-21T15:02:28Z</time>
      </trkpt>
      <trkpt lat="43.47833" lon="2.15829">
        <ele>561.07</ele>
        <time>2019-12-21T15:02:29Z</time>
      </trkpt>
      <trkpt lat="43.47832" lon="2.15828">
        <ele>561.07</ele>
        <time>2019-12-21T15:02:30Z</time>
      </trkpt>
      <trkpt lat="43.4783" lon="2.15826">
        <ele>559.62</ele>
        <time>2019-12-21T15:02:32Z</time>
      </trkpt>
      <trkpt lat="43.47819" lon="2.15808">
        <ele>560.11</ele>
        <time>2019-12-21T15:02:49Z</time>
      </trkpt>
      <trkpt lat="43.47808" lon="2.15786">
        <ele>562.99</ele>
        <time>2019-12-21T15:03:07Z</time>
      </trkpt>
      <trkpt lat="43.47809" lon="2.15768">
        <ele>560.11</ele>
        <time>2019-12-21T15:03:13Z</time>
      </trkpt>
      <trkpt lat="43.47816" lon="2.1574">
        <ele>562.03</ele>
        <time>2019-12-21T15:03:24Z</time>
      </trkpt>
      <trkpt lat="43.47814" lon="2.15733">
        <ele>563.95</ele>
        <time>2019-12-21T15:03:33Z</time>
      </trkpt>
      <trkpt lat="43.47808" lon="2.15731">
        <ele>564.91</ele>
        <time>2019-12-21T15:03:39Z</time>
      </trkpt>
      <trkpt lat="43.47805" lon="2.15731">
        <ele>563.47</ele>
        <time>2019-12-21T15:03:43Z</time>
      </trkpt>
      <trkpt lat="43.47805" lon="2.15732">
        <ele>561.55</ele>
        <time>2019-12-21T15:03:45Z</time>
      </trkpt>
      <trkpt lat="43.47807" lon="2.15733">
        <ele>560.59</ele>
        <time>2019-12-21T15:04:52Z</time>
      </trkpt>
      <trkpt lat="43.47808" lon="2.15733">
        <ele>562.03</ele>
        <time>2019-12-21T15:05:45Z</time>
      </trkpt>
      <trkpt lat="43.47808" lon="2.15734">
        <ele>563.47</ele>
        <time>2019-12-21T15:05:48Z</time>
      </trkpt>
      <trkpt lat="43.47808" lon="2.15734">
        <ele>562.03</ele>
        <time>2019-12-21T15:05:50Z</time>
      </trkpt>
      <trkpt lat="43.47808" lon="2.15734">
        <ele>559.14</ele>
        <time>2019-12-21T15:06:06Z</time>
      </trkpt>
      <trkpt lat="43.47808" lon="2.15732">
        <ele>562.51</ele>
        <time>2019-12-21T15:06:10Z</time>
      </trkpt>
      <trkpt lat="43.47807" lon="2.15733">
        <ele>561.55</ele>
        <time>2019-12-21T15:06:20Z</time>
      </trkpt>
      <trkpt lat="43.47807" lon="2.15733">
        <ele>559.14</ele>
        <time>2019-12-21T15:06:33Z</time>
      </trkpt>
      <trkpt lat="43.47807" lon="2.15733">
        <ele>561.07</ele>
        <time>2019-12-21T15:06:38Z</time>
      </trkpt>
      <trkpt lat="43.47808" lon="2.15733">
        <ele>563.47</ele>
        <time>2019-12-21T15:07:16Z</time>
      </trkpt>
      <trkpt lat="43.47807" lon="2.15734">
        <ele>560.11</ele>
        <time>2019-12-21T15:07:52Z</time>
      </trkpt>
      <trkpt lat="43.47807" lon="2.15733">
        <ele>560.59</ele>
        <time>2019-12-21T15:08:03Z</time>
      </trkpt>
      <trkpt lat="43.47808" lon="2.15733">
        <ele>560.59</ele>
        <time>2019-12-21T15:08:11Z</time>
      </trkpt>
      <trkpt lat="43.47807" lon="2.15733">
        <ele>561.55</ele>
        <time>2019-12-21T15:08:17Z</time>
      </trkpt>
      <trkpt lat="43.47807" lon="2.15733">
        <ele>560.11</ele>
        <time>2019-12-21T15:08:25Z</time>
      </trkpt>
      <trkpt lat="43.47807" lon="2.15732">
        <ele>560.11</ele>
        <time>2019-12-21T15:08:48Z</time>
      </trkpt>
      <trkpt lat="43.47804" lon="2.15738">
        <ele>559.62</ele>
        <time>2019-12-21T15:08:52Z</time>
      </trkpt>
      <trkpt lat="43.47805" lon="2.15746">
        <ele>553.38</ele>
        <time>2019-12-21T15:08:58Z</time>
      </trkpt>
      <trkpt lat="43.47813" lon="2.15768">
        <ele>552.41</ele>
        <time>2019-12-21T15:09:06Z</time>
      </trkpt>
      <trkpt lat="43.47814" lon="2.15778">
        <ele>555.3</ele>
        <time>2019-12-21T15:09:09Z</time>
      </trkpt>
      <trkpt lat="43.47814" lon="2.15782">
        <ele>554.34</ele>
        <time>2019-12-21T15:09:10Z</time>
      </trkpt>
      <trkpt lat="43.47828" lon="2.15826">
        <ele>550.49</ele>
        <time>2019-12-21T15:09:22Z</time>
      </trkpt>
      <trkpt lat="43.4783" lon="2.15829">
        <ele>551.93</ele>
        <time>2019-12-21T15:09:23Z</time>
      </trkpt>
      <trkpt lat="43.47842" lon="2.15846">
        <ele>550.01</ele>
        <time>2019-12-21T15:09:27Z</time>
      </trkpt>
      <trkpt lat="43.47844" lon="2.15852">
        <ele>549.05</ele>
        <time>2019-12-21T15:09:28Z</time>
      </trkpt>
      <trkpt lat="43.47847" lon="2.15856">
        <ele>550.97</ele>
        <time>2019-12-21T15:09:29Z</time>
      </trkpt>
      <trkpt lat="43.47849" lon="2.1586">
        <ele>548.09</ele>
        <time>2019-12-21T15:09:30Z</time>
      </trkpt>
      <trkpt lat="43.4785" lon="2.15863">
        <ele>548.57</ele>
        <time>2019-12-21T15:09:31Z</time>
      </trkpt>
      <trkpt lat="43.47854" lon="2.15868">
        <ele>548.09</ele>
        <time>2019-12-21T15:09:36Z</time>
      </trkpt>
      <trkpt lat="43.47856" lon="2.15868">
        <ele>549.53</ele>
        <time>2019-12-21T15:09:40Z</time>
      </trkpt>
      <trkpt lat="43.47856" lon="2.15865">
        <ele>548.09</ele>
        <time>2019-12-21T15:09:49Z</time>
      </trkpt>
      <trkpt lat="43.47857" lon="2.15861">
        <ele>548.57</ele>
        <time>2019-12-21T15:10:01Z</time>
      </trkpt>
      <trkpt lat="43.47858" lon="2.15854">
        <ele>547.13</ele>
        <time>2019-12-21T15:10:03Z</time>
      </trkpt>
      <trkpt lat="43.47864" lon="2.15826">
        <ele>544.24</ele>
        <time>2019-12-21T15:10:11Z</time>
      </trkpt>
      <trkpt lat="43.47872" lon="2.15814">
        <ele>540.88</ele>
        <time>2019-12-21T15:10:17Z</time>
      </trkpt>
      <trkpt lat="43.47878" lon="2.1581">
        <ele>537.51</ele>
        <time>2019-12-21T15:10:29Z</time>
      </trkpt>
      <trkpt lat="43.47879" lon="2.1581">
        <ele>537.03</ele>
        <time>2019-12-21T15:10:30Z</time>
      </trkpt>
      <trkpt lat="43.47884" lon="2.15812">
        <ele>535.11</ele>
        <time>2019-12-21T15:10:38Z</time>
      </trkpt>
      <trkpt lat="43.47888" lon="2.15818">
        <ele>534.63</ele>
        <time>2019-12-21T15:10:46Z</time>
      </trkpt>
      <trkpt lat="43.47901" lon="2.15829">
        <ele>533.19</ele>
        <time>2019-12-21T15:11:05Z</time>
      </trkpt>
      <trkpt lat="43.47911" lon="2.15838">
        <ele>529.34</ele>
        <time>2019-12-21T15:11:09Z</time>
      </trkpt>
      <trkpt lat="43.47914" lon="2.1584">
        <ele>529.34</ele>
        <time>2019-12-21T15:11:10Z</time>
      </trkpt>
      <trkpt lat="43.47928" lon="2.15851">
        <ele>526.46</ele>
        <time>2019-12-21T15:11:17Z</time>
      </trkpt>
      <trkpt lat="43.47929" lon="2.15853">
        <ele>525.98</ele>
        <time>2019-12-21T15:11:18Z</time>
      </trkpt>
      <trkpt lat="43.47936" lon="2.15866">
        <ele>524.54</ele>
        <time>2019-12-21T15:11:35Z</time>
      </trkpt>
      <trkpt lat="43.47942" lon="2.15882">
        <ele>523.58</ele>
        <time>2019-12-21T15:11:39Z</time>
      </trkpt>
      <trkpt lat="43.47955" lon="2.15907">
        <ele>520.21</ele>
        <time>2019-12-21T15:11:46Z</time>
      </trkpt>
      <trkpt lat="43.47964" lon="2.15919">
        <ele>516.85</ele>
        <time>2019-12-21T15:11:49Z</time>
      </trkpt>
      <trkpt lat="43.47967" lon="2.15923">
        <ele>516.37</ele>
        <time>2019-12-21T15:11:50Z</time>
      </trkpt>
      <trkpt lat="43.4797" lon="2.15927">
        <ele>515.88</ele>
        <time>2019-12-21T15:11:51Z</time>
      </trkpt>
      <trkpt lat="43.47987" lon="2.15943">
        <ele>512.52</ele>
        <time>2019-12-21T15:11:57Z</time>
      </trkpt>
      <trkpt lat="43.48002" lon="2.15948">
        <ele>509.64</ele>
        <time>2019-12-21T15:12:01Z</time>
      </trkpt>
      <trkpt lat="43.48005" lon="2.1595">
        <ele>509.64</ele>
        <time>2019-12-21T15:12:02Z</time>
      </trkpt>
      <trkpt lat="43.48063" lon="2.15968">
        <ele>509.64</ele>
        <time>2019-12-21T15:12:24Z</time>
      </trkpt>
      <trkpt lat="43.48073" lon="2.1597">
        <ele>507.71</ele>
        <time>2019-12-21T15:12:28Z</time>
      </trkpt>
      <trkpt lat="43.48076" lon="2.15969">
        <ele>507.23</ele>
        <time>2019-12-21T15:12:29Z</time>
      </trkpt>
      <trkpt lat="43.48079" lon="2.15968">
        <ele>506.75</ele>
        <time>2019-12-21T15:12:30Z</time>
      </trkpt>
      <trkpt lat="43.48082" lon="2.15966">
        <ele>506.27</ele>
        <time>2019-12-21T15:12:31Z</time>
      </trkpt>
      <trkpt lat="43.48085" lon="2.15965">
        <ele>504.83</ele>
        <time>2019-12-21T15:12:32Z</time>
      </trkpt>
      <trkpt lat="43.48088" lon="2.15964">
        <ele>504.83</ele>
        <time>2019-12-21T15:12:33Z</time>
      </trkpt>
      <trkpt lat="43.48098" lon="2.15962">
        <ele>502.43</ele>
        <time>2019-12-21T15:12:36Z</time>
      </trkpt>
      <trkpt lat="43.48108" lon="2.15957">
        <ele>499.06</ele>
        <time>2019-12-21T15:12:39Z</time>
      </trkpt>
      <trkpt lat="43.48112" lon="2.15956">
        <ele>499.06</ele>
        <time>2019-12-21T15:12:40Z</time>
      </trkpt>
      <trkpt lat="43.48124" lon="2.15948">
        <ele>495.7</ele>
        <time>2019-12-21T15:12:43Z</time>
      </trkpt>
      <trkpt lat="43.48141" lon="2.15935">
        <ele>491.85</ele>
        <time>2019-12-21T15:12:47Z</time>
      </trkpt>
      <trkpt lat="43.4815" lon="2.15929">
        <ele>490.41</ele>
        <time>2019-12-21T15:12:49Z</time>
      </trkpt>
      <trkpt lat="43.48154" lon="2.15927">
        <ele>489.45</ele>
        <time>2019-12-21T15:12:50Z</time>
      </trkpt>
      <trkpt lat="43.48158" lon="2.15926">
        <ele>488.49</ele>
        <time>2019-12-21T15:12:51Z</time>
      </trkpt>
      <trkpt lat="43.48161" lon="2.15926">
        <ele>487.53</ele>
        <time>2019-12-21T15:12:52Z</time>
      </trkpt>
      <trkpt lat="43.48164" lon="2.15929">
        <ele>488.49</ele>
        <time>2019-12-21T15:12:53Z</time>
      </trkpt>
      <trkpt lat="43.48166" lon="2.15932">
        <ele>488.49</ele>
        <time>2019-12-21T15:12:54Z</time>
      </trkpt>
      <trkpt lat="43.48169" lon="2.15935">
        <ele>487.53</ele>
        <time>2019-12-21T15:12:55Z</time>
      </trkpt>
      <trkpt lat="43.48171" lon="2.15939">
        <ele>487.05</ele>
        <time>2019-12-21T15:12:56Z</time>
      </trkpt>
      <trkpt lat="43.48172" lon="2.15943">
        <ele>487.05</ele>
        <time>2019-12-21T15:12:57Z</time>
      </trkpt>
      <trkpt lat="43.48173" lon="2.15947">
        <ele>487.05</ele>
        <time>2019-12-21T15:12:58Z</time>
      </trkpt>
      <trkpt lat="43.48174" lon="2.15953">
        <ele>486.56</ele>
        <time>2019-12-21T15:12:59Z</time>
      </trkpt>
      <trkpt lat="43.48175" lon="2.15959">
        <ele>486.56</ele>
        <time>2019-12-21T15:13:00Z</time>
      </trkpt>
      <trkpt lat="43.48177" lon="2.15989">
        <ele>482.72</ele>
        <time>2019-12-21T15:13:04Z</time>
      </trkpt>
      <trkpt lat="43.48178" lon="2.16008">
        <ele>479.84</ele>
        <time>2019-12-21T15:13:06Z</time>
      </trkpt>
      <trkpt lat="43.48179" lon="2.16024">
        <ele>477.43</ele>
        <time>2019-12-21T15:13:08Z</time>
      </trkpt>
      <trkpt lat="43.4818" lon="2.16029">
        <ele>475.99</ele>
        <time>2019-12-21T15:13:09Z</time>
      </trkpt>
      <trkpt lat="43.48182" lon="2.16041">
        <ele>474.07</ele>
        <time>2019-12-21T15:13:11Z</time>
      </trkpt>
      <trkpt lat="43.48183" lon="2.16047">
        <ele>474.55</ele>
        <time>2019-12-21T15:13:12Z</time>
      </trkpt>
      <trkpt lat="43.48185" lon="2.16054">
        <ele>473.11</ele>
        <time>2019-12-21T15:13:13Z</time>
      </trkpt>
      <trkpt lat="43.48188" lon="2.16061">
        <ele>472.14</ele>
        <time>2019-12-21T15:13:14Z</time>
      </trkpt>
      <trkpt lat="43.48193" lon="2.16074">
        <ele>471.18</ele>
        <time>2019-12-21T15:13:16Z</time>
      </trkpt>
      <trkpt lat="43.48198" lon="2.16086">
        <ele>469.26</ele>
        <time>2019-12-21T15:13:18Z</time>
      </trkpt>
      <trkpt lat="43.482" lon="2.16089">
        <ele>467.82</ele>
        <time>2019-12-21T15:13:19Z</time>
      </trkpt>
      <trkpt lat="43.48204" lon="2.16092">
        <ele>466.86</ele>
        <time>2019-12-21T15:13:20Z</time>
      </trkpt>
      <trkpt lat="43.48208" lon="2.16093">
        <ele>466.86</ele>
        <time>2019-12-21T15:13:21Z</time>
      </trkpt>
      <trkpt lat="43.48212" lon="2.16092">
        <ele>465.9</ele>
        <time>2019-12-21T15:13:22Z</time>
      </trkpt>
      <trkpt lat="43.48216" lon="2.16091">
        <ele>465.42</ele>
        <time>2019-12-21T15:13:23Z</time>
      </trkpt>
      <trkpt lat="43.48223" lon="2.16091">
        <ele>464.93</ele>
        <time>2019-12-21T15:13:25Z</time>
      </trkpt>
      <trkpt lat="43.48231" lon="2.16094">
        <ele>463.01</ele>
        <time>2019-12-21T15:13:28Z</time>
      </trkpt>
      <trkpt lat="43.48235" lon="2.16092">
        <ele>464.45</ele>
        <time>2019-12-21T15:13:31Z</time>
      </trkpt>
      <trkpt lat="43.48236" lon="2.16092">
        <ele>463.97</ele>
        <time>2019-12-21T15:13:38Z</time>
      </trkpt>
      <trkpt lat="43.48238" lon="2.16061">
        <ele>460.61</ele>
        <time>2019-12-21T15:13:48Z</time>
      </trkpt>
      <trkpt lat="43.48239" lon="2.16058">
        <ele>460.61</ele>
        <time>2019-12-21T15:13:49Z</time>
      </trkpt>
      <trkpt lat="43.48256" lon="2.16044">
        <ele>457.24</ele>
        <time>2019-12-21T15:13:55Z</time>
      </trkpt>
      <trkpt lat="43.48259" lon="2.16042">
        <ele>456.28</ele>
        <time>2019-12-21T15:13:56Z</time>
      </trkpt>
      <trkpt lat="43.48263" lon="2.16042">
        <ele>455.32</ele>
        <time>2019-12-21T15:13:57Z</time>
      </trkpt>
      <trkpt lat="43.48267" lon="2.16042">
        <ele>455.32</ele>
        <time>2019-12-21T15:13:58Z</time>
      </trkpt>
      <trkpt lat="43.48271" lon="2.16042">
        <ele>455.8</ele>
        <time>2019-12-21T15:13:59Z</time>
      </trkpt>
      <trkpt lat="43.48276" lon="2.16041">
        <ele>454.36</ele>
        <time>2019-12-21T15:14:00Z</time>
      </trkpt>
      <trkpt lat="43.48292" lon="2.16038">
        <ele>452.44</ele>
        <time>2019-12-21T15:14:03Z</time>
      </trkpt>
      <trkpt lat="43.48305" lon="2.16032">
        <ele>449.07</ele>
        <time>2019-12-21T15:14:05Z</time>
      </trkpt>
      <trkpt lat="43.48322" lon="2.16023">
        <ele>447.15</ele>
        <time>2019-12-21T15:14:08Z</time>
      </trkpt>
      <trkpt lat="43.48337" lon="2.16013">
        <ele>443.79</ele>
        <time>2019-12-21T15:14:12Z</time>
      </trkpt>
      <trkpt lat="43.48342" lon="2.1601">
        <ele>442.82</ele>
        <time>2019-12-21T15:14:13Z</time>
      </trkpt>
      <trkpt lat="43.48347" lon="2.16007">
        <ele>441.86</ele>
        <time>2019-12-21T15:14:14Z</time>
      </trkpt>
      <trkpt lat="43.48352" lon="2.16005">
        <ele>440.9</ele>
        <time>2019-12-21T15:14:15Z</time>
      </trkpt>
      <trkpt lat="43.48358" lon="2.16004">
        <ele>439.46</ele>
        <time>2019-12-21T15:14:16Z</time>
      </trkpt>
      <trkpt lat="43.48363" lon="2.16002">
        <ele>439.46</ele>
        <time>2019-12-21T15:14:17Z</time>
      </trkpt>
      <trkpt lat="43.48371" lon="2.16001">
        <ele>436.1</ele>
        <time>2019-12-21T15:14:20Z</time>
      </trkpt>
      <trkpt lat="43.48371" lon="2.16001">
        <ele>436.1</ele>
        <time>2019-12-21T15:14:21Z</time>
      </trkpt>
      <trkpt lat="43.48372" lon="2.16003">
        <ele>438.98</ele>
        <time>2019-12-21T15:14:29Z</time>
      </trkpt>
      <trkpt lat="43.48372" lon="2.16003">
        <ele>435.61</ele>
        <time>2019-12-21T15:14:30Z</time>
      </trkpt>
      <trkpt lat="43.48372" lon="2.16003">
        <ele>436.1</ele>
        <time>2019-12-21T15:14:35Z</time>
      </trkpt>
      <trkpt lat="43.48372" lon="2.16003">
        <ele>437.06</ele>
        <time>2019-12-21T15:14:39Z</time>
      </trkpt>
      <trkpt lat="43.484" lon="2.15993">
        <ele>434.17</ele>
        <time>2019-12-21T15:14:48Z</time>
      </trkpt>
      <trkpt lat="43.48422" lon="2.15986">
        <ele>429.85</ele>
        <time>2019-12-21T15:14:52Z</time>
      </trkpt>
      <trkpt lat="43.48428" lon="2.15985">
        <ele>429.85</ele>
        <time>2019-12-21T15:14:53Z</time>
      </trkpt>
      <trkpt lat="43.48433" lon="2.15984">
        <ele>427.44</ele>
        <time>2019-12-21T15:14:54Z</time>
      </trkpt>
      <trkpt lat="43.48438" lon="2.15984">
        <ele>427.44</ele>
        <time>2019-12-21T15:14:55Z</time>
      </trkpt>
      <trkpt lat="43.48443" lon="2.15985">
        <ele>427.44</ele>
        <time>2019-12-21T15:14:56Z</time>
      </trkpt>
      <trkpt lat="43.48448" lon="2.15984">
        <ele>426.48</ele>
        <time>2019-12-21T15:14:57Z</time>
      </trkpt>
      <trkpt lat="43.48452" lon="2.15983">
        <ele>425.04</ele>
        <time>2019-12-21T15:14:58Z</time>
      </trkpt>
      <trkpt lat="43.48456" lon="2.15982">
        <ele>425.04</ele>
        <time>2019-12-21T15:14:59Z</time>
      </trkpt>
      <trkpt lat="43.4846" lon="2.15981">
        <ele>424.08</ele>
        <time>2019-12-21T15:15:00Z</time>
      </trkpt>
      <trkpt lat="43.48469" lon="2.15979">
        <ele>423.12</ele>
        <time>2019-12-21T15:15:02Z</time>
      </trkpt>
      <trkpt lat="43.48487" lon="2.15975">
        <ele>419.75</ele>
        <time>2019-12-21T15:15:06Z</time>
      </trkpt>
      <trkpt lat="43.48491" lon="2.15975">
        <ele>419.75</ele>
        <time>2019-12-21T15:15:07Z</time>
      </trkpt>
      <trkpt lat="43.48501" lon="2.15975">
        <ele>418.79</ele>
        <time>2019-12-21T15:15:10Z</time>
      </trkpt>
      <trkpt lat="43.48506" lon="2.15976">
        <ele>418.79</ele>
        <time>2019-12-21T15:15:11Z</time>
      </trkpt>
      <trkpt lat="43.48511" lon="2.15977">
        <ele>418.79</ele>
        <time>2019-12-21T15:15:12Z</time>
      </trkpt>
      <trkpt lat="43.48542" lon="2.15988">
        <ele>414.47</ele>
        <time>2019-12-21T15:15:17Z</time>
      </trkpt>
      <trkpt lat="43.48552" lon="2.15995">
        <ele>413.5</ele>
        <time>2019-12-21T15:15:19Z</time>
      </trkpt>
      <trkpt lat="43.48576" lon="2.16013">
        <ele>411.1</ele>
        <time>2019-12-21T15:15:24Z</time>
      </trkpt>
      <trkpt lat="43.4858" lon="2.16016">
        <ele>409.66</ele>
        <time>2019-12-21T15:15:25Z</time>
      </trkpt>
      <trkpt lat="43.48583" lon="2.16017">
        <ele>408.7</ele>
        <time>2019-12-21T15:15:26Z</time>
      </trkpt>
      <trkpt lat="43.48584" lon="2.16017">
        <ele>408.22</ele>
        <time>2019-12-21T15:15:27Z</time>
      </trkpt>
      <trkpt lat="43.48585" lon="2.16018">
        <ele>407.74</ele>
        <time>2019-12-21T15:15:28Z</time>
      </trkpt>
      <trkpt lat="43.48602" lon="2.16039">
        <ele>404.37</ele>
        <time>2019-12-21T15:15:38Z</time>
      </trkpt>
      <trkpt lat="43.48615" lon="2.16054">
        <ele>400.05</ele>
        <time>2019-12-21T15:15:43Z</time>
      </trkpt>
      <trkpt lat="43.48619" lon="2.16056">
        <ele>400.05</ele>
        <time>2019-12-21T15:15:44Z</time>
      </trkpt>
      <trkpt lat="43.48637" lon="2.16065">
        <ele>397.16</ele>
        <time>2019-12-21T15:15:49Z</time>
      </trkpt>
      <trkpt lat="43.48641" lon="2.16068">
        <ele>396.2</ele>
        <time>2019-12-21T15:15:50Z</time>
      </trkpt>
      <trkpt lat="43.48666" lon="2.16078">
        <ele>393.32</ele>
        <time>2019-12-21T15:15:56Z</time>
      </trkpt>
      <trkpt lat="43.48671" lon="2.16079">
        <ele>390.91</ele>
        <time>2019-12-21T15:15:57Z</time>
      </trkpt>
      <trkpt lat="43.48677" lon="2.1608">
        <ele>391.39</ele>
        <time>2019-12-21T15:15:58Z</time>
      </trkpt>
      <trkpt lat="43.48688" lon="2.16082">
        <ele>388.51</ele>
        <time>2019-12-21T15:16:00Z</time>
      </trkpt>
      <trkpt lat="43.48709" lon="2.16085">
        <ele>387.55</ele>
        <time>2019-12-21T15:16:12Z</time>
      </trkpt>
      <trkpt lat="43.48724" lon="2.1609">
        <ele>387.07</ele>
        <time>2019-12-21T15:16:19Z</time>
      </trkpt>
      <trkpt lat="43.48727" lon="2.16092">
        <ele>386.59</ele>
        <time>2019-12-21T15:16:20Z</time>
      </trkpt>
      <trkpt lat="43.4873" lon="2.16094">
        <ele>385.63</ele>
        <time>2019-12-21T15:16:21Z</time>
      </trkpt>
      <trkpt lat="43.48733" lon="2.16097">
        <ele>384.18</ele>
        <time>2019-12-21T15:16:22Z</time>
      </trkpt>
      <trkpt lat="43.48736" lon="2.16099">
        <ele>383.7</ele>
        <time>2019-12-21T15:16:23Z</time>
      </trkpt>
      <trkpt lat="43.48739" lon="2.161">
        <ele>382.74</ele>
        <time>2019-12-21T15:16:24Z</time>
      </trkpt>
      <trkpt lat="43.48746" lon="2.16101">
        <ele>381.3</ele>
        <time>2019-12-21T15:16:26Z</time>
      </trkpt>
      <trkpt lat="43.48751" lon="2.161">
        <ele>380.82</ele>
        <time>2019-12-21T15:16:27Z</time>
      </trkpt>
      <trkpt lat="43.48756" lon="2.161">
        <ele>379.86</ele>
        <time>2019-12-21T15:16:28Z</time>
      </trkpt>
      <trkpt lat="43.48762" lon="2.16099">
        <ele>379.86</ele>
        <time>2019-12-21T15:16:29Z</time>
      </trkpt>
      <trkpt lat="43.48768" lon="2.16098">
        <ele>378.9</ele>
        <time>2019-12-21T15:16:30Z</time>
      </trkpt>
      <trkpt lat="43.48779" lon="2.16095">
        <ele>377.94</ele>
        <time>2019-12-21T15:16:32Z</time>
      </trkpt>
      <trkpt lat="43.48786" lon="2.16094">
        <ele>376.49</ele>
        <time>2019-12-21T15:16:34Z</time>
      </trkpt>
      <trkpt lat="43.48804" lon="2.16088">
        <ele>373.61</ele>
        <time>2019-12-21T15:16:42Z</time>
      </trkpt>
      <trkpt lat="43.48805" lon="2.16087">
        <ele>372.17</ele>
        <time>2019-12-21T15:16:43Z</time>
      </trkpt>
      <trkpt lat="43.48807" lon="2.16085">
        <ele>371.69</ele>
        <time>2019-12-21T15:16:44Z</time>
      </trkpt>
      <trkpt lat="43.48809" lon="2.16083">
        <ele>372.17</ele>
        <time>2019-12-21T15:16:45Z</time>
      </trkpt>
      <trkpt lat="43.48823" lon="2.16075">
        <ele>369.76</ele>
        <time>2019-12-21T15:16:50Z</time>
      </trkpt>
      <trkpt lat="43.48828" lon="2.1607">
        <ele>368.8</ele>
        <time>2019-12-21T15:16:52Z</time>
      </trkpt>
      <trkpt lat="43.48828" lon="2.16065">
        <ele>368.8</ele>
        <time>2019-12-21T15:16:53Z</time>
      </trkpt>
      <trkpt lat="43.48828" lon="2.16062">
        <ele>367.84</ele>
        <time>2019-12-21T15:16:54Z</time>
      </trkpt>
      <trkpt lat="43.48827" lon="2.16059">
        <ele>366.88</ele>
        <time>2019-12-21T15:16:55Z</time>
      </trkpt>
      <trkpt lat="43.48827" lon="2.16057">
        <ele>366.88</ele>
        <time>2019-12-21T15:16:56Z</time>
      </trkpt>
      <trkpt lat="43.48826" lon="2.16054">
        <ele>365.92</ele>
        <time>2019-12-21T15:16:57Z</time>
      </trkpt>
      <trkpt lat="43.48827" lon="2.16051">
        <ele>364.96</ele>
        <time>2019-12-21T15:16:58Z</time>
      </trkpt>
      <trkpt lat="43.48827" lon="2.16048">
        <ele>364.96</ele>
        <time>2019-12-21T15:16:59Z</time>
      </trkpt>
      <trkpt lat="43.48827" lon="2.16044">
        <ele>363.52</ele>
        <time>2019-12-21T15:17:00Z</time>
      </trkpt>
      <trkpt lat="43.48828" lon="2.16041">
        <ele>363.04</ele>
        <time>2019-12-21T15:17:01Z</time>
      </trkpt>
      <trkpt lat="43.4883" lon="2.16038">
        <ele>362.07</ele>
        <time>2019-12-21T15:17:02Z</time>
      </trkpt>
      <trkpt lat="43.48831" lon="2.16034">
        <ele>361.11</ele>
        <time>2019-12-21T15:17:03Z</time>
      </trkpt>
      <trkpt lat="43.48833" lon="2.16031">
        <ele>360.15</ele>
        <time>2019-12-21T15:17:05Z</time>
      </trkpt>
      <trkpt lat="43.48834" lon="2.1603">
        <ele>360.63</ele>
        <time>2019-12-21T15:17:06Z</time>
      </trkpt>
      <trkpt lat="43.48835" lon="2.16027">
        <ele>359.19</ele>
        <time>2019-12-21T15:17:07Z</time>
      </trkpt>
      <trkpt lat="43.48836" lon="2.16025">
        <ele>358.71</ele>
        <time>2019-12-21T15:17:08Z</time>
      </trkpt>
      <trkpt lat="43.48836" lon="2.16022">
        <ele>358.23</ele>
        <time>2019-12-21T15:17:09Z</time>
      </trkpt>
      <trkpt lat="43.48839" lon="2.16012">
        <ele>356.79</ele>
        <time>2019-12-21T15:17:12Z</time>
      </trkpt>
      <trkpt lat="43.48841" lon="2.16006">
        <ele>354.86</ele>
        <time>2019-12-21T15:17:14Z</time>
      </trkpt>
      <trkpt lat="43.48846" lon="2.15988">
        <ele>351.02</ele>
        <time>2019-12-21T15:17:19Z</time>
      </trkpt>
      <trkpt lat="43.48848" lon="2.15985">
        <ele>351.02</ele>
        <time>2019-12-21T15:17:20Z</time>
      </trkpt>
      <trkpt lat="43.48849" lon="2.15984">
        <ele>350.54</ele>
        <time>2019-12-21T15:17:21Z</time>
      </trkpt>
      <trkpt lat="43.4885" lon="2.15981">
        <ele>350.06</ele>
        <time>2019-12-21T15:17:22Z</time>
      </trkpt>
      <trkpt lat="43.48851" lon="2.1598">
        <ele>349.58</ele>
        <time>2019-12-21T15:17:23Z</time>
      </trkpt>
      <trkpt lat="43.48853" lon="2.15977">
        <ele>348.62</ele>
        <time>2019-12-21T15:17:24Z</time>
      </trkpt>
      <trkpt lat="43.48854" lon="2.15975">
        <ele>348.62</ele>
        <time>2019-12-21T15:17:25Z</time>
      </trkpt>
      <trkpt lat="43.48856" lon="2.15972">
        <ele>347.65</ele>
        <time>2019-12-21T15:17:26Z</time>
      </trkpt>
      <trkpt lat="43.48857" lon="2.1597">
        <ele>347.65</ele>
        <time>2019-12-21T15:17:27Z</time>
      </trkpt>
      <trkpt lat="43.48859" lon="2.15968">
        <ele>347.65</ele>
        <time>2019-12-21T15:17:28Z</time>
      </trkpt>
      <trkpt lat="43.48866" lon="2.15956">
        <ele>343.81</ele>
        <time>2019-12-21T15:17:35Z</time>
      </trkpt>
      <trkpt lat="43.48871" lon="2.15951">
        <ele>342.85</ele>
        <time>2019-12-21T15:17:37Z</time>
      </trkpt>
      <trkpt lat="43.48875" lon="2.15946">
        <ele>342.37</ele>
        <time>2019-12-21T15:17:39Z</time>
      </trkpt>
      <trkpt lat="43.48885" lon="2.15936">
        <ele>339.48</ele>
        <time>2019-12-21T15:17:43Z</time>
      </trkpt>
      <trkpt lat="43.48888" lon="2.15932">
        <ele>338.52</ele>
        <time>2019-12-21T15:17:45Z</time>
      </trkpt>
      <trkpt lat="43.48896" lon="2.15923">
        <ele>338.04</ele>
        <time>2019-12-21T15:17:48Z</time>
      </trkpt>
      <trkpt lat="43.48897" lon="2.15921">
        <ele>337.08</ele>
        <time>2019-12-21T15:17:49Z</time>
      </trkpt>
      <trkpt lat="43.489" lon="2.1592">
        <ele>336.12</ele>
        <time>2019-12-21T15:17:50Z</time>
      </trkpt>
      <trkpt lat="43.48902" lon="2.15918">
        <ele>335.64</ele>
        <time>2019-12-21T15:17:51Z</time>
      </trkpt>
      <trkpt lat="43.48905" lon="2.15916">
        <ele>335.16</ele>
        <time>2019-12-21T15:17:52Z</time>
      </trkpt>
      <trkpt lat="43.48908" lon="2.15913">
        <ele>334.2</ele>
        <time>2019-12-21T15:17:53Z</time>
      </trkpt>
      <trkpt lat="43.48911" lon="2.15911">
        <ele>334.2</ele>
        <time>2019-12-21T15:17:54Z</time>
      </trkpt>
      <trkpt lat="43.48922" lon="2.15904">
        <ele>333.23</ele>
        <time>2019-12-21T15:18:00Z</time>
      </trkpt>
      <trkpt lat="43.48923" lon="2.15902">
        <ele>333.23</ele>
        <time>2019-12-21T15:18:01Z</time>
      </trkpt>
      <trkpt lat="43.48924" lon="2.15899">
        <ele>332.75</ele>
        <time>2019-12-21T15:18:02Z</time>
      </trkpt>
      <trkpt lat="43.48925" lon="2.15895">
        <ele>332.75</ele>
        <time>2019-12-21T15:18:03Z</time>
      </trkpt>
      <trkpt lat="43.48926" lon="2.15893">
        <ele>331.79</ele>
        <time>2019-12-21T15:18:04Z</time>
      </trkpt>
      <trkpt lat="43.48928" lon="2.15892">
        <ele>330.83</ele>
        <time>2019-12-21T15:18:05Z</time>
      </trkpt>
      <trkpt lat="43.4893" lon="2.15893">
        <ele>330.83</ele>
        <time>2019-12-21T15:18:06Z</time>
      </trkpt>
      <trkpt lat="43.48931" lon="2.15894">
        <ele>330.83</ele>
        <time>2019-12-21T15:18:07Z</time>
      </trkpt>
      <trkpt lat="43.48962" lon="2.15909">
        <ele>328.43</ele>
        <time>2019-12-21T15:18:16Z</time>
      </trkpt>
      <trkpt lat="43.48967" lon="2.1591">
        <ele>326.5</ele>
        <time>2019-12-21T15:18:17Z</time>
      </trkpt>
      <trkpt lat="43.48973" lon="2.1591">
        <ele>325.54</ele>
        <time>2019-12-21T15:18:18Z</time>
      </trkpt>
      <trkpt lat="43.48979" lon="2.1591">
        <ele>325.54</ele>
        <time>2019-12-21T15:18:19Z</time>
      </trkpt>
      <trkpt lat="43.48987" lon="2.1591">
        <ele>324.1</ele>
        <time>2019-12-21T15:18:20Z</time>
      </trkpt>
      <trkpt lat="43.48995" lon="2.15912">
        <ele>323.62</ele>
        <time>2019-12-21T15:18:21Z</time>
      </trkpt>
      <trkpt lat="43.49002" lon="2.15917">
        <ele>323.62</ele>
        <time>2019-12-21T15:18:22Z</time>
      </trkpt>
      <trkpt lat="43.49009" lon="2.15925">
        <ele>323.14</ele>
        <time>2019-12-21T15:18:23Z</time>
      </trkpt>
      <trkpt lat="43.49014" lon="2.15934">
        <ele>322.66</ele>
        <time>2019-12-21T15:18:24Z</time>
      </trkpt>
      <trkpt lat="43.49018" lon="2.15944">
        <ele>320.74</ele>
        <time>2019-12-21T15:18:25Z</time>
      </trkpt>
      <trkpt lat="43.49022" lon="2.15954">
        <ele>321.22</ele>
        <time>2019-12-21T15:18:26Z</time>
      </trkpt>
      <trkpt lat="43.49034" lon="2.15981">
        <ele>318.81</ele>
        <time>2019-12-21T15:18:29Z</time>
      </trkpt>
      <trkpt lat="43.49039" lon="2.1599">
        <ele>317.37</ele>
        <time>2019-12-21T15:18:30Z</time>
      </trkpt>
      <trkpt lat="43.49044" lon="2.15999">
        <ele>316.89</ele>
        <time>2019-12-21T15:18:31Z</time>
      </trkpt>
      <trkpt lat="43.49072" lon="2.16029">
        <ele>313.05</ele>
        <time>2019-12-21T15:18:35Z</time>
      </trkpt>
      <trkpt lat="43.49094" lon="2.16047">
        <ele>310.16</ele>
        <time>2019-12-21T15:18:38Z</time>
      </trkpt>
      <trkpt lat="43.49097" lon="2.16051">
        <ele>309.2</ele>
        <time>2019-12-21T15:18:39Z</time>
      </trkpt>
      <trkpt lat="43.49101" lon="2.16054">
        <ele>308.72</ele>
        <time>2019-12-21T15:18:40Z</time>
      </trkpt>
      <trkpt lat="43.49104" lon="2.16056">
        <ele>307.28</ele>
        <time>2019-12-21T15:18:41Z</time>
      </trkpt>
      <trkpt lat="43.49106" lon="2.16058">
        <ele>307.28</ele>
        <time>2019-12-21T15:18:42Z</time>
      </trkpt>
      <trkpt lat="43.49108" lon="2.16059">
        <ele>307.28</ele>
        <time>2019-12-21T15:18:43Z</time>
      </trkpt>
      <trkpt lat="43.4911" lon="2.16061">
        <ele>307.28</ele>
        <time>2019-12-21T15:18:44Z</time>
      </trkpt>
      <trkpt lat="43.49113" lon="2.16061">
        <ele>307.28</ele>
        <time>2019-12-21T15:18:45Z</time>
      </trkpt>
      <trkpt lat="43.49117" lon="2.16061">
        <ele>306.8</ele>
        <time>2019-12-21T15:18:46Z</time>
      </trkpt>
      <trkpt lat="43.49121" lon="2.1606">
        <ele>307.28</ele>
        <time>2019-12-21T15:18:47Z</time>
      </trkpt>
      <trkpt lat="43.49124" lon="2.16059">
        <ele>306.8</ele>
        <time>2019-12-21T15:18:48Z</time>
      </trkpt>
      <trkpt lat="43.4918" lon="2.1603">
        <ele>304.39</ele>
        <time>2019-12-21T15:19:00Z</time>
      </trkpt>
      <trkpt lat="43.49186" lon="2.16027">
        <ele>303.43</ele>
        <time>2019-12-21T15:19:01Z</time>
      </trkpt>
      <trkpt lat="43.49192" lon="2.16023">
        <ele>303.43</ele>
        <time>2019-12-21T15:19:02Z</time>
      </trkpt>
      <trkpt lat="43.49216" lon="2.16012">
        <ele>302.95</ele>
        <time>2019-12-21T15:19:06Z</time>
      </trkpt>
    </trkseg>
  </trk>
</gpx>